<?xml version="1.0" encoding="UTF-8" standalone="no" ?>
<gpx xmlns="http://www.topografix.com/GPX/1/1" xmlns:xsi="http://www.w3.org/2001/XMLSchema-instance" xsi:schemaLocation="http://www.topografix.com/GPX/1/1 http://www.topografix.com/GPX/1/1/gpx.xsd" version="1.1" creator="VisuGPX - https://www.visugpx.com">
  <metadata>
    <name>LGT : Pabu - Le circuit du Frout</name>
    <desc><![CDATA[Une variante assez libre du circuit du Frout au départ du bourg de Pabu qui vous emmènera visiter quelques jolis lavoirs rénovés en campagne et en forêt. Le circuit emprunte quelques parties un peu accidentées et a une longueur de 8 km.]]></desc>
  </metadata>
  <trk>
    <name><![CDATA[LGT : Pabu - Le circuit du Frout_1]]></name>
    <trkseg>
      <trkpt lat="48.5863" lon="-3.13687">
        <ele>320</ele>
        <time>2016-04-03T12:44:40.1Z</time>
      </trkpt>
      <trkpt lat="48.58632" lon="-3.13686">
        <ele>320</ele>
        <time>2016-04-03T12:44:42.1Z</time>
      </trkpt>
      <trkpt lat="48.58632" lon="-3.13685">
        <ele>320</ele>
        <time>2016-04-03T12:44:44.1Z</time>
      </trkpt>
      <trkpt lat="48.58635" lon="-3.13683">
        <ele>320</ele>
        <time>2016-04-03T12:44:47.1Z</time>
      </trkpt>
      <trkpt lat="48.58636" lon="-3.13682">
        <ele>320</ele>
        <time>2016-04-03T12:44:49.1Z</time>
      </trkpt>
      <trkpt lat="48.58637" lon="-3.13681">
        <ele>320</ele>
        <time>2016-04-03T12:44:52.1Z</time>
      </trkpt>
      <trkpt lat="48.58637" lon="-3.1368">
        <ele>319</ele>
        <time>2016-04-03T12:44:54.1Z</time>
      </trkpt>
      <trkpt lat="48.58638" lon="-3.1368">
        <ele>319</ele>
        <time>2016-04-03T12:44:57.1Z</time>
      </trkpt>
      <trkpt lat="48.58638" lon="-3.13679">
        <ele>319</ele>
        <time>2016-04-03T12:45:00.1Z</time>
      </trkpt>
      <trkpt lat="48.58638" lon="-3.13679">
        <ele>320</ele>
        <time>2016-04-03T12:45:03.1Z</time>
      </trkpt>
      <trkpt lat="48.58638" lon="-3.13677">
        <ele>320</ele>
        <time>2016-04-03T12:45:07.1Z</time>
      </trkpt>
      <trkpt lat="48.58638" lon="-3.13676">
        <ele>320</ele>
        <time>2016-04-03T12:45:10.1Z</time>
      </trkpt>
      <trkpt lat="48.58638" lon="-3.13672">
        <ele>320</ele>
        <time>2016-04-03T12:45:13.1Z</time>
      </trkpt>
      <trkpt lat="48.58638" lon="-3.13667">
        <ele>319</ele>
        <time>2016-04-03T12:45:16.1Z</time>
      </trkpt>
      <trkpt lat="48.58638" lon="-3.13664">
        <ele>319</ele>
        <time>2016-04-03T12:45:18.1Z</time>
      </trkpt>
      <trkpt lat="48.58638" lon="-3.1366">
        <ele>319</ele>
        <time>2016-04-03T12:45:21.1Z</time>
      </trkpt>
      <trkpt lat="48.58639" lon="-3.1366">
        <ele>319</ele>
        <time>2016-04-03T12:45:24.1Z</time>
      </trkpt>
      <trkpt lat="48.58639" lon="-3.13655">
        <ele>319</ele>
        <time>2016-04-03T12:45:27.1Z</time>
      </trkpt>
      <trkpt lat="48.58639" lon="-3.13651">
        <ele>319</ele>
        <time>2016-04-03T12:45:29.1Z</time>
      </trkpt>
      <trkpt lat="48.58639" lon="-3.13647">
        <ele>319</ele>
        <time>2016-04-03T12:45:31.1Z</time>
      </trkpt>
      <trkpt lat="48.5864" lon="-3.13641">
        <ele>319</ele>
        <time>2016-04-03T12:45:34.1Z</time>
      </trkpt>
      <trkpt lat="48.5864" lon="-3.13638">
        <ele>319</ele>
        <time>2016-04-03T12:45:36.1Z</time>
      </trkpt>
      <trkpt lat="48.5864" lon="-3.13632">
        <ele>319</ele>
        <time>2016-04-03T12:45:39.1Z</time>
      </trkpt>
      <trkpt lat="48.5864" lon="-3.13626">
        <ele>320</ele>
        <time>2016-04-03T12:45:42.1Z</time>
      </trkpt>
      <trkpt lat="48.58639" lon="-3.13621">
        <ele>319</ele>
        <time>2016-04-03T12:45:45.1Z</time>
      </trkpt>
      <trkpt lat="48.58639" lon="-3.13615">
        <ele>319</ele>
        <time>2016-04-03T12:45:48.1Z</time>
      </trkpt>
      <trkpt lat="48.58639" lon="-3.13612">
        <ele>319</ele>
        <time>2016-04-03T12:45:50.1Z</time>
      </trkpt>
      <trkpt lat="48.58639" lon="-3.13609">
        <ele>319</ele>
        <time>2016-04-03T12:45:52.1Z</time>
      </trkpt>
      <trkpt lat="48.58639" lon="-3.13604">
        <ele>319</ele>
        <time>2016-04-03T12:45:55.1Z</time>
      </trkpt>
      <trkpt lat="48.58638" lon="-3.13599">
        <ele>319</ele>
        <time>2016-04-03T12:45:58.1Z</time>
      </trkpt>
      <trkpt lat="48.58638" lon="-3.13596">
        <ele>319</ele>
        <time>2016-04-03T12:46:00.1Z</time>
      </trkpt>
      <trkpt lat="48.58637" lon="-3.13591">
        <ele>319</ele>
        <time>2016-04-03T12:46:03.1Z</time>
      </trkpt>
      <trkpt lat="48.58637" lon="-3.1359">
        <ele>319</ele>
        <time>2016-04-03T12:46:05.1Z</time>
      </trkpt>
      <trkpt lat="48.58637" lon="-3.13588">
        <ele>319</ele>
        <time>2016-04-03T12:46:08.1Z</time>
      </trkpt>
      <trkpt lat="48.58637" lon="-3.13585">
        <ele>319</ele>
        <time>2016-04-03T12:46:10.1Z</time>
      </trkpt>
      <trkpt lat="48.58636" lon="-3.13582">
        <ele>319</ele>
        <time>2016-04-03T12:46:12.1Z</time>
      </trkpt>
      <trkpt lat="48.58636" lon="-3.13579">
        <ele>320</ele>
        <time>2016-04-03T12:46:14.1Z</time>
      </trkpt>
      <trkpt lat="48.58636" lon="-3.13574">
        <ele>319</ele>
        <time>2016-04-03T12:46:17.1Z</time>
      </trkpt>
      <trkpt lat="48.58635" lon="-3.13571">
        <ele>319</ele>
        <time>2016-04-03T12:46:19.1Z</time>
      </trkpt>
      <trkpt lat="48.58635" lon="-3.13566">
        <ele>319</ele>
        <time>2016-04-03T12:46:22.1Z</time>
      </trkpt>
      <trkpt lat="48.58636" lon="-3.13561">
        <ele>318</ele>
        <time>2016-04-03T12:46:25.1Z</time>
      </trkpt>
      <trkpt lat="48.58636" lon="-3.13558">
        <ele>319</ele>
        <time>2016-04-03T12:46:27.1Z</time>
      </trkpt>
      <trkpt lat="48.58637" lon="-3.13553">
        <ele>318</ele>
        <time>2016-04-03T12:46:30.1Z</time>
      </trkpt>
      <trkpt lat="48.58638" lon="-3.13549">
        <ele>318</ele>
        <time>2016-04-03T12:46:33.1Z</time>
      </trkpt>
      <trkpt lat="48.58639" lon="-3.13547">
        <ele>318</ele>
        <time>2016-04-03T12:46:35.1Z</time>
      </trkpt>
      <trkpt lat="48.5864" lon="-3.13544">
        <ele>318</ele>
        <time>2016-04-03T12:46:37.1Z</time>
      </trkpt>
      <trkpt lat="48.58641" lon="-3.13539">
        <ele>318</ele>
        <time>2016-04-03T12:46:40.1Z</time>
      </trkpt>
      <trkpt lat="48.58642" lon="-3.13536">
        <ele>318</ele>
        <time>2016-04-03T12:46:42.1Z</time>
      </trkpt>
      <trkpt lat="48.58643" lon="-3.13531">
        <ele>318</ele>
        <time>2016-04-03T12:46:45.1Z</time>
      </trkpt>
      <trkpt lat="48.58643" lon="-3.13527">
        <ele>318</ele>
        <time>2016-04-03T12:46:48.1Z</time>
      </trkpt>
      <trkpt lat="48.58644" lon="-3.13521">
        <ele>319</ele>
        <time>2016-04-03T12:46:51.1Z</time>
      </trkpt>
      <trkpt lat="48.58644" lon="-3.13518">
        <ele>319</ele>
        <time>2016-04-03T12:46:53.1Z</time>
      </trkpt>
      <trkpt lat="48.58644" lon="-3.13515">
        <ele>318</ele>
        <time>2016-04-03T12:46:55.1Z</time>
      </trkpt>
      <trkpt lat="48.58645" lon="-3.1351">
        <ele>319</ele>
        <time>2016-04-03T12:46:58.1Z</time>
      </trkpt>
      <trkpt lat="48.58645" lon="-3.13507">
        <ele>318</ele>
        <time>2016-04-03T12:47:00.1Z</time>
      </trkpt>
      <trkpt lat="48.58645" lon="-3.13504">
        <ele>318</ele>
        <time>2016-04-03T12:47:02.1Z</time>
      </trkpt>
      <trkpt lat="48.58646" lon="-3.13499">
        <ele>318</ele>
        <time>2016-04-03T12:47:05.1Z</time>
      </trkpt>
      <trkpt lat="48.58646" lon="-3.13498">
        <ele>318</ele>
        <time>2016-04-03T12:47:07.1Z</time>
      </trkpt>
      <trkpt lat="48.58646" lon="-3.13497">
        <ele>318</ele>
        <time>2016-04-03T12:47:09.1Z</time>
      </trkpt>
      <trkpt lat="48.58646" lon="-3.13496">
        <ele>318</ele>
        <time>2016-04-03T12:47:12.1Z</time>
      </trkpt>
      <trkpt lat="48.58646" lon="-3.13494">
        <ele>318</ele>
        <time>2016-04-03T12:47:14.1Z</time>
      </trkpt>
      <trkpt lat="48.58647" lon="-3.13491">
        <ele>318</ele>
        <time>2016-04-03T12:47:17.1Z</time>
      </trkpt>
      <trkpt lat="48.58647" lon="-3.13489">
        <ele>318</ele>
        <time>2016-04-03T12:47:19.1Z</time>
      </trkpt>
      <trkpt lat="48.58647" lon="-3.13486">
        <ele>318</ele>
        <time>2016-04-03T12:47:22.1Z</time>
      </trkpt>
      <trkpt lat="48.58648" lon="-3.13484">
        <ele>318</ele>
        <time>2016-04-03T12:47:25.1Z</time>
      </trkpt>
      <trkpt lat="48.58648" lon="-3.13483">
        <ele>318</ele>
        <time>2016-04-03T12:47:27.1Z</time>
      </trkpt>
      <trkpt lat="48.58648" lon="-3.13483">
        <ele>318</ele>
        <time>2016-04-03T12:47:30.1Z</time>
      </trkpt>
      <trkpt lat="48.58649" lon="-3.13482">
        <ele>318</ele>
        <time>2016-04-03T12:47:33.1Z</time>
      </trkpt>
      <trkpt lat="48.58649" lon="-3.13482">
        <ele>318</ele>
        <time>2016-04-03T12:47:36.1Z</time>
      </trkpt>
      <trkpt lat="48.5865" lon="-3.13481">
        <ele>317</ele>
        <time>2016-04-03T12:47:39.1Z</time>
      </trkpt>
      <trkpt lat="48.5865" lon="-3.1348">
        <ele>318</ele>
        <time>2016-04-03T12:47:41.1Z</time>
      </trkpt>
      <trkpt lat="48.58651" lon="-3.13477">
        <ele>318</ele>
        <time>2016-04-03T12:47:44.1Z</time>
      </trkpt>
      <trkpt lat="48.58652" lon="-3.13476">
        <ele>318</ele>
        <time>2016-04-03T12:47:46.1Z</time>
      </trkpt>
      <trkpt lat="48.58654" lon="-3.13473">
        <ele>318</ele>
        <time>2016-04-03T12:47:49.1Z</time>
      </trkpt>
      <trkpt lat="48.58655" lon="-3.1347">
        <ele>318</ele>
        <time>2016-04-03T12:47:52.1Z</time>
      </trkpt>
      <trkpt lat="48.58657" lon="-3.13468">
        <ele>318</ele>
        <time>2016-04-03T12:47:54.1Z</time>
      </trkpt>
      <trkpt lat="48.58658" lon="-3.13465">
        <ele>317</ele>
        <time>2016-04-03T12:47:57.1Z</time>
      </trkpt>
      <trkpt lat="48.58659" lon="-3.13461">
        <ele>317</ele>
        <time>2016-04-03T12:48:00.1Z</time>
      </trkpt>
      <trkpt lat="48.58659" lon="-3.13458">
        <ele>317</ele>
        <time>2016-04-03T12:48:02.1Z</time>
      </trkpt>
      <trkpt lat="48.5866" lon="-3.13454">
        <ele>317</ele>
        <time>2016-04-03T12:48:05.1Z</time>
      </trkpt>
      <trkpt lat="48.58661" lon="-3.1345">
        <ele>317</ele>
        <time>2016-04-03T12:48:08.1Z</time>
      </trkpt>
      <trkpt lat="48.58661" lon="-3.13446">
        <ele>317</ele>
        <time>2016-04-03T12:48:10.1Z</time>
      </trkpt>
      <trkpt lat="48.58662" lon="-3.13442">
        <ele>316</ele>
        <time>2016-04-03T12:48:13.1Z</time>
      </trkpt>
      <trkpt lat="48.58662" lon="-3.13438">
        <ele>316</ele>
        <time>2016-04-03T12:48:16.1Z</time>
      </trkpt>
      <trkpt lat="48.58662" lon="-3.13434">
        <ele>316</ele>
        <time>2016-04-03T12:48:19.1Z</time>
      </trkpt>
      <trkpt lat="48.58662" lon="-3.1343">
        <ele>316</ele>
        <time>2016-04-03T12:48:22.1Z</time>
      </trkpt>
      <trkpt lat="48.58662" lon="-3.13428">
        <ele>316</ele>
        <time>2016-04-03T12:48:24.1Z</time>
      </trkpt>
      <trkpt lat="48.58662" lon="-3.13425">
        <ele>316</ele>
        <time>2016-04-03T12:48:27.1Z</time>
      </trkpt>
      <trkpt lat="48.58663" lon="-3.13423">
        <ele>316</ele>
        <time>2016-04-03T12:48:29.1Z</time>
      </trkpt>
      <trkpt lat="48.58665" lon="-3.13419">
        <ele>316</ele>
        <time>2016-04-03T12:48:32.1Z</time>
      </trkpt>
      <trkpt lat="48.58665" lon="-3.13416">
        <ele>316</ele>
        <time>2016-04-03T12:48:34.1Z</time>
      </trkpt>
      <trkpt lat="48.58665" lon="-3.13411">
        <ele>316</ele>
        <time>2016-04-03T12:48:37.1Z</time>
      </trkpt>
      <trkpt lat="48.58665" lon="-3.13407">
        <ele>316</ele>
        <time>2016-04-03T12:48:39.1Z</time>
      </trkpt>
      <trkpt lat="48.58666" lon="-3.13403">
        <ele>316</ele>
        <time>2016-04-03T12:48:41.1Z</time>
      </trkpt>
      <trkpt lat="48.58667" lon="-3.13398">
        <ele>316</ele>
        <time>2016-04-03T12:48:44.1Z</time>
      </trkpt>
      <trkpt lat="48.58669" lon="-3.13392">
        <ele>315</ele>
        <time>2016-04-03T12:48:47.1Z</time>
      </trkpt>
      <trkpt lat="48.58669" lon="-3.13388">
        <ele>315</ele>
        <time>2016-04-03T12:48:49.1Z</time>
      </trkpt>
      <trkpt lat="48.58669" lon="-3.13383">
        <ele>315</ele>
        <time>2016-04-03T12:48:52.1Z</time>
      </trkpt>
      <trkpt lat="48.58669" lon="-3.13378">
        <ele>315</ele>
        <time>2016-04-03T12:48:54.1Z</time>
      </trkpt>
      <trkpt lat="48.5867" lon="-3.13372">
        <ele>315</ele>
        <time>2016-04-03T12:48:57.1Z</time>
      </trkpt>
      <trkpt lat="48.58669" lon="-3.13369">
        <ele>315</ele>
        <time>2016-04-03T12:48:59.1Z</time>
      </trkpt>
      <trkpt lat="48.5867" lon="-3.13364">
        <ele>315</ele>
        <time>2016-04-03T12:49:02.1Z</time>
      </trkpt>
      <trkpt lat="48.58669" lon="-3.1336">
        <ele>315</ele>
        <time>2016-04-03T12:49:04.1Z</time>
      </trkpt>
      <trkpt lat="48.5867" lon="-3.13357">
        <ele>314</ele>
        <time>2016-04-03T12:49:06.1Z</time>
      </trkpt>
      <trkpt lat="48.5867" lon="-3.13351">
        <ele>314</ele>
        <time>2016-04-03T12:49:09.1Z</time>
      </trkpt>
      <trkpt lat="48.58669" lon="-3.13346">
        <ele>314</ele>
        <time>2016-04-03T12:49:12.1Z</time>
      </trkpt>
      <trkpt lat="48.58669" lon="-3.13344">
        <ele>313</ele>
        <time>2016-04-03T12:49:14.1Z</time>
      </trkpt>
      <trkpt lat="48.5867" lon="-3.1334">
        <ele>313</ele>
        <time>2016-04-03T12:49:17.1Z</time>
      </trkpt>
      <trkpt lat="48.58672" lon="-3.13339">
        <ele>313</ele>
        <time>2016-04-03T12:49:19.1Z</time>
      </trkpt>
      <trkpt lat="48.58674" lon="-3.13339">
        <ele>313</ele>
        <time>2016-04-03T12:49:21.1Z</time>
      </trkpt>
      <trkpt lat="48.58678" lon="-3.13339">
        <ele>313</ele>
        <time>2016-04-03T12:49:24.1Z</time>
      </trkpt>
      <trkpt lat="48.58679" lon="-3.13339">
        <ele>313</ele>
        <time>2016-04-03T12:49:26.1Z</time>
      </trkpt>
      <trkpt lat="48.58682" lon="-3.13338">
        <ele>313</ele>
        <time>2016-04-03T12:49:29.1Z</time>
      </trkpt>
      <trkpt lat="48.58684" lon="-3.13338">
        <ele>313</ele>
        <time>2016-04-03T12:49:31.1Z</time>
      </trkpt>
      <trkpt lat="48.58686" lon="-3.13339">
        <ele>313</ele>
        <time>2016-04-03T12:49:34.1Z</time>
      </trkpt>
      <trkpt lat="48.58689" lon="-3.13339">
        <ele>313</ele>
        <time>2016-04-03T12:49:36.1Z</time>
      </trkpt>
      <trkpt lat="48.58692" lon="-3.13338">
        <ele>313</ele>
        <time>2016-04-03T12:49:39.1Z</time>
      </trkpt>
      <trkpt lat="48.58694" lon="-3.13338">
        <ele>313</ele>
        <time>2016-04-03T12:49:41.1Z</time>
      </trkpt>
      <trkpt lat="48.58697" lon="-3.13337">
        <ele>313</ele>
        <time>2016-04-03T12:49:43.1Z</time>
      </trkpt>
      <trkpt lat="48.58701" lon="-3.13336">
        <ele>312</ele>
        <time>2016-04-03T12:49:46.1Z</time>
      </trkpt>
      <trkpt lat="48.58704" lon="-3.13336">
        <ele>312</ele>
        <time>2016-04-03T12:49:49.1Z</time>
      </trkpt>
      <trkpt lat="48.58707" lon="-3.13336">
        <ele>311</ele>
        <time>2016-04-03T12:49:52.1Z</time>
      </trkpt>
      <trkpt lat="48.5871" lon="-3.13335">
        <ele>311</ele>
        <time>2016-04-03T12:49:54.1Z</time>
      </trkpt>
      <trkpt lat="48.58712" lon="-3.13334">
        <ele>311</ele>
        <time>2016-04-03T12:49:56.1Z</time>
      </trkpt>
      <trkpt lat="48.58715" lon="-3.13333">
        <ele>311</ele>
        <time>2016-04-03T12:49:59.1Z</time>
      </trkpt>
      <trkpt lat="48.58719" lon="-3.13332">
        <ele>310</ele>
        <time>2016-04-03T12:50:02.1Z</time>
      </trkpt>
      <trkpt lat="48.58723" lon="-3.13331">
        <ele>310</ele>
        <time>2016-04-03T12:50:05.1Z</time>
      </trkpt>
      <trkpt lat="48.58725" lon="-3.1333">
        <ele>310</ele>
        <time>2016-04-03T12:50:07.1Z</time>
      </trkpt>
      <trkpt lat="48.58727" lon="-3.1333">
        <ele>309</ele>
        <time>2016-04-03T12:50:09.1Z</time>
      </trkpt>
      <trkpt lat="48.5873" lon="-3.13329">
        <ele>309</ele>
        <time>2016-04-03T12:50:12.1Z</time>
      </trkpt>
      <trkpt lat="48.58733" lon="-3.13328">
        <ele>309</ele>
        <time>2016-04-03T12:50:15.1Z</time>
      </trkpt>
      <trkpt lat="48.58736" lon="-3.13327">
        <ele>309</ele>
        <time>2016-04-03T12:50:18.1Z</time>
      </trkpt>
      <trkpt lat="48.58739" lon="-3.13326">
        <ele>308</ele>
        <time>2016-04-03T12:50:21.1Z</time>
      </trkpt>
      <trkpt lat="48.58742" lon="-3.13325">
        <ele>308</ele>
        <time>2016-04-03T12:50:23.1Z</time>
      </trkpt>
      <trkpt lat="48.58745" lon="-3.13324">
        <ele>308</ele>
        <time>2016-04-03T12:50:26.1Z</time>
      </trkpt>
      <trkpt lat="48.58748" lon="-3.13323">
        <ele>308</ele>
        <time>2016-04-03T12:50:28.1Z</time>
      </trkpt>
      <trkpt lat="48.58751" lon="-3.13321">
        <ele>308</ele>
        <time>2016-04-03T12:50:31.1Z</time>
      </trkpt>
      <trkpt lat="48.58754" lon="-3.1332">
        <ele>308</ele>
        <time>2016-04-03T12:50:34.1Z</time>
      </trkpt>
      <trkpt lat="48.58757" lon="-3.13319">
        <ele>308</ele>
        <time>2016-04-03T12:50:36.1Z</time>
      </trkpt>
      <trkpt lat="48.5876" lon="-3.13317">
        <ele>308</ele>
        <time>2016-04-03T12:50:39.1Z</time>
      </trkpt>
      <trkpt lat="48.58762" lon="-3.13316">
        <ele>308</ele>
        <time>2016-04-03T12:50:41.1Z</time>
      </trkpt>
      <trkpt lat="48.58766" lon="-3.13315">
        <ele>307</ele>
        <time>2016-04-03T12:50:44.1Z</time>
      </trkpt>
      <trkpt lat="48.58768" lon="-3.13314">
        <ele>307</ele>
        <time>2016-04-03T12:50:46.1Z</time>
      </trkpt>
      <trkpt lat="48.5877" lon="-3.13314">
        <ele>307</ele>
        <time>2016-04-03T12:50:48.1Z</time>
      </trkpt>
      <trkpt lat="48.58774" lon="-3.13313">
        <ele>307</ele>
        <time>2016-04-03T12:50:51.1Z</time>
      </trkpt>
      <trkpt lat="48.58777" lon="-3.13311">
        <ele>307</ele>
        <time>2016-04-03T12:50:54.1Z</time>
      </trkpt>
      <trkpt lat="48.5878" lon="-3.1331">
        <ele>307</ele>
        <time>2016-04-03T12:50:56.1Z</time>
      </trkpt>
      <trkpt lat="48.58783" lon="-3.13308">
        <ele>307</ele>
        <time>2016-04-03T12:50:59.1Z</time>
      </trkpt>
      <trkpt lat="48.58785" lon="-3.13307">
        <ele>307</ele>
        <time>2016-04-03T12:51:01.1Z</time>
      </trkpt>
      <trkpt lat="48.58789" lon="-3.13306">
        <ele>307</ele>
        <time>2016-04-03T12:51:04.1Z</time>
      </trkpt>
      <trkpt lat="48.58792" lon="-3.13304">
        <ele>306</ele>
        <time>2016-04-03T12:51:07.1Z</time>
      </trkpt>
      <trkpt lat="48.58796" lon="-3.13302">
        <ele>306</ele>
        <time>2016-04-03T12:51:10.1Z</time>
      </trkpt>
      <trkpt lat="48.58798" lon="-3.13301">
        <ele>306</ele>
        <time>2016-04-03T12:51:12.1Z</time>
      </trkpt>
      <trkpt lat="48.588" lon="-3.13301">
        <ele>306</ele>
        <time>2016-04-03T12:51:14.1Z</time>
      </trkpt>
      <trkpt lat="48.58804" lon="-3.13299">
        <ele>306</ele>
        <time>2016-04-03T12:51:17.1Z</time>
      </trkpt>
      <trkpt lat="48.58806" lon="-3.13298">
        <ele>306</ele>
        <time>2016-04-03T12:51:19.1Z</time>
      </trkpt>
      <trkpt lat="48.58809" lon="-3.13297">
        <ele>306</ele>
        <time>2016-04-03T12:51:22.1Z</time>
      </trkpt>
      <trkpt lat="48.58812" lon="-3.13295">
        <ele>306</ele>
        <time>2016-04-03T12:51:24.1Z</time>
      </trkpt>
      <trkpt lat="48.58815" lon="-3.13294">
        <ele>306</ele>
        <time>2016-04-03T12:51:27.1Z</time>
      </trkpt>
      <trkpt lat="48.58818" lon="-3.13292">
        <ele>306</ele>
        <time>2016-04-03T12:51:30.1Z</time>
      </trkpt>
      <trkpt lat="48.58821" lon="-3.1329">
        <ele>306</ele>
        <time>2016-04-03T12:51:33.1Z</time>
      </trkpt>
      <trkpt lat="48.58823" lon="-3.13289">
        <ele>306</ele>
        <time>2016-04-03T12:51:36.1Z</time>
      </trkpt>
      <trkpt lat="48.58825" lon="-3.13287">
        <ele>306</ele>
        <time>2016-04-03T12:51:38.1Z</time>
      </trkpt>
      <trkpt lat="48.58827" lon="-3.13287">
        <ele>306</ele>
        <time>2016-04-03T12:51:40.1Z</time>
      </trkpt>
      <trkpt lat="48.5883" lon="-3.13285">
        <ele>306</ele>
        <time>2016-04-03T12:51:43.1Z</time>
      </trkpt>
      <trkpt lat="48.58833" lon="-3.13284">
        <ele>306</ele>
        <time>2016-04-03T12:51:45.1Z</time>
      </trkpt>
      <trkpt lat="48.58836" lon="-3.13283">
        <ele>306</ele>
        <time>2016-04-03T12:51:47.1Z</time>
      </trkpt>
      <trkpt lat="48.58839" lon="-3.13282">
        <ele>306</ele>
        <time>2016-04-03T12:51:50.1Z</time>
      </trkpt>
      <trkpt lat="48.58841" lon="-3.13281">
        <ele>306</ele>
        <time>2016-04-03T12:51:52.1Z</time>
      </trkpt>
      <trkpt lat="48.58842" lon="-3.13281">
        <ele>306</ele>
        <time>2016-04-03T12:51:54.1Z</time>
      </trkpt>
      <trkpt lat="48.58845" lon="-3.13279">
        <ele>306</ele>
        <time>2016-04-03T12:51:56.1Z</time>
      </trkpt>
      <trkpt lat="48.58847" lon="-3.1328">
        <ele>306</ele>
        <time>2016-04-03T12:51:59.1Z</time>
      </trkpt>
      <trkpt lat="48.58849" lon="-3.13279">
        <ele>306</ele>
        <time>2016-04-03T12:52:01.1Z</time>
      </trkpt>
      <trkpt lat="48.58852" lon="-3.13277">
        <ele>306</ele>
        <time>2016-04-03T12:52:04.1Z</time>
      </trkpt>
      <trkpt lat="48.58855" lon="-3.13275">
        <ele>307</ele>
        <time>2016-04-03T12:52:07.1Z</time>
      </trkpt>
      <trkpt lat="48.58858" lon="-3.13273">
        <ele>306</ele>
        <time>2016-04-03T12:52:10.1Z</time>
      </trkpt>
      <trkpt lat="48.58861" lon="-3.13271">
        <ele>307</ele>
        <time>2016-04-03T12:52:13.1Z</time>
      </trkpt>
      <trkpt lat="48.58864" lon="-3.1327">
        <ele>306</ele>
        <time>2016-04-03T12:52:16.1Z</time>
      </trkpt>
      <trkpt lat="48.58867" lon="-3.13267">
        <ele>306</ele>
        <time>2016-04-03T12:52:19.1Z</time>
      </trkpt>
      <trkpt lat="48.58869" lon="-3.13266">
        <ele>306</ele>
        <time>2016-04-03T12:52:21.1Z</time>
      </trkpt>
      <trkpt lat="48.58872" lon="-3.13264">
        <ele>306</ele>
        <time>2016-04-03T12:52:24.1Z</time>
      </trkpt>
      <trkpt lat="48.58874" lon="-3.13262">
        <ele>306</ele>
        <time>2016-04-03T12:52:26.1Z</time>
      </trkpt>
      <trkpt lat="48.58876" lon="-3.13259">
        <ele>306</ele>
        <time>2016-04-03T12:52:29.1Z</time>
      </trkpt>
      <trkpt lat="48.58878" lon="-3.13257">
        <ele>306</ele>
        <time>2016-04-03T12:52:31.1Z</time>
      </trkpt>
      <trkpt lat="48.58881" lon="-3.13254">
        <ele>306</ele>
        <time>2016-04-03T12:52:34.1Z</time>
      </trkpt>
      <trkpt lat="48.58882" lon="-3.13252">
        <ele>306</ele>
        <time>2016-04-03T12:52:36.1Z</time>
      </trkpt>
      <trkpt lat="48.58885" lon="-3.13249">
        <ele>306</ele>
        <time>2016-04-03T12:52:39.1Z</time>
      </trkpt>
      <trkpt lat="48.58886" lon="-3.13247">
        <ele>306</ele>
        <time>2016-04-03T12:52:41.1Z</time>
      </trkpt>
      <trkpt lat="48.58888" lon="-3.13242">
        <ele>306</ele>
        <time>2016-04-03T12:52:44.1Z</time>
      </trkpt>
      <trkpt lat="48.58889" lon="-3.13239">
        <ele>306</ele>
        <time>2016-04-03T12:52:46.1Z</time>
      </trkpt>
      <trkpt lat="48.58891" lon="-3.13235">
        <ele>306</ele>
        <time>2016-04-03T12:52:48.1Z</time>
      </trkpt>
      <trkpt lat="48.58893" lon="-3.13232">
        <ele>306</ele>
        <time>2016-04-03T12:52:51.1Z</time>
      </trkpt>
      <trkpt lat="48.58895" lon="-3.13229">
        <ele>307</ele>
        <time>2016-04-03T12:52:54.1Z</time>
      </trkpt>
      <trkpt lat="48.58898" lon="-3.13226">
        <ele>306</ele>
        <time>2016-04-03T12:52:57.1Z</time>
      </trkpt>
      <trkpt lat="48.58899" lon="-3.13224">
        <ele>307</ele>
        <time>2016-04-03T12:52:59.1Z</time>
      </trkpt>
      <trkpt lat="48.589" lon="-3.13221">
        <ele>307</ele>
        <time>2016-04-03T12:53:02.1Z</time>
      </trkpt>
      <trkpt lat="48.58901" lon="-3.1322">
        <ele>307</ele>
        <time>2016-04-03T12:53:04.1Z</time>
      </trkpt>
      <trkpt lat="48.58901" lon="-3.13218">
        <ele>307</ele>
        <time>2016-04-03T12:53:06.1Z</time>
      </trkpt>
      <trkpt lat="48.58904" lon="-3.13216">
        <ele>307</ele>
        <time>2016-04-03T12:53:09.1Z</time>
      </trkpt>
      <trkpt lat="48.58904" lon="-3.13212">
        <ele>307</ele>
        <time>2016-04-03T12:53:12.1Z</time>
      </trkpt>
      <trkpt lat="48.58904" lon="-3.13209">
        <ele>307</ele>
        <time>2016-04-03T12:53:14.1Z</time>
      </trkpt>
      <trkpt lat="48.58903" lon="-3.13207">
        <ele>307</ele>
        <time>2016-04-03T12:53:16.1Z</time>
      </trkpt>
      <trkpt lat="48.58903" lon="-3.13203">
        <ele>307</ele>
        <time>2016-04-03T12:53:19.1Z</time>
      </trkpt>
      <trkpt lat="48.58902" lon="-3.132">
        <ele>307</ele>
        <time>2016-04-03T12:53:21.1Z</time>
      </trkpt>
      <trkpt lat="48.58901" lon="-3.13197">
        <ele>307</ele>
        <time>2016-04-03T12:53:24.1Z</time>
      </trkpt>
      <trkpt lat="48.589" lon="-3.13193">
        <ele>307</ele>
        <time>2016-04-03T12:53:27.1Z</time>
      </trkpt>
      <trkpt lat="48.58899" lon="-3.13188">
        <ele>307</ele>
        <time>2016-04-03T12:53:30.1Z</time>
      </trkpt>
      <trkpt lat="48.58897" lon="-3.13186">
        <ele>306</ele>
        <time>2016-04-03T12:53:32.1Z</time>
      </trkpt>
      <trkpt lat="48.58897" lon="-3.13183">
        <ele>306</ele>
        <time>2016-04-03T12:53:34.1Z</time>
      </trkpt>
      <trkpt lat="48.58895" lon="-3.13179">
        <ele>306</ele>
        <time>2016-04-03T12:53:37.1Z</time>
      </trkpt>
      <trkpt lat="48.58894" lon="-3.13176">
        <ele>306</ele>
        <time>2016-04-03T12:53:39.1Z</time>
      </trkpt>
      <trkpt lat="48.58893" lon="-3.13173">
        <ele>306</ele>
        <time>2016-04-03T12:53:41.1Z</time>
      </trkpt>
      <trkpt lat="48.58892" lon="-3.13169">
        <ele>306</ele>
        <time>2016-04-03T12:53:44.1Z</time>
      </trkpt>
      <trkpt lat="48.58891" lon="-3.13166">
        <ele>306</ele>
        <time>2016-04-03T12:53:46.1Z</time>
      </trkpt>
      <trkpt lat="48.58889" lon="-3.13162">
        <ele>306</ele>
        <time>2016-04-03T12:53:49.1Z</time>
      </trkpt>
      <trkpt lat="48.58887" lon="-3.13158">
        <ele>306</ele>
        <time>2016-04-03T12:53:52.1Z</time>
      </trkpt>
      <trkpt lat="48.58886" lon="-3.13157">
        <ele>305</ele>
        <time>2016-04-03T12:53:54.1Z</time>
      </trkpt>
      <trkpt lat="48.58885" lon="-3.13154">
        <ele>305</ele>
        <time>2016-04-03T12:53:56.1Z</time>
      </trkpt>
      <trkpt lat="48.58884" lon="-3.13153">
        <ele>305</ele>
        <time>2016-04-03T12:53:58.1Z</time>
      </trkpt>
      <trkpt lat="48.58882" lon="-3.13149">
        <ele>305</ele>
        <time>2016-04-03T12:54:01.1Z</time>
      </trkpt>
      <trkpt lat="48.58881" lon="-3.13147">
        <ele>305</ele>
        <time>2016-04-03T12:54:03.1Z</time>
      </trkpt>
      <trkpt lat="48.58878" lon="-3.13144">
        <ele>305</ele>
        <time>2016-04-03T12:54:06.1Z</time>
      </trkpt>
      <trkpt lat="48.58877" lon="-3.13142">
        <ele>305</ele>
        <time>2016-04-03T12:54:08.1Z</time>
      </trkpt>
      <trkpt lat="48.58875" lon="-3.1314">
        <ele>305</ele>
        <time>2016-04-03T12:54:10.1Z</time>
      </trkpt>
      <trkpt lat="48.58873" lon="-3.13139">
        <ele>305</ele>
        <time>2016-04-03T12:54:12.1Z</time>
      </trkpt>
      <trkpt lat="48.58871" lon="-3.13135">
        <ele>305</ele>
        <time>2016-04-03T12:54:15.1Z</time>
      </trkpt>
      <trkpt lat="48.58869" lon="-3.13133">
        <ele>305</ele>
        <time>2016-04-03T12:54:17.1Z</time>
      </trkpt>
      <trkpt lat="48.58868" lon="-3.13132">
        <ele>305</ele>
        <time>2016-04-03T12:54:19.1Z</time>
      </trkpt>
      <trkpt lat="48.58866" lon="-3.1313">
        <ele>305</ele>
        <time>2016-04-03T12:54:21.1Z</time>
      </trkpt>
      <trkpt lat="48.58863" lon="-3.13127">
        <ele>305</ele>
        <time>2016-04-03T12:54:24.1Z</time>
      </trkpt>
      <trkpt lat="48.5886" lon="-3.13124">
        <ele>305</ele>
        <time>2016-04-03T12:54:27.1Z</time>
      </trkpt>
      <trkpt lat="48.58858" lon="-3.13123">
        <ele>305</ele>
        <time>2016-04-03T12:54:29.1Z</time>
      </trkpt>
      <trkpt lat="48.58855" lon="-3.13121">
        <ele>305</ele>
        <time>2016-04-03T12:54:32.1Z</time>
      </trkpt>
      <trkpt lat="48.58854" lon="-3.1312">
        <ele>304</ele>
        <time>2016-04-03T12:54:34.1Z</time>
      </trkpt>
      <trkpt lat="48.58852" lon="-3.13119">
        <ele>304</ele>
        <time>2016-04-03T12:54:36.1Z</time>
      </trkpt>
      <trkpt lat="48.58849" lon="-3.13117">
        <ele>304</ele>
        <time>2016-04-03T12:54:39.1Z</time>
      </trkpt>
      <trkpt lat="48.58847" lon="-3.13116">
        <ele>304</ele>
        <time>2016-04-03T12:54:41.1Z</time>
      </trkpt>
      <trkpt lat="48.58844" lon="-3.13115">
        <ele>304</ele>
        <time>2016-04-03T12:54:43.1Z</time>
      </trkpt>
      <trkpt lat="48.58841" lon="-3.13114">
        <ele>304</ele>
        <time>2016-04-03T12:54:46.1Z</time>
      </trkpt>
      <trkpt lat="48.58838" lon="-3.13113">
        <ele>304</ele>
        <time>2016-04-03T12:54:49.1Z</time>
      </trkpt>
      <trkpt lat="48.58835" lon="-3.13112">
        <ele>304</ele>
        <time>2016-04-03T12:54:51.1Z</time>
      </trkpt>
      <trkpt lat="48.58833" lon="-3.1311">
        <ele>303</ele>
        <time>2016-04-03T12:54:54.1Z</time>
      </trkpt>
      <trkpt lat="48.5883" lon="-3.1311">
        <ele>303</ele>
        <time>2016-04-03T12:54:57.1Z</time>
      </trkpt>
      <trkpt lat="48.58828" lon="-3.1311">
        <ele>302</ele>
        <time>2016-04-03T12:54:59.1Z</time>
      </trkpt>
      <trkpt lat="48.58826" lon="-3.1311">
        <ele>303</ele>
        <time>2016-04-03T12:55:02.1Z</time>
      </trkpt>
      <trkpt lat="48.58825" lon="-3.13109">
        <ele>303</ele>
        <time>2016-04-03T12:55:05.1Z</time>
      </trkpt>
      <trkpt lat="48.58824" lon="-3.13108">
        <ele>303</ele>
        <time>2016-04-03T12:55:07.1Z</time>
      </trkpt>
      <trkpt lat="48.58823" lon="-3.13107">
        <ele>303</ele>
        <time>2016-04-03T12:55:09.1Z</time>
      </trkpt>
      <trkpt lat="48.5882" lon="-3.13106">
        <ele>302</ele>
        <time>2016-04-03T12:55:12.1Z</time>
      </trkpt>
      <trkpt lat="48.58819" lon="-3.13105">
        <ele>301</ele>
        <time>2016-04-03T12:55:15.1Z</time>
      </trkpt>
      <trkpt lat="48.58818" lon="-3.13105">
        <ele>301</ele>
        <time>2016-04-03T12:55:18.1Z</time>
      </trkpt>
      <trkpt lat="48.58815" lon="-3.13104">
        <ele>301</ele>
        <time>2016-04-03T12:55:21.1Z</time>
      </trkpt>
      <trkpt lat="48.58813" lon="-3.13104">
        <ele>301</ele>
        <time>2016-04-03T12:55:23.1Z</time>
      </trkpt>
      <trkpt lat="48.58811" lon="-3.13104">
        <ele>300</ele>
        <time>2016-04-03T12:55:25.1Z</time>
      </trkpt>
      <trkpt lat="48.58809" lon="-3.13103">
        <ele>300</ele>
        <time>2016-04-03T12:55:28.1Z</time>
      </trkpt>
      <trkpt lat="48.58807" lon="-3.13102">
        <ele>299</ele>
        <time>2016-04-03T12:55:30.1Z</time>
      </trkpt>
      <trkpt lat="48.58804" lon="-3.13101">
        <ele>299</ele>
        <time>2016-04-03T12:55:33.1Z</time>
      </trkpt>
      <trkpt lat="48.58802" lon="-3.13099">
        <ele>299</ele>
        <time>2016-04-03T12:55:35.1Z</time>
      </trkpt>
      <trkpt lat="48.588" lon="-3.13099">
        <ele>299</ele>
        <time>2016-04-03T12:55:37.1Z</time>
      </trkpt>
      <trkpt lat="48.58797" lon="-3.13098">
        <ele>298</ele>
        <time>2016-04-03T12:55:40.1Z</time>
      </trkpt>
      <trkpt lat="48.58796" lon="-3.13097">
        <ele>298</ele>
        <time>2016-04-03T12:55:42.1Z</time>
      </trkpt>
      <trkpt lat="48.58795" lon="-3.13096">
        <ele>297</ele>
        <time>2016-04-03T12:55:44.1Z</time>
      </trkpt>
      <trkpt lat="48.58794" lon="-3.13096">
        <ele>297</ele>
        <time>2016-04-03T12:55:47.1Z</time>
      </trkpt>
      <trkpt lat="48.58791" lon="-3.13094">
        <ele>297</ele>
        <time>2016-04-03T12:55:50.1Z</time>
      </trkpt>
      <trkpt lat="48.58788" lon="-3.13094">
        <ele>297</ele>
        <time>2016-04-03T12:55:53.1Z</time>
      </trkpt>
      <trkpt lat="48.58784" lon="-3.13093">
        <ele>297</ele>
        <time>2016-04-03T12:55:55.1Z</time>
      </trkpt>
      <trkpt lat="48.58783" lon="-3.13092">
        <ele>297</ele>
        <time>2016-04-03T12:55:57.1Z</time>
      </trkpt>
      <trkpt lat="48.58781" lon="-3.13091">
        <ele>297</ele>
        <time>2016-04-03T12:56:00.1Z</time>
      </trkpt>
      <trkpt lat="48.58778" lon="-3.13091">
        <ele>296</ele>
        <time>2016-04-03T12:56:03.1Z</time>
      </trkpt>
      <trkpt lat="48.58776" lon="-3.1309">
        <ele>296</ele>
        <time>2016-04-03T12:56:05.1Z</time>
      </trkpt>
      <trkpt lat="48.58773" lon="-3.13089">
        <ele>296</ele>
        <time>2016-04-03T12:56:08.1Z</time>
      </trkpt>
      <trkpt lat="48.58771" lon="-3.13089">
        <ele>296</ele>
        <time>2016-04-03T12:56:10.1Z</time>
      </trkpt>
      <trkpt lat="48.58769" lon="-3.13088">
        <ele>296</ele>
        <time>2016-04-03T12:56:13.1Z</time>
      </trkpt>
      <trkpt lat="48.58765" lon="-3.13087">
        <ele>295</ele>
        <time>2016-04-03T12:56:16.1Z</time>
      </trkpt>
      <trkpt lat="48.58763" lon="-3.13087">
        <ele>296</ele>
        <time>2016-04-03T12:56:18.1Z</time>
      </trkpt>
      <trkpt lat="48.5876" lon="-3.13086">
        <ele>296</ele>
        <time>2016-04-03T12:56:21.1Z</time>
      </trkpt>
      <trkpt lat="48.58759" lon="-3.13086">
        <ele>296</ele>
        <time>2016-04-03T12:56:23.1Z</time>
      </trkpt>
      <trkpt lat="48.58759" lon="-3.13087">
        <ele>296</ele>
        <time>2016-04-03T12:56:26.1Z</time>
      </trkpt>
      <trkpt lat="48.58759" lon="-3.13088">
        <ele>296</ele>
        <time>2016-04-03T12:56:29.1Z</time>
      </trkpt>
      <trkpt lat="48.58759" lon="-3.13088">
        <ele>296</ele>
        <time>2016-04-03T12:56:31.1Z</time>
      </trkpt>
      <trkpt lat="48.58759" lon="-3.13091">
        <ele>295</ele>
        <time>2016-04-03T12:56:34.1Z</time>
      </trkpt>
      <trkpt lat="48.58758" lon="-3.13092">
        <ele>295</ele>
        <time>2016-04-03T12:56:37.1Z</time>
      </trkpt>
      <trkpt lat="48.58758" lon="-3.13092">
        <ele>295</ele>
        <time>2016-04-03T12:56:39.1Z</time>
      </trkpt>
      <trkpt lat="48.58757" lon="-3.13093">
        <ele>295</ele>
        <time>2016-04-03T12:56:42.1Z</time>
      </trkpt>
      <trkpt lat="48.58757" lon="-3.13095">
        <ele>295</ele>
        <time>2016-04-03T12:56:44.1Z</time>
      </trkpt>
      <trkpt lat="48.58757" lon="-3.13097">
        <ele>295</ele>
        <time>2016-04-03T12:56:47.1Z</time>
      </trkpt>
      <trkpt lat="48.58757" lon="-3.13099">
        <ele>295</ele>
        <time>2016-04-03T12:56:49.1Z</time>
      </trkpt>
      <trkpt lat="48.58758" lon="-3.13101">
        <ele>295</ele>
        <time>2016-04-03T12:56:51.1Z</time>
      </trkpt>
      <trkpt lat="48.58758" lon="-3.13103">
        <ele>295</ele>
        <time>2016-04-03T12:56:54.1Z</time>
      </trkpt>
      <trkpt lat="48.58758" lon="-3.13105">
        <ele>295</ele>
        <time>2016-04-03T12:56:56.1Z</time>
      </trkpt>
      <trkpt lat="48.58757" lon="-3.13108">
        <ele>295</ele>
        <time>2016-04-03T12:56:58.1Z</time>
      </trkpt>
      <trkpt lat="48.58757" lon="-3.13112">
        <ele>296</ele>
        <time>2016-04-03T12:57:01.1Z</time>
      </trkpt>
      <trkpt lat="48.58757" lon="-3.13115">
        <ele>296</ele>
        <time>2016-04-03T12:57:04.1Z</time>
      </trkpt>
      <trkpt lat="48.58757" lon="-3.13117">
        <ele>296</ele>
        <time>2016-04-03T12:57:06.1Z</time>
      </trkpt>
      <trkpt lat="48.58758" lon="-3.13118">
        <ele>296</ele>
        <time>2016-04-03T12:57:08.1Z</time>
      </trkpt>
      <trkpt lat="48.58758" lon="-3.13121">
        <ele>296</ele>
        <time>2016-04-03T12:57:10.1Z</time>
      </trkpt>
      <trkpt lat="48.58759" lon="-3.13125">
        <ele>296</ele>
        <time>2016-04-03T12:57:13.1Z</time>
      </trkpt>
      <trkpt lat="48.58758" lon="-3.13128">
        <ele>296</ele>
        <time>2016-04-03T12:57:16.1Z</time>
      </trkpt>
      <trkpt lat="48.58758" lon="-3.13131">
        <ele>297</ele>
        <time>2016-04-03T12:57:18.1Z</time>
      </trkpt>
      <trkpt lat="48.58758" lon="-3.13133">
        <ele>297</ele>
        <time>2016-04-03T12:57:20.1Z</time>
      </trkpt>
      <trkpt lat="48.58757" lon="-3.13136">
        <ele>297</ele>
        <time>2016-04-03T12:57:23.1Z</time>
      </trkpt>
      <trkpt lat="48.58757" lon="-3.13139">
        <ele>297</ele>
        <time>2016-04-03T12:57:25.1Z</time>
      </trkpt>
      <trkpt lat="48.58756" lon="-3.13143">
        <ele>297</ele>
        <time>2016-04-03T12:57:28.1Z</time>
      </trkpt>
      <trkpt lat="48.58755" lon="-3.13147">
        <ele>297</ele>
        <time>2016-04-03T12:57:31.1Z</time>
      </trkpt>
      <trkpt lat="48.58753" lon="-3.13152">
        <ele>297</ele>
        <time>2016-04-03T12:57:34.1Z</time>
      </trkpt>
      <trkpt lat="48.58753" lon="-3.13154">
        <ele>297</ele>
        <time>2016-04-03T12:57:36.1Z</time>
      </trkpt>
      <trkpt lat="48.58752" lon="-3.13157">
        <ele>297</ele>
        <time>2016-04-03T12:57:38.1Z</time>
      </trkpt>
      <trkpt lat="48.58751" lon="-3.13159">
        <ele>297</ele>
        <time>2016-04-03T12:57:40.1Z</time>
      </trkpt>
      <trkpt lat="48.58749" lon="-3.13164">
        <ele>297</ele>
        <time>2016-04-03T12:57:43.1Z</time>
      </trkpt>
      <trkpt lat="48.58746" lon="-3.13169">
        <ele>297</ele>
        <time>2016-04-03T12:57:46.1Z</time>
      </trkpt>
      <trkpt lat="48.58744" lon="-3.13174">
        <ele>297</ele>
        <time>2016-04-03T12:57:49.1Z</time>
      </trkpt>
      <trkpt lat="48.58743" lon="-3.13177">
        <ele>297</ele>
        <time>2016-04-03T12:57:51.1Z</time>
      </trkpt>
      <trkpt lat="48.58742" lon="-3.13182">
        <ele>298</ele>
        <time>2016-04-03T12:57:54.1Z</time>
      </trkpt>
      <trkpt lat="48.58741" lon="-3.13185">
        <ele>298</ele>
        <time>2016-04-03T12:57:56.1Z</time>
      </trkpt>
      <trkpt lat="48.58739" lon="-3.13189">
        <ele>298</ele>
        <time>2016-04-03T12:57:59.1Z</time>
      </trkpt>
      <trkpt lat="48.58737" lon="-3.13192">
        <ele>298</ele>
        <time>2016-04-03T12:58:02.1Z</time>
      </trkpt>
      <trkpt lat="48.58736" lon="-3.13195">
        <ele>298</ele>
        <time>2016-04-03T12:58:04.1Z</time>
      </trkpt>
      <trkpt lat="48.58734" lon="-3.13199">
        <ele>299</ele>
        <time>2016-04-03T12:58:07.1Z</time>
      </trkpt>
      <trkpt lat="48.58733" lon="-3.13203">
        <ele>299</ele>
        <time>2016-04-03T12:58:09.1Z</time>
      </trkpt>
      <trkpt lat="48.58731" lon="-3.13205">
        <ele>299</ele>
        <time>2016-04-03T12:58:12.1Z</time>
      </trkpt>
      <trkpt lat="48.58729" lon="-3.13207">
        <ele>299</ele>
        <time>2016-04-03T12:58:14.1Z</time>
      </trkpt>
      <trkpt lat="48.58727" lon="-3.1321">
        <ele>300</ele>
        <time>2016-04-03T12:58:17.1Z</time>
      </trkpt>
      <trkpt lat="48.58726" lon="-3.13212">
        <ele>300</ele>
        <time>2016-04-03T12:58:19.1Z</time>
      </trkpt>
      <trkpt lat="48.58725" lon="-3.13213">
        <ele>300</ele>
        <time>2016-04-03T12:58:21.1Z</time>
      </trkpt>
      <trkpt lat="48.58723" lon="-3.13215">
        <ele>300</ele>
        <time>2016-04-03T12:58:23.1Z</time>
      </trkpt>
      <trkpt lat="48.58722" lon="-3.13218">
        <ele>300</ele>
        <time>2016-04-03T12:58:26.1Z</time>
      </trkpt>
      <trkpt lat="48.5872" lon="-3.1322">
        <ele>299</ele>
        <time>2016-04-03T12:58:28.1Z</time>
      </trkpt>
      <trkpt lat="48.5872" lon="-3.13222">
        <ele>299</ele>
        <time>2016-04-03T12:58:31.1Z</time>
      </trkpt>
      <trkpt lat="48.58719" lon="-3.13226">
        <ele>299</ele>
        <time>2016-04-03T12:58:34.1Z</time>
      </trkpt>
      <trkpt lat="48.58719" lon="-3.13228">
        <ele>299</ele>
        <time>2016-04-03T12:58:36.1Z</time>
      </trkpt>
      <trkpt lat="48.58718" lon="-3.1323">
        <ele>300</ele>
        <time>2016-04-03T12:58:39.1Z</time>
      </trkpt>
      <trkpt lat="48.58718" lon="-3.13231">
        <ele>300</ele>
        <time>2016-04-03T12:58:41.1Z</time>
      </trkpt>
      <trkpt lat="48.58717" lon="-3.13233">
        <ele>301</ele>
        <time>2016-04-03T12:58:44.1Z</time>
      </trkpt>
      <trkpt lat="48.58717" lon="-3.13235">
        <ele>301</ele>
        <time>2016-04-03T12:58:47.1Z</time>
      </trkpt>
      <trkpt lat="48.58716" lon="-3.13236">
        <ele>300</ele>
        <time>2016-04-03T12:58:49.1Z</time>
      </trkpt>
      <trkpt lat="48.58715" lon="-3.13238">
        <ele>300</ele>
        <time>2016-04-03T12:58:51.1Z</time>
      </trkpt>
      <trkpt lat="48.58714" lon="-3.1324">
        <ele>300</ele>
        <time>2016-04-03T12:58:54.1Z</time>
      </trkpt>
      <trkpt lat="48.58712" lon="-3.13241">
        <ele>301</ele>
        <time>2016-04-03T12:58:56.1Z</time>
      </trkpt>
      <trkpt lat="48.58712" lon="-3.13242">
        <ele>301</ele>
        <time>2016-04-03T12:58:58.1Z</time>
      </trkpt>
      <trkpt lat="48.58709" lon="-3.13244">
        <ele>301</ele>
        <time>2016-04-03T12:59:01.1Z</time>
      </trkpt>
      <trkpt lat="48.58707" lon="-3.13246">
        <ele>301</ele>
        <time>2016-04-03T12:59:04.1Z</time>
      </trkpt>
      <trkpt lat="48.58706" lon="-3.13249">
        <ele>301</ele>
        <time>2016-04-03T12:59:07.1Z</time>
      </trkpt>
      <trkpt lat="48.58706" lon="-3.13251">
        <ele>301</ele>
        <time>2016-04-03T12:59:09.1Z</time>
      </trkpt>
      <trkpt lat="48.58704" lon="-3.13252">
        <ele>302</ele>
        <time>2016-04-03T12:59:12.1Z</time>
      </trkpt>
      <trkpt lat="48.58703" lon="-3.13253">
        <ele>302</ele>
        <time>2016-04-03T12:59:14.1Z</time>
      </trkpt>
      <trkpt lat="48.58702" lon="-3.13252">
        <ele>302</ele>
        <time>2016-04-03T12:59:17.1Z</time>
      </trkpt>
      <trkpt lat="48.58702" lon="-3.13253">
        <ele>302</ele>
        <time>2016-04-03T12:59:21.1Z</time>
      </trkpt>
      <trkpt lat="48.58703" lon="-3.13252">
        <ele>302</ele>
        <time>2016-04-03T12:59:24.1Z</time>
      </trkpt>
      <trkpt lat="48.58703" lon="-3.13251">
        <ele>302</ele>
        <time>2016-04-03T12:59:27.1Z</time>
      </trkpt>
      <trkpt lat="48.58704" lon="-3.1325">
        <ele>302</ele>
        <time>2016-04-03T12:59:30.1Z</time>
      </trkpt>
      <trkpt lat="48.58704" lon="-3.13249">
        <ele>301</ele>
        <time>2016-04-03T12:59:32.1Z</time>
      </trkpt>
      <trkpt lat="48.58704" lon="-3.13249">
        <ele>301</ele>
        <time>2016-04-03T12:59:35.1Z</time>
      </trkpt>
      <trkpt lat="48.58704" lon="-3.13249">
        <ele>300</ele>
        <time>2016-04-03T12:59:40.1Z</time>
      </trkpt>
      <trkpt lat="48.58704" lon="-3.1325">
        <ele>300</ele>
        <time>2016-04-03T12:59:43.1Z</time>
      </trkpt>
      <trkpt lat="48.58705" lon="-3.1325">
        <ele>300</ele>
        <time>2016-04-03T12:59:45.1Z</time>
      </trkpt>
      <trkpt lat="48.58705" lon="-3.1325">
        <ele>300</ele>
        <time>2016-04-03T12:59:48.1Z</time>
      </trkpt>
      <trkpt lat="48.58704" lon="-3.1325">
        <ele>300</ele>
        <time>2016-04-03T12:59:50.1Z</time>
      </trkpt>
      <trkpt lat="48.58704" lon="-3.13251">
        <ele>300</ele>
        <time>2016-04-03T12:59:53.1Z</time>
      </trkpt>
      <trkpt lat="48.58704" lon="-3.13251">
        <ele>300</ele>
        <time>2016-04-03T12:59:56.1Z</time>
      </trkpt>
      <trkpt lat="48.58704" lon="-3.13252">
        <ele>300</ele>
        <time>2016-04-03T12:59:58.1Z</time>
      </trkpt>
      <trkpt lat="48.58703" lon="-3.13253">
        <ele>300</ele>
        <time>2016-04-03T13:00:02.1Z</time>
      </trkpt>
      <trkpt lat="48.58703" lon="-3.13254">
        <ele>300</ele>
        <time>2016-04-03T13:00:04.1Z</time>
      </trkpt>
      <trkpt lat="48.58703" lon="-3.13254">
        <ele>300</ele>
        <time>2016-04-03T13:00:07.1Z</time>
      </trkpt>
      <trkpt lat="48.58704" lon="-3.13255">
        <ele>300</ele>
        <time>2016-04-03T13:00:10.1Z</time>
      </trkpt>
      <trkpt lat="48.58704" lon="-3.13256">
        <ele>300</ele>
        <time>2016-04-03T13:00:12.1Z</time>
      </trkpt>
      <trkpt lat="48.58704" lon="-3.13257">
        <ele>300</ele>
        <time>2016-04-03T13:00:14.1Z</time>
      </trkpt>
      <trkpt lat="48.58705" lon="-3.13257">
        <ele>300</ele>
        <time>2016-04-03T13:00:16.1Z</time>
      </trkpt>
      <trkpt lat="48.58705" lon="-3.13257">
        <ele>300</ele>
        <time>2016-04-03T13:00:18.1Z</time>
      </trkpt>
      <trkpt lat="48.58704" lon="-3.13257">
        <ele>300</ele>
        <time>2016-04-03T13:00:21.1Z</time>
      </trkpt>
      <trkpt lat="48.58704" lon="-3.13257">
        <ele>300</ele>
        <time>2016-04-03T13:00:25.1Z</time>
      </trkpt>
      <trkpt lat="48.58705" lon="-3.13257">
        <ele>300</ele>
        <time>2016-04-03T13:00:28.1Z</time>
      </trkpt>
      <trkpt lat="48.58705" lon="-3.13257">
        <ele>300</ele>
        <time>2016-04-03T13:00:30.1Z</time>
      </trkpt>
      <trkpt lat="48.58704" lon="-3.13258">
        <ele>300</ele>
        <time>2016-04-03T13:00:33.1Z</time>
      </trkpt>
      <trkpt lat="48.58704" lon="-3.13258">
        <ele>300</ele>
        <time>2016-04-03T13:00:35.1Z</time>
      </trkpt>
      <trkpt lat="48.58703" lon="-3.13258">
        <ele>299</ele>
        <time>2016-04-03T13:00:37.1Z</time>
      </trkpt>
      <trkpt lat="48.58703" lon="-3.13258">
        <ele>299</ele>
        <time>2016-04-03T13:00:39.1Z</time>
      </trkpt>
      <trkpt lat="48.58703" lon="-3.13257">
        <ele>300</ele>
        <time>2016-04-03T13:00:42.1Z</time>
      </trkpt>
      <trkpt lat="48.58703" lon="-3.13257">
        <ele>300</ele>
        <time>2016-04-03T13:00:45.1Z</time>
      </trkpt>
      <trkpt lat="48.58703" lon="-3.13257">
        <ele>300</ele>
        <time>2016-04-03T13:00:48.1Z</time>
      </trkpt>
      <trkpt lat="48.58702" lon="-3.13257">
        <ele>300</ele>
        <time>2016-04-03T13:00:51.1Z</time>
      </trkpt>
      <trkpt lat="48.58702" lon="-3.13256">
        <ele>300</ele>
        <time>2016-04-03T13:00:54.1Z</time>
      </trkpt>
      <trkpt lat="48.58702" lon="-3.13256">
        <ele>300</ele>
        <time>2016-04-03T13:00:57.1Z</time>
      </trkpt>
      <trkpt lat="48.58703" lon="-3.13256">
        <ele>300</ele>
        <time>2016-04-03T13:01:00.1Z</time>
      </trkpt>
      <trkpt lat="48.58704" lon="-3.13255">
        <ele>300</ele>
        <time>2016-04-03T13:01:02.1Z</time>
      </trkpt>
      <trkpt lat="48.58704" lon="-3.13255">
        <ele>299</ele>
        <time>2016-04-03T13:01:04.1Z</time>
      </trkpt>
      <trkpt lat="48.58705" lon="-3.13255">
        <ele>299</ele>
        <time>2016-04-03T13:01:07.1Z</time>
      </trkpt>
      <trkpt lat="48.58705" lon="-3.13255">
        <ele>300</ele>
        <time>2016-04-03T13:01:09.1Z</time>
      </trkpt>
      <trkpt lat="48.58705" lon="-3.13255">
        <ele>300</ele>
        <time>2016-04-03T13:01:11.1Z</time>
      </trkpt>
      <trkpt lat="48.58706" lon="-3.13256">
        <ele>300</ele>
        <time>2016-04-03T13:01:14.1Z</time>
      </trkpt>
      <trkpt lat="48.58706" lon="-3.13255">
        <ele>301</ele>
        <time>2016-04-03T13:01:17.1Z</time>
      </trkpt>
      <trkpt lat="48.58706" lon="-3.13254">
        <ele>301</ele>
        <time>2016-04-03T13:01:19.1Z</time>
      </trkpt>
      <trkpt lat="48.58706" lon="-3.13253">
        <ele>301</ele>
        <time>2016-04-03T13:01:21.1Z</time>
      </trkpt>
      <trkpt lat="48.58706" lon="-3.13253">
        <ele>302</ele>
        <time>2016-04-03T13:01:24.1Z</time>
      </trkpt>
      <trkpt lat="48.58707" lon="-3.13252">
        <ele>302</ele>
        <time>2016-04-03T13:01:27.1Z</time>
      </trkpt>
      <trkpt lat="48.58708" lon="-3.1325">
        <ele>302</ele>
        <time>2016-04-03T13:01:29.1Z</time>
      </trkpt>
      <trkpt lat="48.5871" lon="-3.13248">
        <ele>302</ele>
        <time>2016-04-03T13:01:32.1Z</time>
      </trkpt>
      <trkpt lat="48.5871" lon="-3.13247">
        <ele>302</ele>
        <time>2016-04-03T13:01:34.1Z</time>
      </trkpt>
      <trkpt lat="48.58711" lon="-3.13245">
        <ele>302</ele>
        <time>2016-04-03T13:01:37.1Z</time>
      </trkpt>
      <trkpt lat="48.58711" lon="-3.13244">
        <ele>301</ele>
        <time>2016-04-03T13:01:39.1Z</time>
      </trkpt>
      <trkpt lat="48.58712" lon="-3.13243">
        <ele>301</ele>
        <time>2016-04-03T13:01:42.1Z</time>
      </trkpt>
      <trkpt lat="48.58713" lon="-3.13242">
        <ele>300</ele>
        <time>2016-04-03T13:01:44.1Z</time>
      </trkpt>
      <trkpt lat="48.58713" lon="-3.13239">
        <ele>300</ele>
        <time>2016-04-03T13:01:47.1Z</time>
      </trkpt>
      <trkpt lat="48.58715" lon="-3.13236">
        <ele>300</ele>
        <time>2016-04-03T13:01:50.1Z</time>
      </trkpt>
      <trkpt lat="48.58716" lon="-3.13233">
        <ele>301</ele>
        <time>2016-04-03T13:01:53.1Z</time>
      </trkpt>
      <trkpt lat="48.58717" lon="-3.13231">
        <ele>300</ele>
        <time>2016-04-03T13:01:56.1Z</time>
      </trkpt>
      <trkpt lat="48.58718" lon="-3.1323">
        <ele>300</ele>
        <time>2016-04-03T13:01:58.1Z</time>
      </trkpt>
      <trkpt lat="48.58719" lon="-3.13229">
        <ele>300</ele>
        <time>2016-04-03T13:02:00.1Z</time>
      </trkpt>
      <trkpt lat="48.58721" lon="-3.13228">
        <ele>299</ele>
        <time>2016-04-03T13:02:03.1Z</time>
      </trkpt>
      <trkpt lat="48.58722" lon="-3.13226">
        <ele>300</ele>
        <time>2016-04-03T13:02:05.1Z</time>
      </trkpt>
      <trkpt lat="48.58723" lon="-3.13225">
        <ele>300</ele>
        <time>2016-04-03T13:02:07.1Z</time>
      </trkpt>
      <trkpt lat="48.58725" lon="-3.13222">
        <ele>300</ele>
        <time>2016-04-03T13:02:09.1Z</time>
      </trkpt>
      <trkpt lat="48.58727" lon="-3.13219">
        <ele>300</ele>
        <time>2016-04-03T13:02:12.1Z</time>
      </trkpt>
      <trkpt lat="48.58729" lon="-3.13216">
        <ele>299</ele>
        <time>2016-04-03T13:02:15.1Z</time>
      </trkpt>
      <trkpt lat="48.5873" lon="-3.13213">
        <ele>299</ele>
        <time>2016-04-03T13:02:17.1Z</time>
      </trkpt>
      <trkpt lat="48.58731" lon="-3.13209">
        <ele>299</ele>
        <time>2016-04-03T13:02:20.1Z</time>
      </trkpt>
      <trkpt lat="48.58733" lon="-3.13206">
        <ele>299</ele>
        <time>2016-04-03T13:02:22.1Z</time>
      </trkpt>
      <trkpt lat="48.58735" lon="-3.13204">
        <ele>299</ele>
        <time>2016-04-03T13:02:24.1Z</time>
      </trkpt>
      <trkpt lat="48.58737" lon="-3.13201">
        <ele>299</ele>
        <time>2016-04-03T13:02:26.1Z</time>
      </trkpt>
      <trkpt lat="48.58739" lon="-3.13197">
        <ele>299</ele>
        <time>2016-04-03T13:02:29.1Z</time>
      </trkpt>
      <trkpt lat="48.5874" lon="-3.13195">
        <ele>299</ele>
        <time>2016-04-03T13:02:31.1Z</time>
      </trkpt>
      <trkpt lat="48.58741" lon="-3.13193">
        <ele>299</ele>
        <time>2016-04-03T13:02:33.1Z</time>
      </trkpt>
      <trkpt lat="48.58743" lon="-3.13188">
        <ele>299</ele>
        <time>2016-04-03T13:02:36.1Z</time>
      </trkpt>
      <trkpt lat="48.58745" lon="-3.13185">
        <ele>298</ele>
        <time>2016-04-03T13:02:39.1Z</time>
      </trkpt>
      <trkpt lat="48.58746" lon="-3.13182">
        <ele>297</ele>
        <time>2016-04-03T13:02:41.1Z</time>
      </trkpt>
      <trkpt lat="48.58748" lon="-3.13178">
        <ele>298</ele>
        <time>2016-04-03T13:02:44.1Z</time>
      </trkpt>
      <trkpt lat="48.58748" lon="-3.13176">
        <ele>298</ele>
        <time>2016-04-03T13:02:46.1Z</time>
      </trkpt>
      <trkpt lat="48.5875" lon="-3.13172">
        <ele>298</ele>
        <time>2016-04-03T13:02:49.1Z</time>
      </trkpt>
      <trkpt lat="48.58751" lon="-3.13167">
        <ele>297</ele>
        <time>2016-04-03T13:02:52.1Z</time>
      </trkpt>
      <trkpt lat="48.58753" lon="-3.13161">
        <ele>297</ele>
        <time>2016-04-03T13:02:55.1Z</time>
      </trkpt>
      <trkpt lat="48.58754" lon="-3.13157">
        <ele>298</ele>
        <time>2016-04-03T13:02:58.1Z</time>
      </trkpt>
      <trkpt lat="48.58755" lon="-3.13153">
        <ele>297</ele>
        <time>2016-04-03T13:03:01.1Z</time>
      </trkpt>
      <trkpt lat="48.58755" lon="-3.1315">
        <ele>297</ele>
        <time>2016-04-03T13:03:03.1Z</time>
      </trkpt>
      <trkpt lat="48.58755" lon="-3.13147">
        <ele>297</ele>
        <time>2016-04-03T13:03:05.1Z</time>
      </trkpt>
      <trkpt lat="48.58756" lon="-3.13143">
        <ele>297</ele>
        <time>2016-04-03T13:03:08.1Z</time>
      </trkpt>
      <trkpt lat="48.58755" lon="-3.13141">
        <ele>297</ele>
        <time>2016-04-03T13:03:10.1Z</time>
      </trkpt>
      <trkpt lat="48.58755" lon="-3.13139">
        <ele>296</ele>
        <time>2016-04-03T13:03:12.1Z</time>
      </trkpt>
      <trkpt lat="48.58754" lon="-3.13135">
        <ele>296</ele>
        <time>2016-04-03T13:03:14.1Z</time>
      </trkpt>
      <trkpt lat="48.58754" lon="-3.1313">
        <ele>296</ele>
        <time>2016-04-03T13:03:17.1Z</time>
      </trkpt>
      <trkpt lat="48.58754" lon="-3.13127">
        <ele>296</ele>
        <time>2016-04-03T13:03:19.1Z</time>
      </trkpt>
      <trkpt lat="48.58755" lon="-3.13122">
        <ele>296</ele>
        <time>2016-04-03T13:03:22.1Z</time>
      </trkpt>
      <trkpt lat="48.58756" lon="-3.13119">
        <ele>296</ele>
        <time>2016-04-03T13:03:25.1Z</time>
      </trkpt>
      <trkpt lat="48.58756" lon="-3.13117">
        <ele>296</ele>
        <time>2016-04-03T13:03:27.1Z</time>
      </trkpt>
      <trkpt lat="48.58757" lon="-3.13115">
        <ele>296</ele>
        <time>2016-04-03T13:03:29.1Z</time>
      </trkpt>
      <trkpt lat="48.58757" lon="-3.13111">
        <ele>296</ele>
        <time>2016-04-03T13:03:31.1Z</time>
      </trkpt>
      <trkpt lat="48.58758" lon="-3.13106">
        <ele>296</ele>
        <time>2016-04-03T13:03:34.1Z</time>
      </trkpt>
      <trkpt lat="48.58758" lon="-3.13106">
        <ele>296</ele>
        <time>2016-04-03T13:03:36.1Z</time>
      </trkpt>
      <trkpt lat="48.58759" lon="-3.13106">
        <ele>296</ele>
        <time>2016-04-03T13:03:38.1Z</time>
      </trkpt>
      <trkpt lat="48.58759" lon="-3.13103">
        <ele>296</ele>
        <time>2016-04-03T13:03:41.1Z</time>
      </trkpt>
      <trkpt lat="48.5876" lon="-3.13098">
        <ele>296</ele>
        <time>2016-04-03T13:03:44.1Z</time>
      </trkpt>
      <trkpt lat="48.5876" lon="-3.13095">
        <ele>296</ele>
        <time>2016-04-03T13:03:46.1Z</time>
      </trkpt>
      <trkpt lat="48.58758" lon="-3.13093">
        <ele>295</ele>
        <time>2016-04-03T13:03:49.1Z</time>
      </trkpt>
      <trkpt lat="48.58757" lon="-3.13091">
        <ele>295</ele>
        <time>2016-04-03T13:03:51.1Z</time>
      </trkpt>
      <trkpt lat="48.58756" lon="-3.13087">
        <ele>295</ele>
        <time>2016-04-03T13:03:54.1Z</time>
      </trkpt>
      <trkpt lat="48.58756" lon="-3.13085">
        <ele>295</ele>
        <time>2016-04-03T13:03:57.1Z</time>
      </trkpt>
      <trkpt lat="48.58756" lon="-3.13084">
        <ele>295</ele>
        <time>2016-04-03T13:03:59.1Z</time>
      </trkpt>
      <trkpt lat="48.58755" lon="-3.13082">
        <ele>295</ele>
        <time>2016-04-03T13:04:01.1Z</time>
      </trkpt>
      <trkpt lat="48.58754" lon="-3.1308">
        <ele>295</ele>
        <time>2016-04-03T13:04:04.1Z</time>
      </trkpt>
      <trkpt lat="48.58754" lon="-3.13079">
        <ele>295</ele>
        <time>2016-04-03T13:04:06.1Z</time>
      </trkpt>
      <trkpt lat="48.58754" lon="-3.13076">
        <ele>295</ele>
        <time>2016-04-03T13:04:09.1Z</time>
      </trkpt>
      <trkpt lat="48.58754" lon="-3.13075">
        <ele>295</ele>
        <time>2016-04-03T13:04:12.1Z</time>
      </trkpt>
      <trkpt lat="48.58754" lon="-3.13073">
        <ele>295</ele>
        <time>2016-04-03T13:04:15.1Z</time>
      </trkpt>
      <trkpt lat="48.58754" lon="-3.13072">
        <ele>295</ele>
        <time>2016-04-03T13:04:17.1Z</time>
      </trkpt>
      <trkpt lat="48.58754" lon="-3.13069">
        <ele>295</ele>
        <time>2016-04-03T13:04:20.1Z</time>
      </trkpt>
      <trkpt lat="48.58753" lon="-3.13067">
        <ele>295</ele>
        <time>2016-04-03T13:04:23.1Z</time>
      </trkpt>
      <trkpt lat="48.58753" lon="-3.13066">
        <ele>295</ele>
        <time>2016-04-03T13:04:26.1Z</time>
      </trkpt>
      <trkpt lat="48.58752" lon="-3.13063">
        <ele>295</ele>
        <time>2016-04-03T13:04:29.1Z</time>
      </trkpt>
      <trkpt lat="48.58752" lon="-3.13061">
        <ele>295</ele>
        <time>2016-04-03T13:04:31.1Z</time>
      </trkpt>
      <trkpt lat="48.58752" lon="-3.13059">
        <ele>295</ele>
        <time>2016-04-03T13:04:34.1Z</time>
      </trkpt>
      <trkpt lat="48.58752" lon="-3.13058">
        <ele>295</ele>
        <time>2016-04-03T13:04:36.1Z</time>
      </trkpt>
      <trkpt lat="48.58751" lon="-3.13056">
        <ele>295</ele>
        <time>2016-04-03T13:04:39.1Z</time>
      </trkpt>
      <trkpt lat="48.58751" lon="-3.13055">
        <ele>295</ele>
        <time>2016-04-03T13:04:41.1Z</time>
      </trkpt>
      <trkpt lat="48.58751" lon="-3.13053">
        <ele>295</ele>
        <time>2016-04-03T13:04:44.1Z</time>
      </trkpt>
      <trkpt lat="48.5875" lon="-3.13052">
        <ele>294</ele>
        <time>2016-04-03T13:04:46.1Z</time>
      </trkpt>
      <trkpt lat="48.58749" lon="-3.1305">
        <ele>294</ele>
        <time>2016-04-03T13:04:49.1Z</time>
      </trkpt>
      <trkpt lat="48.58749" lon="-3.13048">
        <ele>294</ele>
        <time>2016-04-03T13:04:52.1Z</time>
      </trkpt>
      <trkpt lat="48.58749" lon="-3.13047">
        <ele>294</ele>
        <time>2016-04-03T13:04:55.1Z</time>
      </trkpt>
      <trkpt lat="48.58749" lon="-3.13047">
        <ele>294</ele>
        <time>2016-04-03T13:04:57.1Z</time>
      </trkpt>
      <trkpt lat="48.58749" lon="-3.13045">
        <ele>294</ele>
        <time>2016-04-03T13:05:00.1Z</time>
      </trkpt>
      <trkpt lat="48.58749" lon="-3.13044">
        <ele>294</ele>
        <time>2016-04-03T13:05:03.1Z</time>
      </trkpt>
      <trkpt lat="48.58749" lon="-3.13044">
        <ele>294</ele>
        <time>2016-04-03T13:05:05.1Z</time>
      </trkpt>
      <trkpt lat="48.58749" lon="-3.1304">
        <ele>294</ele>
        <time>2016-04-03T13:05:08.1Z</time>
      </trkpt>
      <trkpt lat="48.58747" lon="-3.13038">
        <ele>293</ele>
        <time>2016-04-03T13:05:11.1Z</time>
      </trkpt>
      <trkpt lat="48.58747" lon="-3.13037">
        <ele>293</ele>
        <time>2016-04-03T13:05:13.1Z</time>
      </trkpt>
      <trkpt lat="48.58747" lon="-3.13034">
        <ele>293</ele>
        <time>2016-04-03T13:05:16.1Z</time>
      </trkpt>
      <trkpt lat="48.58746" lon="-3.13033">
        <ele>292</ele>
        <time>2016-04-03T13:05:19.1Z</time>
      </trkpt>
      <trkpt lat="48.58745" lon="-3.13033">
        <ele>292</ele>
        <time>2016-04-03T13:05:21.1Z</time>
      </trkpt>
      <trkpt lat="48.58745" lon="-3.1303">
        <ele>292</ele>
        <time>2016-04-03T13:05:24.1Z</time>
      </trkpt>
      <trkpt lat="48.58744" lon="-3.1303">
        <ele>292</ele>
        <time>2016-04-03T13:05:26.1Z</time>
      </trkpt>
      <trkpt lat="48.58744" lon="-3.13029">
        <ele>292</ele>
        <time>2016-04-03T13:05:29.1Z</time>
      </trkpt>
      <trkpt lat="48.58744" lon="-3.13027">
        <ele>292</ele>
        <time>2016-04-03T13:05:32.1Z</time>
      </trkpt>
      <trkpt lat="48.58746" lon="-3.13025">
        <ele>292</ele>
        <time>2016-04-03T13:05:34.1Z</time>
      </trkpt>
      <trkpt lat="48.58745" lon="-3.13022">
        <ele>292</ele>
        <time>2016-04-03T13:05:37.1Z</time>
      </trkpt>
      <trkpt lat="48.58745" lon="-3.13018">
        <ele>292</ele>
        <time>2016-04-03T13:05:40.1Z</time>
      </trkpt>
      <trkpt lat="48.58745" lon="-3.13016">
        <ele>292</ele>
        <time>2016-04-03T13:05:42.1Z</time>
      </trkpt>
      <trkpt lat="48.58746" lon="-3.13014">
        <ele>291</ele>
        <time>2016-04-03T13:05:45.1Z</time>
      </trkpt>
      <trkpt lat="48.58746" lon="-3.13012">
        <ele>291</ele>
        <time>2016-04-03T13:05:48.1Z</time>
      </trkpt>
      <trkpt lat="48.58747" lon="-3.13009">
        <ele>291</ele>
        <time>2016-04-03T13:05:50.1Z</time>
      </trkpt>
      <trkpt lat="48.58747" lon="-3.13006">
        <ele>290</ele>
        <time>2016-04-03T13:05:53.1Z</time>
      </trkpt>
      <trkpt lat="48.58747" lon="-3.13005">
        <ele>290</ele>
        <time>2016-04-03T13:05:56.1Z</time>
      </trkpt>
      <trkpt lat="48.58747" lon="-3.13004">
        <ele>291</ele>
        <time>2016-04-03T13:05:59.1Z</time>
      </trkpt>
      <trkpt lat="48.58748" lon="-3.13002">
        <ele>291</ele>
        <time>2016-04-03T13:06:01.1Z</time>
      </trkpt>
      <trkpt lat="48.58748" lon="-3.13002">
        <ele>290</ele>
        <time>2016-04-03T13:06:04.1Z</time>
      </trkpt>
      <trkpt lat="48.58748" lon="-3.13001">
        <ele>290</ele>
        <time>2016-04-03T13:06:07.1Z</time>
      </trkpt>
      <trkpt lat="48.58748" lon="-3.13">
        <ele>289</ele>
        <time>2016-04-03T13:06:09.1Z</time>
      </trkpt>
      <trkpt lat="48.58747" lon="-3.12998">
        <ele>289</ele>
        <time>2016-04-03T13:06:12.1Z</time>
      </trkpt>
      <trkpt lat="48.58747" lon="-3.12996">
        <ele>289</ele>
        <time>2016-04-03T13:06:14.1Z</time>
      </trkpt>
      <trkpt lat="48.58748" lon="-3.12995">
        <ele>289</ele>
        <time>2016-04-03T13:06:16.1Z</time>
      </trkpt>
      <trkpt lat="48.58748" lon="-3.12994">
        <ele>289</ele>
        <time>2016-04-03T13:06:18.1Z</time>
      </trkpt>
      <trkpt lat="48.58747" lon="-3.12992">
        <ele>289</ele>
        <time>2016-04-03T13:06:21.1Z</time>
      </trkpt>
      <trkpt lat="48.58746" lon="-3.12991">
        <ele>289</ele>
        <time>2016-04-03T13:06:23.1Z</time>
      </trkpt>
      <trkpt lat="48.58745" lon="-3.12989">
        <ele>289</ele>
        <time>2016-04-03T13:06:26.1Z</time>
      </trkpt>
      <trkpt lat="48.58745" lon="-3.12989">
        <ele>289</ele>
        <time>2016-04-03T13:06:28.1Z</time>
      </trkpt>
      <trkpt lat="48.58745" lon="-3.12987">
        <ele>288</ele>
        <time>2016-04-03T13:06:31.1Z</time>
      </trkpt>
      <trkpt lat="48.58745" lon="-3.12986">
        <ele>288</ele>
        <time>2016-04-03T13:06:34.1Z</time>
      </trkpt>
      <trkpt lat="48.58744" lon="-3.12985">
        <ele>288</ele>
        <time>2016-04-03T13:06:37.1Z</time>
      </trkpt>
      <trkpt lat="48.58744" lon="-3.12984">
        <ele>288</ele>
        <time>2016-04-03T13:06:39.1Z</time>
      </trkpt>
      <trkpt lat="48.58742" lon="-3.12983">
        <ele>287</ele>
        <time>2016-04-03T13:06:42.1Z</time>
      </trkpt>
      <trkpt lat="48.58741" lon="-3.12982">
        <ele>288</ele>
        <time>2016-04-03T13:06:45.1Z</time>
      </trkpt>
      <trkpt lat="48.5874" lon="-3.12981">
        <ele>287</ele>
        <time>2016-04-03T13:06:47.1Z</time>
      </trkpt>
      <trkpt lat="48.5874" lon="-3.1298">
        <ele>287</ele>
        <time>2016-04-03T13:06:50.1Z</time>
      </trkpt>
      <trkpt lat="48.58739" lon="-3.12979">
        <ele>287</ele>
        <time>2016-04-03T13:06:52.1Z</time>
      </trkpt>
      <trkpt lat="48.58738" lon="-3.12979">
        <ele>287</ele>
        <time>2016-04-03T13:06:54.1Z</time>
      </trkpt>
      <trkpt lat="48.58739" lon="-3.12979">
        <ele>287</ele>
        <time>2016-04-03T13:06:56.1Z</time>
      </trkpt>
      <trkpt lat="48.58739" lon="-3.12978">
        <ele>287</ele>
        <time>2016-04-03T13:06:59.1Z</time>
      </trkpt>
      <trkpt lat="48.58739" lon="-3.12976">
        <ele>287</ele>
        <time>2016-04-03T13:07:02.1Z</time>
      </trkpt>
      <trkpt lat="48.5874" lon="-3.12975">
        <ele>287</ele>
        <time>2016-04-03T13:07:05.1Z</time>
      </trkpt>
      <trkpt lat="48.58741" lon="-3.12974">
        <ele>287</ele>
        <time>2016-04-03T13:07:08.1Z</time>
      </trkpt>
      <trkpt lat="48.58742" lon="-3.12974">
        <ele>287</ele>
        <time>2016-04-03T13:07:10.1Z</time>
      </trkpt>
      <trkpt lat="48.58742" lon="-3.12973">
        <ele>287</ele>
        <time>2016-04-03T13:07:13.1Z</time>
      </trkpt>
      <trkpt lat="48.58742" lon="-3.12973">
        <ele>286</ele>
        <time>2016-04-03T13:07:15.1Z</time>
      </trkpt>
      <trkpt lat="48.58742" lon="-3.12971">
        <ele>286</ele>
        <time>2016-04-03T13:07:18.1Z</time>
      </trkpt>
      <trkpt lat="48.58743" lon="-3.12971">
        <ele>286</ele>
        <time>2016-04-03T13:07:23.1Z</time>
      </trkpt>
      <trkpt lat="48.58743" lon="-3.1297">
        <ele>286</ele>
        <time>2016-04-03T13:07:25.1Z</time>
      </trkpt>
      <trkpt lat="48.58743" lon="-3.1297">
        <ele>286</ele>
        <time>2016-04-03T13:07:27.1Z</time>
      </trkpt>
      <trkpt lat="48.58743" lon="-3.12968">
        <ele>286</ele>
        <time>2016-04-03T13:07:30.1Z</time>
      </trkpt>
      <trkpt lat="48.58742" lon="-3.12967">
        <ele>286</ele>
        <time>2016-04-03T13:07:32.1Z</time>
      </trkpt>
      <trkpt lat="48.58742" lon="-3.12966">
        <ele>286</ele>
        <time>2016-04-03T13:07:34.1Z</time>
      </trkpt>
      <trkpt lat="48.58742" lon="-3.12964">
        <ele>286</ele>
        <time>2016-04-03T13:07:37.1Z</time>
      </trkpt>
      <trkpt lat="48.58742" lon="-3.12962">
        <ele>286</ele>
        <time>2016-04-03T13:07:39.1Z</time>
      </trkpt>
      <trkpt lat="48.58742" lon="-3.12961">
        <ele>286</ele>
        <time>2016-04-03T13:07:41.1Z</time>
      </trkpt>
      <trkpt lat="48.58742" lon="-3.1296">
        <ele>286</ele>
        <time>2016-04-03T13:07:43.1Z</time>
      </trkpt>
      <trkpt lat="48.58741" lon="-3.12958">
        <ele>285</ele>
        <time>2016-04-03T13:07:46.1Z</time>
      </trkpt>
      <trkpt lat="48.58741" lon="-3.12955">
        <ele>285</ele>
        <time>2016-04-03T13:07:49.1Z</time>
      </trkpt>
      <trkpt lat="48.58741" lon="-3.12953">
        <ele>285</ele>
        <time>2016-04-03T13:07:52.1Z</time>
      </trkpt>
      <trkpt lat="48.58741" lon="-3.1295">
        <ele>285</ele>
        <time>2016-04-03T13:07:55.1Z</time>
      </trkpt>
      <trkpt lat="48.5874" lon="-3.12948">
        <ele>285</ele>
        <time>2016-04-03T13:07:58.1Z</time>
      </trkpt>
      <trkpt lat="48.5874" lon="-3.12946">
        <ele>285</ele>
        <time>2016-04-03T13:08:00.1Z</time>
      </trkpt>
      <trkpt lat="48.58739" lon="-3.12943">
        <ele>284</ele>
        <time>2016-04-03T13:08:03.1Z</time>
      </trkpt>
      <trkpt lat="48.58739" lon="-3.1294">
        <ele>284</ele>
        <time>2016-04-03T13:08:06.1Z</time>
      </trkpt>
      <trkpt lat="48.58739" lon="-3.12938">
        <ele>283</ele>
        <time>2016-04-03T13:08:09.1Z</time>
      </trkpt>
      <trkpt lat="48.58739" lon="-3.12937">
        <ele>283</ele>
        <time>2016-04-03T13:08:11.1Z</time>
      </trkpt>
      <trkpt lat="48.58738" lon="-3.12935">
        <ele>283</ele>
        <time>2016-04-03T13:08:14.1Z</time>
      </trkpt>
      <trkpt lat="48.58738" lon="-3.12934">
        <ele>284</ele>
        <time>2016-04-03T13:08:17.1Z</time>
      </trkpt>
      <trkpt lat="48.58739" lon="-3.12932">
        <ele>284</ele>
        <time>2016-04-03T13:08:20.1Z</time>
      </trkpt>
      <trkpt lat="48.58739" lon="-3.1293">
        <ele>284</ele>
        <time>2016-04-03T13:08:23.1Z</time>
      </trkpt>
      <trkpt lat="48.58738" lon="-3.1293">
        <ele>284</ele>
        <time>2016-04-03T13:08:26.1Z</time>
      </trkpt>
      <trkpt lat="48.58738" lon="-3.12928">
        <ele>284</ele>
        <time>2016-04-03T13:08:29.1Z</time>
      </trkpt>
      <trkpt lat="48.58739" lon="-3.12927">
        <ele>284</ele>
        <time>2016-04-03T13:08:31.1Z</time>
      </trkpt>
      <trkpt lat="48.58739" lon="-3.12926">
        <ele>283</ele>
        <time>2016-04-03T13:08:34.1Z</time>
      </trkpt>
      <trkpt lat="48.5874" lon="-3.12926">
        <ele>283</ele>
        <time>2016-04-03T13:08:36.1Z</time>
      </trkpt>
      <trkpt lat="48.58741" lon="-3.12925">
        <ele>282</ele>
        <time>2016-04-03T13:08:38.1Z</time>
      </trkpt>
      <trkpt lat="48.58742" lon="-3.12924">
        <ele>282</ele>
        <time>2016-04-03T13:08:41.1Z</time>
      </trkpt>
      <trkpt lat="48.58743" lon="-3.12924">
        <ele>282</ele>
        <time>2016-04-03T13:08:44.1Z</time>
      </trkpt>
      <trkpt lat="48.58744" lon="-3.12923">
        <ele>282</ele>
        <time>2016-04-03T13:08:46.1Z</time>
      </trkpt>
      <trkpt lat="48.58744" lon="-3.12922">
        <ele>282</ele>
        <time>2016-04-03T13:08:49.1Z</time>
      </trkpt>
      <trkpt lat="48.58744" lon="-3.12921">
        <ele>282</ele>
        <time>2016-04-03T13:08:51.1Z</time>
      </trkpt>
      <trkpt lat="48.58745" lon="-3.1292">
        <ele>282</ele>
        <time>2016-04-03T13:08:53.1Z</time>
      </trkpt>
      <trkpt lat="48.58745" lon="-3.1292">
        <ele>282</ele>
        <time>2016-04-03T13:08:55.1Z</time>
      </trkpt>
      <trkpt lat="48.58745" lon="-3.12918">
        <ele>282</ele>
        <time>2016-04-03T13:08:58.1Z</time>
      </trkpt>
      <trkpt lat="48.58745" lon="-3.12917">
        <ele>281</ele>
        <time>2016-04-03T13:09:00.1Z</time>
      </trkpt>
      <trkpt lat="48.58746" lon="-3.12913">
        <ele>281</ele>
        <time>2016-04-03T13:09:03.1Z</time>
      </trkpt>
      <trkpt lat="48.58746" lon="-3.12912">
        <ele>281</ele>
        <time>2016-04-03T13:09:05.1Z</time>
      </trkpt>
      <trkpt lat="48.58746" lon="-3.12909">
        <ele>281</ele>
        <time>2016-04-03T13:09:08.1Z</time>
      </trkpt>
      <trkpt lat="48.58746" lon="-3.12905">
        <ele>280</ele>
        <time>2016-04-03T13:09:11.1Z</time>
      </trkpt>
      <trkpt lat="48.58746" lon="-3.12903">
        <ele>280</ele>
        <time>2016-04-03T13:09:13.1Z</time>
      </trkpt>
      <trkpt lat="48.58746" lon="-3.12899">
        <ele>280</ele>
        <time>2016-04-03T13:09:16.1Z</time>
      </trkpt>
      <trkpt lat="48.58746" lon="-3.12897">
        <ele>279</ele>
        <time>2016-04-03T13:09:19.1Z</time>
      </trkpt>
      <trkpt lat="48.58747" lon="-3.12894">
        <ele>279</ele>
        <time>2016-04-03T13:09:22.1Z</time>
      </trkpt>
      <trkpt lat="48.58748" lon="-3.12891">
        <ele>279</ele>
        <time>2016-04-03T13:09:24.1Z</time>
      </trkpt>
      <trkpt lat="48.58749" lon="-3.12889">
        <ele>279</ele>
        <time>2016-04-03T13:09:26.1Z</time>
      </trkpt>
      <trkpt lat="48.58749" lon="-3.12888">
        <ele>279</ele>
        <time>2016-04-03T13:09:29.1Z</time>
      </trkpt>
      <trkpt lat="48.58749" lon="-3.12887">
        <ele>279</ele>
        <time>2016-04-03T13:09:32.1Z</time>
      </trkpt>
      <trkpt lat="48.5875" lon="-3.12885">
        <ele>279</ele>
        <time>2016-04-03T13:09:35.1Z</time>
      </trkpt>
      <trkpt lat="48.5875" lon="-3.12884">
        <ele>279</ele>
        <time>2016-04-03T13:09:37.1Z</time>
      </trkpt>
      <trkpt lat="48.5875" lon="-3.12883">
        <ele>279</ele>
        <time>2016-04-03T13:09:39.1Z</time>
      </trkpt>
      <trkpt lat="48.5875" lon="-3.1288">
        <ele>278</ele>
        <time>2016-04-03T13:09:42.1Z</time>
      </trkpt>
      <trkpt lat="48.5875" lon="-3.12877">
        <ele>278</ele>
        <time>2016-04-03T13:09:45.1Z</time>
      </trkpt>
      <trkpt lat="48.58749" lon="-3.12874">
        <ele>278</ele>
        <time>2016-04-03T13:09:48.1Z</time>
      </trkpt>
      <trkpt lat="48.58749" lon="-3.1287">
        <ele>277</ele>
        <time>2016-04-03T13:09:51.1Z</time>
      </trkpt>
      <trkpt lat="48.5875" lon="-3.12867">
        <ele>277</ele>
        <time>2016-04-03T13:09:54.1Z</time>
      </trkpt>
      <trkpt lat="48.58751" lon="-3.12864">
        <ele>277</ele>
        <time>2016-04-03T13:09:56.1Z</time>
      </trkpt>
      <trkpt lat="48.58751" lon="-3.12862">
        <ele>277</ele>
        <time>2016-04-03T13:09:58.1Z</time>
      </trkpt>
      <trkpt lat="48.58751" lon="-3.12859">
        <ele>276</ele>
        <time>2016-04-03T13:10:01.1Z</time>
      </trkpt>
      <trkpt lat="48.58752" lon="-3.12855">
        <ele>276</ele>
        <time>2016-04-03T13:10:04.1Z</time>
      </trkpt>
      <trkpt lat="48.58753" lon="-3.12852">
        <ele>276</ele>
        <time>2016-04-03T13:10:07.1Z</time>
      </trkpt>
      <trkpt lat="48.58754" lon="-3.12848">
        <ele>276</ele>
        <time>2016-04-03T13:10:10.1Z</time>
      </trkpt>
      <trkpt lat="48.58754" lon="-3.12846">
        <ele>276</ele>
        <time>2016-04-03T13:10:12.1Z</time>
      </trkpt>
      <trkpt lat="48.58754" lon="-3.12844">
        <ele>276</ele>
        <time>2016-04-03T13:10:14.1Z</time>
      </trkpt>
      <trkpt lat="48.58755" lon="-3.12842">
        <ele>276</ele>
        <time>2016-04-03T13:10:17.1Z</time>
      </trkpt>
      <trkpt lat="48.58755" lon="-3.1284">
        <ele>276</ele>
        <time>2016-04-03T13:10:20.1Z</time>
      </trkpt>
      <trkpt lat="48.58755" lon="-3.12839">
        <ele>276</ele>
        <time>2016-04-03T13:10:22.1Z</time>
      </trkpt>
      <trkpt lat="48.58755" lon="-3.12837">
        <ele>276</ele>
        <time>2016-04-03T13:10:24.1Z</time>
      </trkpt>
      <trkpt lat="48.58754" lon="-3.12831">
        <ele>276</ele>
        <time>2016-04-03T13:10:27.1Z</time>
      </trkpt>
      <trkpt lat="48.58754" lon="-3.12826">
        <ele>275</ele>
        <time>2016-04-03T13:10:30.1Z</time>
      </trkpt>
      <trkpt lat="48.58754" lon="-3.12822">
        <ele>275</ele>
        <time>2016-04-03T13:10:33.1Z</time>
      </trkpt>
      <trkpt lat="48.58753" lon="-3.12819">
        <ele>274</ele>
        <time>2016-04-03T13:10:35.1Z</time>
      </trkpt>
      <trkpt lat="48.58752" lon="-3.12816">
        <ele>275</ele>
        <time>2016-04-03T13:10:38.1Z</time>
      </trkpt>
      <trkpt lat="48.58751" lon="-3.12814">
        <ele>274</ele>
        <time>2016-04-03T13:10:40.1Z</time>
      </trkpt>
      <trkpt lat="48.5875" lon="-3.12812">
        <ele>275</ele>
        <time>2016-04-03T13:10:42.1Z</time>
      </trkpt>
      <trkpt lat="48.58749" lon="-3.12809">
        <ele>275</ele>
        <time>2016-04-03T13:10:45.1Z</time>
      </trkpt>
      <trkpt lat="48.58748" lon="-3.12808">
        <ele>275</ele>
        <time>2016-04-03T13:10:47.1Z</time>
      </trkpt>
      <trkpt lat="48.58747" lon="-3.12807">
        <ele>275</ele>
        <time>2016-04-03T13:10:50.1Z</time>
      </trkpt>
      <trkpt lat="48.58747" lon="-3.12806">
        <ele>275</ele>
        <time>2016-04-03T13:10:53.1Z</time>
      </trkpt>
      <trkpt lat="48.58747" lon="-3.12805">
        <ele>275</ele>
        <time>2016-04-03T13:10:55.1Z</time>
      </trkpt>
      <trkpt lat="48.58746" lon="-3.12804">
        <ele>275</ele>
        <time>2016-04-03T13:10:57.1Z</time>
      </trkpt>
      <trkpt lat="48.58746" lon="-3.12804">
        <ele>275</ele>
        <time>2016-04-03T13:10:59.1Z</time>
      </trkpt>
      <trkpt lat="48.58746" lon="-3.12803">
        <ele>274</ele>
        <time>2016-04-03T13:11:02.1Z</time>
      </trkpt>
      <trkpt lat="48.58745" lon="-3.12801">
        <ele>274</ele>
        <time>2016-04-03T13:11:05.1Z</time>
      </trkpt>
      <trkpt lat="48.58745" lon="-3.128">
        <ele>274</ele>
        <time>2016-04-03T13:11:08.1Z</time>
      </trkpt>
      <trkpt lat="48.58744" lon="-3.12798">
        <ele>274</ele>
        <time>2016-04-03T13:11:10.1Z</time>
      </trkpt>
      <trkpt lat="48.58744" lon="-3.12795">
        <ele>274</ele>
        <time>2016-04-03T13:11:13.1Z</time>
      </trkpt>
      <trkpt lat="48.58743" lon="-3.12793">
        <ele>275</ele>
        <time>2016-04-03T13:11:16.1Z</time>
      </trkpt>
      <trkpt lat="48.58743" lon="-3.12791">
        <ele>276</ele>
        <time>2016-04-03T13:11:18.1Z</time>
      </trkpt>
      <trkpt lat="48.58742" lon="-3.12789">
        <ele>276</ele>
        <time>2016-04-03T13:11:20.1Z</time>
      </trkpt>
      <trkpt lat="48.58742" lon="-3.12788">
        <ele>276</ele>
        <time>2016-04-03T13:11:22.1Z</time>
      </trkpt>
      <trkpt lat="48.58741" lon="-3.12787">
        <ele>275</ele>
        <time>2016-04-03T13:11:25.1Z</time>
      </trkpt>
      <trkpt lat="48.5874" lon="-3.12784">
        <ele>275</ele>
        <time>2016-04-03T13:11:28.1Z</time>
      </trkpt>
      <trkpt lat="48.5874" lon="-3.12782">
        <ele>275</ele>
        <time>2016-04-03T13:11:30.1Z</time>
      </trkpt>
      <trkpt lat="48.58739" lon="-3.1278">
        <ele>275</ele>
        <time>2016-04-03T13:11:33.1Z</time>
      </trkpt>
      <trkpt lat="48.5874" lon="-3.12779">
        <ele>275</ele>
        <time>2016-04-03T13:11:35.1Z</time>
      </trkpt>
      <trkpt lat="48.5874" lon="-3.12778">
        <ele>274</ele>
        <time>2016-04-03T13:11:38.1Z</time>
      </trkpt>
      <trkpt lat="48.5874" lon="-3.12776">
        <ele>274</ele>
        <time>2016-04-03T13:11:40.1Z</time>
      </trkpt>
      <trkpt lat="48.5874" lon="-3.12775">
        <ele>274</ele>
        <time>2016-04-03T13:11:42.1Z</time>
      </trkpt>
      <trkpt lat="48.58741" lon="-3.12774">
        <ele>274</ele>
        <time>2016-04-03T13:11:44.1Z</time>
      </trkpt>
      <trkpt lat="48.58741" lon="-3.12772">
        <ele>274</ele>
        <time>2016-04-03T13:11:47.1Z</time>
      </trkpt>
      <trkpt lat="48.58741" lon="-3.12772">
        <ele>274</ele>
        <time>2016-04-03T13:11:49.1Z</time>
      </trkpt>
      <trkpt lat="48.58742" lon="-3.12771">
        <ele>274</ele>
        <time>2016-04-03T13:11:51.1Z</time>
      </trkpt>
      <trkpt lat="48.58743" lon="-3.12768">
        <ele>275</ele>
        <time>2016-04-03T13:11:54.1Z</time>
      </trkpt>
      <trkpt lat="48.58743" lon="-3.12766">
        <ele>274</ele>
        <time>2016-04-03T13:11:56.1Z</time>
      </trkpt>
      <trkpt lat="48.58744" lon="-3.12765">
        <ele>274</ele>
        <time>2016-04-03T13:11:58.1Z</time>
      </trkpt>
      <trkpt lat="48.58744" lon="-3.12764">
        <ele>274</ele>
        <time>2016-04-03T13:12:01.1Z</time>
      </trkpt>
      <trkpt lat="48.58745" lon="-3.12763">
        <ele>274</ele>
        <time>2016-04-03T13:12:03.1Z</time>
      </trkpt>
      <trkpt lat="48.58746" lon="-3.1276">
        <ele>274</ele>
        <time>2016-04-03T13:12:06.1Z</time>
      </trkpt>
      <trkpt lat="48.58747" lon="-3.12757">
        <ele>274</ele>
        <time>2016-04-03T13:12:09.1Z</time>
      </trkpt>
      <trkpt lat="48.58748" lon="-3.12754">
        <ele>273</ele>
        <time>2016-04-03T13:12:12.1Z</time>
      </trkpt>
      <trkpt lat="48.58749" lon="-3.12751">
        <ele>273</ele>
        <time>2016-04-03T13:12:15.1Z</time>
      </trkpt>
      <trkpt lat="48.58749" lon="-3.12748">
        <ele>273</ele>
        <time>2016-04-03T13:12:18.1Z</time>
      </trkpt>
      <trkpt lat="48.58749" lon="-3.12746">
        <ele>273</ele>
        <time>2016-04-03T13:12:21.1Z</time>
      </trkpt>
      <trkpt lat="48.5875" lon="-3.12743">
        <ele>273</ele>
        <time>2016-04-03T13:12:24.1Z</time>
      </trkpt>
      <trkpt lat="48.58751" lon="-3.12742">
        <ele>273</ele>
        <time>2016-04-03T13:12:26.1Z</time>
      </trkpt>
      <trkpt lat="48.58751" lon="-3.1274">
        <ele>273</ele>
        <time>2016-04-03T13:12:28.1Z</time>
      </trkpt>
      <trkpt lat="48.58752" lon="-3.12738">
        <ele>273</ele>
        <time>2016-04-03T13:12:31.1Z</time>
      </trkpt>
      <trkpt lat="48.58752" lon="-3.12736">
        <ele>273</ele>
        <time>2016-04-03T13:12:33.1Z</time>
      </trkpt>
      <trkpt lat="48.58752" lon="-3.12735">
        <ele>273</ele>
        <time>2016-04-03T13:12:35.1Z</time>
      </trkpt>
      <trkpt lat="48.58752" lon="-3.12732">
        <ele>273</ele>
        <time>2016-04-03T13:12:38.1Z</time>
      </trkpt>
      <trkpt lat="48.58753" lon="-3.1273">
        <ele>273</ele>
        <time>2016-04-03T13:12:40.1Z</time>
      </trkpt>
      <trkpt lat="48.58753" lon="-3.12727">
        <ele>273</ele>
        <time>2016-04-03T13:12:42.1Z</time>
      </trkpt>
      <trkpt lat="48.58753" lon="-3.12723">
        <ele>273</ele>
        <time>2016-04-03T13:12:45.1Z</time>
      </trkpt>
      <trkpt lat="48.58753" lon="-3.1272">
        <ele>273</ele>
        <time>2016-04-03T13:12:48.1Z</time>
      </trkpt>
      <trkpt lat="48.58754" lon="-3.12718">
        <ele>273</ele>
        <time>2016-04-03T13:12:50.1Z</time>
      </trkpt>
      <trkpt lat="48.58754" lon="-3.12715">
        <ele>273</ele>
        <time>2016-04-03T13:12:53.1Z</time>
      </trkpt>
      <trkpt lat="48.58755" lon="-3.12713">
        <ele>273</ele>
        <time>2016-04-03T13:12:55.1Z</time>
      </trkpt>
      <trkpt lat="48.58755" lon="-3.1271">
        <ele>273</ele>
        <time>2016-04-03T13:12:57.1Z</time>
      </trkpt>
      <trkpt lat="48.58756" lon="-3.12708">
        <ele>273</ele>
        <time>2016-04-03T13:13:00.1Z</time>
      </trkpt>
      <trkpt lat="48.58757" lon="-3.12705">
        <ele>273</ele>
        <time>2016-04-03T13:13:03.1Z</time>
      </trkpt>
      <trkpt lat="48.58758" lon="-3.12703">
        <ele>273</ele>
        <time>2016-04-03T13:13:05.1Z</time>
      </trkpt>
      <trkpt lat="48.58759" lon="-3.12701">
        <ele>273</ele>
        <time>2016-04-03T13:13:07.1Z</time>
      </trkpt>
      <trkpt lat="48.5876" lon="-3.127">
        <ele>273</ele>
        <time>2016-04-03T13:13:10.1Z</time>
      </trkpt>
      <trkpt lat="48.5876" lon="-3.12699">
        <ele>274</ele>
        <time>2016-04-03T13:13:13.1Z</time>
      </trkpt>
      <trkpt lat="48.5876" lon="-3.12698">
        <ele>274</ele>
        <time>2016-04-03T13:13:16.1Z</time>
      </trkpt>
      <trkpt lat="48.5876" lon="-3.12697">
        <ele>274</ele>
        <time>2016-04-03T13:13:19.1Z</time>
      </trkpt>
      <trkpt lat="48.58761" lon="-3.12696">
        <ele>274</ele>
        <time>2016-04-03T13:13:21.1Z</time>
      </trkpt>
      <trkpt lat="48.58762" lon="-3.12693">
        <ele>274</ele>
        <time>2016-04-03T13:13:24.1Z</time>
      </trkpt>
      <trkpt lat="48.58762" lon="-3.12691">
        <ele>274</ele>
        <time>2016-04-03T13:13:27.1Z</time>
      </trkpt>
      <trkpt lat="48.58762" lon="-3.1269">
        <ele>274</ele>
        <time>2016-04-03T13:13:29.1Z</time>
      </trkpt>
      <trkpt lat="48.58762" lon="-3.1269">
        <ele>274</ele>
        <time>2016-04-03T13:13:31.1Z</time>
      </trkpt>
      <trkpt lat="48.58762" lon="-3.12687">
        <ele>274</ele>
        <time>2016-04-03T13:13:34.1Z</time>
      </trkpt>
      <trkpt lat="48.58762" lon="-3.12685">
        <ele>274</ele>
        <time>2016-04-03T13:13:36.1Z</time>
      </trkpt>
      <trkpt lat="48.58762" lon="-3.12683">
        <ele>274</ele>
        <time>2016-04-03T13:13:38.1Z</time>
      </trkpt>
      <trkpt lat="48.58763" lon="-3.12681">
        <ele>274</ele>
        <time>2016-04-03T13:13:40.1Z</time>
      </trkpt>
      <trkpt lat="48.58763" lon="-3.12678">
        <ele>274</ele>
        <time>2016-04-03T13:13:43.1Z</time>
      </trkpt>
      <trkpt lat="48.58764" lon="-3.12675">
        <ele>274</ele>
        <time>2016-04-03T13:13:46.1Z</time>
      </trkpt>
      <trkpt lat="48.58765" lon="-3.12673">
        <ele>274</ele>
        <time>2016-04-03T13:13:48.1Z</time>
      </trkpt>
      <trkpt lat="48.58765" lon="-3.12671">
        <ele>274</ele>
        <time>2016-04-03T13:13:51.1Z</time>
      </trkpt>
      <trkpt lat="48.58766" lon="-3.12671">
        <ele>274</ele>
        <time>2016-04-03T13:13:54.1Z</time>
      </trkpt>
      <trkpt lat="48.58767" lon="-3.12671">
        <ele>274</ele>
        <time>2016-04-03T13:13:57.1Z</time>
      </trkpt>
      <trkpt lat="48.58769" lon="-3.1267">
        <ele>274</ele>
        <time>2016-04-03T13:14:00.1Z</time>
      </trkpt>
      <trkpt lat="48.5877" lon="-3.1267">
        <ele>274</ele>
        <time>2016-04-03T13:14:02.1Z</time>
      </trkpt>
      <trkpt lat="48.5877" lon="-3.1267">
        <ele>273</ele>
        <time>2016-04-03T13:14:05.1Z</time>
      </trkpt>
      <trkpt lat="48.58771" lon="-3.1267">
        <ele>273</ele>
        <time>2016-04-03T13:14:07.1Z</time>
      </trkpt>
      <trkpt lat="48.58773" lon="-3.12668">
        <ele>273</ele>
        <time>2016-04-03T13:14:10.1Z</time>
      </trkpt>
      <trkpt lat="48.58773" lon="-3.12666">
        <ele>273</ele>
        <time>2016-04-03T13:14:13.1Z</time>
      </trkpt>
      <trkpt lat="48.58774" lon="-3.12663">
        <ele>273</ele>
        <time>2016-04-03T13:14:16.1Z</time>
      </trkpt>
      <trkpt lat="48.58774" lon="-3.1266">
        <ele>273</ele>
        <time>2016-04-03T13:14:19.1Z</time>
      </trkpt>
      <trkpt lat="48.58775" lon="-3.1266">
        <ele>273</ele>
        <time>2016-04-03T13:14:22.1Z</time>
      </trkpt>
      <trkpt lat="48.58774" lon="-3.12659">
        <ele>273</ele>
        <time>2016-04-03T13:14:25.1Z</time>
      </trkpt>
      <trkpt lat="48.58773" lon="-3.12659">
        <ele>273</ele>
        <time>2016-04-03T13:14:27.1Z</time>
      </trkpt>
      <trkpt lat="48.58773" lon="-3.12657">
        <ele>273</ele>
        <time>2016-04-03T13:14:29.1Z</time>
      </trkpt>
      <trkpt lat="48.58773" lon="-3.12657">
        <ele>273</ele>
        <time>2016-04-03T13:14:32.1Z</time>
      </trkpt>
      <trkpt lat="48.58773" lon="-3.12656">
        <ele>273</ele>
        <time>2016-04-03T13:14:35.1Z</time>
      </trkpt>
      <trkpt lat="48.58772" lon="-3.12656">
        <ele>273</ele>
        <time>2016-04-03T13:14:38.1Z</time>
      </trkpt>
      <trkpt lat="48.58772" lon="-3.12656">
        <ele>273</ele>
        <time>2016-04-03T13:14:40.1Z</time>
      </trkpt>
      <trkpt lat="48.58772" lon="-3.12655">
        <ele>273</ele>
        <time>2016-04-03T13:14:42.1Z</time>
      </trkpt>
      <trkpt lat="48.58771" lon="-3.12655">
        <ele>273</ele>
        <time>2016-04-03T13:14:44.1Z</time>
      </trkpt>
      <trkpt lat="48.58771" lon="-3.12655">
        <ele>273</ele>
        <time>2016-04-03T13:14:48.1Z</time>
      </trkpt>
      <trkpt lat="48.58771" lon="-3.12655">
        <ele>273</ele>
        <time>2016-04-03T13:14:50.1Z</time>
      </trkpt>
      <trkpt lat="48.5877" lon="-3.12655">
        <ele>273</ele>
        <time>2016-04-03T13:14:53.1Z</time>
      </trkpt>
      <trkpt lat="48.5877" lon="-3.12656">
        <ele>273</ele>
        <time>2016-04-03T13:14:57.1Z</time>
      </trkpt>
      <trkpt lat="48.5877" lon="-3.12656">
        <ele>273</ele>
        <time>2016-04-03T13:14:59.1Z</time>
      </trkpt>
      <trkpt lat="48.5877" lon="-3.12656">
        <ele>273</ele>
        <time>2016-04-03T13:15:02.1Z</time>
      </trkpt>
      <trkpt lat="48.5877" lon="-3.12656">
        <ele>273</ele>
        <time>2016-04-03T13:15:04.1Z</time>
      </trkpt>
      <trkpt lat="48.5877" lon="-3.12656">
        <ele>273</ele>
        <time>2016-04-03T13:15:07.1Z</time>
      </trkpt>
      <trkpt lat="48.5877" lon="-3.12657">
        <ele>273</ele>
        <time>2016-04-03T13:15:09.1Z</time>
      </trkpt>
      <trkpt lat="48.5877" lon="-3.12657">
        <ele>272</ele>
        <time>2016-04-03T13:15:12.1Z</time>
      </trkpt>
      <trkpt lat="48.5877" lon="-3.12658">
        <ele>273</ele>
        <time>2016-04-03T13:15:14.1Z</time>
      </trkpt>
      <trkpt lat="48.5877" lon="-3.12659">
        <ele>272</ele>
        <time>2016-04-03T13:15:17.1Z</time>
      </trkpt>
      <trkpt lat="48.5877" lon="-3.1266">
        <ele>273</ele>
        <time>2016-04-03T13:15:19.1Z</time>
      </trkpt>
      <trkpt lat="48.58769" lon="-3.12662">
        <ele>273</ele>
        <time>2016-04-03T13:15:22.1Z</time>
      </trkpt>
      <trkpt lat="48.58769" lon="-3.12663">
        <ele>273</ele>
        <time>2016-04-03T13:15:25.1Z</time>
      </trkpt>
      <trkpt lat="48.58767" lon="-3.12664">
        <ele>273</ele>
        <time>2016-04-03T13:15:28.1Z</time>
      </trkpt>
      <trkpt lat="48.58767" lon="-3.12664">
        <ele>273</ele>
        <time>2016-04-03T13:15:30.1Z</time>
      </trkpt>
      <trkpt lat="48.58767" lon="-3.12665">
        <ele>273</ele>
        <time>2016-04-03T13:15:32.1Z</time>
      </trkpt>
      <trkpt lat="48.58767" lon="-3.12665">
        <ele>273</ele>
        <time>2016-04-03T13:15:35.1Z</time>
      </trkpt>
      <trkpt lat="48.58765" lon="-3.12665">
        <ele>273</ele>
        <time>2016-04-03T13:15:38.1Z</time>
      </trkpt>
      <trkpt lat="48.58765" lon="-3.12664">
        <ele>274</ele>
        <time>2016-04-03T13:15:40.1Z</time>
      </trkpt>
      <trkpt lat="48.58764" lon="-3.12663">
        <ele>274</ele>
        <time>2016-04-03T13:15:43.1Z</time>
      </trkpt>
      <trkpt lat="48.58763" lon="-3.12661">
        <ele>274</ele>
        <time>2016-04-03T13:15:46.1Z</time>
      </trkpt>
      <trkpt lat="48.58762" lon="-3.1266">
        <ele>274</ele>
        <time>2016-04-03T13:15:48.1Z</time>
      </trkpt>
      <trkpt lat="48.5876" lon="-3.12659">
        <ele>274</ele>
        <time>2016-04-03T13:15:50.1Z</time>
      </trkpt>
      <trkpt lat="48.58758" lon="-3.12658">
        <ele>274</ele>
        <time>2016-04-03T13:15:53.1Z</time>
      </trkpt>
      <trkpt lat="48.58755" lon="-3.12657">
        <ele>274</ele>
        <time>2016-04-03T13:15:56.1Z</time>
      </trkpt>
      <trkpt lat="48.58753" lon="-3.12657">
        <ele>274</ele>
        <time>2016-04-03T13:15:58.1Z</time>
      </trkpt>
      <trkpt lat="48.58751" lon="-3.12657">
        <ele>274</ele>
        <time>2016-04-03T13:16:01.1Z</time>
      </trkpt>
      <trkpt lat="48.58748" lon="-3.12658">
        <ele>275</ele>
        <time>2016-04-03T13:16:04.1Z</time>
      </trkpt>
      <trkpt lat="48.58746" lon="-3.12658">
        <ele>276</ele>
        <time>2016-04-03T13:16:06.1Z</time>
      </trkpt>
      <trkpt lat="48.58744" lon="-3.12661">
        <ele>276</ele>
        <time>2016-04-03T13:16:09.1Z</time>
      </trkpt>
      <trkpt lat="48.58741" lon="-3.12661">
        <ele>276</ele>
        <time>2016-04-03T13:16:12.1Z</time>
      </trkpt>
      <trkpt lat="48.58739" lon="-3.12662">
        <ele>276</ele>
        <time>2016-04-03T13:16:15.1Z</time>
      </trkpt>
      <trkpt lat="48.58738" lon="-3.12664">
        <ele>276</ele>
        <time>2016-04-03T13:16:17.1Z</time>
      </trkpt>
      <trkpt lat="48.58736" lon="-3.12665">
        <ele>276</ele>
        <time>2016-04-03T13:16:19.1Z</time>
      </trkpt>
      <trkpt lat="48.58733" lon="-3.12666">
        <ele>276</ele>
        <time>2016-04-03T13:16:22.1Z</time>
      </trkpt>
      <trkpt lat="48.5873" lon="-3.12667">
        <ele>277</ele>
        <time>2016-04-03T13:16:25.1Z</time>
      </trkpt>
      <trkpt lat="48.58727" lon="-3.12667">
        <ele>277</ele>
        <time>2016-04-03T13:16:28.1Z</time>
      </trkpt>
      <trkpt lat="48.58726" lon="-3.12667">
        <ele>278</ele>
        <time>2016-04-03T13:16:30.1Z</time>
      </trkpt>
      <trkpt lat="48.58724" lon="-3.12667">
        <ele>278</ele>
        <time>2016-04-03T13:16:33.1Z</time>
      </trkpt>
      <trkpt lat="48.58722" lon="-3.12667">
        <ele>278</ele>
        <time>2016-04-03T13:16:35.1Z</time>
      </trkpt>
      <trkpt lat="48.5872" lon="-3.12667">
        <ele>279</ele>
        <time>2016-04-03T13:16:38.1Z</time>
      </trkpt>
      <trkpt lat="48.58718" lon="-3.12667">
        <ele>279</ele>
        <time>2016-04-03T13:16:40.1Z</time>
      </trkpt>
      <trkpt lat="48.58717" lon="-3.12667">
        <ele>279</ele>
        <time>2016-04-03T13:16:42.1Z</time>
      </trkpt>
      <trkpt lat="48.58714" lon="-3.12667">
        <ele>279</ele>
        <time>2016-04-03T13:16:45.1Z</time>
      </trkpt>
      <trkpt lat="48.58713" lon="-3.12668">
        <ele>280</ele>
        <time>2016-04-03T13:16:47.1Z</time>
      </trkpt>
      <trkpt lat="48.58712" lon="-3.12668">
        <ele>280</ele>
        <time>2016-04-03T13:16:49.1Z</time>
      </trkpt>
      <trkpt lat="48.58709" lon="-3.12669">
        <ele>280</ele>
        <time>2016-04-03T13:16:52.1Z</time>
      </trkpt>
      <trkpt lat="48.58707" lon="-3.12668">
        <ele>280</ele>
        <time>2016-04-03T13:16:54.1Z</time>
      </trkpt>
      <trkpt lat="48.58703" lon="-3.12668">
        <ele>279</ele>
        <time>2016-04-03T13:16:57.1Z</time>
      </trkpt>
      <trkpt lat="48.58701" lon="-3.12668">
        <ele>279</ele>
        <time>2016-04-03T13:17:00.1Z</time>
      </trkpt>
      <trkpt lat="48.58698" lon="-3.1267">
        <ele>279</ele>
        <time>2016-04-03T13:17:03.1Z</time>
      </trkpt>
      <trkpt lat="48.58697" lon="-3.12671">
        <ele>279</ele>
        <time>2016-04-03T13:17:06.1Z</time>
      </trkpt>
      <trkpt lat="48.58696" lon="-3.12671">
        <ele>279</ele>
        <time>2016-04-03T13:17:08.1Z</time>
      </trkpt>
      <trkpt lat="48.58694" lon="-3.12671">
        <ele>278</ele>
        <time>2016-04-03T13:17:11.1Z</time>
      </trkpt>
      <trkpt lat="48.58691" lon="-3.1267">
        <ele>278</ele>
        <time>2016-04-03T13:17:14.1Z</time>
      </trkpt>
      <trkpt lat="48.58691" lon="-3.12671">
        <ele>279</ele>
        <time>2016-04-03T13:17:16.1Z</time>
      </trkpt>
      <trkpt lat="48.5869" lon="-3.12671">
        <ele>278</ele>
        <time>2016-04-03T13:17:18.1Z</time>
      </trkpt>
      <trkpt lat="48.58689" lon="-3.12672">
        <ele>278</ele>
        <time>2016-04-03T13:17:21.1Z</time>
      </trkpt>
      <trkpt lat="48.58689" lon="-3.12673">
        <ele>278</ele>
        <time>2016-04-03T13:17:23.1Z</time>
      </trkpt>
      <trkpt lat="48.58689" lon="-3.12674">
        <ele>278</ele>
        <time>2016-04-03T13:17:25.1Z</time>
      </trkpt>
      <trkpt lat="48.58689" lon="-3.12675">
        <ele>278</ele>
        <time>2016-04-03T13:17:27.1Z</time>
      </trkpt>
      <trkpt lat="48.58689" lon="-3.12676">
        <ele>278</ele>
        <time>2016-04-03T13:17:29.1Z</time>
      </trkpt>
      <trkpt lat="48.58689" lon="-3.12677">
        <ele>278</ele>
        <time>2016-04-03T13:17:31.1Z</time>
      </trkpt>
      <trkpt lat="48.58689" lon="-3.12678">
        <ele>278</ele>
        <time>2016-04-03T13:17:34.1Z</time>
      </trkpt>
      <trkpt lat="48.58689" lon="-3.12679">
        <ele>278</ele>
        <time>2016-04-03T13:17:37.1Z</time>
      </trkpt>
      <trkpt lat="48.58688" lon="-3.1268">
        <ele>278</ele>
        <time>2016-04-03T13:17:40.1Z</time>
      </trkpt>
      <trkpt lat="48.58688" lon="-3.1268">
        <ele>278</ele>
        <time>2016-04-03T13:17:43.1Z</time>
      </trkpt>
      <trkpt lat="48.58688" lon="-3.1268">
        <ele>278</ele>
        <time>2016-04-03T13:17:46.1Z</time>
      </trkpt>
      <trkpt lat="48.58689" lon="-3.1268">
        <ele>278</ele>
        <time>2016-04-03T13:17:49.1Z</time>
      </trkpt>
      <trkpt lat="48.58689" lon="-3.1268">
        <ele>278</ele>
        <time>2016-04-03T13:17:52.1Z</time>
      </trkpt>
      <trkpt lat="48.58688" lon="-3.1268">
        <ele>278</ele>
        <time>2016-04-03T13:17:54.1Z</time>
      </trkpt>
      <trkpt lat="48.58688" lon="-3.1268">
        <ele>278</ele>
        <time>2016-04-03T13:17:56.1Z</time>
      </trkpt>
      <trkpt lat="48.58689" lon="-3.1268">
        <ele>278</ele>
        <time>2016-04-03T13:17:59.1Z</time>
      </trkpt>
      <trkpt lat="48.58689" lon="-3.1268">
        <ele>278</ele>
        <time>2016-04-03T13:18:01.1Z</time>
      </trkpt>
      <trkpt lat="48.58689" lon="-3.1268">
        <ele>278</ele>
        <time>2016-04-03T13:18:04.1Z</time>
      </trkpt>
      <trkpt lat="48.5869" lon="-3.1268">
        <ele>278</ele>
        <time>2016-04-03T13:18:07.1Z</time>
      </trkpt>
      <trkpt lat="48.5869" lon="-3.12681">
        <ele>278</ele>
        <time>2016-04-03T13:18:09.1Z</time>
      </trkpt>
      <trkpt lat="48.5869" lon="-3.12681">
        <ele>279</ele>
        <time>2016-04-03T13:18:13.1Z</time>
      </trkpt>
      <trkpt lat="48.5869" lon="-3.1268">
        <ele>279</ele>
        <time>2016-04-03T13:18:15.1Z</time>
      </trkpt>
      <trkpt lat="48.5869" lon="-3.1268">
        <ele>279</ele>
        <time>2016-04-03T13:18:17.1Z</time>
      </trkpt>
      <trkpt lat="48.58689" lon="-3.12681">
        <ele>279</ele>
        <time>2016-04-03T13:18:20.1Z</time>
      </trkpt>
      <trkpt lat="48.58688" lon="-3.12682">
        <ele>279</ele>
        <time>2016-04-03T13:18:23.1Z</time>
      </trkpt>
      <trkpt lat="48.58688" lon="-3.12682">
        <ele>279</ele>
        <time>2016-04-03T13:18:25.1Z</time>
      </trkpt>
      <trkpt lat="48.58686" lon="-3.12682">
        <ele>279</ele>
        <time>2016-04-03T13:18:28.1Z</time>
      </trkpt>
      <trkpt lat="48.58685" lon="-3.12682">
        <ele>278</ele>
        <time>2016-04-03T13:18:30.1Z</time>
      </trkpt>
      <trkpt lat="48.58685" lon="-3.12683">
        <ele>279</ele>
        <time>2016-04-03T13:18:32.1Z</time>
      </trkpt>
      <trkpt lat="48.58684" lon="-3.12683">
        <ele>279</ele>
        <time>2016-04-03T13:18:35.1Z</time>
      </trkpt>
      <trkpt lat="48.58684" lon="-3.12683">
        <ele>279</ele>
        <time>2016-04-03T13:18:38.1Z</time>
      </trkpt>
      <trkpt lat="48.58685" lon="-3.12683">
        <ele>278</ele>
        <time>2016-04-03T13:18:41.1Z</time>
      </trkpt>
      <trkpt lat="48.58685" lon="-3.12683">
        <ele>278</ele>
        <time>2016-04-03T13:18:43.1Z</time>
      </trkpt>
      <trkpt lat="48.58685" lon="-3.12684">
        <ele>278</ele>
        <time>2016-04-03T13:18:45.1Z</time>
      </trkpt>
      <trkpt lat="48.58685" lon="-3.12684">
        <ele>277</ele>
        <time>2016-04-03T13:18:47.1Z</time>
      </trkpt>
      <trkpt lat="48.58684" lon="-3.12685">
        <ele>277</ele>
        <time>2016-04-03T13:18:50.1Z</time>
      </trkpt>
      <trkpt lat="48.58684" lon="-3.12686">
        <ele>277</ele>
        <time>2016-04-03T13:18:53.1Z</time>
      </trkpt>
      <trkpt lat="48.58684" lon="-3.12686">
        <ele>277</ele>
        <time>2016-04-03T13:18:55.1Z</time>
      </trkpt>
      <trkpt lat="48.58683" lon="-3.12686">
        <ele>277</ele>
        <time>2016-04-03T13:18:57.1Z</time>
      </trkpt>
      <trkpt lat="48.58683" lon="-3.12687">
        <ele>277</ele>
        <time>2016-04-03T13:19:00.1Z</time>
      </trkpt>
      <trkpt lat="48.58684" lon="-3.12687">
        <ele>277</ele>
        <time>2016-04-03T13:19:03.1Z</time>
      </trkpt>
      <trkpt lat="48.58684" lon="-3.12687">
        <ele>277</ele>
        <time>2016-04-03T13:19:05.1Z</time>
      </trkpt>
      <trkpt lat="48.58683" lon="-3.12687">
        <ele>277</ele>
        <time>2016-04-03T13:19:07.1Z</time>
      </trkpt>
      <trkpt lat="48.58683" lon="-3.12688">
        <ele>277</ele>
        <time>2016-04-03T13:19:10.1Z</time>
      </trkpt>
      <trkpt lat="48.58684" lon="-3.12687">
        <ele>277</ele>
        <time>2016-04-03T13:19:13.1Z</time>
      </trkpt>
      <trkpt lat="48.58685" lon="-3.12687">
        <ele>277</ele>
        <time>2016-04-03T13:19:16.1Z</time>
      </trkpt>
      <trkpt lat="48.58686" lon="-3.12688">
        <ele>277</ele>
        <time>2016-04-03T13:19:19.1Z</time>
      </trkpt>
      <trkpt lat="48.58685" lon="-3.12688">
        <ele>277</ele>
        <time>2016-04-03T13:19:21.1Z</time>
      </trkpt>
      <trkpt lat="48.58684" lon="-3.12689">
        <ele>277</ele>
        <time>2016-04-03T13:19:24.1Z</time>
      </trkpt>
      <trkpt lat="48.58685" lon="-3.12689">
        <ele>277</ele>
        <time>2016-04-03T13:19:27.1Z</time>
      </trkpt>
      <trkpt lat="48.58685" lon="-3.12689">
        <ele>278</ele>
        <time>2016-04-03T13:19:29.1Z</time>
      </trkpt>
      <trkpt lat="48.58687" lon="-3.12689">
        <ele>278</ele>
        <time>2016-04-03T13:19:32.1Z</time>
      </trkpt>
      <trkpt lat="48.58687" lon="-3.12689">
        <ele>278</ele>
        <time>2016-04-03T13:19:34.1Z</time>
      </trkpt>
      <trkpt lat="48.58687" lon="-3.12689">
        <ele>278</ele>
        <time>2016-04-03T13:19:36.1Z</time>
      </trkpt>
      <trkpt lat="48.58687" lon="-3.12689">
        <ele>279</ele>
        <time>2016-04-03T13:19:39.1Z</time>
      </trkpt>
      <trkpt lat="48.58688" lon="-3.1269">
        <ele>279</ele>
        <time>2016-04-03T13:19:41.1Z</time>
      </trkpt>
      <trkpt lat="48.58688" lon="-3.12689">
        <ele>279</ele>
        <time>2016-04-03T13:19:43.1Z</time>
      </trkpt>
      <trkpt lat="48.58688" lon="-3.1269">
        <ele>278</ele>
        <time>2016-04-03T13:19:46.1Z</time>
      </trkpt>
      <trkpt lat="48.58688" lon="-3.1269">
        <ele>278</ele>
        <time>2016-04-03T13:19:48.1Z</time>
      </trkpt>
      <trkpt lat="48.58688" lon="-3.1269">
        <ele>278</ele>
        <time>2016-04-03T13:19:51.1Z</time>
      </trkpt>
      <trkpt lat="48.58689" lon="-3.12691">
        <ele>278</ele>
        <time>2016-04-03T13:19:54.1Z</time>
      </trkpt>
      <trkpt lat="48.58689" lon="-3.12691">
        <ele>279</ele>
        <time>2016-04-03T13:19:56.1Z</time>
      </trkpt>
      <trkpt lat="48.5869" lon="-3.12691">
        <ele>279</ele>
        <time>2016-04-03T13:19:58.1Z</time>
      </trkpt>
      <trkpt lat="48.58692" lon="-3.12689">
        <ele>279</ele>
        <time>2016-04-03T13:20:01.1Z</time>
      </trkpt>
      <trkpt lat="48.58693" lon="-3.12688">
        <ele>279</ele>
        <time>2016-04-03T13:20:05.1Z</time>
      </trkpt>
      <trkpt lat="48.58693" lon="-3.12687">
        <ele>279</ele>
        <time>2016-04-03T13:20:07.1Z</time>
      </trkpt>
      <trkpt lat="48.58694" lon="-3.12685">
        <ele>279</ele>
        <time>2016-04-03T13:20:09.1Z</time>
      </trkpt>
      <trkpt lat="48.58695" lon="-3.12684">
        <ele>280</ele>
        <time>2016-04-03T13:20:11.1Z</time>
      </trkpt>
      <trkpt lat="48.58696" lon="-3.12682">
        <ele>280</ele>
        <time>2016-04-03T13:20:14.1Z</time>
      </trkpt>
      <trkpt lat="48.58697" lon="-3.12682">
        <ele>280</ele>
        <time>2016-04-03T13:20:16.1Z</time>
      </trkpt>
      <trkpt lat="48.58698" lon="-3.12681">
        <ele>280</ele>
        <time>2016-04-03T13:20:19.1Z</time>
      </trkpt>
      <trkpt lat="48.58699" lon="-3.12681">
        <ele>280</ele>
        <time>2016-04-03T13:20:22.1Z</time>
      </trkpt>
      <trkpt lat="48.58699" lon="-3.12681">
        <ele>280</ele>
        <time>2016-04-03T13:20:25.1Z</time>
      </trkpt>
      <trkpt lat="48.58701" lon="-3.1268">
        <ele>280</ele>
        <time>2016-04-03T13:20:28.1Z</time>
      </trkpt>
      <trkpt lat="48.58702" lon="-3.1268">
        <ele>280</ele>
        <time>2016-04-03T13:20:30.1Z</time>
      </trkpt>
      <trkpt lat="48.58703" lon="-3.12679">
        <ele>280</ele>
        <time>2016-04-03T13:20:32.1Z</time>
      </trkpt>
      <trkpt lat="48.58704" lon="-3.12678">
        <ele>280</ele>
        <time>2016-04-03T13:20:35.1Z</time>
      </trkpt>
      <trkpt lat="48.58704" lon="-3.12677">
        <ele>280</ele>
        <time>2016-04-03T13:20:37.1Z</time>
      </trkpt>
      <trkpt lat="48.58704" lon="-3.12676">
        <ele>280</ele>
        <time>2016-04-03T13:20:39.1Z</time>
      </trkpt>
      <trkpt lat="48.58704" lon="-3.12675">
        <ele>280</ele>
        <time>2016-04-03T13:20:42.1Z</time>
      </trkpt>
      <trkpt lat="48.58704" lon="-3.12675">
        <ele>280</ele>
        <time>2016-04-03T13:20:45.1Z</time>
      </trkpt>
      <trkpt lat="48.58704" lon="-3.12674">
        <ele>280</ele>
        <time>2016-04-03T13:20:47.1Z</time>
      </trkpt>
      <trkpt lat="48.58704" lon="-3.12673">
        <ele>280</ele>
        <time>2016-04-03T13:20:50.1Z</time>
      </trkpt>
      <trkpt lat="48.58703" lon="-3.12673">
        <ele>280</ele>
        <time>2016-04-03T13:20:54.1Z</time>
      </trkpt>
      <trkpt lat="48.58702" lon="-3.12673">
        <ele>280</ele>
        <time>2016-04-03T13:20:57.1Z</time>
      </trkpt>
      <trkpt lat="48.58702" lon="-3.12674">
        <ele>280</ele>
        <time>2016-04-03T13:21:00.1Z</time>
      </trkpt>
      <trkpt lat="48.58702" lon="-3.12674">
        <ele>280</ele>
        <time>2016-04-03T13:21:02.1Z</time>
      </trkpt>
      <trkpt lat="48.58703" lon="-3.12674">
        <ele>280</ele>
        <time>2016-04-03T13:21:05.1Z</time>
      </trkpt>
      <trkpt lat="48.58705" lon="-3.12675">
        <ele>280</ele>
        <time>2016-04-03T13:21:07.1Z</time>
      </trkpt>
      <trkpt lat="48.58707" lon="-3.12676">
        <ele>280</ele>
        <time>2016-04-03T13:21:09.1Z</time>
      </trkpt>
      <trkpt lat="48.58709" lon="-3.12678">
        <ele>280</ele>
        <time>2016-04-03T13:21:12.1Z</time>
      </trkpt>
      <trkpt lat="48.58711" lon="-3.1268">
        <ele>279</ele>
        <time>2016-04-03T13:21:15.1Z</time>
      </trkpt>
      <trkpt lat="48.58712" lon="-3.12681">
        <ele>279</ele>
        <time>2016-04-03T13:21:17.1Z</time>
      </trkpt>
      <trkpt lat="48.58713" lon="-3.1268">
        <ele>278</ele>
        <time>2016-04-03T13:21:19.1Z</time>
      </trkpt>
      <trkpt lat="48.58716" lon="-3.1268">
        <ele>278</ele>
        <time>2016-04-03T13:21:22.1Z</time>
      </trkpt>
      <trkpt lat="48.58718" lon="-3.12681">
        <ele>277</ele>
        <time>2016-04-03T13:21:25.1Z</time>
      </trkpt>
      <trkpt lat="48.58719" lon="-3.12681">
        <ele>277</ele>
        <time>2016-04-03T13:21:27.1Z</time>
      </trkpt>
      <trkpt lat="48.58721" lon="-3.12682">
        <ele>277</ele>
        <time>2016-04-03T13:21:29.1Z</time>
      </trkpt>
      <trkpt lat="48.58724" lon="-3.12681">
        <ele>277</ele>
        <time>2016-04-03T13:21:32.1Z</time>
      </trkpt>
      <trkpt lat="48.58727" lon="-3.1268">
        <ele>277</ele>
        <time>2016-04-03T13:21:35.1Z</time>
      </trkpt>
      <trkpt lat="48.5873" lon="-3.1268">
        <ele>277</ele>
        <time>2016-04-03T13:21:37.1Z</time>
      </trkpt>
      <trkpt lat="48.58733" lon="-3.12679">
        <ele>277</ele>
        <time>2016-04-03T13:21:40.1Z</time>
      </trkpt>
      <trkpt lat="48.58735" lon="-3.12679">
        <ele>276</ele>
        <time>2016-04-03T13:21:43.1Z</time>
      </trkpt>
      <trkpt lat="48.58738" lon="-3.12679">
        <ele>276</ele>
        <time>2016-04-03T13:21:46.1Z</time>
      </trkpt>
      <trkpt lat="48.58739" lon="-3.12679">
        <ele>275</ele>
        <time>2016-04-03T13:21:48.1Z</time>
      </trkpt>
      <trkpt lat="48.5874" lon="-3.12678">
        <ele>275</ele>
        <time>2016-04-03T13:21:50.1Z</time>
      </trkpt>
      <trkpt lat="48.58743" lon="-3.12677">
        <ele>275</ele>
        <time>2016-04-03T13:21:53.1Z</time>
      </trkpt>
      <trkpt lat="48.58745" lon="-3.12677">
        <ele>274</ele>
        <time>2016-04-03T13:21:56.1Z</time>
      </trkpt>
      <trkpt lat="48.58747" lon="-3.12676">
        <ele>274</ele>
        <time>2016-04-03T13:21:58.1Z</time>
      </trkpt>
      <trkpt lat="48.58749" lon="-3.12675">
        <ele>274</ele>
        <time>2016-04-03T13:22:00.1Z</time>
      </trkpt>
      <trkpt lat="48.58751" lon="-3.12672">
        <ele>274</ele>
        <time>2016-04-03T13:22:02.1Z</time>
      </trkpt>
      <trkpt lat="48.58754" lon="-3.12668">
        <ele>274</ele>
        <time>2016-04-03T13:22:05.1Z</time>
      </trkpt>
      <trkpt lat="48.58756" lon="-3.12665">
        <ele>274</ele>
        <time>2016-04-03T13:22:08.1Z</time>
      </trkpt>
      <trkpt lat="48.58757" lon="-3.12659">
        <ele>275</ele>
        <time>2016-04-03T13:22:11.1Z</time>
      </trkpt>
      <trkpt lat="48.58758" lon="-3.12656">
        <ele>275</ele>
        <time>2016-04-03T13:22:13.1Z</time>
      </trkpt>
      <trkpt lat="48.58759" lon="-3.12653">
        <ele>275</ele>
        <time>2016-04-03T13:22:15.1Z</time>
      </trkpt>
      <trkpt lat="48.5876" lon="-3.12651">
        <ele>275</ele>
        <time>2016-04-03T13:22:17.1Z</time>
      </trkpt>
      <trkpt lat="48.58761" lon="-3.12646">
        <ele>276</ele>
        <time>2016-04-03T13:22:20.1Z</time>
      </trkpt>
      <trkpt lat="48.58761" lon="-3.12644">
        <ele>276</ele>
        <time>2016-04-03T13:22:22.1Z</time>
      </trkpt>
      <trkpt lat="48.58762" lon="-3.12639">
        <ele>277</ele>
        <time>2016-04-03T13:22:25.1Z</time>
      </trkpt>
      <trkpt lat="48.58762" lon="-3.12634">
        <ele>277</ele>
        <time>2016-04-03T13:22:28.1Z</time>
      </trkpt>
      <trkpt lat="48.58762" lon="-3.1263">
        <ele>278</ele>
        <time>2016-04-03T13:22:31.1Z</time>
      </trkpt>
      <trkpt lat="48.58761" lon="-3.12626">
        <ele>278</ele>
        <time>2016-04-03T13:22:33.1Z</time>
      </trkpt>
      <trkpt lat="48.5876" lon="-3.12622">
        <ele>278</ele>
        <time>2016-04-03T13:22:36.1Z</time>
      </trkpt>
      <trkpt lat="48.58758" lon="-3.12618">
        <ele>278</ele>
        <time>2016-04-03T13:22:39.1Z</time>
      </trkpt>
      <trkpt lat="48.58758" lon="-3.12615">
        <ele>278</ele>
        <time>2016-04-03T13:22:41.1Z</time>
      </trkpt>
      <trkpt lat="48.58757" lon="-3.12612">
        <ele>279</ele>
        <time>2016-04-03T13:22:44.1Z</time>
      </trkpt>
      <trkpt lat="48.58755" lon="-3.1261">
        <ele>279</ele>
        <time>2016-04-03T13:22:46.1Z</time>
      </trkpt>
      <trkpt lat="48.58754" lon="-3.12608">
        <ele>280</ele>
        <time>2016-04-03T13:22:49.1Z</time>
      </trkpt>
      <trkpt lat="48.58753" lon="-3.12605">
        <ele>280</ele>
        <time>2016-04-03T13:22:52.1Z</time>
      </trkpt>
      <trkpt lat="48.58752" lon="-3.12604">
        <ele>280</ele>
        <time>2016-04-03T13:22:54.1Z</time>
      </trkpt>
      <trkpt lat="48.58751" lon="-3.12601">
        <ele>281</ele>
        <time>2016-04-03T13:22:57.1Z</time>
      </trkpt>
      <trkpt lat="48.5875" lon="-3.12598">
        <ele>281</ele>
        <time>2016-04-03T13:23:00.1Z</time>
      </trkpt>
      <trkpt lat="48.58749" lon="-3.12593">
        <ele>281</ele>
        <time>2016-04-03T13:23:03.1Z</time>
      </trkpt>
      <trkpt lat="48.58749" lon="-3.12591">
        <ele>281</ele>
        <time>2016-04-03T13:23:05.1Z</time>
      </trkpt>
      <trkpt lat="48.58748" lon="-3.12585">
        <ele>281</ele>
        <time>2016-04-03T13:23:08.1Z</time>
      </trkpt>
      <trkpt lat="48.58747" lon="-3.12581">
        <ele>282</ele>
        <time>2016-04-03T13:23:11.1Z</time>
      </trkpt>
      <trkpt lat="48.58747" lon="-3.12579">
        <ele>282</ele>
        <time>2016-04-03T13:23:13.1Z</time>
      </trkpt>
      <trkpt lat="48.58747" lon="-3.12575">
        <ele>282</ele>
        <time>2016-04-03T13:23:16.1Z</time>
      </trkpt>
      <trkpt lat="48.58747" lon="-3.12572">
        <ele>282</ele>
        <time>2016-04-03T13:23:18.1Z</time>
      </trkpt>
      <trkpt lat="48.58748" lon="-3.12567">
        <ele>283</ele>
        <time>2016-04-03T13:23:21.1Z</time>
      </trkpt>
      <trkpt lat="48.58747" lon="-3.12563">
        <ele>283</ele>
        <time>2016-04-03T13:23:24.1Z</time>
      </trkpt>
      <trkpt lat="48.58745" lon="-3.1256">
        <ele>284</ele>
        <time>2016-04-03T13:23:27.1Z</time>
      </trkpt>
      <trkpt lat="48.58744" lon="-3.12557">
        <ele>284</ele>
        <time>2016-04-03T13:23:29.1Z</time>
      </trkpt>
      <trkpt lat="48.58744" lon="-3.12554">
        <ele>284</ele>
        <time>2016-04-03T13:23:32.1Z</time>
      </trkpt>
      <trkpt lat="48.58744" lon="-3.12551">
        <ele>285</ele>
        <time>2016-04-03T13:23:34.1Z</time>
      </trkpt>
      <trkpt lat="48.58743" lon="-3.12548">
        <ele>284</ele>
        <time>2016-04-03T13:23:37.1Z</time>
      </trkpt>
      <trkpt lat="48.58742" lon="-3.12546">
        <ele>285</ele>
        <time>2016-04-03T13:23:39.1Z</time>
      </trkpt>
      <trkpt lat="48.58741" lon="-3.12544">
        <ele>285</ele>
        <time>2016-04-03T13:23:42.1Z</time>
      </trkpt>
      <trkpt lat="48.58741" lon="-3.12541">
        <ele>286</ele>
        <time>2016-04-03T13:23:45.1Z</time>
      </trkpt>
      <trkpt lat="48.5874" lon="-3.12538">
        <ele>286</ele>
        <time>2016-04-03T13:23:47.1Z</time>
      </trkpt>
      <trkpt lat="48.58739" lon="-3.12537">
        <ele>287</ele>
        <time>2016-04-03T13:23:50.1Z</time>
      </trkpt>
      <trkpt lat="48.58738" lon="-3.12536">
        <ele>287</ele>
        <time>2016-04-03T13:23:52.1Z</time>
      </trkpt>
      <trkpt lat="48.58738" lon="-3.12536">
        <ele>287</ele>
        <time>2016-04-03T13:23:55.1Z</time>
      </trkpt>
      <trkpt lat="48.58737" lon="-3.12537">
        <ele>287</ele>
        <time>2016-04-03T13:23:58.1Z</time>
      </trkpt>
      <trkpt lat="48.58738" lon="-3.12536">
        <ele>287</ele>
        <time>2016-04-03T13:24:00.1Z</time>
      </trkpt>
      <trkpt lat="48.58738" lon="-3.12534">
        <ele>286</ele>
        <time>2016-04-03T13:24:03.1Z</time>
      </trkpt>
      <trkpt lat="48.58738" lon="-3.12531">
        <ele>286</ele>
        <time>2016-04-03T13:24:06.1Z</time>
      </trkpt>
      <trkpt lat="48.58739" lon="-3.12529">
        <ele>286</ele>
        <time>2016-04-03T13:24:09.1Z</time>
      </trkpt>
      <trkpt lat="48.58738" lon="-3.12526">
        <ele>287</ele>
        <time>2016-04-03T13:24:12.1Z</time>
      </trkpt>
      <trkpt lat="48.58737" lon="-3.12524">
        <ele>287</ele>
        <time>2016-04-03T13:24:15.1Z</time>
      </trkpt>
      <trkpt lat="48.58737" lon="-3.12521">
        <ele>287</ele>
        <time>2016-04-03T13:24:18.1Z</time>
      </trkpt>
      <trkpt lat="48.58737" lon="-3.1252">
        <ele>288</ele>
        <time>2016-04-03T13:24:20.1Z</time>
      </trkpt>
      <trkpt lat="48.58736" lon="-3.12519">
        <ele>288</ele>
        <time>2016-04-03T13:24:22.1Z</time>
      </trkpt>
      <trkpt lat="48.58735" lon="-3.12517">
        <ele>288</ele>
        <time>2016-04-03T13:24:25.1Z</time>
      </trkpt>
      <trkpt lat="48.58735" lon="-3.12515">
        <ele>289</ele>
        <time>2016-04-03T13:24:27.1Z</time>
      </trkpt>
      <trkpt lat="48.58734" lon="-3.12512">
        <ele>289</ele>
        <time>2016-04-03T13:24:29.1Z</time>
      </trkpt>
      <trkpt lat="48.58733" lon="-3.1251">
        <ele>289</ele>
        <time>2016-04-03T13:24:32.1Z</time>
      </trkpt>
      <trkpt lat="48.58732" lon="-3.12507">
        <ele>290</ele>
        <time>2016-04-03T13:24:35.1Z</time>
      </trkpt>
      <trkpt lat="48.58731" lon="-3.12504">
        <ele>290</ele>
        <time>2016-04-03T13:24:38.1Z</time>
      </trkpt>
      <trkpt lat="48.58729" lon="-3.12502">
        <ele>290</ele>
        <time>2016-04-03T13:24:41.1Z</time>
      </trkpt>
      <trkpt lat="48.58728" lon="-3.12498">
        <ele>291</ele>
        <time>2016-04-03T13:24:44.1Z</time>
      </trkpt>
      <trkpt lat="48.58726" lon="-3.12495">
        <ele>291</ele>
        <time>2016-04-03T13:24:47.1Z</time>
      </trkpt>
      <trkpt lat="48.58725" lon="-3.12493">
        <ele>292</ele>
        <time>2016-04-03T13:24:49.1Z</time>
      </trkpt>
      <trkpt lat="48.58724" lon="-3.12491">
        <ele>292</ele>
        <time>2016-04-03T13:24:51.1Z</time>
      </trkpt>
      <trkpt lat="48.58722" lon="-3.12488">
        <ele>292</ele>
        <time>2016-04-03T13:24:54.1Z</time>
      </trkpt>
      <trkpt lat="48.5872" lon="-3.12485">
        <ele>293</ele>
        <time>2016-04-03T13:24:57.1Z</time>
      </trkpt>
      <trkpt lat="48.5872" lon="-3.12484">
        <ele>293</ele>
        <time>2016-04-03T13:24:59.1Z</time>
      </trkpt>
      <trkpt lat="48.58718" lon="-3.12483">
        <ele>293</ele>
        <time>2016-04-03T13:25:02.1Z</time>
      </trkpt>
      <trkpt lat="48.58717" lon="-3.12481">
        <ele>293</ele>
        <time>2016-04-03T13:25:04.1Z</time>
      </trkpt>
      <trkpt lat="48.58717" lon="-3.1248">
        <ele>293</ele>
        <time>2016-04-03T13:25:06.1Z</time>
      </trkpt>
      <trkpt lat="48.58716" lon="-3.12478">
        <ele>294</ele>
        <time>2016-04-03T13:25:09.1Z</time>
      </trkpt>
      <trkpt lat="48.58715" lon="-3.12476">
        <ele>294</ele>
        <time>2016-04-03T13:25:12.1Z</time>
      </trkpt>
      <trkpt lat="48.58714" lon="-3.12476">
        <ele>294</ele>
        <time>2016-04-03T13:25:15.1Z</time>
      </trkpt>
      <trkpt lat="48.58713" lon="-3.12475">
        <ele>294</ele>
        <time>2016-04-03T13:25:17.1Z</time>
      </trkpt>
      <trkpt lat="48.58711" lon="-3.12473">
        <ele>294</ele>
        <time>2016-04-03T13:25:20.1Z</time>
      </trkpt>
      <trkpt lat="48.5871" lon="-3.12471">
        <ele>294</ele>
        <time>2016-04-03T13:25:22.1Z</time>
      </trkpt>
      <trkpt lat="48.58709" lon="-3.1247">
        <ele>294</ele>
        <time>2016-04-03T13:25:25.1Z</time>
      </trkpt>
      <trkpt lat="48.58709" lon="-3.12469">
        <ele>294</ele>
        <time>2016-04-03T13:25:28.1Z</time>
      </trkpt>
      <trkpt lat="48.58709" lon="-3.12468">
        <ele>294</ele>
        <time>2016-04-03T13:25:30.1Z</time>
      </trkpt>
      <trkpt lat="48.58709" lon="-3.12468">
        <ele>294</ele>
        <time>2016-04-03T13:25:32.1Z</time>
      </trkpt>
      <trkpt lat="48.58709" lon="-3.12468">
        <ele>294</ele>
        <time>2016-04-03T13:25:34.1Z</time>
      </trkpt>
      <trkpt lat="48.5871" lon="-3.12467">
        <ele>294</ele>
        <time>2016-04-03T13:25:37.1Z</time>
      </trkpt>
      <trkpt lat="48.58709" lon="-3.12466">
        <ele>294</ele>
        <time>2016-04-03T13:25:40.1Z</time>
      </trkpt>
      <trkpt lat="48.58709" lon="-3.12465">
        <ele>294</ele>
        <time>2016-04-03T13:25:42.1Z</time>
      </trkpt>
      <trkpt lat="48.58708" lon="-3.12463">
        <ele>295</ele>
        <time>2016-04-03T13:25:45.1Z</time>
      </trkpt>
      <trkpt lat="48.58707" lon="-3.12461">
        <ele>295</ele>
        <time>2016-04-03T13:25:48.1Z</time>
      </trkpt>
      <trkpt lat="48.58707" lon="-3.12462">
        <ele>295</ele>
        <time>2016-04-03T13:25:50.1Z</time>
      </trkpt>
      <trkpt lat="48.58707" lon="-3.12461">
        <ele>295</ele>
        <time>2016-04-03T13:25:52.1Z</time>
      </trkpt>
      <trkpt lat="48.58707" lon="-3.12459">
        <ele>295</ele>
        <time>2016-04-03T13:25:55.1Z</time>
      </trkpt>
      <trkpt lat="48.58707" lon="-3.1246">
        <ele>295</ele>
        <time>2016-04-03T13:25:57.1Z</time>
      </trkpt>
      <trkpt lat="48.58707" lon="-3.1246">
        <ele>296</ele>
        <time>2016-04-03T13:26:00.1Z</time>
      </trkpt>
      <trkpt lat="48.58709" lon="-3.12462">
        <ele>296</ele>
        <time>2016-04-03T13:26:03.1Z</time>
      </trkpt>
      <trkpt lat="48.58709" lon="-3.12462">
        <ele>296</ele>
        <time>2016-04-03T13:26:05.1Z</time>
      </trkpt>
      <trkpt lat="48.58709" lon="-3.12462">
        <ele>296</ele>
        <time>2016-04-03T13:26:08.1Z</time>
      </trkpt>
      <trkpt lat="48.58709" lon="-3.12462">
        <ele>296</ele>
        <time>2016-04-03T13:26:10.1Z</time>
      </trkpt>
      <trkpt lat="48.58709" lon="-3.12463">
        <ele>296</ele>
        <time>2016-04-03T13:26:13.1Z</time>
      </trkpt>
      <trkpt lat="48.58709" lon="-3.12462">
        <ele>296</ele>
        <time>2016-04-03T13:26:17.1Z</time>
      </trkpt>
      <trkpt lat="48.58709" lon="-3.12461">
        <ele>296</ele>
        <time>2016-04-03T13:26:20.1Z</time>
      </trkpt>
      <trkpt lat="48.58709" lon="-3.12461">
        <ele>296</ele>
        <time>2016-04-03T13:26:22.1Z</time>
      </trkpt>
      <trkpt lat="48.58707" lon="-3.1246">
        <ele>296</ele>
        <time>2016-04-03T13:26:25.1Z</time>
      </trkpt>
      <trkpt lat="48.58706" lon="-3.1246">
        <ele>296</ele>
        <time>2016-04-03T13:26:28.1Z</time>
      </trkpt>
      <trkpt lat="48.58705" lon="-3.1246">
        <ele>296</ele>
        <time>2016-04-03T13:26:30.1Z</time>
      </trkpt>
      <trkpt lat="48.58704" lon="-3.12458">
        <ele>296</ele>
        <time>2016-04-03T13:26:33.1Z</time>
      </trkpt>
      <trkpt lat="48.58703" lon="-3.12458">
        <ele>296</ele>
        <time>2016-04-03T13:26:35.1Z</time>
      </trkpt>
      <trkpt lat="48.58703" lon="-3.12457">
        <ele>296</ele>
        <time>2016-04-03T13:26:37.1Z</time>
      </trkpt>
      <trkpt lat="48.58702" lon="-3.12456">
        <ele>296</ele>
        <time>2016-04-03T13:26:40.1Z</time>
      </trkpt>
      <trkpt lat="48.587" lon="-3.12455">
        <ele>296</ele>
        <time>2016-04-03T13:26:42.1Z</time>
      </trkpt>
      <trkpt lat="48.58699" lon="-3.12454">
        <ele>296</ele>
        <time>2016-04-03T13:26:45.1Z</time>
      </trkpt>
      <trkpt lat="48.587" lon="-3.12452">
        <ele>295</ele>
        <time>2016-04-03T13:26:48.1Z</time>
      </trkpt>
      <trkpt lat="48.58699" lon="-3.12452">
        <ele>295</ele>
        <time>2016-04-03T13:26:50.1Z</time>
      </trkpt>
      <trkpt lat="48.58699" lon="-3.12451">
        <ele>295</ele>
        <time>2016-04-03T13:26:53.1Z</time>
      </trkpt>
      <trkpt lat="48.58698" lon="-3.12451">
        <ele>295</ele>
        <time>2016-04-03T13:26:55.1Z</time>
      </trkpt>
      <trkpt lat="48.58697" lon="-3.12449">
        <ele>295</ele>
        <time>2016-04-03T13:26:58.1Z</time>
      </trkpt>
      <trkpt lat="48.58697" lon="-3.12449">
        <ele>295</ele>
        <time>2016-04-03T13:27:01.1Z</time>
      </trkpt>
      <trkpt lat="48.58697" lon="-3.12448">
        <ele>295</ele>
        <time>2016-04-03T13:27:03.1Z</time>
      </trkpt>
      <trkpt lat="48.58696" lon="-3.12449">
        <ele>295</ele>
        <time>2016-04-03T13:27:05.1Z</time>
      </trkpt>
      <trkpt lat="48.58696" lon="-3.12449">
        <ele>295</ele>
        <time>2016-04-03T13:27:08.1Z</time>
      </trkpt>
      <trkpt lat="48.58696" lon="-3.12449">
        <ele>295</ele>
        <time>2016-04-03T13:27:11.1Z</time>
      </trkpt>
      <trkpt lat="48.58697" lon="-3.12447">
        <ele>295</ele>
        <time>2016-04-03T13:27:14.1Z</time>
      </trkpt>
      <trkpt lat="48.58697" lon="-3.12446">
        <ele>295</ele>
        <time>2016-04-03T13:27:17.1Z</time>
      </trkpt>
      <trkpt lat="48.58697" lon="-3.12446">
        <ele>295</ele>
        <time>2016-04-03T13:27:19.1Z</time>
      </trkpt>
      <trkpt lat="48.58698" lon="-3.12446">
        <ele>295</ele>
        <time>2016-04-03T13:27:22.1Z</time>
      </trkpt>
      <trkpt lat="48.58697" lon="-3.12445">
        <ele>295</ele>
        <time>2016-04-03T13:27:25.1Z</time>
      </trkpt>
      <trkpt lat="48.58696" lon="-3.12443">
        <ele>295</ele>
        <time>2016-04-03T13:27:28.1Z</time>
      </trkpt>
      <trkpt lat="48.58696" lon="-3.12441">
        <ele>295</ele>
        <time>2016-04-03T13:27:30.1Z</time>
      </trkpt>
      <trkpt lat="48.58695" lon="-3.1244">
        <ele>296</ele>
        <time>2016-04-03T13:27:33.1Z</time>
      </trkpt>
      <trkpt lat="48.58695" lon="-3.12439">
        <ele>296</ele>
        <time>2016-04-03T13:27:35.1Z</time>
      </trkpt>
      <trkpt lat="48.58695" lon="-3.12438">
        <ele>295</ele>
        <time>2016-04-03T13:27:38.1Z</time>
      </trkpt>
      <trkpt lat="48.58695" lon="-3.12437">
        <ele>295</ele>
        <time>2016-04-03T13:27:41.1Z</time>
      </trkpt>
      <trkpt lat="48.58695" lon="-3.12437">
        <ele>295</ele>
        <time>2016-04-03T13:27:43.1Z</time>
      </trkpt>
      <trkpt lat="48.58695" lon="-3.12436">
        <ele>296</ele>
        <time>2016-04-03T13:27:46.1Z</time>
      </trkpt>
      <trkpt lat="48.58695" lon="-3.12436">
        <ele>296</ele>
        <time>2016-04-03T13:27:49.1Z</time>
      </trkpt>
      <trkpt lat="48.58694" lon="-3.12435">
        <ele>296</ele>
        <time>2016-04-03T13:27:52.1Z</time>
      </trkpt>
      <trkpt lat="48.58693" lon="-3.12436">
        <ele>296</ele>
        <time>2016-04-03T13:27:55.1Z</time>
      </trkpt>
      <trkpt lat="48.58693" lon="-3.12435">
        <ele>296</ele>
        <time>2016-04-03T13:27:57.1Z</time>
      </trkpt>
      <trkpt lat="48.58692" lon="-3.12434">
        <ele>296</ele>
        <time>2016-04-03T13:28:00.1Z</time>
      </trkpt>
      <trkpt lat="48.58692" lon="-3.12434">
        <ele>296</ele>
        <time>2016-04-03T13:28:02.1Z</time>
      </trkpt>
      <trkpt lat="48.58692" lon="-3.12434">
        <ele>296</ele>
        <time>2016-04-03T13:28:05.1Z</time>
      </trkpt>
      <trkpt lat="48.58692" lon="-3.12433">
        <ele>296</ele>
        <time>2016-04-03T13:28:07.1Z</time>
      </trkpt>
      <trkpt lat="48.58691" lon="-3.12431">
        <ele>297</ele>
        <time>2016-04-03T13:28:10.1Z</time>
      </trkpt>
      <trkpt lat="48.58691" lon="-3.1243">
        <ele>297</ele>
        <time>2016-04-03T13:28:13.1Z</time>
      </trkpt>
      <trkpt lat="48.58692" lon="-3.12429">
        <ele>297</ele>
        <time>2016-04-03T13:28:16.1Z</time>
      </trkpt>
      <trkpt lat="48.58693" lon="-3.12429">
        <ele>297</ele>
        <time>2016-04-03T13:28:19.1Z</time>
      </trkpt>
      <trkpt lat="48.58695" lon="-3.12428">
        <ele>297</ele>
        <time>2016-04-03T13:28:22.1Z</time>
      </trkpt>
      <trkpt lat="48.58697" lon="-3.12428">
        <ele>297</ele>
        <time>2016-04-03T13:28:25.1Z</time>
      </trkpt>
      <trkpt lat="48.58697" lon="-3.12428">
        <ele>297</ele>
        <time>2016-04-03T13:28:28.1Z</time>
      </trkpt>
      <trkpt lat="48.58696" lon="-3.12427">
        <ele>297</ele>
        <time>2016-04-03T13:28:30.1Z</time>
      </trkpt>
      <trkpt lat="48.58696" lon="-3.12425">
        <ele>297</ele>
        <time>2016-04-03T13:28:32.1Z</time>
      </trkpt>
      <trkpt lat="48.58696" lon="-3.12423">
        <ele>297</ele>
        <time>2016-04-03T13:28:35.1Z</time>
      </trkpt>
      <trkpt lat="48.58696" lon="-3.12423">
        <ele>297</ele>
        <time>2016-04-03T13:28:37.1Z</time>
      </trkpt>
      <trkpt lat="48.58695" lon="-3.12422">
        <ele>298</ele>
        <time>2016-04-03T13:28:39.1Z</time>
      </trkpt>
      <trkpt lat="48.58694" lon="-3.1242">
        <ele>298</ele>
        <time>2016-04-03T13:28:42.1Z</time>
      </trkpt>
      <trkpt lat="48.58694" lon="-3.12418">
        <ele>299</ele>
        <time>2016-04-03T13:28:45.1Z</time>
      </trkpt>
      <trkpt lat="48.58693" lon="-3.12417">
        <ele>299</ele>
        <time>2016-04-03T13:28:48.1Z</time>
      </trkpt>
      <trkpt lat="48.58693" lon="-3.12416">
        <ele>299</ele>
        <time>2016-04-03T13:28:51.1Z</time>
      </trkpt>
      <trkpt lat="48.58693" lon="-3.12417">
        <ele>299</ele>
        <time>2016-04-03T13:28:53.1Z</time>
      </trkpt>
      <trkpt lat="48.58694" lon="-3.12417">
        <ele>299</ele>
        <time>2016-04-03T13:28:56.1Z</time>
      </trkpt>
      <trkpt lat="48.58693" lon="-3.12416">
        <ele>299</ele>
        <time>2016-04-03T13:28:59.1Z</time>
      </trkpt>
      <trkpt lat="48.58693" lon="-3.12416">
        <ele>299</ele>
        <time>2016-04-03T13:29:01.1Z</time>
      </trkpt>
      <trkpt lat="48.58692" lon="-3.12414">
        <ele>299</ele>
        <time>2016-04-03T13:29:04.1Z</time>
      </trkpt>
      <trkpt lat="48.58691" lon="-3.12413">
        <ele>300</ele>
        <time>2016-04-03T13:29:06.1Z</time>
      </trkpt>
      <trkpt lat="48.58691" lon="-3.12413">
        <ele>300</ele>
        <time>2016-04-03T13:29:08.1Z</time>
      </trkpt>
      <trkpt lat="48.5869" lon="-3.12411">
        <ele>300</ele>
        <time>2016-04-03T13:29:11.1Z</time>
      </trkpt>
      <trkpt lat="48.58689" lon="-3.12411">
        <ele>300</ele>
        <time>2016-04-03T13:29:13.1Z</time>
      </trkpt>
      <trkpt lat="48.58689" lon="-3.1241">
        <ele>300</ele>
        <time>2016-04-03T13:29:16.1Z</time>
      </trkpt>
      <trkpt lat="48.58689" lon="-3.12409">
        <ele>300</ele>
        <time>2016-04-03T13:29:19.1Z</time>
      </trkpt>
      <trkpt lat="48.58689" lon="-3.12408">
        <ele>300</ele>
        <time>2016-04-03T13:29:21.1Z</time>
      </trkpt>
      <trkpt lat="48.58689" lon="-3.12407">
        <ele>300</ele>
        <time>2016-04-03T13:29:24.1Z</time>
      </trkpt>
      <trkpt lat="48.58689" lon="-3.12406">
        <ele>300</ele>
        <time>2016-04-03T13:29:27.1Z</time>
      </trkpt>
      <trkpt lat="48.5869" lon="-3.12405">
        <ele>300</ele>
        <time>2016-04-03T13:29:30.1Z</time>
      </trkpt>
      <trkpt lat="48.58689" lon="-3.12404">
        <ele>300</ele>
        <time>2016-04-03T13:29:33.1Z</time>
      </trkpt>
      <trkpt lat="48.58688" lon="-3.12404">
        <ele>301</ele>
        <time>2016-04-03T13:29:36.1Z</time>
      </trkpt>
      <trkpt lat="48.58688" lon="-3.12404">
        <ele>301</ele>
        <time>2016-04-03T13:29:39.1Z</time>
      </trkpt>
      <trkpt lat="48.58688" lon="-3.12403">
        <ele>301</ele>
        <time>2016-04-03T13:29:42.1Z</time>
      </trkpt>
      <trkpt lat="48.58688" lon="-3.12403">
        <ele>301</ele>
        <time>2016-04-03T13:29:44.1Z</time>
      </trkpt>
      <trkpt lat="48.58688" lon="-3.12403">
        <ele>301</ele>
        <time>2016-04-03T13:29:46.1Z</time>
      </trkpt>
      <trkpt lat="48.58687" lon="-3.12402">
        <ele>302</ele>
        <time>2016-04-03T13:29:49.1Z</time>
      </trkpt>
      <trkpt lat="48.58686" lon="-3.124">
        <ele>302</ele>
        <time>2016-04-03T13:29:52.1Z</time>
      </trkpt>
      <trkpt lat="48.58686" lon="-3.12399">
        <ele>302</ele>
        <time>2016-04-03T13:29:54.1Z</time>
      </trkpt>
      <trkpt lat="48.58685" lon="-3.12399">
        <ele>303</ele>
        <time>2016-04-03T13:29:57.1Z</time>
      </trkpt>
      <trkpt lat="48.58685" lon="-3.12398">
        <ele>303</ele>
        <time>2016-04-03T13:29:59.1Z</time>
      </trkpt>
      <trkpt lat="48.58685" lon="-3.12397">
        <ele>302</ele>
        <time>2016-04-03T13:30:02.1Z</time>
      </trkpt>
      <trkpt lat="48.58684" lon="-3.12395">
        <ele>302</ele>
        <time>2016-04-03T13:30:04.1Z</time>
      </trkpt>
      <trkpt lat="48.58683" lon="-3.12392">
        <ele>302</ele>
        <time>2016-04-03T13:30:07.1Z</time>
      </trkpt>
      <trkpt lat="48.58682" lon="-3.1239">
        <ele>303</ele>
        <time>2016-04-03T13:30:10.1Z</time>
      </trkpt>
      <trkpt lat="48.58682" lon="-3.12389">
        <ele>303</ele>
        <time>2016-04-03T13:30:12.1Z</time>
      </trkpt>
      <trkpt lat="48.58682" lon="-3.12387">
        <ele>303</ele>
        <time>2016-04-03T13:30:15.1Z</time>
      </trkpt>
      <trkpt lat="48.58682" lon="-3.12384">
        <ele>303</ele>
        <time>2016-04-03T13:30:18.1Z</time>
      </trkpt>
      <trkpt lat="48.58682" lon="-3.12382">
        <ele>303</ele>
        <time>2016-04-03T13:30:21.1Z</time>
      </trkpt>
      <trkpt lat="48.58681" lon="-3.12381">
        <ele>303</ele>
        <time>2016-04-03T13:30:23.1Z</time>
      </trkpt>
      <trkpt lat="48.5868" lon="-3.1238">
        <ele>304</ele>
        <time>2016-04-03T13:30:26.1Z</time>
      </trkpt>
      <trkpt lat="48.58679" lon="-3.12379">
        <ele>304</ele>
        <time>2016-04-03T13:30:29.1Z</time>
      </trkpt>
      <trkpt lat="48.58677" lon="-3.12377">
        <ele>304</ele>
        <time>2016-04-03T13:30:32.1Z</time>
      </trkpt>
      <trkpt lat="48.58678" lon="-3.12376">
        <ele>303</ele>
        <time>2016-04-03T13:30:35.1Z</time>
      </trkpt>
      <trkpt lat="48.58678" lon="-3.12375">
        <ele>303</ele>
        <time>2016-04-03T13:30:37.1Z</time>
      </trkpt>
      <trkpt lat="48.58677" lon="-3.12375">
        <ele>304</ele>
        <time>2016-04-03T13:30:39.1Z</time>
      </trkpt>
      <trkpt lat="48.58675" lon="-3.12374">
        <ele>303</ele>
        <time>2016-04-03T13:30:42.1Z</time>
      </trkpt>
      <trkpt lat="48.58674" lon="-3.12373">
        <ele>304</ele>
        <time>2016-04-03T13:30:44.1Z</time>
      </trkpt>
      <trkpt lat="48.58672" lon="-3.12372">
        <ele>304</ele>
        <time>2016-04-03T13:30:46.1Z</time>
      </trkpt>
      <trkpt lat="48.58672" lon="-3.12371">
        <ele>304</ele>
        <time>2016-04-03T13:30:49.1Z</time>
      </trkpt>
      <trkpt lat="48.58671" lon="-3.12369">
        <ele>305</ele>
        <time>2016-04-03T13:30:52.1Z</time>
      </trkpt>
      <trkpt lat="48.5867" lon="-3.12368">
        <ele>305</ele>
        <time>2016-04-03T13:30:54.1Z</time>
      </trkpt>
      <trkpt lat="48.5867" lon="-3.12366">
        <ele>305</ele>
        <time>2016-04-03T13:30:57.1Z</time>
      </trkpt>
      <trkpt lat="48.5867" lon="-3.12363">
        <ele>305</ele>
        <time>2016-04-03T13:31:00.1Z</time>
      </trkpt>
      <trkpt lat="48.5867" lon="-3.12361">
        <ele>305</ele>
        <time>2016-04-03T13:31:03.1Z</time>
      </trkpt>
      <trkpt lat="48.58668" lon="-3.12358">
        <ele>305</ele>
        <time>2016-04-03T13:31:05.1Z</time>
      </trkpt>
      <trkpt lat="48.58667" lon="-3.12356">
        <ele>305</ele>
        <time>2016-04-03T13:31:07.1Z</time>
      </trkpt>
      <trkpt lat="48.58665" lon="-3.12354">
        <ele>305</ele>
        <time>2016-04-03T13:31:10.1Z</time>
      </trkpt>
      <trkpt lat="48.58663" lon="-3.12351">
        <ele>305</ele>
        <time>2016-04-03T13:31:13.1Z</time>
      </trkpt>
      <trkpt lat="48.58661" lon="-3.12349">
        <ele>306</ele>
        <time>2016-04-03T13:31:16.1Z</time>
      </trkpt>
      <trkpt lat="48.5866" lon="-3.12347">
        <ele>306</ele>
        <time>2016-04-03T13:31:18.1Z</time>
      </trkpt>
      <trkpt lat="48.58659" lon="-3.12345">
        <ele>306</ele>
        <time>2016-04-03T13:31:21.1Z</time>
      </trkpt>
      <trkpt lat="48.58657" lon="-3.12342">
        <ele>306</ele>
        <time>2016-04-03T13:31:24.1Z</time>
      </trkpt>
      <trkpt lat="48.58657" lon="-3.12341">
        <ele>306</ele>
        <time>2016-04-03T13:31:26.1Z</time>
      </trkpt>
      <trkpt lat="48.58657" lon="-3.12339">
        <ele>306</ele>
        <time>2016-04-03T13:31:29.1Z</time>
      </trkpt>
      <trkpt lat="48.58656" lon="-3.12338">
        <ele>306</ele>
        <time>2016-04-03T13:31:31.1Z</time>
      </trkpt>
      <trkpt lat="48.58655" lon="-3.12336">
        <ele>306</ele>
        <time>2016-04-03T13:31:33.1Z</time>
      </trkpt>
      <trkpt lat="48.58654" lon="-3.12335">
        <ele>306</ele>
        <time>2016-04-03T13:31:36.1Z</time>
      </trkpt>
      <trkpt lat="48.58652" lon="-3.12334">
        <ele>306</ele>
        <time>2016-04-03T13:31:39.1Z</time>
      </trkpt>
      <trkpt lat="48.5865" lon="-3.12333">
        <ele>307</ele>
        <time>2016-04-03T13:31:42.1Z</time>
      </trkpt>
      <trkpt lat="48.58648" lon="-3.12332">
        <ele>306</ele>
        <time>2016-04-03T13:31:45.1Z</time>
      </trkpt>
      <trkpt lat="48.58647" lon="-3.12331">
        <ele>306</ele>
        <time>2016-04-03T13:31:47.1Z</time>
      </trkpt>
      <trkpt lat="48.58645" lon="-3.12328">
        <ele>306</ele>
        <time>2016-04-03T13:31:50.1Z</time>
      </trkpt>
      <trkpt lat="48.58643" lon="-3.12328">
        <ele>306</ele>
        <time>2016-04-03T13:31:53.1Z</time>
      </trkpt>
      <trkpt lat="48.58643" lon="-3.12327">
        <ele>306</ele>
        <time>2016-04-03T13:31:55.1Z</time>
      </trkpt>
      <trkpt lat="48.58643" lon="-3.12327">
        <ele>306</ele>
        <time>2016-04-03T13:31:57.1Z</time>
      </trkpt>
      <trkpt lat="48.58642" lon="-3.12327">
        <ele>306</ele>
        <time>2016-04-03T13:32:00.1Z</time>
      </trkpt>
      <trkpt lat="48.58641" lon="-3.12327">
        <ele>306</ele>
        <time>2016-04-03T13:32:03.1Z</time>
      </trkpt>
      <trkpt lat="48.58641" lon="-3.12327">
        <ele>306</ele>
        <time>2016-04-03T13:32:05.1Z</time>
      </trkpt>
      <trkpt lat="48.58639" lon="-3.12326">
        <ele>306</ele>
        <time>2016-04-03T13:32:08.1Z</time>
      </trkpt>
      <trkpt lat="48.5864" lon="-3.12326">
        <ele>306</ele>
        <time>2016-04-03T13:32:10.1Z</time>
      </trkpt>
      <trkpt lat="48.58641" lon="-3.12326">
        <ele>306</ele>
        <time>2016-04-03T13:32:13.1Z</time>
      </trkpt>
      <trkpt lat="48.58641" lon="-3.12325">
        <ele>306</ele>
        <time>2016-04-03T13:32:15.1Z</time>
      </trkpt>
      <trkpt lat="48.5864" lon="-3.12325">
        <ele>306</ele>
        <time>2016-04-03T13:32:18.1Z</time>
      </trkpt>
      <trkpt lat="48.58639" lon="-3.12326">
        <ele>306</ele>
        <time>2016-04-03T13:32:20.1Z</time>
      </trkpt>
      <trkpt lat="48.58637" lon="-3.12326">
        <ele>306</ele>
        <time>2016-04-03T13:32:23.1Z</time>
      </trkpt>
      <trkpt lat="48.58635" lon="-3.12326">
        <ele>306</ele>
        <time>2016-04-03T13:32:26.1Z</time>
      </trkpt>
      <trkpt lat="48.58634" lon="-3.12326">
        <ele>306</ele>
        <time>2016-04-03T13:32:28.1Z</time>
      </trkpt>
      <trkpt lat="48.58634" lon="-3.12327">
        <ele>306</ele>
        <time>2016-04-03T13:32:30.1Z</time>
      </trkpt>
      <trkpt lat="48.58633" lon="-3.12327">
        <ele>306</ele>
        <time>2016-04-03T13:32:33.1Z</time>
      </trkpt>
      <trkpt lat="48.58632" lon="-3.12326">
        <ele>306</ele>
        <time>2016-04-03T13:32:36.1Z</time>
      </trkpt>
      <trkpt lat="48.5863" lon="-3.12325">
        <ele>306</ele>
        <time>2016-04-03T13:32:39.1Z</time>
      </trkpt>
      <trkpt lat="48.58629" lon="-3.12324">
        <ele>306</ele>
        <time>2016-04-03T13:32:42.1Z</time>
      </trkpt>
      <trkpt lat="48.58628" lon="-3.12324">
        <ele>305</ele>
        <time>2016-04-03T13:32:44.1Z</time>
      </trkpt>
      <trkpt lat="48.58626" lon="-3.12324">
        <ele>306</ele>
        <time>2016-04-03T13:32:46.1Z</time>
      </trkpt>
      <trkpt lat="48.58624" lon="-3.12323">
        <ele>306</ele>
        <time>2016-04-03T13:32:49.1Z</time>
      </trkpt>
      <trkpt lat="48.58621" lon="-3.12324">
        <ele>306</ele>
        <time>2016-04-03T13:32:52.1Z</time>
      </trkpt>
      <trkpt lat="48.58619" lon="-3.12325">
        <ele>306</ele>
        <time>2016-04-03T13:32:55.1Z</time>
      </trkpt>
      <trkpt lat="48.58617" lon="-3.12327">
        <ele>306</ele>
        <time>2016-04-03T13:32:58.1Z</time>
      </trkpt>
      <trkpt lat="48.58615" lon="-3.12329">
        <ele>306</ele>
        <time>2016-04-03T13:33:01.1Z</time>
      </trkpt>
      <trkpt lat="48.58612" lon="-3.1233">
        <ele>306</ele>
        <time>2016-04-03T13:33:04.1Z</time>
      </trkpt>
      <trkpt lat="48.58611" lon="-3.12331">
        <ele>306</ele>
        <time>2016-04-03T13:33:06.1Z</time>
      </trkpt>
      <trkpt lat="48.58609" lon="-3.12332">
        <ele>306</ele>
        <time>2016-04-03T13:33:08.1Z</time>
      </trkpt>
      <trkpt lat="48.58607" lon="-3.12333">
        <ele>306</ele>
        <time>2016-04-03T13:33:10.1Z</time>
      </trkpt>
      <trkpt lat="48.58605" lon="-3.12333">
        <ele>306</ele>
        <time>2016-04-03T13:33:13.1Z</time>
      </trkpt>
      <trkpt lat="48.58604" lon="-3.12332">
        <ele>306</ele>
        <time>2016-04-03T13:33:16.1Z</time>
      </trkpt>
      <trkpt lat="48.58602" lon="-3.12331">
        <ele>306</ele>
        <time>2016-04-03T13:33:18.1Z</time>
      </trkpt>
      <trkpt lat="48.58601" lon="-3.12331">
        <ele>307</ele>
        <time>2016-04-03T13:33:21.1Z</time>
      </trkpt>
      <trkpt lat="48.58599" lon="-3.1233">
        <ele>306</ele>
        <time>2016-04-03T13:33:23.1Z</time>
      </trkpt>
      <trkpt lat="48.58598" lon="-3.12331">
        <ele>306</ele>
        <time>2016-04-03T13:33:26.1Z</time>
      </trkpt>
      <trkpt lat="48.58596" lon="-3.12332">
        <ele>306</ele>
        <time>2016-04-03T13:33:29.1Z</time>
      </trkpt>
      <trkpt lat="48.58595" lon="-3.12334">
        <ele>306</ele>
        <time>2016-04-03T13:33:31.1Z</time>
      </trkpt>
      <trkpt lat="48.58595" lon="-3.12335">
        <ele>306</ele>
        <time>2016-04-03T13:33:33.1Z</time>
      </trkpt>
      <trkpt lat="48.58595" lon="-3.12339">
        <ele>306</ele>
        <time>2016-04-03T13:33:36.1Z</time>
      </trkpt>
      <trkpt lat="48.58594" lon="-3.12343">
        <ele>306</ele>
        <time>2016-04-03T13:33:39.1Z</time>
      </trkpt>
      <trkpt lat="48.58593" lon="-3.12347">
        <ele>306</ele>
        <time>2016-04-03T13:33:42.1Z</time>
      </trkpt>
      <trkpt lat="48.58592" lon="-3.1235">
        <ele>307</ele>
        <time>2016-04-03T13:33:44.1Z</time>
      </trkpt>
      <trkpt lat="48.58591" lon="-3.12353">
        <ele>307</ele>
        <time>2016-04-03T13:33:47.1Z</time>
      </trkpt>
      <trkpt lat="48.5859" lon="-3.12356">
        <ele>307</ele>
        <time>2016-04-03T13:33:49.1Z</time>
      </trkpt>
      <trkpt lat="48.58588" lon="-3.12359">
        <ele>307</ele>
        <time>2016-04-03T13:33:52.1Z</time>
      </trkpt>
      <trkpt lat="48.58587" lon="-3.12364">
        <ele>307</ele>
        <time>2016-04-03T13:33:55.1Z</time>
      </trkpt>
      <trkpt lat="48.58587" lon="-3.12366">
        <ele>308</ele>
        <time>2016-04-03T13:33:57.1Z</time>
      </trkpt>
      <trkpt lat="48.58587" lon="-3.12368">
        <ele>308</ele>
        <time>2016-04-03T13:33:59.1Z</time>
      </trkpt>
      <trkpt lat="48.58586" lon="-3.12371">
        <ele>308</ele>
        <time>2016-04-03T13:34:01.1Z</time>
      </trkpt>
      <trkpt lat="48.58585" lon="-3.12375">
        <ele>308</ele>
        <time>2016-04-03T13:34:04.1Z</time>
      </trkpt>
      <trkpt lat="48.58585" lon="-3.12378">
        <ele>308</ele>
        <time>2016-04-03T13:34:07.1Z</time>
      </trkpt>
      <trkpt lat="48.58584" lon="-3.12379">
        <ele>308</ele>
        <time>2016-04-03T13:34:09.1Z</time>
      </trkpt>
      <trkpt lat="48.58583" lon="-3.12382">
        <ele>308</ele>
        <time>2016-04-03T13:34:12.1Z</time>
      </trkpt>
      <trkpt lat="48.58583" lon="-3.12384">
        <ele>309</ele>
        <time>2016-04-03T13:34:14.1Z</time>
      </trkpt>
      <trkpt lat="48.58583" lon="-3.12387">
        <ele>309</ele>
        <time>2016-04-03T13:34:17.1Z</time>
      </trkpt>
      <trkpt lat="48.58583" lon="-3.12391">
        <ele>309</ele>
        <time>2016-04-03T13:34:20.1Z</time>
      </trkpt>
      <trkpt lat="48.58583" lon="-3.12393">
        <ele>309</ele>
        <time>2016-04-03T13:34:22.1Z</time>
      </trkpt>
      <trkpt lat="48.58583" lon="-3.12397">
        <ele>309</ele>
        <time>2016-04-03T13:34:25.1Z</time>
      </trkpt>
      <trkpt lat="48.58583" lon="-3.124">
        <ele>309</ele>
        <time>2016-04-03T13:34:28.1Z</time>
      </trkpt>
      <trkpt lat="48.58583" lon="-3.12401">
        <ele>309</ele>
        <time>2016-04-03T13:34:31.1Z</time>
      </trkpt>
      <trkpt lat="48.58582" lon="-3.12402">
        <ele>309</ele>
        <time>2016-04-03T13:34:33.1Z</time>
      </trkpt>
      <trkpt lat="48.58583" lon="-3.12403">
        <ele>310</ele>
        <time>2016-04-03T13:34:36.1Z</time>
      </trkpt>
      <trkpt lat="48.58583" lon="-3.12406">
        <ele>310</ele>
        <time>2016-04-03T13:34:38.1Z</time>
      </trkpt>
      <trkpt lat="48.58584" lon="-3.12408">
        <ele>310</ele>
        <time>2016-04-03T13:34:41.1Z</time>
      </trkpt>
      <trkpt lat="48.58584" lon="-3.12411">
        <ele>310</ele>
        <time>2016-04-03T13:34:44.1Z</time>
      </trkpt>
      <trkpt lat="48.58585" lon="-3.12413">
        <ele>310</ele>
        <time>2016-04-03T13:34:46.1Z</time>
      </trkpt>
      <trkpt lat="48.58585" lon="-3.12416">
        <ele>310</ele>
        <time>2016-04-03T13:34:49.1Z</time>
      </trkpt>
      <trkpt lat="48.58585" lon="-3.12418">
        <ele>311</ele>
        <time>2016-04-03T13:34:51.1Z</time>
      </trkpt>
      <trkpt lat="48.58586" lon="-3.1242">
        <ele>311</ele>
        <time>2016-04-03T13:34:54.1Z</time>
      </trkpt>
      <trkpt lat="48.58586" lon="-3.12423">
        <ele>311</ele>
        <time>2016-04-03T13:34:57.1Z</time>
      </trkpt>
      <trkpt lat="48.58586" lon="-3.12424">
        <ele>311</ele>
        <time>2016-04-03T13:34:59.1Z</time>
      </trkpt>
      <trkpt lat="48.58585" lon="-3.12427">
        <ele>311</ele>
        <time>2016-04-03T13:35:02.1Z</time>
      </trkpt>
      <trkpt lat="48.58585" lon="-3.1243">
        <ele>311</ele>
        <time>2016-04-03T13:35:05.1Z</time>
      </trkpt>
      <trkpt lat="48.58583" lon="-3.12432">
        <ele>312</ele>
        <time>2016-04-03T13:35:08.1Z</time>
      </trkpt>
      <trkpt lat="48.58583" lon="-3.12434">
        <ele>313</ele>
        <time>2016-04-03T13:35:11.1Z</time>
      </trkpt>
      <trkpt lat="48.58581" lon="-3.12435">
        <ele>313</ele>
        <time>2016-04-03T13:35:14.1Z</time>
      </trkpt>
      <trkpt lat="48.5858" lon="-3.12437">
        <ele>313</ele>
        <time>2016-04-03T13:35:17.1Z</time>
      </trkpt>
      <trkpt lat="48.58579" lon="-3.12439">
        <ele>313</ele>
        <time>2016-04-03T13:35:19.1Z</time>
      </trkpt>
      <trkpt lat="48.58578" lon="-3.1244">
        <ele>313</ele>
        <time>2016-04-03T13:35:21.1Z</time>
      </trkpt>
      <trkpt lat="48.58577" lon="-3.1244">
        <ele>314</ele>
        <time>2016-04-03T13:35:24.1Z</time>
      </trkpt>
      <trkpt lat="48.58577" lon="-3.12441">
        <ele>314</ele>
        <time>2016-04-03T13:35:27.1Z</time>
      </trkpt>
      <trkpt lat="48.58576" lon="-3.12443">
        <ele>315</ele>
        <time>2016-04-03T13:35:30.1Z</time>
      </trkpt>
      <trkpt lat="48.58575" lon="-3.12445">
        <ele>315</ele>
        <time>2016-04-03T13:35:33.1Z</time>
      </trkpt>
      <trkpt lat="48.58574" lon="-3.12447">
        <ele>315</ele>
        <time>2016-04-03T13:35:35.1Z</time>
      </trkpt>
      <trkpt lat="48.58574" lon="-3.12448">
        <ele>315</ele>
        <time>2016-04-03T13:35:38.1Z</time>
      </trkpt>
      <trkpt lat="48.58574" lon="-3.12449">
        <ele>315</ele>
        <time>2016-04-03T13:35:40.1Z</time>
      </trkpt>
      <trkpt lat="48.58574" lon="-3.12452">
        <ele>315</ele>
        <time>2016-04-03T13:35:43.1Z</time>
      </trkpt>
      <trkpt lat="48.58573" lon="-3.12453">
        <ele>315</ele>
        <time>2016-04-03T13:35:46.1Z</time>
      </trkpt>
      <trkpt lat="48.58573" lon="-3.12455">
        <ele>315</ele>
        <time>2016-04-03T13:35:49.1Z</time>
      </trkpt>
      <trkpt lat="48.58573" lon="-3.12456">
        <ele>315</ele>
        <time>2016-04-03T13:35:51.1Z</time>
      </trkpt>
      <trkpt lat="48.58574" lon="-3.12456">
        <ele>315</ele>
        <time>2016-04-03T13:35:53.1Z</time>
      </trkpt>
      <trkpt lat="48.58574" lon="-3.12456">
        <ele>315</ele>
        <time>2016-04-03T13:35:56.1Z</time>
      </trkpt>
      <trkpt lat="48.58573" lon="-3.12453">
        <ele>315</ele>
        <time>2016-04-03T13:35:59.1Z</time>
      </trkpt>
      <trkpt lat="48.58572" lon="-3.12452">
        <ele>315</ele>
        <time>2016-04-03T13:36:01.1Z</time>
      </trkpt>
      <trkpt lat="48.58572" lon="-3.12449">
        <ele>315</ele>
        <time>2016-04-03T13:36:04.1Z</time>
      </trkpt>
      <trkpt lat="48.58571" lon="-3.12447">
        <ele>315</ele>
        <time>2016-04-03T13:36:07.1Z</time>
      </trkpt>
      <trkpt lat="48.58572" lon="-3.12445">
        <ele>315</ele>
        <time>2016-04-03T13:36:09.1Z</time>
      </trkpt>
      <trkpt lat="48.58572" lon="-3.12443">
        <ele>314</ele>
        <time>2016-04-03T13:36:12.1Z</time>
      </trkpt>
      <trkpt lat="48.58573" lon="-3.12442">
        <ele>314</ele>
        <time>2016-04-03T13:36:15.1Z</time>
      </trkpt>
      <trkpt lat="48.58572" lon="-3.12441">
        <ele>314</ele>
        <time>2016-04-03T13:36:17.1Z</time>
      </trkpt>
      <trkpt lat="48.58572" lon="-3.1244">
        <ele>314</ele>
        <time>2016-04-03T13:36:19.1Z</time>
      </trkpt>
      <trkpt lat="48.58572" lon="-3.12439">
        <ele>314</ele>
        <time>2016-04-03T13:36:22.1Z</time>
      </trkpt>
      <trkpt lat="48.58572" lon="-3.12439">
        <ele>314</ele>
        <time>2016-04-03T13:36:24.1Z</time>
      </trkpt>
      <trkpt lat="48.58571" lon="-3.12439">
        <ele>314</ele>
        <time>2016-04-03T13:36:27.1Z</time>
      </trkpt>
      <trkpt lat="48.58571" lon="-3.12439">
        <ele>314</ele>
        <time>2016-04-03T13:36:30.1Z</time>
      </trkpt>
      <trkpt lat="48.5857" lon="-3.12439">
        <ele>314</ele>
        <time>2016-04-03T13:36:32.1Z</time>
      </trkpt>
      <trkpt lat="48.58569" lon="-3.1244">
        <ele>314</ele>
        <time>2016-04-03T13:36:35.1Z</time>
      </trkpt>
      <trkpt lat="48.58568" lon="-3.1244">
        <ele>314</ele>
        <time>2016-04-03T13:36:38.1Z</time>
      </trkpt>
      <trkpt lat="48.58567" lon="-3.1244">
        <ele>314</ele>
        <time>2016-04-03T13:36:41.1Z</time>
      </trkpt>
      <trkpt lat="48.58566" lon="-3.1244">
        <ele>314</ele>
        <time>2016-04-03T13:36:43.1Z</time>
      </trkpt>
      <trkpt lat="48.58565" lon="-3.12441">
        <ele>314</ele>
        <time>2016-04-03T13:36:45.1Z</time>
      </trkpt>
      <trkpt lat="48.58563" lon="-3.12442">
        <ele>314</ele>
        <time>2016-04-03T13:36:48.1Z</time>
      </trkpt>
      <trkpt lat="48.58564" lon="-3.12441">
        <ele>314</ele>
        <time>2016-04-03T13:36:51.1Z</time>
      </trkpt>
      <trkpt lat="48.58563" lon="-3.12441">
        <ele>314</ele>
        <time>2016-04-03T13:36:53.1Z</time>
      </trkpt>
      <trkpt lat="48.58562" lon="-3.12442">
        <ele>314</ele>
        <time>2016-04-03T13:36:56.1Z</time>
      </trkpt>
      <trkpt lat="48.58562" lon="-3.12443">
        <ele>314</ele>
        <time>2016-04-03T13:36:58.1Z</time>
      </trkpt>
      <trkpt lat="48.58561" lon="-3.12445">
        <ele>314</ele>
        <time>2016-04-03T13:37:01.1Z</time>
      </trkpt>
      <trkpt lat="48.58562" lon="-3.12447">
        <ele>315</ele>
        <time>2016-04-03T13:37:04.1Z</time>
      </trkpt>
      <trkpt lat="48.58563" lon="-3.12447">
        <ele>315</ele>
        <time>2016-04-03T13:37:06.1Z</time>
      </trkpt>
      <trkpt lat="48.58563" lon="-3.12448">
        <ele>315</ele>
        <time>2016-04-03T13:37:09.1Z</time>
      </trkpt>
      <trkpt lat="48.58564" lon="-3.12448">
        <ele>315</ele>
        <time>2016-04-03T13:37:11.1Z</time>
      </trkpt>
      <trkpt lat="48.58565" lon="-3.12449">
        <ele>315</ele>
        <time>2016-04-03T13:37:14.1Z</time>
      </trkpt>
      <trkpt lat="48.58566" lon="-3.12449">
        <ele>315</ele>
        <time>2016-04-03T13:37:16.1Z</time>
      </trkpt>
      <trkpt lat="48.58567" lon="-3.12449">
        <ele>314</ele>
        <time>2016-04-03T13:37:19.1Z</time>
      </trkpt>
      <trkpt lat="48.58567" lon="-3.12448">
        <ele>315</ele>
        <time>2016-04-03T13:37:21.1Z</time>
      </trkpt>
      <trkpt lat="48.58568" lon="-3.12446">
        <ele>314</ele>
        <time>2016-04-03T13:37:24.1Z</time>
      </trkpt>
      <trkpt lat="48.58568" lon="-3.12446">
        <ele>315</ele>
        <time>2016-04-03T13:37:26.1Z</time>
      </trkpt>
      <trkpt lat="48.58568" lon="-3.12444">
        <ele>315</ele>
        <time>2016-04-03T13:37:28.1Z</time>
      </trkpt>
      <trkpt lat="48.58567" lon="-3.12442">
        <ele>315</ele>
        <time>2016-04-03T13:37:30.1Z</time>
      </trkpt>
      <trkpt lat="48.58566" lon="-3.12439">
        <ele>314</ele>
        <time>2016-04-03T13:37:33.1Z</time>
      </trkpt>
      <trkpt lat="48.58566" lon="-3.12437">
        <ele>315</ele>
        <time>2016-04-03T13:37:35.1Z</time>
      </trkpt>
      <trkpt lat="48.58565" lon="-3.12433">
        <ele>315</ele>
        <time>2016-04-03T13:37:38.1Z</time>
      </trkpt>
      <trkpt lat="48.58564" lon="-3.1243">
        <ele>315</ele>
        <time>2016-04-03T13:37:40.1Z</time>
      </trkpt>
      <trkpt lat="48.58564" lon="-3.12427">
        <ele>315</ele>
        <time>2016-04-03T13:37:43.1Z</time>
      </trkpt>
      <trkpt lat="48.58564" lon="-3.12425">
        <ele>315</ele>
        <time>2016-04-03T13:37:45.1Z</time>
      </trkpt>
      <trkpt lat="48.58562" lon="-3.12423">
        <ele>314</ele>
        <time>2016-04-03T13:37:47.1Z</time>
      </trkpt>
      <trkpt lat="48.58561" lon="-3.12421">
        <ele>314</ele>
        <time>2016-04-03T13:37:50.1Z</time>
      </trkpt>
      <trkpt lat="48.5856" lon="-3.12419">
        <ele>314</ele>
        <time>2016-04-03T13:37:52.1Z</time>
      </trkpt>
      <trkpt lat="48.58559" lon="-3.12417">
        <ele>314</ele>
        <time>2016-04-03T13:37:55.1Z</time>
      </trkpt>
      <trkpt lat="48.58558" lon="-3.12414">
        <ele>313</ele>
        <time>2016-04-03T13:37:58.1Z</time>
      </trkpt>
      <trkpt lat="48.58556" lon="-3.12412">
        <ele>313</ele>
        <time>2016-04-03T13:38:00.1Z</time>
      </trkpt>
      <trkpt lat="48.58554" lon="-3.12409">
        <ele>313</ele>
        <time>2016-04-03T13:38:03.1Z</time>
      </trkpt>
      <trkpt lat="48.58553" lon="-3.12407">
        <ele>313</ele>
        <time>2016-04-03T13:38:05.1Z</time>
      </trkpt>
      <trkpt lat="48.58551" lon="-3.12405">
        <ele>313</ele>
        <time>2016-04-03T13:38:07.1Z</time>
      </trkpt>
      <trkpt lat="48.58549" lon="-3.12402">
        <ele>313</ele>
        <time>2016-04-03T13:38:10.1Z</time>
      </trkpt>
      <trkpt lat="48.58547" lon="-3.12399">
        <ele>313</ele>
        <time>2016-04-03T13:38:13.1Z</time>
      </trkpt>
      <trkpt lat="48.58546" lon="-3.12397">
        <ele>313</ele>
        <time>2016-04-03T13:38:15.1Z</time>
      </trkpt>
      <trkpt lat="48.58544" lon="-3.12394">
        <ele>312</ele>
        <time>2016-04-03T13:38:18.1Z</time>
      </trkpt>
      <trkpt lat="48.58543" lon="-3.12391">
        <ele>312</ele>
        <time>2016-04-03T13:38:20.1Z</time>
      </trkpt>
      <trkpt lat="48.58541" lon="-3.12389">
        <ele>312</ele>
        <time>2016-04-03T13:38:23.1Z</time>
      </trkpt>
      <trkpt lat="48.5854" lon="-3.12387">
        <ele>311</ele>
        <time>2016-04-03T13:38:26.1Z</time>
      </trkpt>
      <trkpt lat="48.58539" lon="-3.12386">
        <ele>311</ele>
        <time>2016-04-03T13:38:28.1Z</time>
      </trkpt>
      <trkpt lat="48.58538" lon="-3.12383">
        <ele>311</ele>
        <time>2016-04-03T13:38:31.1Z</time>
      </trkpt>
      <trkpt lat="48.58536" lon="-3.12381">
        <ele>310</ele>
        <time>2016-04-03T13:38:34.1Z</time>
      </trkpt>
      <trkpt lat="48.58534" lon="-3.12378">
        <ele>310</ele>
        <time>2016-04-03T13:38:37.1Z</time>
      </trkpt>
      <trkpt lat="48.58533" lon="-3.12375">
        <ele>310</ele>
        <time>2016-04-03T13:38:40.1Z</time>
      </trkpt>
      <trkpt lat="48.58531" lon="-3.12372">
        <ele>309</ele>
        <time>2016-04-03T13:38:43.1Z</time>
      </trkpt>
      <trkpt lat="48.5853" lon="-3.1237">
        <ele>309</ele>
        <time>2016-04-03T13:38:45.1Z</time>
      </trkpt>
      <trkpt lat="48.58529" lon="-3.12368">
        <ele>309</ele>
        <time>2016-04-03T13:38:47.1Z</time>
      </trkpt>
      <trkpt lat="48.58527" lon="-3.12366">
        <ele>309</ele>
        <time>2016-04-03T13:38:50.1Z</time>
      </trkpt>
      <trkpt lat="48.58526" lon="-3.12363">
        <ele>308</ele>
        <time>2016-04-03T13:38:53.1Z</time>
      </trkpt>
      <trkpt lat="48.58524" lon="-3.12361">
        <ele>308</ele>
        <time>2016-04-03T13:38:55.1Z</time>
      </trkpt>
      <trkpt lat="48.58522" lon="-3.12358">
        <ele>308</ele>
        <time>2016-04-03T13:38:58.1Z</time>
      </trkpt>
      <trkpt lat="48.58519" lon="-3.12356">
        <ele>308</ele>
        <time>2016-04-03T13:39:00.1Z</time>
      </trkpt>
      <trkpt lat="48.58518" lon="-3.12354">
        <ele>307</ele>
        <time>2016-04-03T13:39:02.1Z</time>
      </trkpt>
      <trkpt lat="48.58517" lon="-3.12353">
        <ele>307</ele>
        <time>2016-04-03T13:39:04.1Z</time>
      </trkpt>
      <trkpt lat="48.58516" lon="-3.1235">
        <ele>307</ele>
        <time>2016-04-03T13:39:07.1Z</time>
      </trkpt>
      <trkpt lat="48.58514" lon="-3.12348">
        <ele>307</ele>
        <time>2016-04-03T13:39:09.1Z</time>
      </trkpt>
      <trkpt lat="48.58512" lon="-3.12344">
        <ele>307</ele>
        <time>2016-04-03T13:39:12.1Z</time>
      </trkpt>
      <trkpt lat="48.5851" lon="-3.1234">
        <ele>307</ele>
        <time>2016-04-03T13:39:15.1Z</time>
      </trkpt>
      <trkpt lat="48.58508" lon="-3.12338">
        <ele>306</ele>
        <time>2016-04-03T13:39:17.1Z</time>
      </trkpt>
      <trkpt lat="48.58506" lon="-3.12335">
        <ele>306</ele>
        <time>2016-04-03T13:39:20.1Z</time>
      </trkpt>
      <trkpt lat="48.58503" lon="-3.12332">
        <ele>306</ele>
        <time>2016-04-03T13:39:23.1Z</time>
      </trkpt>
      <trkpt lat="48.58501" lon="-3.12329">
        <ele>306</ele>
        <time>2016-04-03T13:39:26.1Z</time>
      </trkpt>
      <trkpt lat="48.58499" lon="-3.12326">
        <ele>306</ele>
        <time>2016-04-03T13:39:28.1Z</time>
      </trkpt>
      <trkpt lat="48.58497" lon="-3.12324">
        <ele>305</ele>
        <time>2016-04-03T13:39:31.1Z</time>
      </trkpt>
      <trkpt lat="48.58497" lon="-3.12323">
        <ele>305</ele>
        <time>2016-04-03T13:39:33.1Z</time>
      </trkpt>
      <trkpt lat="48.58496" lon="-3.12323">
        <ele>305</ele>
        <time>2016-04-03T13:39:36.1Z</time>
      </trkpt>
      <trkpt lat="48.58495" lon="-3.12322">
        <ele>305</ele>
        <time>2016-04-03T13:39:38.1Z</time>
      </trkpt>
      <trkpt lat="48.58494" lon="-3.1232">
        <ele>305</ele>
        <time>2016-04-03T13:39:40.1Z</time>
      </trkpt>
      <trkpt lat="48.58492" lon="-3.12317">
        <ele>305</ele>
        <time>2016-04-03T13:39:43.1Z</time>
      </trkpt>
      <trkpt lat="48.5849" lon="-3.12316">
        <ele>305</ele>
        <time>2016-04-03T13:39:45.1Z</time>
      </trkpt>
      <trkpt lat="48.58488" lon="-3.12312">
        <ele>305</ele>
        <time>2016-04-03T13:39:48.1Z</time>
      </trkpt>
      <trkpt lat="48.58485" lon="-3.12309">
        <ele>305</ele>
        <time>2016-04-03T13:39:51.1Z</time>
      </trkpt>
      <trkpt lat="48.58482" lon="-3.12305">
        <ele>305</ele>
        <time>2016-04-03T13:39:54.1Z</time>
      </trkpt>
      <trkpt lat="48.5848" lon="-3.12302">
        <ele>304</ele>
        <time>2016-04-03T13:39:57.1Z</time>
      </trkpt>
      <trkpt lat="48.58477" lon="-3.12298">
        <ele>304</ele>
        <time>2016-04-03T13:40:00.1Z</time>
      </trkpt>
      <trkpt lat="48.58475" lon="-3.12296">
        <ele>304</ele>
        <time>2016-04-03T13:40:02.1Z</time>
      </trkpt>
      <trkpt lat="48.58473" lon="-3.12294">
        <ele>304</ele>
        <time>2016-04-03T13:40:04.1Z</time>
      </trkpt>
      <trkpt lat="48.5847" lon="-3.12291">
        <ele>304</ele>
        <time>2016-04-03T13:40:07.1Z</time>
      </trkpt>
      <trkpt lat="48.58468" lon="-3.12288">
        <ele>304</ele>
        <time>2016-04-03T13:40:10.1Z</time>
      </trkpt>
      <trkpt lat="48.58465" lon="-3.12284">
        <ele>303</ele>
        <time>2016-04-03T13:40:13.1Z</time>
      </trkpt>
      <trkpt lat="48.58463" lon="-3.12282">
        <ele>303</ele>
        <time>2016-04-03T13:40:15.1Z</time>
      </trkpt>
      <trkpt lat="48.58461" lon="-3.12281">
        <ele>303</ele>
        <time>2016-04-03T13:40:18.1Z</time>
      </trkpt>
      <trkpt lat="48.58459" lon="-3.12279">
        <ele>303</ele>
        <time>2016-04-03T13:40:20.1Z</time>
      </trkpt>
      <trkpt lat="48.58457" lon="-3.12278">
        <ele>303</ele>
        <time>2016-04-03T13:40:23.1Z</time>
      </trkpt>
      <trkpt lat="48.58455" lon="-3.12277">
        <ele>302</ele>
        <time>2016-04-03T13:40:25.1Z</time>
      </trkpt>
      <trkpt lat="48.58453" lon="-3.12276">
        <ele>302</ele>
        <time>2016-04-03T13:40:28.1Z</time>
      </trkpt>
      <trkpt lat="48.58449" lon="-3.12275">
        <ele>302</ele>
        <time>2016-04-03T13:40:31.1Z</time>
      </trkpt>
      <trkpt lat="48.58448" lon="-3.12274">
        <ele>302</ele>
        <time>2016-04-03T13:40:33.1Z</time>
      </trkpt>
      <trkpt lat="48.58445" lon="-3.12271">
        <ele>301</ele>
        <time>2016-04-03T13:40:36.1Z</time>
      </trkpt>
      <trkpt lat="48.58443" lon="-3.1227">
        <ele>301</ele>
        <time>2016-04-03T13:40:38.1Z</time>
      </trkpt>
      <trkpt lat="48.5844" lon="-3.12267">
        <ele>301</ele>
        <time>2016-04-03T13:40:41.1Z</time>
      </trkpt>
      <trkpt lat="48.58438" lon="-3.12267">
        <ele>301</ele>
        <time>2016-04-03T13:40:43.1Z</time>
      </trkpt>
      <trkpt lat="48.58436" lon="-3.12265">
        <ele>301</ele>
        <time>2016-04-03T13:40:46.1Z</time>
      </trkpt>
      <trkpt lat="48.58434" lon="-3.12263">
        <ele>300</ele>
        <time>2016-04-03T13:40:49.1Z</time>
      </trkpt>
      <trkpt lat="48.58432" lon="-3.12261">
        <ele>300</ele>
        <time>2016-04-03T13:40:52.1Z</time>
      </trkpt>
      <trkpt lat="48.58429" lon="-3.12259">
        <ele>300</ele>
        <time>2016-04-03T13:40:55.1Z</time>
      </trkpt>
      <trkpt lat="48.58427" lon="-3.12257">
        <ele>300</ele>
        <time>2016-04-03T13:40:57.1Z</time>
      </trkpt>
      <trkpt lat="48.58424" lon="-3.12255">
        <ele>300</ele>
        <time>2016-04-03T13:41:00.1Z</time>
      </trkpt>
      <trkpt lat="48.5842" lon="-3.12253">
        <ele>299</ele>
        <time>2016-04-03T13:41:03.1Z</time>
      </trkpt>
      <trkpt lat="48.58416" lon="-3.12251">
        <ele>299</ele>
        <time>2016-04-03T13:41:06.1Z</time>
      </trkpt>
      <trkpt lat="48.58414" lon="-3.1225">
        <ele>298</ele>
        <time>2016-04-03T13:41:08.1Z</time>
      </trkpt>
      <trkpt lat="48.5841" lon="-3.1225">
        <ele>298</ele>
        <time>2016-04-03T13:41:11.1Z</time>
      </trkpt>
      <trkpt lat="48.58407" lon="-3.1225">
        <ele>298</ele>
        <time>2016-04-03T13:41:14.1Z</time>
      </trkpt>
      <trkpt lat="48.58405" lon="-3.12249">
        <ele>297</ele>
        <time>2016-04-03T13:41:17.1Z</time>
      </trkpt>
      <trkpt lat="48.58402" lon="-3.12248">
        <ele>297</ele>
        <time>2016-04-03T13:41:20.1Z</time>
      </trkpt>
      <trkpt lat="48.584" lon="-3.12249">
        <ele>297</ele>
        <time>2016-04-03T13:41:22.1Z</time>
      </trkpt>
      <trkpt lat="48.58397" lon="-3.12249">
        <ele>296</ele>
        <time>2016-04-03T13:41:25.1Z</time>
      </trkpt>
      <trkpt lat="48.58394" lon="-3.12249">
        <ele>296</ele>
        <time>2016-04-03T13:41:28.1Z</time>
      </trkpt>
      <trkpt lat="48.58391" lon="-3.12248">
        <ele>295</ele>
        <time>2016-04-03T13:41:30.1Z</time>
      </trkpt>
      <trkpt lat="48.58388" lon="-3.12249">
        <ele>295</ele>
        <time>2016-04-03T13:41:33.1Z</time>
      </trkpt>
      <trkpt lat="48.58385" lon="-3.12249">
        <ele>295</ele>
        <time>2016-04-03T13:41:36.1Z</time>
      </trkpt>
      <trkpt lat="48.58384" lon="-3.1225">
        <ele>295</ele>
        <time>2016-04-03T13:41:38.1Z</time>
      </trkpt>
      <trkpt lat="48.5838" lon="-3.12251">
        <ele>294</ele>
        <time>2016-04-03T13:41:41.1Z</time>
      </trkpt>
      <trkpt lat="48.58377" lon="-3.12252">
        <ele>294</ele>
        <time>2016-04-03T13:41:44.1Z</time>
      </trkpt>
      <trkpt lat="48.58374" lon="-3.12254">
        <ele>294</ele>
        <time>2016-04-03T13:41:47.1Z</time>
      </trkpt>
      <trkpt lat="48.58373" lon="-3.12255">
        <ele>294</ele>
        <time>2016-04-03T13:41:49.1Z</time>
      </trkpt>
      <trkpt lat="48.58372" lon="-3.12256">
        <ele>294</ele>
        <time>2016-04-03T13:41:52.1Z</time>
      </trkpt>
      <trkpt lat="48.58371" lon="-3.12256">
        <ele>294</ele>
        <time>2016-04-03T13:41:54.1Z</time>
      </trkpt>
      <trkpt lat="48.58369" lon="-3.12255">
        <ele>294</ele>
        <time>2016-04-03T13:41:57.1Z</time>
      </trkpt>
      <trkpt lat="48.58366" lon="-3.12254">
        <ele>294</ele>
        <time>2016-04-03T13:42:00.1Z</time>
      </trkpt>
      <trkpt lat="48.58365" lon="-3.12253">
        <ele>294</ele>
        <time>2016-04-03T13:42:02.1Z</time>
      </trkpt>
      <trkpt lat="48.58365" lon="-3.12253">
        <ele>294</ele>
        <time>2016-04-03T13:42:05.1Z</time>
      </trkpt>
      <trkpt lat="48.58363" lon="-3.12252">
        <ele>294</ele>
        <time>2016-04-03T13:42:08.1Z</time>
      </trkpt>
      <trkpt lat="48.58363" lon="-3.12252">
        <ele>294</ele>
        <time>2016-04-03T13:42:10.1Z</time>
      </trkpt>
      <trkpt lat="48.58362" lon="-3.12251">
        <ele>294</ele>
        <time>2016-04-03T13:42:13.1Z</time>
      </trkpt>
      <trkpt lat="48.58361" lon="-3.12251">
        <ele>294</ele>
        <time>2016-04-03T13:42:16.1Z</time>
      </trkpt>
      <trkpt lat="48.58361" lon="-3.12251">
        <ele>294</ele>
        <time>2016-04-03T13:42:18.1Z</time>
      </trkpt>
      <trkpt lat="48.5836" lon="-3.12251">
        <ele>294</ele>
        <time>2016-04-03T13:42:21.1Z</time>
      </trkpt>
      <trkpt lat="48.5836" lon="-3.1225">
        <ele>294</ele>
        <time>2016-04-03T13:42:25.1Z</time>
      </trkpt>
      <trkpt lat="48.5836" lon="-3.1225">
        <ele>294</ele>
        <time>2016-04-03T13:42:27.1Z</time>
      </trkpt>
      <trkpt lat="48.5836" lon="-3.12251">
        <ele>294</ele>
        <time>2016-04-03T13:42:30.1Z</time>
      </trkpt>
      <trkpt lat="48.5836" lon="-3.12251">
        <ele>294</ele>
        <time>2016-04-03T13:42:32.1Z</time>
      </trkpt>
      <trkpt lat="48.58361" lon="-3.12252">
        <ele>294</ele>
        <time>2016-04-03T13:42:35.1Z</time>
      </trkpt>
      <trkpt lat="48.58361" lon="-3.12252">
        <ele>294</ele>
        <time>2016-04-03T13:42:37.1Z</time>
      </trkpt>
      <trkpt lat="48.58361" lon="-3.12252">
        <ele>294</ele>
        <time>2016-04-03T13:42:44.1Z</time>
      </trkpt>
      <trkpt lat="48.58362" lon="-3.12252">
        <ele>294</ele>
        <time>2016-04-03T13:42:47.1Z</time>
      </trkpt>
      <trkpt lat="48.58362" lon="-3.12252">
        <ele>294</ele>
        <time>2016-04-03T13:42:50.1Z</time>
      </trkpt>
      <trkpt lat="48.58363" lon="-3.12252">
        <ele>294</ele>
        <time>2016-04-03T13:42:53.1Z</time>
      </trkpt>
      <trkpt lat="48.58364" lon="-3.12252">
        <ele>294</ele>
        <time>2016-04-03T13:42:55.1Z</time>
      </trkpt>
      <trkpt lat="48.58365" lon="-3.12252">
        <ele>294</ele>
        <time>2016-04-03T13:42:58.1Z</time>
      </trkpt>
      <trkpt lat="48.58366" lon="-3.12253">
        <ele>294</ele>
        <time>2016-04-03T13:43:01.1Z</time>
      </trkpt>
      <trkpt lat="48.58366" lon="-3.12252">
        <ele>294</ele>
        <time>2016-04-03T13:43:03.1Z</time>
      </trkpt>
      <trkpt lat="48.58365" lon="-3.12252">
        <ele>294</ele>
        <time>2016-04-03T13:43:06.1Z</time>
      </trkpt>
      <trkpt lat="48.58366" lon="-3.12252">
        <ele>294</ele>
        <time>2016-04-03T13:43:08.1Z</time>
      </trkpt>
      <trkpt lat="48.58366" lon="-3.12252">
        <ele>294</ele>
        <time>2016-04-03T13:43:10.1Z</time>
      </trkpt>
      <trkpt lat="48.58367" lon="-3.12253">
        <ele>294</ele>
        <time>2016-04-03T13:43:13.1Z</time>
      </trkpt>
      <trkpt lat="48.58368" lon="-3.12254">
        <ele>295</ele>
        <time>2016-04-03T13:43:16.1Z</time>
      </trkpt>
      <trkpt lat="48.58369" lon="-3.12255">
        <ele>295</ele>
        <time>2016-04-03T13:43:19.1Z</time>
      </trkpt>
      <trkpt lat="48.58369" lon="-3.12256">
        <ele>295</ele>
        <time>2016-04-03T13:43:21.1Z</time>
      </trkpt>
      <trkpt lat="48.5837" lon="-3.12257">
        <ele>295</ele>
        <time>2016-04-03T13:43:24.1Z</time>
      </trkpt>
      <trkpt lat="48.5837" lon="-3.12257">
        <ele>295</ele>
        <time>2016-04-03T13:43:26.1Z</time>
      </trkpt>
      <trkpt lat="48.58371" lon="-3.12258">
        <ele>295</ele>
        <time>2016-04-03T13:43:29.1Z</time>
      </trkpt>
      <trkpt lat="48.58371" lon="-3.12258">
        <ele>295</ele>
        <time>2016-04-03T13:43:32.1Z</time>
      </trkpt>
      <trkpt lat="48.58372" lon="-3.12259">
        <ele>295</ele>
        <time>2016-04-03T13:43:34.1Z</time>
      </trkpt>
      <trkpt lat="48.58372" lon="-3.12259">
        <ele>294</ele>
        <time>2016-04-03T13:43:37.1Z</time>
      </trkpt>
      <trkpt lat="48.58372" lon="-3.12259">
        <ele>295</ele>
        <time>2016-04-03T13:43:41.1Z</time>
      </trkpt>
      <trkpt lat="48.58371" lon="-3.12258">
        <ele>295</ele>
        <time>2016-04-03T13:43:44.1Z</time>
      </trkpt>
      <trkpt lat="48.5837" lon="-3.12257">
        <ele>295</ele>
        <time>2016-04-03T13:43:47.1Z</time>
      </trkpt>
      <trkpt lat="48.5837" lon="-3.12257">
        <ele>295</ele>
        <time>2016-04-03T13:43:49.1Z</time>
      </trkpt>
      <trkpt lat="48.5837" lon="-3.12257">
        <ele>295</ele>
        <time>2016-04-03T13:43:52.1Z</time>
      </trkpt>
      <trkpt lat="48.58369" lon="-3.12257">
        <ele>295</ele>
        <time>2016-04-03T13:43:55.1Z</time>
      </trkpt>
      <trkpt lat="48.58369" lon="-3.12256">
        <ele>295</ele>
        <time>2016-04-03T13:43:57.1Z</time>
      </trkpt>
      <trkpt lat="48.58369" lon="-3.12255">
        <ele>295</ele>
        <time>2016-04-03T13:43:59.1Z</time>
      </trkpt>
      <trkpt lat="48.58368" lon="-3.12253">
        <ele>295</ele>
        <time>2016-04-03T13:44:02.1Z</time>
      </trkpt>
      <trkpt lat="48.58368" lon="-3.12253">
        <ele>295</ele>
        <time>2016-04-03T13:44:05.1Z</time>
      </trkpt>
      <trkpt lat="48.58368" lon="-3.12252">
        <ele>295</ele>
        <time>2016-04-03T13:44:07.1Z</time>
      </trkpt>
      <trkpt lat="48.58368" lon="-3.12253">
        <ele>295</ele>
        <time>2016-04-03T13:44:09.1Z</time>
      </trkpt>
      <trkpt lat="48.58369" lon="-3.12254">
        <ele>295</ele>
        <time>2016-04-03T13:44:12.1Z</time>
      </trkpt>
      <trkpt lat="48.5837" lon="-3.12254">
        <ele>295</ele>
        <time>2016-04-03T13:44:14.1Z</time>
      </trkpt>
      <trkpt lat="48.58369" lon="-3.12254">
        <ele>295</ele>
        <time>2016-04-03T13:44:16.1Z</time>
      </trkpt>
      <trkpt lat="48.5837" lon="-3.12255">
        <ele>294</ele>
        <time>2016-04-03T13:44:19.1Z</time>
      </trkpt>
      <trkpt lat="48.5837" lon="-3.12255">
        <ele>294</ele>
        <time>2016-04-03T13:44:21.1Z</time>
      </trkpt>
      <trkpt lat="48.58369" lon="-3.12255">
        <ele>294</ele>
        <time>2016-04-03T13:44:24.1Z</time>
      </trkpt>
      <trkpt lat="48.58368" lon="-3.12255">
        <ele>294</ele>
        <time>2016-04-03T13:44:27.1Z</time>
      </trkpt>
      <trkpt lat="48.58369" lon="-3.12255">
        <ele>294</ele>
        <time>2016-04-03T13:44:29.1Z</time>
      </trkpt>
      <trkpt lat="48.58369" lon="-3.12255">
        <ele>294</ele>
        <time>2016-04-03T13:44:32.1Z</time>
      </trkpt>
      <trkpt lat="48.58369" lon="-3.12256">
        <ele>294</ele>
        <time>2016-04-03T13:44:35.1Z</time>
      </trkpt>
      <trkpt lat="48.58369" lon="-3.12256">
        <ele>294</ele>
        <time>2016-04-03T13:44:37.1Z</time>
      </trkpt>
      <trkpt lat="48.58369" lon="-3.12257">
        <ele>294</ele>
        <time>2016-04-03T13:44:40.1Z</time>
      </trkpt>
      <trkpt lat="48.58369" lon="-3.12259">
        <ele>294</ele>
        <time>2016-04-03T13:44:42.1Z</time>
      </trkpt>
      <trkpt lat="48.58371" lon="-3.12262">
        <ele>294</ele>
        <time>2016-04-03T13:44:45.1Z</time>
      </trkpt>
      <trkpt lat="48.58372" lon="-3.12264">
        <ele>294</ele>
        <time>2016-04-03T13:44:47.1Z</time>
      </trkpt>
      <trkpt lat="48.58374" lon="-3.12266">
        <ele>294</ele>
        <time>2016-04-03T13:44:50.1Z</time>
      </trkpt>
      <trkpt lat="48.58375" lon="-3.12268">
        <ele>294</ele>
        <time>2016-04-03T13:44:52.1Z</time>
      </trkpt>
      <trkpt lat="48.58375" lon="-3.1227">
        <ele>294</ele>
        <time>2016-04-03T13:44:55.1Z</time>
      </trkpt>
      <trkpt lat="48.58376" lon="-3.12271">
        <ele>294</ele>
        <time>2016-04-03T13:44:58.1Z</time>
      </trkpt>
      <trkpt lat="48.58376" lon="-3.1227">
        <ele>294</ele>
        <time>2016-04-03T13:45:01.1Z</time>
      </trkpt>
      <trkpt lat="48.58376" lon="-3.1227">
        <ele>293</ele>
        <time>2016-04-03T13:45:03.1Z</time>
      </trkpt>
      <trkpt lat="48.58375" lon="-3.12269">
        <ele>293</ele>
        <time>2016-04-03T13:45:05.1Z</time>
      </trkpt>
      <trkpt lat="48.58374" lon="-3.12267">
        <ele>293</ele>
        <time>2016-04-03T13:45:08.1Z</time>
      </trkpt>
      <trkpt lat="48.58374" lon="-3.12265">
        <ele>293</ele>
        <time>2016-04-03T13:45:10.1Z</time>
      </trkpt>
      <trkpt lat="48.58374" lon="-3.12265">
        <ele>293</ele>
        <time>2016-04-03T13:45:13.1Z</time>
      </trkpt>
      <trkpt lat="48.58373" lon="-3.12264">
        <ele>293</ele>
        <time>2016-04-03T13:45:15.1Z</time>
      </trkpt>
      <trkpt lat="48.58373" lon="-3.12263">
        <ele>293</ele>
        <time>2016-04-03T13:45:18.1Z</time>
      </trkpt>
      <trkpt lat="48.58372" lon="-3.12263">
        <ele>293</ele>
        <time>2016-04-03T13:45:20.1Z</time>
      </trkpt>
      <trkpt lat="48.5837" lon="-3.12261">
        <ele>294</ele>
        <time>2016-04-03T13:45:23.1Z</time>
      </trkpt>
      <trkpt lat="48.58369" lon="-3.12261">
        <ele>294</ele>
        <time>2016-04-03T13:45:25.1Z</time>
      </trkpt>
      <trkpt lat="48.58367" lon="-3.12261">
        <ele>294</ele>
        <time>2016-04-03T13:45:28.1Z</time>
      </trkpt>
      <trkpt lat="48.58366" lon="-3.12262">
        <ele>294</ele>
        <time>2016-04-03T13:45:31.1Z</time>
      </trkpt>
      <trkpt lat="48.58364" lon="-3.12263">
        <ele>294</ele>
        <time>2016-04-03T13:45:33.1Z</time>
      </trkpt>
      <trkpt lat="48.58362" lon="-3.12265">
        <ele>294</ele>
        <time>2016-04-03T13:45:35.1Z</time>
      </trkpt>
      <trkpt lat="48.5836" lon="-3.12267">
        <ele>294</ele>
        <time>2016-04-03T13:45:38.1Z</time>
      </trkpt>
      <trkpt lat="48.58358" lon="-3.12268">
        <ele>293</ele>
        <time>2016-04-03T13:45:40.1Z</time>
      </trkpt>
      <trkpt lat="48.58355" lon="-3.12269">
        <ele>293</ele>
        <time>2016-04-03T13:45:43.1Z</time>
      </trkpt>
      <trkpt lat="48.58352" lon="-3.1227">
        <ele>293</ele>
        <time>2016-04-03T13:45:46.1Z</time>
      </trkpt>
      <trkpt lat="48.5835" lon="-3.12272">
        <ele>293</ele>
        <time>2016-04-03T13:45:49.1Z</time>
      </trkpt>
      <trkpt lat="48.58348" lon="-3.12274">
        <ele>293</ele>
        <time>2016-04-03T13:45:52.1Z</time>
      </trkpt>
      <trkpt lat="48.58347" lon="-3.12276">
        <ele>292</ele>
        <time>2016-04-03T13:45:54.1Z</time>
      </trkpt>
      <trkpt lat="48.58345" lon="-3.12278">
        <ele>292</ele>
        <time>2016-04-03T13:45:57.1Z</time>
      </trkpt>
      <trkpt lat="48.58343" lon="-3.12279">
        <ele>292</ele>
        <time>2016-04-03T13:45:59.1Z</time>
      </trkpt>
      <trkpt lat="48.58341" lon="-3.12281">
        <ele>292</ele>
        <time>2016-04-03T13:46:01.1Z</time>
      </trkpt>
      <trkpt lat="48.5834" lon="-3.12282">
        <ele>292</ele>
        <time>2016-04-03T13:46:03.1Z</time>
      </trkpt>
      <trkpt lat="48.58338" lon="-3.12285">
        <ele>292</ele>
        <time>2016-04-03T13:46:06.1Z</time>
      </trkpt>
      <trkpt lat="48.58337" lon="-3.12286">
        <ele>291</ele>
        <time>2016-04-03T13:46:08.1Z</time>
      </trkpt>
      <trkpt lat="48.58334" lon="-3.12289">
        <ele>291</ele>
        <time>2016-04-03T13:46:11.1Z</time>
      </trkpt>
      <trkpt lat="48.58332" lon="-3.1229">
        <ele>291</ele>
        <time>2016-04-03T13:46:13.1Z</time>
      </trkpt>
      <trkpt lat="48.58329" lon="-3.12291">
        <ele>291</ele>
        <time>2016-04-03T13:46:16.1Z</time>
      </trkpt>
      <trkpt lat="48.58326" lon="-3.12294">
        <ele>291</ele>
        <time>2016-04-03T13:46:19.1Z</time>
      </trkpt>
      <trkpt lat="48.58324" lon="-3.12296">
        <ele>290</ele>
        <time>2016-04-03T13:46:22.1Z</time>
      </trkpt>
      <trkpt lat="48.58321" lon="-3.12298">
        <ele>290</ele>
        <time>2016-04-03T13:46:24.1Z</time>
      </trkpt>
      <trkpt lat="48.58319" lon="-3.12301">
        <ele>289</ele>
        <time>2016-04-03T13:46:27.1Z</time>
      </trkpt>
      <trkpt lat="48.58316" lon="-3.12303">
        <ele>289</ele>
        <time>2016-04-03T13:46:30.1Z</time>
      </trkpt>
      <trkpt lat="48.58314" lon="-3.12305">
        <ele>289</ele>
        <time>2016-04-03T13:46:32.1Z</time>
      </trkpt>
      <trkpt lat="48.58313" lon="-3.12308">
        <ele>288</ele>
        <time>2016-04-03T13:46:34.1Z</time>
      </trkpt>
      <trkpt lat="48.5831" lon="-3.12311">
        <ele>288</ele>
        <time>2016-04-03T13:46:37.1Z</time>
      </trkpt>
      <trkpt lat="48.58308" lon="-3.12314">
        <ele>288</ele>
        <time>2016-04-03T13:46:40.1Z</time>
      </trkpt>
      <trkpt lat="48.58307" lon="-3.12316">
        <ele>288</ele>
        <time>2016-04-03T13:46:42.1Z</time>
      </trkpt>
      <trkpt lat="48.58305" lon="-3.12319">
        <ele>288</ele>
        <time>2016-04-03T13:46:44.1Z</time>
      </trkpt>
      <trkpt lat="48.58304" lon="-3.12322">
        <ele>288</ele>
        <time>2016-04-03T13:46:47.1Z</time>
      </trkpt>
      <trkpt lat="48.58302" lon="-3.12326">
        <ele>288</ele>
        <time>2016-04-03T13:46:50.1Z</time>
      </trkpt>
      <trkpt lat="48.58302" lon="-3.12329">
        <ele>287</ele>
        <time>2016-04-03T13:46:52.1Z</time>
      </trkpt>
      <trkpt lat="48.58302" lon="-3.12332">
        <ele>287</ele>
        <time>2016-04-03T13:46:54.1Z</time>
      </trkpt>
      <trkpt lat="48.58301" lon="-3.12335">
        <ele>287</ele>
        <time>2016-04-03T13:46:56.1Z</time>
      </trkpt>
      <trkpt lat="48.583" lon="-3.12337">
        <ele>287</ele>
        <time>2016-04-03T13:46:59.1Z</time>
      </trkpt>
      <trkpt lat="48.583" lon="-3.12339">
        <ele>287</ele>
        <time>2016-04-03T13:47:01.1Z</time>
      </trkpt>
      <trkpt lat="48.583" lon="-3.12342">
        <ele>287</ele>
        <time>2016-04-03T13:47:03.1Z</time>
      </trkpt>
      <trkpt lat="48.583" lon="-3.12347">
        <ele>287</ele>
        <time>2016-04-03T13:47:06.1Z</time>
      </trkpt>
      <trkpt lat="48.583" lon="-3.12353">
        <ele>286</ele>
        <time>2016-04-03T13:47:09.1Z</time>
      </trkpt>
      <trkpt lat="48.583" lon="-3.12356">
        <ele>286</ele>
        <time>2016-04-03T13:47:11.1Z</time>
      </trkpt>
      <trkpt lat="48.583" lon="-3.1236">
        <ele>286</ele>
        <time>2016-04-03T13:47:14.1Z</time>
      </trkpt>
      <trkpt lat="48.58301" lon="-3.12364">
        <ele>285</ele>
        <time>2016-04-03T13:47:17.1Z</time>
      </trkpt>
      <trkpt lat="48.58301" lon="-3.12366">
        <ele>285</ele>
        <time>2016-04-03T13:47:19.1Z</time>
      </trkpt>
      <trkpt lat="48.58301" lon="-3.12369">
        <ele>285</ele>
        <time>2016-04-03T13:47:22.1Z</time>
      </trkpt>
      <trkpt lat="48.58301" lon="-3.12371">
        <ele>286</ele>
        <time>2016-04-03T13:47:24.1Z</time>
      </trkpt>
      <trkpt lat="48.583" lon="-3.12373">
        <ele>285</ele>
        <time>2016-04-03T13:47:26.1Z</time>
      </trkpt>
      <trkpt lat="48.583" lon="-3.12375">
        <ele>285</ele>
        <time>2016-04-03T13:47:29.1Z</time>
      </trkpt>
      <trkpt lat="48.583" lon="-3.12376">
        <ele>285</ele>
        <time>2016-04-03T13:47:32.1Z</time>
      </trkpt>
      <trkpt lat="48.58299" lon="-3.1238">
        <ele>285</ele>
        <time>2016-04-03T13:47:35.1Z</time>
      </trkpt>
      <trkpt lat="48.58297" lon="-3.12381">
        <ele>285</ele>
        <time>2016-04-03T13:47:37.1Z</time>
      </trkpt>
      <trkpt lat="48.58296" lon="-3.12382">
        <ele>285</ele>
        <time>2016-04-03T13:47:40.1Z</time>
      </trkpt>
      <trkpt lat="48.58295" lon="-3.12382">
        <ele>285</ele>
        <time>2016-04-03T13:47:43.1Z</time>
      </trkpt>
      <trkpt lat="48.58294" lon="-3.12385">
        <ele>285</ele>
        <time>2016-04-03T13:47:46.1Z</time>
      </trkpt>
      <trkpt lat="48.58293" lon="-3.12387">
        <ele>284</ele>
        <time>2016-04-03T13:47:49.1Z</time>
      </trkpt>
      <trkpt lat="48.58292" lon="-3.12389">
        <ele>284</ele>
        <time>2016-04-03T13:47:51.1Z</time>
      </trkpt>
      <trkpt lat="48.58291" lon="-3.12391">
        <ele>284</ele>
        <time>2016-04-03T13:47:54.1Z</time>
      </trkpt>
      <trkpt lat="48.5829" lon="-3.12393">
        <ele>284</ele>
        <time>2016-04-03T13:47:56.1Z</time>
      </trkpt>
      <trkpt lat="48.58289" lon="-3.12398">
        <ele>283</ele>
        <time>2016-04-03T13:47:59.1Z</time>
      </trkpt>
      <trkpt lat="48.58289" lon="-3.124">
        <ele>283</ele>
        <time>2016-04-03T13:48:01.1Z</time>
      </trkpt>
      <trkpt lat="48.58289" lon="-3.12402">
        <ele>283</ele>
        <time>2016-04-03T13:48:03.1Z</time>
      </trkpt>
      <trkpt lat="48.58286" lon="-3.12404">
        <ele>283</ele>
        <time>2016-04-03T13:48:06.1Z</time>
      </trkpt>
      <trkpt lat="48.58284" lon="-3.12407">
        <ele>283</ele>
        <time>2016-04-03T13:48:09.1Z</time>
      </trkpt>
      <trkpt lat="48.58281" lon="-3.12409">
        <ele>283</ele>
        <time>2016-04-03T13:48:12.1Z</time>
      </trkpt>
      <trkpt lat="48.58279" lon="-3.12412">
        <ele>283</ele>
        <time>2016-04-03T13:48:15.1Z</time>
      </trkpt>
      <trkpt lat="48.58276" lon="-3.12413">
        <ele>283</ele>
        <time>2016-04-03T13:48:17.1Z</time>
      </trkpt>
      <trkpt lat="48.58274" lon="-3.12414">
        <ele>283</ele>
        <time>2016-04-03T13:48:20.1Z</time>
      </trkpt>
      <trkpt lat="48.58272" lon="-3.12415">
        <ele>283</ele>
        <time>2016-04-03T13:48:22.1Z</time>
      </trkpt>
      <trkpt lat="48.58269" lon="-3.12415">
        <ele>282</ele>
        <time>2016-04-03T13:48:25.1Z</time>
      </trkpt>
      <trkpt lat="48.58267" lon="-3.12416">
        <ele>282</ele>
        <time>2016-04-03T13:48:27.1Z</time>
      </trkpt>
      <trkpt lat="48.58265" lon="-3.12416">
        <ele>282</ele>
        <time>2016-04-03T13:48:30.1Z</time>
      </trkpt>
      <trkpt lat="48.58263" lon="-3.12416">
        <ele>283</ele>
        <time>2016-04-03T13:48:33.1Z</time>
      </trkpt>
      <trkpt lat="48.58262" lon="-3.12416">
        <ele>283</ele>
        <time>2016-04-03T13:48:35.1Z</time>
      </trkpt>
      <trkpt lat="48.58262" lon="-3.12417">
        <ele>283</ele>
        <time>2016-04-03T13:48:38.1Z</time>
      </trkpt>
      <trkpt lat="48.58261" lon="-3.12418">
        <ele>283</ele>
        <time>2016-04-03T13:48:40.1Z</time>
      </trkpt>
      <trkpt lat="48.5826" lon="-3.12418">
        <ele>283</ele>
        <time>2016-04-03T13:48:43.1Z</time>
      </trkpt>
      <trkpt lat="48.5826" lon="-3.12418">
        <ele>283</ele>
        <time>2016-04-03T13:48:45.1Z</time>
      </trkpt>
      <trkpt lat="48.58258" lon="-3.12418">
        <ele>283</ele>
        <time>2016-04-03T13:48:47.1Z</time>
      </trkpt>
      <trkpt lat="48.58258" lon="-3.1242">
        <ele>282</ele>
        <time>2016-04-03T13:48:50.1Z</time>
      </trkpt>
      <trkpt lat="48.58257" lon="-3.12423">
        <ele>283</ele>
        <time>2016-04-03T13:48:52.1Z</time>
      </trkpt>
      <trkpt lat="48.58257" lon="-3.12426">
        <ele>283</ele>
        <time>2016-04-03T13:48:55.1Z</time>
      </trkpt>
      <trkpt lat="48.58257" lon="-3.12429">
        <ele>283</ele>
        <time>2016-04-03T13:48:58.1Z</time>
      </trkpt>
      <trkpt lat="48.58258" lon="-3.12432">
        <ele>283</ele>
        <time>2016-04-03T13:49:01.1Z</time>
      </trkpt>
      <trkpt lat="48.58258" lon="-3.12434">
        <ele>283</ele>
        <time>2016-04-03T13:49:03.1Z</time>
      </trkpt>
      <trkpt lat="48.58258" lon="-3.12437">
        <ele>283</ele>
        <time>2016-04-03T13:49:06.1Z</time>
      </trkpt>
      <trkpt lat="48.58257" lon="-3.1244">
        <ele>283</ele>
        <time>2016-04-03T13:49:09.1Z</time>
      </trkpt>
      <trkpt lat="48.58257" lon="-3.12442">
        <ele>284</ele>
        <time>2016-04-03T13:49:12.1Z</time>
      </trkpt>
      <trkpt lat="48.58254" lon="-3.12443">
        <ele>283</ele>
        <time>2016-04-03T13:49:15.1Z</time>
      </trkpt>
      <trkpt lat="48.58252" lon="-3.12442">
        <ele>283</ele>
        <time>2016-04-03T13:49:17.1Z</time>
      </trkpt>
      <trkpt lat="48.5825" lon="-3.12442">
        <ele>283</ele>
        <time>2016-04-03T13:49:20.1Z</time>
      </trkpt>
      <trkpt lat="48.58248" lon="-3.12442">
        <ele>284</ele>
        <time>2016-04-03T13:49:23.1Z</time>
      </trkpt>
      <trkpt lat="48.58247" lon="-3.12441">
        <ele>284</ele>
        <time>2016-04-03T13:49:25.1Z</time>
      </trkpt>
      <trkpt lat="48.58244" lon="-3.12441">
        <ele>284</ele>
        <time>2016-04-03T13:49:28.1Z</time>
      </trkpt>
      <trkpt lat="48.58243" lon="-3.12441">
        <ele>284</ele>
        <time>2016-04-03T13:49:30.1Z</time>
      </trkpt>
      <trkpt lat="48.5824" lon="-3.1244">
        <ele>284</ele>
        <time>2016-04-03T13:49:33.1Z</time>
      </trkpt>
      <trkpt lat="48.58237" lon="-3.12439">
        <ele>284</ele>
        <time>2016-04-03T13:49:36.1Z</time>
      </trkpt>
      <trkpt lat="48.58235" lon="-3.12439">
        <ele>284</ele>
        <time>2016-04-03T13:49:38.1Z</time>
      </trkpt>
      <trkpt lat="48.58231" lon="-3.12438">
        <ele>284</ele>
        <time>2016-04-03T13:49:41.1Z</time>
      </trkpt>
      <trkpt lat="48.58228" lon="-3.12436">
        <ele>285</ele>
        <time>2016-04-03T13:49:44.1Z</time>
      </trkpt>
      <trkpt lat="48.58225" lon="-3.12434">
        <ele>285</ele>
        <time>2016-04-03T13:49:47.1Z</time>
      </trkpt>
      <trkpt lat="48.58223" lon="-3.12432">
        <ele>285</ele>
        <time>2016-04-03T13:49:50.1Z</time>
      </trkpt>
      <trkpt lat="48.5822" lon="-3.12431">
        <ele>285</ele>
        <time>2016-04-03T13:49:52.1Z</time>
      </trkpt>
      <trkpt lat="48.58217" lon="-3.12431">
        <ele>285</ele>
        <time>2016-04-03T13:49:55.1Z</time>
      </trkpt>
      <trkpt lat="48.58216" lon="-3.1243">
        <ele>285</ele>
        <time>2016-04-03T13:49:57.1Z</time>
      </trkpt>
      <trkpt lat="48.58213" lon="-3.1243">
        <ele>286</ele>
        <time>2016-04-03T13:50:00.1Z</time>
      </trkpt>
      <trkpt lat="48.5821" lon="-3.1243">
        <ele>286</ele>
        <time>2016-04-03T13:50:03.1Z</time>
      </trkpt>
      <trkpt lat="48.58207" lon="-3.1243">
        <ele>286</ele>
        <time>2016-04-03T13:50:06.1Z</time>
      </trkpt>
      <trkpt lat="48.58205" lon="-3.12431">
        <ele>286</ele>
        <time>2016-04-03T13:50:08.1Z</time>
      </trkpt>
      <trkpt lat="48.58202" lon="-3.12432">
        <ele>286</ele>
        <time>2016-04-03T13:50:11.1Z</time>
      </trkpt>
      <trkpt lat="48.582" lon="-3.12434">
        <ele>286</ele>
        <time>2016-04-03T13:50:14.1Z</time>
      </trkpt>
      <trkpt lat="48.58197" lon="-3.12436">
        <ele>286</ele>
        <time>2016-04-03T13:50:17.1Z</time>
      </trkpt>
      <trkpt lat="48.58196" lon="-3.12438">
        <ele>286</ele>
        <time>2016-04-03T13:50:19.1Z</time>
      </trkpt>
      <trkpt lat="48.58193" lon="-3.1244">
        <ele>286</ele>
        <time>2016-04-03T13:50:22.1Z</time>
      </trkpt>
      <trkpt lat="48.5819" lon="-3.12443">
        <ele>286</ele>
        <time>2016-04-03T13:50:25.1Z</time>
      </trkpt>
      <trkpt lat="48.58188" lon="-3.12444">
        <ele>287</ele>
        <time>2016-04-03T13:50:27.1Z</time>
      </trkpt>
      <trkpt lat="48.58185" lon="-3.12446">
        <ele>287</ele>
        <time>2016-04-03T13:50:30.1Z</time>
      </trkpt>
      <trkpt lat="48.58183" lon="-3.12448">
        <ele>287</ele>
        <time>2016-04-03T13:50:32.1Z</time>
      </trkpt>
      <trkpt lat="48.58181" lon="-3.12451">
        <ele>287</ele>
        <time>2016-04-03T13:50:35.1Z</time>
      </trkpt>
      <trkpt lat="48.5818" lon="-3.12453">
        <ele>287</ele>
        <time>2016-04-03T13:50:37.1Z</time>
      </trkpt>
      <trkpt lat="48.58178" lon="-3.12456">
        <ele>287</ele>
        <time>2016-04-03T13:50:40.1Z</time>
      </trkpt>
      <trkpt lat="48.58175" lon="-3.12459">
        <ele>287</ele>
        <time>2016-04-03T13:50:43.1Z</time>
      </trkpt>
      <trkpt lat="48.58174" lon="-3.12462">
        <ele>287</ele>
        <time>2016-04-03T13:50:45.1Z</time>
      </trkpt>
      <trkpt lat="48.58173" lon="-3.12467">
        <ele>288</ele>
        <time>2016-04-03T13:50:48.1Z</time>
      </trkpt>
      <trkpt lat="48.58171" lon="-3.1247">
        <ele>288</ele>
        <time>2016-04-03T13:50:50.1Z</time>
      </trkpt>
      <trkpt lat="48.5817" lon="-3.12474">
        <ele>288</ele>
        <time>2016-04-03T13:50:53.1Z</time>
      </trkpt>
      <trkpt lat="48.58169" lon="-3.12478">
        <ele>288</ele>
        <time>2016-04-03T13:50:55.1Z</time>
      </trkpt>
      <trkpt lat="48.58168" lon="-3.12481">
        <ele>288</ele>
        <time>2016-04-03T13:50:57.1Z</time>
      </trkpt>
      <trkpt lat="48.58167" lon="-3.12484">
        <ele>288</ele>
        <time>2016-04-03T13:50:59.1Z</time>
      </trkpt>
      <trkpt lat="48.58166" lon="-3.12489">
        <ele>288</ele>
        <time>2016-04-03T13:51:02.1Z</time>
      </trkpt>
      <trkpt lat="48.58165" lon="-3.12491">
        <ele>289</ele>
        <time>2016-04-03T13:51:04.1Z</time>
      </trkpt>
      <trkpt lat="48.58164" lon="-3.12494">
        <ele>289</ele>
        <time>2016-04-03T13:51:07.1Z</time>
      </trkpt>
      <trkpt lat="48.58163" lon="-3.12497">
        <ele>289</ele>
        <time>2016-04-03T13:51:09.1Z</time>
      </trkpt>
      <trkpt lat="48.58162" lon="-3.12502">
        <ele>289</ele>
        <time>2016-04-03T13:51:12.1Z</time>
      </trkpt>
      <trkpt lat="48.5816" lon="-3.12504">
        <ele>289</ele>
        <time>2016-04-03T13:51:14.1Z</time>
      </trkpt>
      <trkpt lat="48.58159" lon="-3.12508">
        <ele>289</ele>
        <time>2016-04-03T13:51:17.1Z</time>
      </trkpt>
      <trkpt lat="48.58158" lon="-3.12511">
        <ele>289</ele>
        <time>2016-04-03T13:51:19.1Z</time>
      </trkpt>
      <trkpt lat="48.58157" lon="-3.12515">
        <ele>290</ele>
        <time>2016-04-03T13:51:22.1Z</time>
      </trkpt>
      <trkpt lat="48.58157" lon="-3.12517">
        <ele>290</ele>
        <time>2016-04-03T13:51:24.1Z</time>
      </trkpt>
      <trkpt lat="48.58156" lon="-3.12521">
        <ele>290</ele>
        <time>2016-04-03T13:51:27.1Z</time>
      </trkpt>
      <trkpt lat="48.58156" lon="-3.12524">
        <ele>291</ele>
        <time>2016-04-03T13:51:29.1Z</time>
      </trkpt>
      <trkpt lat="48.58155" lon="-3.12529">
        <ele>291</ele>
        <time>2016-04-03T13:51:32.1Z</time>
      </trkpt>
      <trkpt lat="48.58155" lon="-3.12533">
        <ele>292</ele>
        <time>2016-04-03T13:51:35.1Z</time>
      </trkpt>
      <trkpt lat="48.58156" lon="-3.12538">
        <ele>292</ele>
        <time>2016-04-03T13:51:38.1Z</time>
      </trkpt>
      <trkpt lat="48.58157" lon="-3.12542">
        <ele>292</ele>
        <time>2016-04-03T13:51:41.1Z</time>
      </trkpt>
      <trkpt lat="48.58158" lon="-3.12547">
        <ele>292</ele>
        <time>2016-04-03T13:51:44.1Z</time>
      </trkpt>
      <trkpt lat="48.58159" lon="-3.1255">
        <ele>292</ele>
        <time>2016-04-03T13:51:46.1Z</time>
      </trkpt>
      <trkpt lat="48.58161" lon="-3.12555">
        <ele>293</ele>
        <time>2016-04-03T13:51:49.1Z</time>
      </trkpt>
      <trkpt lat="48.58162" lon="-3.12558">
        <ele>293</ele>
        <time>2016-04-03T13:51:51.1Z</time>
      </trkpt>
      <trkpt lat="48.58163" lon="-3.12561">
        <ele>293</ele>
        <time>2016-04-03T13:51:54.1Z</time>
      </trkpt>
      <trkpt lat="48.58165" lon="-3.12565">
        <ele>293</ele>
        <time>2016-04-03T13:51:57.1Z</time>
      </trkpt>
      <trkpt lat="48.58166" lon="-3.12568">
        <ele>294</ele>
        <time>2016-04-03T13:51:59.1Z</time>
      </trkpt>
      <trkpt lat="48.58167" lon="-3.1257">
        <ele>294</ele>
        <time>2016-04-03T13:52:01.1Z</time>
      </trkpt>
      <trkpt lat="48.58168" lon="-3.12573">
        <ele>294</ele>
        <time>2016-04-03T13:52:04.1Z</time>
      </trkpt>
      <trkpt lat="48.58169" lon="-3.12577">
        <ele>294</ele>
        <time>2016-04-03T13:52:07.1Z</time>
      </trkpt>
      <trkpt lat="48.58171" lon="-3.12578">
        <ele>295</ele>
        <time>2016-04-03T13:52:09.1Z</time>
      </trkpt>
      <trkpt lat="48.58172" lon="-3.1258">
        <ele>295</ele>
        <time>2016-04-03T13:52:11.1Z</time>
      </trkpt>
      <trkpt lat="48.58174" lon="-3.12584">
        <ele>295</ele>
        <time>2016-04-03T13:52:14.1Z</time>
      </trkpt>
      <trkpt lat="48.58175" lon="-3.12586">
        <ele>296</ele>
        <time>2016-04-03T13:52:16.1Z</time>
      </trkpt>
      <trkpt lat="48.58176" lon="-3.12589">
        <ele>296</ele>
        <time>2016-04-03T13:52:18.1Z</time>
      </trkpt>
      <trkpt lat="48.58177" lon="-3.12592">
        <ele>296</ele>
        <time>2016-04-03T13:52:21.1Z</time>
      </trkpt>
      <trkpt lat="48.58178" lon="-3.12595">
        <ele>296</ele>
        <time>2016-04-03T13:52:24.1Z</time>
      </trkpt>
      <trkpt lat="48.58179" lon="-3.12597">
        <ele>297</ele>
        <time>2016-04-03T13:52:26.1Z</time>
      </trkpt>
      <trkpt lat="48.58181" lon="-3.12599">
        <ele>297</ele>
        <time>2016-04-03T13:52:28.1Z</time>
      </trkpt>
      <trkpt lat="48.58182" lon="-3.12602">
        <ele>297</ele>
        <time>2016-04-03T13:52:31.1Z</time>
      </trkpt>
      <trkpt lat="48.58184" lon="-3.12605">
        <ele>298</ele>
        <time>2016-04-03T13:52:34.1Z</time>
      </trkpt>
      <trkpt lat="48.58185" lon="-3.12607">
        <ele>298</ele>
        <time>2016-04-03T13:52:36.1Z</time>
      </trkpt>
      <trkpt lat="48.58187" lon="-3.1261">
        <ele>298</ele>
        <time>2016-04-03T13:52:39.1Z</time>
      </trkpt>
      <trkpt lat="48.58188" lon="-3.12612">
        <ele>299</ele>
        <time>2016-04-03T13:52:42.1Z</time>
      </trkpt>
      <trkpt lat="48.5819" lon="-3.12614">
        <ele>299</ele>
        <time>2016-04-03T13:52:45.1Z</time>
      </trkpt>
      <trkpt lat="48.58191" lon="-3.12616">
        <ele>300</ele>
        <time>2016-04-03T13:52:47.1Z</time>
      </trkpt>
      <trkpt lat="48.58192" lon="-3.12618">
        <ele>300</ele>
        <time>2016-04-03T13:52:50.1Z</time>
      </trkpt>
      <trkpt lat="48.58192" lon="-3.12618">
        <ele>300</ele>
        <time>2016-04-03T13:52:52.1Z</time>
      </trkpt>
      <trkpt lat="48.58193" lon="-3.12619">
        <ele>301</ele>
        <time>2016-04-03T13:52:55.1Z</time>
      </trkpt>
      <trkpt lat="48.58193" lon="-3.1262">
        <ele>301</ele>
        <time>2016-04-03T13:52:58.1Z</time>
      </trkpt>
      <trkpt lat="48.58192" lon="-3.12621">
        <ele>301</ele>
        <time>2016-04-03T13:53:01.1Z</time>
      </trkpt>
      <trkpt lat="48.58192" lon="-3.12622">
        <ele>301</ele>
        <time>2016-04-03T13:53:04.1Z</time>
      </trkpt>
      <trkpt lat="48.58192" lon="-3.12623">
        <ele>301</ele>
        <time>2016-04-03T13:53:06.1Z</time>
      </trkpt>
      <trkpt lat="48.58192" lon="-3.12623">
        <ele>301</ele>
        <time>2016-04-03T13:53:10.1Z</time>
      </trkpt>
      <trkpt lat="48.58191" lon="-3.12623">
        <ele>301</ele>
        <time>2016-04-03T13:53:13.1Z</time>
      </trkpt>
      <trkpt lat="48.58191" lon="-3.12624">
        <ele>300</ele>
        <time>2016-04-03T13:53:18.1Z</time>
      </trkpt>
      <trkpt lat="48.58191" lon="-3.12624">
        <ele>301</ele>
        <time>2016-04-03T13:53:21.1Z</time>
      </trkpt>
      <trkpt lat="48.58192" lon="-3.12624">
        <ele>301</ele>
        <time>2016-04-03T13:53:24.1Z</time>
      </trkpt>
      <trkpt lat="48.58192" lon="-3.12624">
        <ele>300</ele>
        <time>2016-04-03T13:53:26.1Z</time>
      </trkpt>
      <trkpt lat="48.58192" lon="-3.12624">
        <ele>300</ele>
        <time>2016-04-03T13:53:29.1Z</time>
      </trkpt>
      <trkpt lat="48.58192" lon="-3.12624">
        <ele>300</ele>
        <time>2016-04-03T13:53:33.1Z</time>
      </trkpt>
      <trkpt lat="48.58192" lon="-3.12624">
        <ele>300</ele>
        <time>2016-04-03T13:53:35.1Z</time>
      </trkpt>
      <trkpt lat="48.58192" lon="-3.12624">
        <ele>300</ele>
        <time>2016-04-03T13:53:37.1Z</time>
      </trkpt>
      <trkpt lat="48.58192" lon="-3.12623">
        <ele>300</ele>
        <time>2016-04-03T13:53:41.1Z</time>
      </trkpt>
      <trkpt lat="48.58192" lon="-3.12623">
        <ele>300</ele>
        <time>2016-04-03T13:53:44.1Z</time>
      </trkpt>
      <trkpt lat="48.58192" lon="-3.12623">
        <ele>300</ele>
        <time>2016-04-03T13:53:46.1Z</time>
      </trkpt>
      <trkpt lat="48.58192" lon="-3.12624">
        <ele>300</ele>
        <time>2016-04-03T13:53:50.1Z</time>
      </trkpt>
      <trkpt lat="48.58192" lon="-3.12624">
        <ele>300</ele>
        <time>2016-04-03T13:53:53.1Z</time>
      </trkpt>
      <trkpt lat="48.58192" lon="-3.12624">
        <ele>300</ele>
        <time>2016-04-03T13:53:55.1Z</time>
      </trkpt>
      <trkpt lat="48.58193" lon="-3.12624">
        <ele>300</ele>
        <time>2016-04-03T13:53:59.1Z</time>
      </trkpt>
      <trkpt lat="48.58192" lon="-3.12624">
        <ele>300</ele>
        <time>2016-04-03T13:54:01.1Z</time>
      </trkpt>
      <trkpt lat="48.58192" lon="-3.12624">
        <ele>300</ele>
        <time>2016-04-03T13:54:04.1Z</time>
      </trkpt>
      <trkpt lat="48.58192" lon="-3.12624">
        <ele>300</ele>
        <time>2016-04-03T13:54:07.1Z</time>
      </trkpt>
      <trkpt lat="48.58192" lon="-3.12624">
        <ele>300</ele>
        <time>2016-04-03T13:54:10.1Z</time>
      </trkpt>
      <trkpt lat="48.58192" lon="-3.12624">
        <ele>300</ele>
        <time>2016-04-03T13:54:12.1Z</time>
      </trkpt>
      <trkpt lat="48.58193" lon="-3.12625">
        <ele>301</ele>
        <time>2016-04-03T13:54:15.1Z</time>
      </trkpt>
      <trkpt lat="48.58193" lon="-3.12625">
        <ele>301</ele>
        <time>2016-04-03T13:54:18.1Z</time>
      </trkpt>
      <trkpt lat="48.58193" lon="-3.12625">
        <ele>301</ele>
        <time>2016-04-03T13:54:21.1Z</time>
      </trkpt>
      <trkpt lat="48.58193" lon="-3.12625">
        <ele>300</ele>
        <time>2016-04-03T13:54:24.1Z</time>
      </trkpt>
      <trkpt lat="48.58193" lon="-3.12625">
        <ele>300</ele>
        <time>2016-04-03T13:54:26.1Z</time>
      </trkpt>
      <trkpt lat="48.58193" lon="-3.12624">
        <ele>300</ele>
        <time>2016-04-03T13:54:29.1Z</time>
      </trkpt>
      <trkpt lat="48.58193" lon="-3.12625">
        <ele>300</ele>
        <time>2016-04-03T13:54:31.1Z</time>
      </trkpt>
      <trkpt lat="48.58193" lon="-3.12626">
        <ele>300</ele>
        <time>2016-04-03T13:54:33.1Z</time>
      </trkpt>
      <trkpt lat="48.58193" lon="-3.12627">
        <ele>300</ele>
        <time>2016-04-03T13:54:36.1Z</time>
      </trkpt>
      <trkpt lat="48.58194" lon="-3.12627">
        <ele>301</ele>
        <time>2016-04-03T13:54:38.1Z</time>
      </trkpt>
      <trkpt lat="48.58193" lon="-3.12629">
        <ele>301</ele>
        <time>2016-04-03T13:54:40.1Z</time>
      </trkpt>
      <trkpt lat="48.58192" lon="-3.12632">
        <ele>301</ele>
        <time>2016-04-03T13:54:43.1Z</time>
      </trkpt>
      <trkpt lat="48.58191" lon="-3.12634">
        <ele>300</ele>
        <time>2016-04-03T13:54:46.1Z</time>
      </trkpt>
      <trkpt lat="48.58191" lon="-3.12637">
        <ele>300</ele>
        <time>2016-04-03T13:54:49.1Z</time>
      </trkpt>
      <trkpt lat="48.5819" lon="-3.12638">
        <ele>300</ele>
        <time>2016-04-03T13:54:51.1Z</time>
      </trkpt>
      <trkpt lat="48.58189" lon="-3.1264">
        <ele>300</ele>
        <time>2016-04-03T13:54:53.1Z</time>
      </trkpt>
      <trkpt lat="48.58187" lon="-3.12643">
        <ele>300</ele>
        <time>2016-04-03T13:54:56.1Z</time>
      </trkpt>
      <trkpt lat="48.58186" lon="-3.12644">
        <ele>300</ele>
        <time>2016-04-03T13:54:58.1Z</time>
      </trkpt>
      <trkpt lat="48.58185" lon="-3.12648">
        <ele>300</ele>
        <time>2016-04-03T13:55:01.1Z</time>
      </trkpt>
      <trkpt lat="48.58184" lon="-3.1265">
        <ele>300</ele>
        <time>2016-04-03T13:55:03.1Z</time>
      </trkpt>
      <trkpt lat="48.58182" lon="-3.12654">
        <ele>300</ele>
        <time>2016-04-03T13:55:06.1Z</time>
      </trkpt>
      <trkpt lat="48.5818" lon="-3.12658">
        <ele>300</ele>
        <time>2016-04-03T13:55:09.1Z</time>
      </trkpt>
      <trkpt lat="48.58178" lon="-3.12661">
        <ele>301</ele>
        <time>2016-04-03T13:55:12.1Z</time>
      </trkpt>
      <trkpt lat="48.58176" lon="-3.12663">
        <ele>301</ele>
        <time>2016-04-03T13:55:15.1Z</time>
      </trkpt>
      <trkpt lat="48.58173" lon="-3.12665">
        <ele>300</ele>
        <time>2016-04-03T13:55:18.1Z</time>
      </trkpt>
      <trkpt lat="48.58172" lon="-3.12666">
        <ele>300</ele>
        <time>2016-04-03T13:55:20.1Z</time>
      </trkpt>
      <trkpt lat="48.58171" lon="-3.12667">
        <ele>300</ele>
        <time>2016-04-03T13:55:22.1Z</time>
      </trkpt>
      <trkpt lat="48.5817" lon="-3.12667">
        <ele>300</ele>
        <time>2016-04-03T13:55:25.1Z</time>
      </trkpt>
      <trkpt lat="48.5817" lon="-3.12666">
        <ele>300</ele>
        <time>2016-04-03T13:55:27.1Z</time>
      </trkpt>
      <trkpt lat="48.5817" lon="-3.12666">
        <ele>300</ele>
        <time>2016-04-03T13:55:30.1Z</time>
      </trkpt>
      <trkpt lat="48.58168" lon="-3.12666">
        <ele>301</ele>
        <time>2016-04-03T13:55:33.1Z</time>
      </trkpt>
      <trkpt lat="48.58168" lon="-3.12666">
        <ele>301</ele>
        <time>2016-04-03T13:55:35.1Z</time>
      </trkpt>
      <trkpt lat="48.58167" lon="-3.12666">
        <ele>301</ele>
        <time>2016-04-03T13:55:38.1Z</time>
      </trkpt>
      <trkpt lat="48.58167" lon="-3.12666">
        <ele>301</ele>
        <time>2016-04-03T13:55:41.1Z</time>
      </trkpt>
      <trkpt lat="48.58167" lon="-3.12666">
        <ele>301</ele>
        <time>2016-04-03T13:55:43.1Z</time>
      </trkpt>
      <trkpt lat="48.58166" lon="-3.12667">
        <ele>301</ele>
        <time>2016-04-03T13:55:45.1Z</time>
      </trkpt>
      <trkpt lat="48.58166" lon="-3.12667">
        <ele>301</ele>
        <time>2016-04-03T13:55:47.1Z</time>
      </trkpt>
      <trkpt lat="48.58166" lon="-3.12668">
        <ele>301</ele>
        <time>2016-04-03T13:55:50.1Z</time>
      </trkpt>
      <trkpt lat="48.58166" lon="-3.12668">
        <ele>301</ele>
        <time>2016-04-03T13:55:52.1Z</time>
      </trkpt>
      <trkpt lat="48.58167" lon="-3.12668">
        <ele>301</ele>
        <time>2016-04-03T13:55:54.1Z</time>
      </trkpt>
      <trkpt lat="48.58167" lon="-3.12669">
        <ele>301</ele>
        <time>2016-04-03T13:55:57.1Z</time>
      </trkpt>
      <trkpt lat="48.58166" lon="-3.12669">
        <ele>301</ele>
        <time>2016-04-03T13:56:00.1Z</time>
      </trkpt>
      <trkpt lat="48.58165" lon="-3.12671">
        <ele>301</ele>
        <time>2016-04-03T13:56:03.1Z</time>
      </trkpt>
      <trkpt lat="48.58162" lon="-3.12672">
        <ele>301</ele>
        <time>2016-04-03T13:56:06.1Z</time>
      </trkpt>
      <trkpt lat="48.58161" lon="-3.12673">
        <ele>301</ele>
        <time>2016-04-03T13:56:08.1Z</time>
      </trkpt>
      <trkpt lat="48.5816" lon="-3.12673">
        <ele>301</ele>
        <time>2016-04-03T13:56:10.1Z</time>
      </trkpt>
      <trkpt lat="48.58158" lon="-3.12673">
        <ele>301</ele>
        <time>2016-04-03T13:56:13.1Z</time>
      </trkpt>
      <trkpt lat="48.58156" lon="-3.12673">
        <ele>301</ele>
        <time>2016-04-03T13:56:16.1Z</time>
      </trkpt>
      <trkpt lat="48.58154" lon="-3.12672">
        <ele>301</ele>
        <time>2016-04-03T13:56:19.1Z</time>
      </trkpt>
      <trkpt lat="48.58153" lon="-3.12671">
        <ele>301</ele>
        <time>2016-04-03T13:56:21.1Z</time>
      </trkpt>
      <trkpt lat="48.58152" lon="-3.1267">
        <ele>301</ele>
        <time>2016-04-03T13:56:23.1Z</time>
      </trkpt>
      <trkpt lat="48.58149" lon="-3.12668">
        <ele>301</ele>
        <time>2016-04-03T13:56:26.1Z</time>
      </trkpt>
      <trkpt lat="48.58147" lon="-3.12667">
        <ele>300</ele>
        <time>2016-04-03T13:56:28.1Z</time>
      </trkpt>
      <trkpt lat="48.58144" lon="-3.12666">
        <ele>300</ele>
        <time>2016-04-03T13:56:31.1Z</time>
      </trkpt>
      <trkpt lat="48.58142" lon="-3.12665">
        <ele>300</ele>
        <time>2016-04-03T13:56:34.1Z</time>
      </trkpt>
      <trkpt lat="48.58141" lon="-3.12665">
        <ele>300</ele>
        <time>2016-04-03T13:56:36.1Z</time>
      </trkpt>
      <trkpt lat="48.58138" lon="-3.12664">
        <ele>300</ele>
        <time>2016-04-03T13:56:39.1Z</time>
      </trkpt>
      <trkpt lat="48.58136" lon="-3.12663">
        <ele>300</ele>
        <time>2016-04-03T13:56:41.1Z</time>
      </trkpt>
      <trkpt lat="48.58134" lon="-3.12662">
        <ele>300</ele>
        <time>2016-04-03T13:56:43.1Z</time>
      </trkpt>
      <trkpt lat="48.58131" lon="-3.12661">
        <ele>300</ele>
        <time>2016-04-03T13:56:46.1Z</time>
      </trkpt>
      <trkpt lat="48.5813" lon="-3.12659">
        <ele>300</ele>
        <time>2016-04-03T13:56:49.1Z</time>
      </trkpt>
      <trkpt lat="48.58129" lon="-3.12658">
        <ele>300</ele>
        <time>2016-04-03T13:56:51.1Z</time>
      </trkpt>
      <trkpt lat="48.58126" lon="-3.12659">
        <ele>300</ele>
        <time>2016-04-03T13:56:54.1Z</time>
      </trkpt>
      <trkpt lat="48.58123" lon="-3.12658">
        <ele>300</ele>
        <time>2016-04-03T13:56:57.1Z</time>
      </trkpt>
      <trkpt lat="48.58121" lon="-3.12657">
        <ele>300</ele>
        <time>2016-04-03T13:56:59.1Z</time>
      </trkpt>
      <trkpt lat="48.58118" lon="-3.12656">
        <ele>299</ele>
        <time>2016-04-03T13:57:02.1Z</time>
      </trkpt>
      <trkpt lat="48.58115" lon="-3.12655">
        <ele>300</ele>
        <time>2016-04-03T13:57:05.1Z</time>
      </trkpt>
      <trkpt lat="48.58113" lon="-3.12654">
        <ele>299</ele>
        <time>2016-04-03T13:57:07.1Z</time>
      </trkpt>
      <trkpt lat="48.5811" lon="-3.12653">
        <ele>299</ele>
        <time>2016-04-03T13:57:10.1Z</time>
      </trkpt>
      <trkpt lat="48.58109" lon="-3.12653">
        <ele>299</ele>
        <time>2016-04-03T13:57:12.1Z</time>
      </trkpt>
      <trkpt lat="48.58107" lon="-3.12653">
        <ele>299</ele>
        <time>2016-04-03T13:57:14.1Z</time>
      </trkpt>
      <trkpt lat="48.58103" lon="-3.12652">
        <ele>299</ele>
        <time>2016-04-03T13:57:17.1Z</time>
      </trkpt>
      <trkpt lat="48.58101" lon="-3.12652">
        <ele>299</ele>
        <time>2016-04-03T13:57:19.1Z</time>
      </trkpt>
      <trkpt lat="48.58098" lon="-3.12651">
        <ele>299</ele>
        <time>2016-04-03T13:57:22.1Z</time>
      </trkpt>
      <trkpt lat="48.58096" lon="-3.1265">
        <ele>299</ele>
        <time>2016-04-03T13:57:24.1Z</time>
      </trkpt>
      <trkpt lat="48.58093" lon="-3.1265">
        <ele>299</ele>
        <time>2016-04-03T13:57:27.1Z</time>
      </trkpt>
      <trkpt lat="48.5809" lon="-3.1265">
        <ele>299</ele>
        <time>2016-04-03T13:57:30.1Z</time>
      </trkpt>
      <trkpt lat="48.58087" lon="-3.12649">
        <ele>299</ele>
        <time>2016-04-03T13:57:33.1Z</time>
      </trkpt>
      <trkpt lat="48.58086" lon="-3.12649">
        <ele>298</ele>
        <time>2016-04-03T13:57:35.1Z</time>
      </trkpt>
      <trkpt lat="48.58084" lon="-3.12649">
        <ele>298</ele>
        <time>2016-04-03T13:57:37.1Z</time>
      </trkpt>
      <trkpt lat="48.58083" lon="-3.12649">
        <ele>298</ele>
        <time>2016-04-03T13:57:39.1Z</time>
      </trkpt>
      <trkpt lat="48.5808" lon="-3.12649">
        <ele>298</ele>
        <time>2016-04-03T13:57:42.1Z</time>
      </trkpt>
      <trkpt lat="48.58078" lon="-3.12649">
        <ele>298</ele>
        <time>2016-04-03T13:57:44.1Z</time>
      </trkpt>
      <trkpt lat="48.58076" lon="-3.12648">
        <ele>298</ele>
        <time>2016-04-03T13:57:47.1Z</time>
      </trkpt>
      <trkpt lat="48.58073" lon="-3.12647">
        <ele>298</ele>
        <time>2016-04-03T13:57:49.1Z</time>
      </trkpt>
      <trkpt lat="48.5807" lon="-3.12646">
        <ele>298</ele>
        <time>2016-04-03T13:57:52.1Z</time>
      </trkpt>
      <trkpt lat="48.58066" lon="-3.12643">
        <ele>298</ele>
        <time>2016-04-03T13:57:55.1Z</time>
      </trkpt>
      <trkpt lat="48.58063" lon="-3.12642">
        <ele>297</ele>
        <time>2016-04-03T13:57:58.1Z</time>
      </trkpt>
      <trkpt lat="48.58062" lon="-3.12643">
        <ele>298</ele>
        <time>2016-04-03T13:58:00.1Z</time>
      </trkpt>
      <trkpt lat="48.58058" lon="-3.12641">
        <ele>297</ele>
        <time>2016-04-03T13:58:03.1Z</time>
      </trkpt>
      <trkpt lat="48.58056" lon="-3.12639">
        <ele>297</ele>
        <time>2016-04-03T13:58:06.1Z</time>
      </trkpt>
      <trkpt lat="48.58053" lon="-3.12637">
        <ele>297</ele>
        <time>2016-04-03T13:58:09.1Z</time>
      </trkpt>
      <trkpt lat="48.58049" lon="-3.12636">
        <ele>297</ele>
        <time>2016-04-03T13:58:12.1Z</time>
      </trkpt>
      <trkpt lat="48.58048" lon="-3.12635">
        <ele>297</ele>
        <time>2016-04-03T13:58:14.1Z</time>
      </trkpt>
      <trkpt lat="48.58045" lon="-3.12633">
        <ele>297</ele>
        <time>2016-04-03T13:58:16.1Z</time>
      </trkpt>
      <trkpt lat="48.58043" lon="-3.12632">
        <ele>297</ele>
        <time>2016-04-03T13:58:18.1Z</time>
      </trkpt>
      <trkpt lat="48.58041" lon="-3.12632">
        <ele>297</ele>
        <time>2016-04-03T13:58:21.1Z</time>
      </trkpt>
      <trkpt lat="48.58039" lon="-3.1263">
        <ele>297</ele>
        <time>2016-04-03T13:58:24.1Z</time>
      </trkpt>
      <trkpt lat="48.58038" lon="-3.12629">
        <ele>297</ele>
        <time>2016-04-03T13:58:27.1Z</time>
      </trkpt>
      <trkpt lat="48.58035" lon="-3.12627">
        <ele>297</ele>
        <time>2016-04-03T13:58:30.1Z</time>
      </trkpt>
      <trkpt lat="48.58033" lon="-3.12627">
        <ele>297</ele>
        <time>2016-04-03T13:58:32.1Z</time>
      </trkpt>
      <trkpt lat="48.58031" lon="-3.12625">
        <ele>297</ele>
        <time>2016-04-03T13:58:35.1Z</time>
      </trkpt>
      <trkpt lat="48.5803" lon="-3.12623">
        <ele>297</ele>
        <time>2016-04-03T13:58:38.1Z</time>
      </trkpt>
      <trkpt lat="48.58028" lon="-3.12621">
        <ele>297</ele>
        <time>2016-04-03T13:58:41.1Z</time>
      </trkpt>
      <trkpt lat="48.58025" lon="-3.12617">
        <ele>297</ele>
        <time>2016-04-03T13:58:44.1Z</time>
      </trkpt>
      <trkpt lat="48.58024" lon="-3.12614">
        <ele>297</ele>
        <time>2016-04-03T13:58:46.1Z</time>
      </trkpt>
      <trkpt lat="48.58022" lon="-3.12614">
        <ele>297</ele>
        <time>2016-04-03T13:58:49.1Z</time>
      </trkpt>
      <trkpt lat="48.5802" lon="-3.12612">
        <ele>297</ele>
        <time>2016-04-03T13:58:51.1Z</time>
      </trkpt>
      <trkpt lat="48.58017" lon="-3.1261">
        <ele>297</ele>
        <time>2016-04-03T13:58:54.1Z</time>
      </trkpt>
      <trkpt lat="48.58014" lon="-3.12608">
        <ele>297</ele>
        <time>2016-04-03T13:58:57.1Z</time>
      </trkpt>
      <trkpt lat="48.58012" lon="-3.12607">
        <ele>297</ele>
        <time>2016-04-03T13:58:59.1Z</time>
      </trkpt>
      <trkpt lat="48.58009" lon="-3.12604">
        <ele>297</ele>
        <time>2016-04-03T13:59:02.1Z</time>
      </trkpt>
      <trkpt lat="48.58007" lon="-3.12603">
        <ele>297</ele>
        <time>2016-04-03T13:59:04.1Z</time>
      </trkpt>
      <trkpt lat="48.58004" lon="-3.12602">
        <ele>296</ele>
        <time>2016-04-03T13:59:07.1Z</time>
      </trkpt>
      <trkpt lat="48.58002" lon="-3.12602">
        <ele>297</ele>
        <time>2016-04-03T13:59:09.1Z</time>
      </trkpt>
      <trkpt lat="48.57999" lon="-3.12602">
        <ele>296</ele>
        <time>2016-04-03T13:59:12.1Z</time>
      </trkpt>
      <trkpt lat="48.57997" lon="-3.126">
        <ele>297</ele>
        <time>2016-04-03T13:59:15.1Z</time>
      </trkpt>
      <trkpt lat="48.57996" lon="-3.12599">
        <ele>296</ele>
        <time>2016-04-03T13:59:17.1Z</time>
      </trkpt>
      <trkpt lat="48.57994" lon="-3.12598">
        <ele>296</ele>
        <time>2016-04-03T13:59:19.1Z</time>
      </trkpt>
      <trkpt lat="48.57992" lon="-3.12597">
        <ele>296</ele>
        <time>2016-04-03T13:59:22.1Z</time>
      </trkpt>
      <trkpt lat="48.57991" lon="-3.12594">
        <ele>296</ele>
        <time>2016-04-03T13:59:24.1Z</time>
      </trkpt>
      <trkpt lat="48.57989" lon="-3.12593">
        <ele>296</ele>
        <time>2016-04-03T13:59:26.1Z</time>
      </trkpt>
      <trkpt lat="48.57986" lon="-3.12591">
        <ele>296</ele>
        <time>2016-04-03T13:59:29.1Z</time>
      </trkpt>
      <trkpt lat="48.57985" lon="-3.12589">
        <ele>296</ele>
        <time>2016-04-03T13:59:31.1Z</time>
      </trkpt>
      <trkpt lat="48.57983" lon="-3.12587">
        <ele>296</ele>
        <time>2016-04-03T13:59:33.1Z</time>
      </trkpt>
      <trkpt lat="48.57981" lon="-3.12586">
        <ele>296</ele>
        <time>2016-04-03T13:59:35.1Z</time>
      </trkpt>
      <trkpt lat="48.57979" lon="-3.12584">
        <ele>296</ele>
        <time>2016-04-03T13:59:38.1Z</time>
      </trkpt>
      <trkpt lat="48.57978" lon="-3.12583">
        <ele>296</ele>
        <time>2016-04-03T13:59:40.1Z</time>
      </trkpt>
      <trkpt lat="48.57975" lon="-3.12582">
        <ele>296</ele>
        <time>2016-04-03T13:59:43.1Z</time>
      </trkpt>
      <trkpt lat="48.57973" lon="-3.12581">
        <ele>295</ele>
        <time>2016-04-03T13:59:46.1Z</time>
      </trkpt>
      <trkpt lat="48.57972" lon="-3.12581">
        <ele>295</ele>
        <time>2016-04-03T13:59:49.1Z</time>
      </trkpt>
      <trkpt lat="48.57971" lon="-3.1258">
        <ele>296</ele>
        <time>2016-04-03T13:59:52.1Z</time>
      </trkpt>
      <trkpt lat="48.57968" lon="-3.12579">
        <ele>295</ele>
        <time>2016-04-03T13:59:55.1Z</time>
      </trkpt>
      <trkpt lat="48.57965" lon="-3.12579">
        <ele>295</ele>
        <time>2016-04-03T13:59:58.1Z</time>
      </trkpt>
      <trkpt lat="48.57963" lon="-3.12578">
        <ele>295</ele>
        <time>2016-04-03T14:00:00.1Z</time>
      </trkpt>
      <trkpt lat="48.57962" lon="-3.12578">
        <ele>295</ele>
        <time>2016-04-03T14:00:02.1Z</time>
      </trkpt>
      <trkpt lat="48.57959" lon="-3.12576">
        <ele>295</ele>
        <time>2016-04-03T14:00:05.1Z</time>
      </trkpt>
      <trkpt lat="48.57957" lon="-3.12575">
        <ele>295</ele>
        <time>2016-04-03T14:00:07.1Z</time>
      </trkpt>
      <trkpt lat="48.57955" lon="-3.12574">
        <ele>295</ele>
        <time>2016-04-03T14:00:10.1Z</time>
      </trkpt>
      <trkpt lat="48.57952" lon="-3.12571">
        <ele>294</ele>
        <time>2016-04-03T14:00:13.1Z</time>
      </trkpt>
      <trkpt lat="48.57951" lon="-3.1257">
        <ele>294</ele>
        <time>2016-04-03T14:00:15.1Z</time>
      </trkpt>
      <trkpt lat="48.57948" lon="-3.1257">
        <ele>294</ele>
        <time>2016-04-03T14:00:18.1Z</time>
      </trkpt>
      <trkpt lat="48.57946" lon="-3.12569">
        <ele>294</ele>
        <time>2016-04-03T14:00:21.1Z</time>
      </trkpt>
      <trkpt lat="48.57944" lon="-3.12568">
        <ele>294</ele>
        <time>2016-04-03T14:00:24.1Z</time>
      </trkpt>
      <trkpt lat="48.57941" lon="-3.12566">
        <ele>294</ele>
        <time>2016-04-03T14:00:27.1Z</time>
      </trkpt>
      <trkpt lat="48.57938" lon="-3.12565">
        <ele>293</ele>
        <time>2016-04-03T14:00:30.1Z</time>
      </trkpt>
      <trkpt lat="48.57935" lon="-3.12563">
        <ele>293</ele>
        <time>2016-04-03T14:00:33.1Z</time>
      </trkpt>
      <trkpt lat="48.57932" lon="-3.12561">
        <ele>293</ele>
        <time>2016-04-03T14:00:36.1Z</time>
      </trkpt>
      <trkpt lat="48.5793" lon="-3.1256">
        <ele>293</ele>
        <time>2016-04-03T14:00:38.1Z</time>
      </trkpt>
      <trkpt lat="48.57928" lon="-3.12559">
        <ele>293</ele>
        <time>2016-04-03T14:00:40.1Z</time>
      </trkpt>
      <trkpt lat="48.57925" lon="-3.12558">
        <ele>293</ele>
        <time>2016-04-03T14:00:43.1Z</time>
      </trkpt>
      <trkpt lat="48.57924" lon="-3.12557">
        <ele>293</ele>
        <time>2016-04-03T14:00:45.1Z</time>
      </trkpt>
      <trkpt lat="48.57922" lon="-3.12556">
        <ele>293</ele>
        <time>2016-04-03T14:00:47.1Z</time>
      </trkpt>
      <trkpt lat="48.57919" lon="-3.12554">
        <ele>292</ele>
        <time>2016-04-03T14:00:50.1Z</time>
      </trkpt>
      <trkpt lat="48.57917" lon="-3.12553">
        <ele>292</ele>
        <time>2016-04-03T14:00:52.1Z</time>
      </trkpt>
      <trkpt lat="48.57914" lon="-3.12551">
        <ele>291</ele>
        <time>2016-04-03T14:00:55.1Z</time>
      </trkpt>
      <trkpt lat="48.57911" lon="-3.1255">
        <ele>291</ele>
        <time>2016-04-03T14:00:58.1Z</time>
      </trkpt>
      <trkpt lat="48.57908" lon="-3.12549">
        <ele>291</ele>
        <time>2016-04-03T14:01:01.1Z</time>
      </trkpt>
      <trkpt lat="48.57907" lon="-3.12548">
        <ele>292</ele>
        <time>2016-04-03T14:01:03.1Z</time>
      </trkpt>
      <trkpt lat="48.57904" lon="-3.12547">
        <ele>291</ele>
        <time>2016-04-03T14:01:06.1Z</time>
      </trkpt>
      <trkpt lat="48.57903" lon="-3.12547">
        <ele>291</ele>
        <time>2016-04-03T14:01:08.1Z</time>
      </trkpt>
      <trkpt lat="48.57902" lon="-3.12547">
        <ele>291</ele>
        <time>2016-04-03T14:01:10.1Z</time>
      </trkpt>
      <trkpt lat="48.57899" lon="-3.12546">
        <ele>290</ele>
        <time>2016-04-03T14:01:13.1Z</time>
      </trkpt>
      <trkpt lat="48.57898" lon="-3.12545">
        <ele>290</ele>
        <time>2016-04-03T14:01:15.1Z</time>
      </trkpt>
      <trkpt lat="48.57896" lon="-3.12543">
        <ele>290</ele>
        <time>2016-04-03T14:01:18.1Z</time>
      </trkpt>
      <trkpt lat="48.57895" lon="-3.12543">
        <ele>289</ele>
        <time>2016-04-03T14:01:20.1Z</time>
      </trkpt>
      <trkpt lat="48.57894" lon="-3.12542">
        <ele>289</ele>
        <time>2016-04-03T14:01:22.1Z</time>
      </trkpt>
      <trkpt lat="48.57893" lon="-3.12542">
        <ele>289</ele>
        <time>2016-04-03T14:01:25.1Z</time>
      </trkpt>
      <trkpt lat="48.5789" lon="-3.12542">
        <ele>289</ele>
        <time>2016-04-03T14:01:28.1Z</time>
      </trkpt>
      <trkpt lat="48.57889" lon="-3.12542">
        <ele>289</ele>
        <time>2016-04-03T14:01:30.1Z</time>
      </trkpt>
      <trkpt lat="48.57887" lon="-3.12541">
        <ele>289</ele>
        <time>2016-04-03T14:01:33.1Z</time>
      </trkpt>
      <trkpt lat="48.57886" lon="-3.1254">
        <ele>289</ele>
        <time>2016-04-03T14:01:35.1Z</time>
      </trkpt>
      <trkpt lat="48.57885" lon="-3.1254">
        <ele>289</ele>
        <time>2016-04-03T14:01:40.1Z</time>
      </trkpt>
      <trkpt lat="48.57885" lon="-3.1254">
        <ele>289</ele>
        <time>2016-04-03T14:01:43.1Z</time>
      </trkpt>
      <trkpt lat="48.57884" lon="-3.12539">
        <ele>289</ele>
        <time>2016-04-03T14:01:46.1Z</time>
      </trkpt>
      <trkpt lat="48.57884" lon="-3.12539">
        <ele>289</ele>
        <time>2016-04-03T14:01:49.1Z</time>
      </trkpt>
      <trkpt lat="48.57883" lon="-3.12539">
        <ele>289</ele>
        <time>2016-04-03T14:01:52.1Z</time>
      </trkpt>
      <trkpt lat="48.57882" lon="-3.12541">
        <ele>289</ele>
        <time>2016-04-03T14:01:55.1Z</time>
      </trkpt>
      <trkpt lat="48.57881" lon="-3.12542">
        <ele>289</ele>
        <time>2016-04-03T14:01:57.1Z</time>
      </trkpt>
      <trkpt lat="48.5788" lon="-3.12543">
        <ele>289</ele>
        <time>2016-04-03T14:02:00.1Z</time>
      </trkpt>
      <trkpt lat="48.5788" lon="-3.12543">
        <ele>289</ele>
        <time>2016-04-03T14:02:03.1Z</time>
      </trkpt>
      <trkpt lat="48.57881" lon="-3.12543">
        <ele>289</ele>
        <time>2016-04-03T14:02:06.1Z</time>
      </trkpt>
      <trkpt lat="48.5788" lon="-3.12543">
        <ele>289</ele>
        <time>2016-04-03T14:02:08.1Z</time>
      </trkpt>
      <trkpt lat="48.57881" lon="-3.12544">
        <ele>289</ele>
        <time>2016-04-03T14:02:11.1Z</time>
      </trkpt>
      <trkpt lat="48.57881" lon="-3.12544">
        <ele>290</ele>
        <time>2016-04-03T14:02:13.1Z</time>
      </trkpt>
      <trkpt lat="48.5788" lon="-3.12545">
        <ele>289</ele>
        <time>2016-04-03T14:02:15.1Z</time>
      </trkpt>
      <trkpt lat="48.57881" lon="-3.12545">
        <ele>289</ele>
        <time>2016-04-03T14:02:18.1Z</time>
      </trkpt>
      <trkpt lat="48.5788" lon="-3.12545">
        <ele>289</ele>
        <time>2016-04-03T14:02:21.1Z</time>
      </trkpt>
      <trkpt lat="48.5788" lon="-3.12544">
        <ele>289</ele>
        <time>2016-04-03T14:02:23.1Z</time>
      </trkpt>
      <trkpt lat="48.5788" lon="-3.12544">
        <ele>289</ele>
        <time>2016-04-03T14:02:26.1Z</time>
      </trkpt>
      <trkpt lat="48.57881" lon="-3.12543">
        <ele>289</ele>
        <time>2016-04-03T14:02:28.1Z</time>
      </trkpt>
      <trkpt lat="48.57882" lon="-3.12543">
        <ele>289</ele>
        <time>2016-04-03T14:02:31.1Z</time>
      </trkpt>
      <trkpt lat="48.57882" lon="-3.12543">
        <ele>289</ele>
        <time>2016-04-03T14:02:34.1Z</time>
      </trkpt>
      <trkpt lat="48.57882" lon="-3.12543">
        <ele>289</ele>
        <time>2016-04-03T14:02:37.1Z</time>
      </trkpt>
      <trkpt lat="48.57883" lon="-3.12543">
        <ele>289</ele>
        <time>2016-04-03T14:02:40.1Z</time>
      </trkpt>
      <trkpt lat="48.57883" lon="-3.12544">
        <ele>289</ele>
        <time>2016-04-03T14:02:42.1Z</time>
      </trkpt>
      <trkpt lat="48.57884" lon="-3.12545">
        <ele>289</ele>
        <time>2016-04-03T14:02:45.1Z</time>
      </trkpt>
      <trkpt lat="48.57885" lon="-3.12546">
        <ele>289</ele>
        <time>2016-04-03T14:02:48.1Z</time>
      </trkpt>
      <trkpt lat="48.57885" lon="-3.12547">
        <ele>289</ele>
        <time>2016-04-03T14:02:50.1Z</time>
      </trkpt>
      <trkpt lat="48.57885" lon="-3.12547">
        <ele>289</ele>
        <time>2016-04-03T14:02:52.1Z</time>
      </trkpt>
      <trkpt lat="48.57885" lon="-3.12548">
        <ele>289</ele>
        <time>2016-04-03T14:02:55.1Z</time>
      </trkpt>
      <trkpt lat="48.57883" lon="-3.12547">
        <ele>289</ele>
        <time>2016-04-03T14:02:57.1Z</time>
      </trkpt>
      <trkpt lat="48.57885" lon="-3.12547">
        <ele>289</ele>
        <time>2016-04-03T14:03:00.1Z</time>
      </trkpt>
      <trkpt lat="48.57885" lon="-3.12545">
        <ele>289</ele>
        <time>2016-04-03T14:03:03.1Z</time>
      </trkpt>
      <trkpt lat="48.57887" lon="-3.12543">
        <ele>289</ele>
        <time>2016-04-03T14:03:05.1Z</time>
      </trkpt>
      <trkpt lat="48.57888" lon="-3.12542">
        <ele>289</ele>
        <time>2016-04-03T14:03:08.1Z</time>
      </trkpt>
      <trkpt lat="48.57888" lon="-3.12541">
        <ele>289</ele>
        <time>2016-04-03T14:03:11.1Z</time>
      </trkpt>
      <trkpt lat="48.57888" lon="-3.12539">
        <ele>288</ele>
        <time>2016-04-03T14:03:13.1Z</time>
      </trkpt>
      <trkpt lat="48.5789" lon="-3.12537">
        <ele>288</ele>
        <time>2016-04-03T14:03:16.1Z</time>
      </trkpt>
      <trkpt lat="48.57891" lon="-3.12534">
        <ele>288</ele>
        <time>2016-04-03T14:03:19.1Z</time>
      </trkpt>
      <trkpt lat="48.57892" lon="-3.1253">
        <ele>288</ele>
        <time>2016-04-03T14:03:22.1Z</time>
      </trkpt>
      <trkpt lat="48.57893" lon="-3.12526">
        <ele>288</ele>
        <time>2016-04-03T14:03:25.1Z</time>
      </trkpt>
      <trkpt lat="48.57895" lon="-3.12523">
        <ele>288</ele>
        <time>2016-04-03T14:03:28.1Z</time>
      </trkpt>
      <trkpt lat="48.57897" lon="-3.1252">
        <ele>287</ele>
        <time>2016-04-03T14:03:30.1Z</time>
      </trkpt>
      <trkpt lat="48.57899" lon="-3.12516">
        <ele>287</ele>
        <time>2016-04-03T14:03:33.1Z</time>
      </trkpt>
      <trkpt lat="48.579" lon="-3.12513">
        <ele>286</ele>
        <time>2016-04-03T14:03:35.1Z</time>
      </trkpt>
      <trkpt lat="48.57901" lon="-3.12507">
        <ele>286</ele>
        <time>2016-04-03T14:03:38.1Z</time>
      </trkpt>
      <trkpt lat="48.57901" lon="-3.12504">
        <ele>286</ele>
        <time>2016-04-03T14:03:40.1Z</time>
      </trkpt>
      <trkpt lat="48.57902" lon="-3.12499">
        <ele>286</ele>
        <time>2016-04-03T14:03:43.1Z</time>
      </trkpt>
      <trkpt lat="48.57904" lon="-3.12494">
        <ele>286</ele>
        <time>2016-04-03T14:03:46.1Z</time>
      </trkpt>
      <trkpt lat="48.57905" lon="-3.12489">
        <ele>286</ele>
        <time>2016-04-03T14:03:49.1Z</time>
      </trkpt>
      <trkpt lat="48.57905" lon="-3.12487">
        <ele>286</ele>
        <time>2016-04-03T14:03:51.1Z</time>
      </trkpt>
      <trkpt lat="48.57906" lon="-3.12484">
        <ele>286</ele>
        <time>2016-04-03T14:03:54.1Z</time>
      </trkpt>
      <trkpt lat="48.57908" lon="-3.12479">
        <ele>285</ele>
        <time>2016-04-03T14:03:57.1Z</time>
      </trkpt>
      <trkpt lat="48.57909" lon="-3.12476">
        <ele>285</ele>
        <time>2016-04-03T14:03:59.1Z</time>
      </trkpt>
      <trkpt lat="48.57909" lon="-3.12474">
        <ele>285</ele>
        <time>2016-04-03T14:04:01.1Z</time>
      </trkpt>
      <trkpt lat="48.5791" lon="-3.12471">
        <ele>285</ele>
        <time>2016-04-03T14:04:03.1Z</time>
      </trkpt>
      <trkpt lat="48.57912" lon="-3.12467">
        <ele>285</ele>
        <time>2016-04-03T14:04:06.1Z</time>
      </trkpt>
      <trkpt lat="48.57914" lon="-3.12464">
        <ele>285</ele>
        <time>2016-04-03T14:04:09.1Z</time>
      </trkpt>
      <trkpt lat="48.57915" lon="-3.12463">
        <ele>285</ele>
        <time>2016-04-03T14:04:11.1Z</time>
      </trkpt>
      <trkpt lat="48.57918" lon="-3.1246">
        <ele>285</ele>
        <time>2016-04-03T14:04:14.1Z</time>
      </trkpt>
      <trkpt lat="48.57919" lon="-3.12458">
        <ele>286</ele>
        <time>2016-04-03T14:04:17.1Z</time>
      </trkpt>
      <trkpt lat="48.5792" lon="-3.12456">
        <ele>286</ele>
        <time>2016-04-03T14:04:19.1Z</time>
      </trkpt>
      <trkpt lat="48.57921" lon="-3.12454">
        <ele>286</ele>
        <time>2016-04-03T14:04:21.1Z</time>
      </trkpt>
      <trkpt lat="48.57921" lon="-3.12451">
        <ele>285</ele>
        <time>2016-04-03T14:04:24.1Z</time>
      </trkpt>
      <trkpt lat="48.57922" lon="-3.12449">
        <ele>285</ele>
        <time>2016-04-03T14:04:26.1Z</time>
      </trkpt>
      <trkpt lat="48.57923" lon="-3.12448">
        <ele>285</ele>
        <time>2016-04-03T14:04:29.1Z</time>
      </trkpt>
      <trkpt lat="48.57923" lon="-3.12448">
        <ele>285</ele>
        <time>2016-04-03T14:04:31.1Z</time>
      </trkpt>
      <trkpt lat="48.57924" lon="-3.12448">
        <ele>285</ele>
        <time>2016-04-03T14:04:33.1Z</time>
      </trkpt>
      <trkpt lat="48.57924" lon="-3.12448">
        <ele>286</ele>
        <time>2016-04-03T14:04:35.1Z</time>
      </trkpt>
      <trkpt lat="48.57924" lon="-3.12448">
        <ele>286</ele>
        <time>2016-04-03T14:04:39.1Z</time>
      </trkpt>
      <trkpt lat="48.57923" lon="-3.12449">
        <ele>286</ele>
        <time>2016-04-03T14:04:42.1Z</time>
      </trkpt>
      <trkpt lat="48.57922" lon="-3.12448">
        <ele>286</ele>
        <time>2016-04-03T14:04:44.1Z</time>
      </trkpt>
      <trkpt lat="48.57922" lon="-3.12447">
        <ele>287</ele>
        <time>2016-04-03T14:04:46.1Z</time>
      </trkpt>
      <trkpt lat="48.57921" lon="-3.12445">
        <ele>287</ele>
        <time>2016-04-03T14:04:49.1Z</time>
      </trkpt>
      <trkpt lat="48.5792" lon="-3.12444">
        <ele>287</ele>
        <time>2016-04-03T14:04:51.1Z</time>
      </trkpt>
      <trkpt lat="48.57919" lon="-3.12442">
        <ele>288</ele>
        <time>2016-04-03T14:04:54.1Z</time>
      </trkpt>
      <trkpt lat="48.57917" lon="-3.12441">
        <ele>288</ele>
        <time>2016-04-03T14:04:56.1Z</time>
      </trkpt>
      <trkpt lat="48.57916" lon="-3.12439">
        <ele>288</ele>
        <time>2016-04-03T14:04:58.1Z</time>
      </trkpt>
      <trkpt lat="48.57915" lon="-3.12436">
        <ele>287</ele>
        <time>2016-04-03T14:05:01.1Z</time>
      </trkpt>
      <trkpt lat="48.57912" lon="-3.12433">
        <ele>287</ele>
        <time>2016-04-03T14:05:04.1Z</time>
      </trkpt>
      <trkpt lat="48.57911" lon="-3.12431">
        <ele>287</ele>
        <time>2016-04-03T14:05:06.1Z</time>
      </trkpt>
      <trkpt lat="48.57909" lon="-3.12427">
        <ele>287</ele>
        <time>2016-04-03T14:05:09.1Z</time>
      </trkpt>
      <trkpt lat="48.57907" lon="-3.12423">
        <ele>287</ele>
        <time>2016-04-03T14:05:11.1Z</time>
      </trkpt>
      <trkpt lat="48.57906" lon="-3.1242">
        <ele>287</ele>
        <time>2016-04-03T14:05:13.1Z</time>
      </trkpt>
      <trkpt lat="48.57905" lon="-3.12417">
        <ele>287</ele>
        <time>2016-04-03T14:05:15.1Z</time>
      </trkpt>
      <trkpt lat="48.57903" lon="-3.12414">
        <ele>287</ele>
        <time>2016-04-03T14:05:18.1Z</time>
      </trkpt>
      <trkpt lat="48.57902" lon="-3.12412">
        <ele>287</ele>
        <time>2016-04-03T14:05:20.1Z</time>
      </trkpt>
      <trkpt lat="48.57901" lon="-3.12409">
        <ele>287</ele>
        <time>2016-04-03T14:05:22.1Z</time>
      </trkpt>
      <trkpt lat="48.579" lon="-3.12406">
        <ele>287</ele>
        <time>2016-04-03T14:05:25.1Z</time>
      </trkpt>
      <trkpt lat="48.57899" lon="-3.12404">
        <ele>287</ele>
        <time>2016-04-03T14:05:27.1Z</time>
      </trkpt>
      <trkpt lat="48.57898" lon="-3.12401">
        <ele>287</ele>
        <time>2016-04-03T14:05:30.1Z</time>
      </trkpt>
      <trkpt lat="48.57897" lon="-3.12399">
        <ele>287</ele>
        <time>2016-04-03T14:05:32.1Z</time>
      </trkpt>
      <trkpt lat="48.57896" lon="-3.12397">
        <ele>287</ele>
        <time>2016-04-03T14:05:34.1Z</time>
      </trkpt>
      <trkpt lat="48.57895" lon="-3.12393">
        <ele>287</ele>
        <time>2016-04-03T14:05:37.1Z</time>
      </trkpt>
      <trkpt lat="48.57893" lon="-3.1239">
        <ele>287</ele>
        <time>2016-04-03T14:05:39.1Z</time>
      </trkpt>
      <trkpt lat="48.57892" lon="-3.12388">
        <ele>287</ele>
        <time>2016-04-03T14:05:41.1Z</time>
      </trkpt>
      <trkpt lat="48.57891" lon="-3.12383">
        <ele>287</ele>
        <time>2016-04-03T14:05:44.1Z</time>
      </trkpt>
      <trkpt lat="48.5789" lon="-3.1238">
        <ele>287</ele>
        <time>2016-04-03T14:05:46.1Z</time>
      </trkpt>
      <trkpt lat="48.57889" lon="-3.12376">
        <ele>287</ele>
        <time>2016-04-03T14:05:49.1Z</time>
      </trkpt>
      <trkpt lat="48.57888" lon="-3.12372">
        <ele>287</ele>
        <time>2016-04-03T14:05:52.1Z</time>
      </trkpt>
      <trkpt lat="48.57888" lon="-3.12369">
        <ele>286</ele>
        <time>2016-04-03T14:05:55.1Z</time>
      </trkpt>
      <trkpt lat="48.57885" lon="-3.12366">
        <ele>286</ele>
        <time>2016-04-03T14:05:58.1Z</time>
      </trkpt>
      <trkpt lat="48.57884" lon="-3.12363">
        <ele>286</ele>
        <time>2016-04-03T14:06:01.1Z</time>
      </trkpt>
      <trkpt lat="48.57883" lon="-3.12361">
        <ele>286</ele>
        <time>2016-04-03T14:06:03.1Z</time>
      </trkpt>
      <trkpt lat="48.57882" lon="-3.12357">
        <ele>286</ele>
        <time>2016-04-03T14:06:06.1Z</time>
      </trkpt>
      <trkpt lat="48.5788" lon="-3.12354">
        <ele>286</ele>
        <time>2016-04-03T14:06:09.1Z</time>
      </trkpt>
      <trkpt lat="48.57878" lon="-3.12351">
        <ele>286</ele>
        <time>2016-04-03T14:06:12.1Z</time>
      </trkpt>
      <trkpt lat="48.57877" lon="-3.1235">
        <ele>286</ele>
        <time>2016-04-03T14:06:14.1Z</time>
      </trkpt>
      <trkpt lat="48.57875" lon="-3.12348">
        <ele>287</ele>
        <time>2016-04-03T14:06:17.1Z</time>
      </trkpt>
      <trkpt lat="48.57872" lon="-3.12345">
        <ele>288</ele>
        <time>2016-04-03T14:06:19.1Z</time>
      </trkpt>
      <trkpt lat="48.57871" lon="-3.12343">
        <ele>288</ele>
        <time>2016-04-03T14:06:21.1Z</time>
      </trkpt>
      <trkpt lat="48.57869" lon="-3.12341">
        <ele>288</ele>
        <time>2016-04-03T14:06:24.1Z</time>
      </trkpt>
      <trkpt lat="48.57867" lon="-3.12339">
        <ele>288</ele>
        <time>2016-04-03T14:06:26.1Z</time>
      </trkpt>
      <trkpt lat="48.57865" lon="-3.12337">
        <ele>288</ele>
        <time>2016-04-03T14:06:29.1Z</time>
      </trkpt>
      <trkpt lat="48.57863" lon="-3.12334">
        <ele>288</ele>
        <time>2016-04-03T14:06:32.1Z</time>
      </trkpt>
      <trkpt lat="48.57861" lon="-3.12333">
        <ele>288</ele>
        <time>2016-04-03T14:06:34.1Z</time>
      </trkpt>
      <trkpt lat="48.57859" lon="-3.1233">
        <ele>289</ele>
        <time>2016-04-03T14:06:37.1Z</time>
      </trkpt>
      <trkpt lat="48.57857" lon="-3.12327">
        <ele>289</ele>
        <time>2016-04-03T14:06:40.1Z</time>
      </trkpt>
      <trkpt lat="48.57855" lon="-3.12326">
        <ele>289</ele>
        <time>2016-04-03T14:06:42.1Z</time>
      </trkpt>
      <trkpt lat="48.57853" lon="-3.12323">
        <ele>290</ele>
        <time>2016-04-03T14:06:45.1Z</time>
      </trkpt>
      <trkpt lat="48.57852" lon="-3.12322">
        <ele>290</ele>
        <time>2016-04-03T14:06:47.1Z</time>
      </trkpt>
      <trkpt lat="48.57851" lon="-3.1232">
        <ele>290</ele>
        <time>2016-04-03T14:06:49.1Z</time>
      </trkpt>
      <trkpt lat="48.57849" lon="-3.12318">
        <ele>290</ele>
        <time>2016-04-03T14:06:51.1Z</time>
      </trkpt>
      <trkpt lat="48.57847" lon="-3.12315">
        <ele>290</ele>
        <time>2016-04-03T14:06:54.1Z</time>
      </trkpt>
      <trkpt lat="48.57845" lon="-3.12313">
        <ele>290</ele>
        <time>2016-04-03T14:06:56.1Z</time>
      </trkpt>
      <trkpt lat="48.57843" lon="-3.1231">
        <ele>290</ele>
        <time>2016-04-03T14:06:59.1Z</time>
      </trkpt>
      <trkpt lat="48.57841" lon="-3.12307">
        <ele>290</ele>
        <time>2016-04-03T14:07:02.1Z</time>
      </trkpt>
      <trkpt lat="48.57839" lon="-3.12305">
        <ele>290</ele>
        <time>2016-04-03T14:07:04.1Z</time>
      </trkpt>
      <trkpt lat="48.57837" lon="-3.12303">
        <ele>290</ele>
        <time>2016-04-03T14:07:07.1Z</time>
      </trkpt>
      <trkpt lat="48.57836" lon="-3.12301">
        <ele>290</ele>
        <time>2016-04-03T14:07:09.1Z</time>
      </trkpt>
      <trkpt lat="48.57835" lon="-3.123">
        <ele>290</ele>
        <time>2016-04-03T14:07:12.1Z</time>
      </trkpt>
      <trkpt lat="48.57834" lon="-3.12298">
        <ele>291</ele>
        <time>2016-04-03T14:07:14.1Z</time>
      </trkpt>
      <trkpt lat="48.57833" lon="-3.12296">
        <ele>290</ele>
        <time>2016-04-03T14:07:16.1Z</time>
      </trkpt>
      <trkpt lat="48.57831" lon="-3.12293">
        <ele>291</ele>
        <time>2016-04-03T14:07:19.1Z</time>
      </trkpt>
      <trkpt lat="48.57829" lon="-3.12291">
        <ele>291</ele>
        <time>2016-04-03T14:07:22.1Z</time>
      </trkpt>
      <trkpt lat="48.57827" lon="-3.12288">
        <ele>292</ele>
        <time>2016-04-03T14:07:25.1Z</time>
      </trkpt>
      <trkpt lat="48.57825" lon="-3.12286">
        <ele>292</ele>
        <time>2016-04-03T14:07:28.1Z</time>
      </trkpt>
      <trkpt lat="48.57822" lon="-3.12284">
        <ele>292</ele>
        <time>2016-04-03T14:07:31.1Z</time>
      </trkpt>
      <trkpt lat="48.5782" lon="-3.12283">
        <ele>292</ele>
        <time>2016-04-03T14:07:33.1Z</time>
      </trkpt>
      <trkpt lat="48.57818" lon="-3.12282">
        <ele>292</ele>
        <time>2016-04-03T14:07:36.1Z</time>
      </trkpt>
      <trkpt lat="48.57817" lon="-3.12281">
        <ele>291</ele>
        <time>2016-04-03T14:07:38.1Z</time>
      </trkpt>
      <trkpt lat="48.57815" lon="-3.1228">
        <ele>291</ele>
        <time>2016-04-03T14:07:40.1Z</time>
      </trkpt>
      <trkpt lat="48.57814" lon="-3.1228">
        <ele>291</ele>
        <time>2016-04-03T14:07:42.1Z</time>
      </trkpt>
      <trkpt lat="48.57812" lon="-3.1228">
        <ele>290</ele>
        <time>2016-04-03T14:07:45.1Z</time>
      </trkpt>
      <trkpt lat="48.57809" lon="-3.1228">
        <ele>290</ele>
        <time>2016-04-03T14:07:48.1Z</time>
      </trkpt>
      <trkpt lat="48.57808" lon="-3.12279">
        <ele>289</ele>
        <time>2016-04-03T14:07:50.1Z</time>
      </trkpt>
      <trkpt lat="48.57805" lon="-3.12279">
        <ele>289</ele>
        <time>2016-04-03T14:07:53.1Z</time>
      </trkpt>
      <trkpt lat="48.57803" lon="-3.12278">
        <ele>289</ele>
        <time>2016-04-03T14:07:55.1Z</time>
      </trkpt>
      <trkpt lat="48.578" lon="-3.12278">
        <ele>289</ele>
        <time>2016-04-03T14:07:58.1Z</time>
      </trkpt>
      <trkpt lat="48.57797" lon="-3.12279">
        <ele>289</ele>
        <time>2016-04-03T14:08:01.1Z</time>
      </trkpt>
      <trkpt lat="48.57795" lon="-3.12279">
        <ele>288</ele>
        <time>2016-04-03T14:08:04.1Z</time>
      </trkpt>
      <trkpt lat="48.57793" lon="-3.1228">
        <ele>288</ele>
        <time>2016-04-03T14:08:06.1Z</time>
      </trkpt>
      <trkpt lat="48.57791" lon="-3.12281">
        <ele>287</ele>
        <time>2016-04-03T14:08:09.1Z</time>
      </trkpt>
      <trkpt lat="48.5779" lon="-3.12282">
        <ele>286</ele>
        <time>2016-04-03T14:08:11.1Z</time>
      </trkpt>
      <trkpt lat="48.57789" lon="-3.12283">
        <ele>286</ele>
        <time>2016-04-03T14:08:14.1Z</time>
      </trkpt>
      <trkpt lat="48.57788" lon="-3.12285">
        <ele>286</ele>
        <time>2016-04-03T14:08:17.1Z</time>
      </trkpt>
      <trkpt lat="48.57787" lon="-3.12286">
        <ele>287</ele>
        <time>2016-04-03T14:08:20.1Z</time>
      </trkpt>
      <trkpt lat="48.57786" lon="-3.12287">
        <ele>286</ele>
        <time>2016-04-03T14:08:22.1Z</time>
      </trkpt>
      <trkpt lat="48.57786" lon="-3.12287">
        <ele>286</ele>
        <time>2016-04-03T14:08:24.1Z</time>
      </trkpt>
      <trkpt lat="48.57786" lon="-3.12287">
        <ele>286</ele>
        <time>2016-04-03T14:08:26.1Z</time>
      </trkpt>
      <trkpt lat="48.57785" lon="-3.12286">
        <ele>286</ele>
        <time>2016-04-03T14:08:29.1Z</time>
      </trkpt>
      <trkpt lat="48.57785" lon="-3.12287">
        <ele>287</ele>
        <time>2016-04-03T14:08:32.1Z</time>
      </trkpt>
      <trkpt lat="48.57785" lon="-3.12287">
        <ele>287</ele>
        <time>2016-04-03T14:08:34.1Z</time>
      </trkpt>
      <trkpt lat="48.57783" lon="-3.12286">
        <ele>287</ele>
        <time>2016-04-03T14:08:37.1Z</time>
      </trkpt>
      <trkpt lat="48.57782" lon="-3.12286">
        <ele>287</ele>
        <time>2016-04-03T14:08:39.1Z</time>
      </trkpt>
      <trkpt lat="48.57781" lon="-3.12287">
        <ele>287</ele>
        <time>2016-04-03T14:08:42.1Z</time>
      </trkpt>
      <trkpt lat="48.5778" lon="-3.12289">
        <ele>287</ele>
        <time>2016-04-03T14:08:44.1Z</time>
      </trkpt>
      <trkpt lat="48.5778" lon="-3.12291">
        <ele>287</ele>
        <time>2016-04-03T14:08:46.1Z</time>
      </trkpt>
      <trkpt lat="48.5778" lon="-3.12292">
        <ele>287</ele>
        <time>2016-04-03T14:08:49.1Z</time>
      </trkpt>
      <trkpt lat="48.57778" lon="-3.12295">
        <ele>287</ele>
        <time>2016-04-03T14:08:52.1Z</time>
      </trkpt>
      <trkpt lat="48.57777" lon="-3.12297">
        <ele>287</ele>
        <time>2016-04-03T14:08:54.1Z</time>
      </trkpt>
      <trkpt lat="48.57776" lon="-3.12299">
        <ele>287</ele>
        <time>2016-04-03T14:08:56.1Z</time>
      </trkpt>
      <trkpt lat="48.57775" lon="-3.12301">
        <ele>287</ele>
        <time>2016-04-03T14:08:59.1Z</time>
      </trkpt>
      <trkpt lat="48.57775" lon="-3.12303">
        <ele>286</ele>
        <time>2016-04-03T14:09:01.1Z</time>
      </trkpt>
      <trkpt lat="48.57774" lon="-3.12304">
        <ele>286</ele>
        <time>2016-04-03T14:09:04.1Z</time>
      </trkpt>
      <trkpt lat="48.57773" lon="-3.12305">
        <ele>286</ele>
        <time>2016-04-03T14:09:07.1Z</time>
      </trkpt>
      <trkpt lat="48.57772" lon="-3.12305">
        <ele>286</ele>
        <time>2016-04-03T14:09:09.1Z</time>
      </trkpt>
      <trkpt lat="48.57771" lon="-3.12306">
        <ele>286</ele>
        <time>2016-04-03T14:09:11.1Z</time>
      </trkpt>
      <trkpt lat="48.5777" lon="-3.12305">
        <ele>286</ele>
        <time>2016-04-03T14:09:14.1Z</time>
      </trkpt>
      <trkpt lat="48.57769" lon="-3.12304">
        <ele>287</ele>
        <time>2016-04-03T14:09:17.1Z</time>
      </trkpt>
      <trkpt lat="48.57768" lon="-3.12303">
        <ele>287</ele>
        <time>2016-04-03T14:09:20.1Z</time>
      </trkpt>
      <trkpt lat="48.57767" lon="-3.12303">
        <ele>287</ele>
        <time>2016-04-03T14:09:22.1Z</time>
      </trkpt>
      <trkpt lat="48.57766" lon="-3.12302">
        <ele>287</ele>
        <time>2016-04-03T14:09:24.1Z</time>
      </trkpt>
      <trkpt lat="48.57765" lon="-3.12302">
        <ele>287</ele>
        <time>2016-04-03T14:09:26.1Z</time>
      </trkpt>
      <trkpt lat="48.57765" lon="-3.12301">
        <ele>286</ele>
        <time>2016-04-03T14:09:28.1Z</time>
      </trkpt>
      <trkpt lat="48.57765" lon="-3.12301">
        <ele>286</ele>
        <time>2016-04-03T14:09:30.1Z</time>
      </trkpt>
      <trkpt lat="48.57765" lon="-3.123">
        <ele>286</ele>
        <time>2016-04-03T14:09:32.1Z</time>
      </trkpt>
      <trkpt lat="48.57764" lon="-3.123">
        <ele>286</ele>
        <time>2016-04-03T14:09:35.1Z</time>
      </trkpt>
      <trkpt lat="48.57763" lon="-3.12299">
        <ele>286</ele>
        <time>2016-04-03T14:09:37.1Z</time>
      </trkpt>
      <trkpt lat="48.57761" lon="-3.12297">
        <ele>287</ele>
        <time>2016-04-03T14:09:40.1Z</time>
      </trkpt>
      <trkpt lat="48.57759" lon="-3.12297">
        <ele>287</ele>
        <time>2016-04-03T14:09:42.1Z</time>
      </trkpt>
      <trkpt lat="48.57756" lon="-3.12298">
        <ele>287</ele>
        <time>2016-04-03T14:09:45.1Z</time>
      </trkpt>
      <trkpt lat="48.57753" lon="-3.12298">
        <ele>286</ele>
        <time>2016-04-03T14:09:48.1Z</time>
      </trkpt>
      <trkpt lat="48.57751" lon="-3.12298">
        <ele>287</ele>
        <time>2016-04-03T14:09:51.1Z</time>
      </trkpt>
      <trkpt lat="48.57749" lon="-3.12298">
        <ele>287</ele>
        <time>2016-04-03T14:09:53.1Z</time>
      </trkpt>
      <trkpt lat="48.57746" lon="-3.12298">
        <ele>287</ele>
        <time>2016-04-03T14:09:56.1Z</time>
      </trkpt>
      <trkpt lat="48.57744" lon="-3.12297">
        <ele>287</ele>
        <time>2016-04-03T14:09:58.1Z</time>
      </trkpt>
      <trkpt lat="48.57743" lon="-3.12296">
        <ele>287</ele>
        <time>2016-04-03T14:10:00.1Z</time>
      </trkpt>
      <trkpt lat="48.5774" lon="-3.12295">
        <ele>287</ele>
        <time>2016-04-03T14:10:03.1Z</time>
      </trkpt>
      <trkpt lat="48.57737" lon="-3.12293">
        <ele>287</ele>
        <time>2016-04-03T14:10:06.1Z</time>
      </trkpt>
      <trkpt lat="48.57736" lon="-3.12292">
        <ele>288</ele>
        <time>2016-04-03T14:10:08.1Z</time>
      </trkpt>
      <trkpt lat="48.57735" lon="-3.12292">
        <ele>288</ele>
        <time>2016-04-03T14:10:10.1Z</time>
      </trkpt>
      <trkpt lat="48.57732" lon="-3.12291">
        <ele>288</ele>
        <time>2016-04-03T14:10:12.1Z</time>
      </trkpt>
      <trkpt lat="48.5773" lon="-3.1229">
        <ele>288</ele>
        <time>2016-04-03T14:10:14.1Z</time>
      </trkpt>
      <trkpt lat="48.57727" lon="-3.12289">
        <ele>288</ele>
        <time>2016-04-03T14:10:17.1Z</time>
      </trkpt>
      <trkpt lat="48.57725" lon="-3.12288">
        <ele>288</ele>
        <time>2016-04-03T14:10:19.1Z</time>
      </trkpt>
      <trkpt lat="48.57722" lon="-3.12288">
        <ele>288</ele>
        <time>2016-04-03T14:10:22.1Z</time>
      </trkpt>
      <trkpt lat="48.57721" lon="-3.12288">
        <ele>288</ele>
        <time>2016-04-03T14:10:25.1Z</time>
      </trkpt>
      <trkpt lat="48.57719" lon="-3.12288">
        <ele>288</ele>
        <time>2016-04-03T14:10:27.1Z</time>
      </trkpt>
      <trkpt lat="48.57717" lon="-3.12287">
        <ele>288</ele>
        <time>2016-04-03T14:10:30.1Z</time>
      </trkpt>
      <trkpt lat="48.57717" lon="-3.12287">
        <ele>289</ele>
        <time>2016-04-03T14:10:33.1Z</time>
      </trkpt>
      <trkpt lat="48.57718" lon="-3.12288">
        <ele>288</ele>
        <time>2016-04-03T14:10:35.1Z</time>
      </trkpt>
      <trkpt lat="48.57718" lon="-3.1229">
        <ele>288</ele>
        <time>2016-04-03T14:10:38.1Z</time>
      </trkpt>
      <trkpt lat="48.57719" lon="-3.1229">
        <ele>288</ele>
        <time>2016-04-03T14:10:40.1Z</time>
      </trkpt>
      <trkpt lat="48.57719" lon="-3.12292">
        <ele>288</ele>
        <time>2016-04-03T14:10:43.1Z</time>
      </trkpt>
      <trkpt lat="48.57719" lon="-3.12294">
        <ele>288</ele>
        <time>2016-04-03T14:10:46.1Z</time>
      </trkpt>
      <trkpt lat="48.5772" lon="-3.12294">
        <ele>288</ele>
        <time>2016-04-03T14:10:49.1Z</time>
      </trkpt>
      <trkpt lat="48.57719" lon="-3.12295">
        <ele>288</ele>
        <time>2016-04-03T14:10:52.1Z</time>
      </trkpt>
      <trkpt lat="48.57719" lon="-3.12295">
        <ele>288</ele>
        <time>2016-04-03T14:10:54.1Z</time>
      </trkpt>
      <trkpt lat="48.57718" lon="-3.12295">
        <ele>288</ele>
        <time>2016-04-03T14:10:57.1Z</time>
      </trkpt>
      <trkpt lat="48.57716" lon="-3.12294">
        <ele>288</ele>
        <time>2016-04-03T14:11:00.1Z</time>
      </trkpt>
      <trkpt lat="48.57713" lon="-3.12293">
        <ele>288</ele>
        <time>2016-04-03T14:11:03.1Z</time>
      </trkpt>
      <trkpt lat="48.57711" lon="-3.12292">
        <ele>287</ele>
        <time>2016-04-03T14:11:06.1Z</time>
      </trkpt>
      <trkpt lat="48.57708" lon="-3.12291">
        <ele>287</ele>
        <time>2016-04-03T14:11:09.1Z</time>
      </trkpt>
      <trkpt lat="48.57705" lon="-3.1229">
        <ele>288</ele>
        <time>2016-04-03T14:11:12.1Z</time>
      </trkpt>
      <trkpt lat="48.57703" lon="-3.12289">
        <ele>288</ele>
        <time>2016-04-03T14:11:14.1Z</time>
      </trkpt>
      <trkpt lat="48.577" lon="-3.12289">
        <ele>288</ele>
        <time>2016-04-03T14:11:17.1Z</time>
      </trkpt>
      <trkpt lat="48.57697" lon="-3.12289">
        <ele>288</ele>
        <time>2016-04-03T14:11:20.1Z</time>
      </trkpt>
      <trkpt lat="48.57694" lon="-3.1229">
        <ele>288</ele>
        <time>2016-04-03T14:11:23.1Z</time>
      </trkpt>
      <trkpt lat="48.57692" lon="-3.12291">
        <ele>288</ele>
        <time>2016-04-03T14:11:25.1Z</time>
      </trkpt>
      <trkpt lat="48.5769" lon="-3.1229">
        <ele>288</ele>
        <time>2016-04-03T14:11:28.1Z</time>
      </trkpt>
      <trkpt lat="48.57689" lon="-3.12292">
        <ele>288</ele>
        <time>2016-04-03T14:11:31.1Z</time>
      </trkpt>
      <trkpt lat="48.57687" lon="-3.12293">
        <ele>287</ele>
        <time>2016-04-03T14:11:33.1Z</time>
      </trkpt>
      <trkpt lat="48.57687" lon="-3.12295">
        <ele>287</ele>
        <time>2016-04-03T14:11:36.1Z</time>
      </trkpt>
      <trkpt lat="48.57686" lon="-3.12296">
        <ele>288</ele>
        <time>2016-04-03T14:11:38.1Z</time>
      </trkpt>
      <trkpt lat="48.57684" lon="-3.12296">
        <ele>288</ele>
        <time>2016-04-03T14:11:41.1Z</time>
      </trkpt>
      <trkpt lat="48.57682" lon="-3.12296">
        <ele>288</ele>
        <time>2016-04-03T14:11:44.1Z</time>
      </trkpt>
      <trkpt lat="48.57682" lon="-3.12296">
        <ele>289</ele>
        <time>2016-04-03T14:11:48.1Z</time>
      </trkpt>
      <trkpt lat="48.57682" lon="-3.12297">
        <ele>289</ele>
        <time>2016-04-03T14:11:50.1Z</time>
      </trkpt>
      <trkpt lat="48.57682" lon="-3.12297">
        <ele>288</ele>
        <time>2016-04-03T14:11:53.1Z</time>
      </trkpt>
      <trkpt lat="48.57682" lon="-3.12298">
        <ele>288</ele>
        <time>2016-04-03T14:11:56.1Z</time>
      </trkpt>
      <trkpt lat="48.57682" lon="-3.12297">
        <ele>288</ele>
        <time>2016-04-03T14:11:59.1Z</time>
      </trkpt>
      <trkpt lat="48.5768" lon="-3.12296">
        <ele>288</ele>
        <time>2016-04-03T14:12:02.1Z</time>
      </trkpt>
      <trkpt lat="48.57678" lon="-3.12295">
        <ele>287</ele>
        <time>2016-04-03T14:12:05.1Z</time>
      </trkpt>
      <trkpt lat="48.57676" lon="-3.12293">
        <ele>288</ele>
        <time>2016-04-03T14:12:08.1Z</time>
      </trkpt>
      <trkpt lat="48.57673" lon="-3.12292">
        <ele>288</ele>
        <time>2016-04-03T14:12:11.1Z</time>
      </trkpt>
      <trkpt lat="48.5767" lon="-3.12291">
        <ele>288</ele>
        <time>2016-04-03T14:12:14.1Z</time>
      </trkpt>
      <trkpt lat="48.57667" lon="-3.1229">
        <ele>288</ele>
        <time>2016-04-03T14:12:17.1Z</time>
      </trkpt>
      <trkpt lat="48.57666" lon="-3.12289">
        <ele>288</ele>
        <time>2016-04-03T14:12:19.1Z</time>
      </trkpt>
      <trkpt lat="48.57663" lon="-3.12289">
        <ele>288</ele>
        <time>2016-04-03T14:12:22.1Z</time>
      </trkpt>
      <trkpt lat="48.57661" lon="-3.12289">
        <ele>288</ele>
        <time>2016-04-03T14:12:25.1Z</time>
      </trkpt>
      <trkpt lat="48.5766" lon="-3.1229">
        <ele>288</ele>
        <time>2016-04-03T14:12:27.1Z</time>
      </trkpt>
      <trkpt lat="48.57657" lon="-3.1229">
        <ele>289</ele>
        <time>2016-04-03T14:12:29.1Z</time>
      </trkpt>
      <trkpt lat="48.57655" lon="-3.12289">
        <ele>289</ele>
        <time>2016-04-03T14:12:32.1Z</time>
      </trkpt>
      <trkpt lat="48.57653" lon="-3.12288">
        <ele>290</ele>
        <time>2016-04-03T14:12:34.1Z</time>
      </trkpt>
      <trkpt lat="48.57651" lon="-3.12287">
        <ele>291</ele>
        <time>2016-04-03T14:12:37.1Z</time>
      </trkpt>
      <trkpt lat="48.57649" lon="-3.12287">
        <ele>291</ele>
        <time>2016-04-03T14:12:40.1Z</time>
      </trkpt>
      <trkpt lat="48.57645" lon="-3.12287">
        <ele>290</ele>
        <time>2016-04-03T14:12:43.1Z</time>
      </trkpt>
      <trkpt lat="48.57644" lon="-3.12287">
        <ele>290</ele>
        <time>2016-04-03T14:12:45.1Z</time>
      </trkpt>
      <trkpt lat="48.57641" lon="-3.12286">
        <ele>290</ele>
        <time>2016-04-03T14:12:48.1Z</time>
      </trkpt>
      <trkpt lat="48.5764" lon="-3.12286">
        <ele>291</ele>
        <time>2016-04-03T14:12:51.1Z</time>
      </trkpt>
      <trkpt lat="48.5764" lon="-3.12286">
        <ele>291</ele>
        <time>2016-04-03T14:12:54.1Z</time>
      </trkpt>
      <trkpt lat="48.5764" lon="-3.12285">
        <ele>291</ele>
        <time>2016-04-03T14:12:57.1Z</time>
      </trkpt>
      <trkpt lat="48.57639" lon="-3.12286">
        <ele>291</ele>
        <time>2016-04-03T14:12:59.1Z</time>
      </trkpt>
      <trkpt lat="48.57639" lon="-3.12286">
        <ele>291</ele>
        <time>2016-04-03T14:13:01.1Z</time>
      </trkpt>
      <trkpt lat="48.57637" lon="-3.12285">
        <ele>291</ele>
        <time>2016-04-03T14:13:04.1Z</time>
      </trkpt>
      <trkpt lat="48.57636" lon="-3.12286">
        <ele>291</ele>
        <time>2016-04-03T14:13:06.1Z</time>
      </trkpt>
      <trkpt lat="48.57635" lon="-3.12286">
        <ele>290</ele>
        <time>2016-04-03T14:13:08.1Z</time>
      </trkpt>
      <trkpt lat="48.57635" lon="-3.12286">
        <ele>290</ele>
        <time>2016-04-03T14:13:10.1Z</time>
      </trkpt>
      <trkpt lat="48.57635" lon="-3.12287">
        <ele>290</ele>
        <time>2016-04-03T14:13:13.1Z</time>
      </trkpt>
      <trkpt lat="48.57635" lon="-3.12287">
        <ele>291</ele>
        <time>2016-04-03T14:13:15.1Z</time>
      </trkpt>
      <trkpt lat="48.57635" lon="-3.12288">
        <ele>291</ele>
        <time>2016-04-03T14:13:17.1Z</time>
      </trkpt>
      <trkpt lat="48.57635" lon="-3.12288">
        <ele>291</ele>
        <time>2016-04-03T14:13:20.1Z</time>
      </trkpt>
      <trkpt lat="48.57634" lon="-3.12289">
        <ele>291</ele>
        <time>2016-04-03T14:13:22.1Z</time>
      </trkpt>
      <trkpt lat="48.57634" lon="-3.1229">
        <ele>290</ele>
        <time>2016-04-03T14:13:25.1Z</time>
      </trkpt>
      <trkpt lat="48.57633" lon="-3.1229">
        <ele>290</ele>
        <time>2016-04-03T14:13:28.1Z</time>
      </trkpt>
      <trkpt lat="48.57632" lon="-3.1229">
        <ele>291</ele>
        <time>2016-04-03T14:13:31.1Z</time>
      </trkpt>
      <trkpt lat="48.57632" lon="-3.1229">
        <ele>291</ele>
        <time>2016-04-03T14:13:33.1Z</time>
      </trkpt>
      <trkpt lat="48.57632" lon="-3.1229">
        <ele>291</ele>
        <time>2016-04-03T14:13:36.1Z</time>
      </trkpt>
      <trkpt lat="48.57634" lon="-3.12291">
        <ele>291</ele>
        <time>2016-04-03T14:13:39.1Z</time>
      </trkpt>
      <trkpt lat="48.57635" lon="-3.12291">
        <ele>291</ele>
        <time>2016-04-03T14:13:44.1Z</time>
      </trkpt>
      <trkpt lat="48.57635" lon="-3.12291">
        <ele>291</ele>
        <time>2016-04-03T14:13:47.1Z</time>
      </trkpt>
      <trkpt lat="48.57635" lon="-3.12291">
        <ele>291</ele>
        <time>2016-04-03T14:13:50.1Z</time>
      </trkpt>
      <trkpt lat="48.57635" lon="-3.12291">
        <ele>291</ele>
        <time>2016-04-03T14:13:52.1Z</time>
      </trkpt>
      <trkpt lat="48.57634" lon="-3.12291">
        <ele>291</ele>
        <time>2016-04-03T14:13:55.1Z</time>
      </trkpt>
      <trkpt lat="48.57634" lon="-3.1229">
        <ele>292</ele>
        <time>2016-04-03T14:13:57.1Z</time>
      </trkpt>
      <trkpt lat="48.57633" lon="-3.12289">
        <ele>292</ele>
        <time>2016-04-03T14:14:00.1Z</time>
      </trkpt>
      <trkpt lat="48.57633" lon="-3.12289">
        <ele>292</ele>
        <time>2016-04-03T14:14:04.1Z</time>
      </trkpt>
      <trkpt lat="48.57633" lon="-3.12289">
        <ele>291</ele>
        <time>2016-04-03T14:14:06.1Z</time>
      </trkpt>
      <trkpt lat="48.57633" lon="-3.1229">
        <ele>291</ele>
        <time>2016-04-03T14:14:11.1Z</time>
      </trkpt>
      <trkpt lat="48.57633" lon="-3.12289">
        <ele>291</ele>
        <time>2016-04-03T14:14:13.1Z</time>
      </trkpt>
      <trkpt lat="48.57634" lon="-3.12289">
        <ele>292</ele>
        <time>2016-04-03T14:14:15.1Z</time>
      </trkpt>
      <trkpt lat="48.57634" lon="-3.12288">
        <ele>291</ele>
        <time>2016-04-03T14:14:17.1Z</time>
      </trkpt>
      <trkpt lat="48.57634" lon="-3.12288">
        <ele>292</ele>
        <time>2016-04-03T14:14:20.1Z</time>
      </trkpt>
      <trkpt lat="48.57634" lon="-3.12287">
        <ele>291</ele>
        <time>2016-04-03T14:14:23.1Z</time>
      </trkpt>
      <trkpt lat="48.57633" lon="-3.12286">
        <ele>291</ele>
        <time>2016-04-03T14:14:26.1Z</time>
      </trkpt>
      <trkpt lat="48.57633" lon="-3.12286">
        <ele>291</ele>
        <time>2016-04-03T14:14:29.1Z</time>
      </trkpt>
      <trkpt lat="48.57633" lon="-3.12285">
        <ele>291</ele>
        <time>2016-04-03T14:14:31.1Z</time>
      </trkpt>
      <trkpt lat="48.57633" lon="-3.12286">
        <ele>292</ele>
        <time>2016-04-03T14:14:33.1Z</time>
      </trkpt>
      <trkpt lat="48.57633" lon="-3.12285">
        <ele>291</ele>
        <time>2016-04-03T14:14:36.1Z</time>
      </trkpt>
      <trkpt lat="48.57633" lon="-3.12284">
        <ele>291</ele>
        <time>2016-04-03T14:14:39.1Z</time>
      </trkpt>
      <trkpt lat="48.57633" lon="-3.12284">
        <ele>291</ele>
        <time>2016-04-03T14:14:41.1Z</time>
      </trkpt>
      <trkpt lat="48.57633" lon="-3.12284">
        <ele>291</ele>
        <time>2016-04-03T14:14:44.1Z</time>
      </trkpt>
      <trkpt lat="48.57632" lon="-3.12284">
        <ele>291</ele>
        <time>2016-04-03T14:14:47.1Z</time>
      </trkpt>
      <trkpt lat="48.57632" lon="-3.12284">
        <ele>291</ele>
        <time>2016-04-03T14:14:49.1Z</time>
      </trkpt>
      <trkpt lat="48.57632" lon="-3.12283">
        <ele>291</ele>
        <time>2016-04-03T14:14:52.1Z</time>
      </trkpt>
      <trkpt lat="48.57632" lon="-3.12283">
        <ele>291</ele>
        <time>2016-04-03T14:14:55.1Z</time>
      </trkpt>
      <trkpt lat="48.57633" lon="-3.12283">
        <ele>291</ele>
        <time>2016-04-03T14:14:57.1Z</time>
      </trkpt>
      <trkpt lat="48.57633" lon="-3.12283">
        <ele>291</ele>
        <time>2016-04-03T14:15:00.1Z</time>
      </trkpt>
      <trkpt lat="48.57634" lon="-3.12284">
        <ele>292</ele>
        <time>2016-04-03T14:15:03.1Z</time>
      </trkpt>
      <trkpt lat="48.57636" lon="-3.12285">
        <ele>291</ele>
        <time>2016-04-03T14:15:06.1Z</time>
      </trkpt>
      <trkpt lat="48.57636" lon="-3.12285">
        <ele>291</ele>
        <time>2016-04-03T14:15:09.1Z</time>
      </trkpt>
      <trkpt lat="48.57635" lon="-3.12286">
        <ele>291</ele>
        <time>2016-04-03T14:15:11.1Z</time>
      </trkpt>
      <trkpt lat="48.57634" lon="-3.12286">
        <ele>291</ele>
        <time>2016-04-03T14:15:14.1Z</time>
      </trkpt>
      <trkpt lat="48.57633" lon="-3.12286">
        <ele>291</ele>
        <time>2016-04-03T14:15:16.1Z</time>
      </trkpt>
      <trkpt lat="48.57632" lon="-3.12286">
        <ele>291</ele>
        <time>2016-04-03T14:15:19.1Z</time>
      </trkpt>
      <trkpt lat="48.57632" lon="-3.12286">
        <ele>291</ele>
        <time>2016-04-03T14:15:21.1Z</time>
      </trkpt>
      <trkpt lat="48.5763" lon="-3.12285">
        <ele>291</ele>
        <time>2016-04-03T14:15:24.1Z</time>
      </trkpt>
      <trkpt lat="48.57629" lon="-3.12284">
        <ele>291</ele>
        <time>2016-04-03T14:15:27.1Z</time>
      </trkpt>
      <trkpt lat="48.57628" lon="-3.12284">
        <ele>291</ele>
        <time>2016-04-03T14:15:29.1Z</time>
      </trkpt>
      <trkpt lat="48.57627" lon="-3.12284">
        <ele>291</ele>
        <time>2016-04-03T14:15:32.1Z</time>
      </trkpt>
      <trkpt lat="48.57626" lon="-3.12284">
        <ele>291</ele>
        <time>2016-04-03T14:15:35.1Z</time>
      </trkpt>
      <trkpt lat="48.57625" lon="-3.12283">
        <ele>291</ele>
        <time>2016-04-03T14:15:38.1Z</time>
      </trkpt>
      <trkpt lat="48.57625" lon="-3.12284">
        <ele>291</ele>
        <time>2016-04-03T14:15:40.1Z</time>
      </trkpt>
      <trkpt lat="48.57625" lon="-3.12285">
        <ele>291</ele>
        <time>2016-04-03T14:15:42.1Z</time>
      </trkpt>
      <trkpt lat="48.57625" lon="-3.12285">
        <ele>292</ele>
        <time>2016-04-03T14:15:45.1Z</time>
      </trkpt>
      <trkpt lat="48.57624" lon="-3.12285">
        <ele>292</ele>
        <time>2016-04-03T14:15:47.1Z</time>
      </trkpt>
      <trkpt lat="48.57624" lon="-3.12285">
        <ele>292</ele>
        <time>2016-04-03T14:15:50.1Z</time>
      </trkpt>
      <trkpt lat="48.57623" lon="-3.12286">
        <ele>292</ele>
        <time>2016-04-03T14:15:52.1Z</time>
      </trkpt>
      <trkpt lat="48.57624" lon="-3.12287">
        <ele>292</ele>
        <time>2016-04-03T14:15:55.1Z</time>
      </trkpt>
      <trkpt lat="48.57624" lon="-3.12288">
        <ele>292</ele>
        <time>2016-04-03T14:15:58.1Z</time>
      </trkpt>
      <trkpt lat="48.57625" lon="-3.12288">
        <ele>292</ele>
        <time>2016-04-03T14:16:01.1Z</time>
      </trkpt>
      <trkpt lat="48.57626" lon="-3.12289">
        <ele>292</ele>
        <time>2016-04-03T14:16:03.1Z</time>
      </trkpt>
      <trkpt lat="48.57627" lon="-3.12289">
        <ele>292</ele>
        <time>2016-04-03T14:16:06.1Z</time>
      </trkpt>
      <trkpt lat="48.57627" lon="-3.12289">
        <ele>292</ele>
        <time>2016-04-03T14:16:08.1Z</time>
      </trkpt>
      <trkpt lat="48.57629" lon="-3.1229">
        <ele>292</ele>
        <time>2016-04-03T14:16:11.1Z</time>
      </trkpt>
      <trkpt lat="48.57629" lon="-3.12291">
        <ele>292</ele>
        <time>2016-04-03T14:16:13.1Z</time>
      </trkpt>
      <trkpt lat="48.5763" lon="-3.12291">
        <ele>292</ele>
        <time>2016-04-03T14:16:16.1Z</time>
      </trkpt>
      <trkpt lat="48.57631" lon="-3.12292">
        <ele>292</ele>
        <time>2016-04-03T14:16:18.1Z</time>
      </trkpt>
      <trkpt lat="48.57632" lon="-3.12293">
        <ele>292</ele>
        <time>2016-04-03T14:16:21.1Z</time>
      </trkpt>
      <trkpt lat="48.57633" lon="-3.12293">
        <ele>292</ele>
        <time>2016-04-03T14:16:23.1Z</time>
      </trkpt>
      <trkpt lat="48.57633" lon="-3.12293">
        <ele>292</ele>
        <time>2016-04-03T14:16:27.1Z</time>
      </trkpt>
      <trkpt lat="48.57633" lon="-3.12293">
        <ele>292</ele>
        <time>2016-04-03T14:16:30.1Z</time>
      </trkpt>
      <trkpt lat="48.57634" lon="-3.12294">
        <ele>292</ele>
        <time>2016-04-03T14:16:34.1Z</time>
      </trkpt>
      <trkpt lat="48.57633" lon="-3.12295">
        <ele>292</ele>
        <time>2016-04-03T14:16:38.1Z</time>
      </trkpt>
      <trkpt lat="48.57633" lon="-3.12295">
        <ele>292</ele>
        <time>2016-04-03T14:16:40.1Z</time>
      </trkpt>
      <trkpt lat="48.57632" lon="-3.12296">
        <ele>292</ele>
        <time>2016-04-03T14:16:43.1Z</time>
      </trkpt>
      <trkpt lat="48.57632" lon="-3.12296">
        <ele>292</ele>
        <time>2016-04-03T14:16:45.1Z</time>
      </trkpt>
      <trkpt lat="48.57631" lon="-3.12296">
        <ele>292</ele>
        <time>2016-04-03T14:16:47.1Z</time>
      </trkpt>
      <trkpt lat="48.5763" lon="-3.12295">
        <ele>292</ele>
        <time>2016-04-03T14:16:50.1Z</time>
      </trkpt>
      <trkpt lat="48.5763" lon="-3.12295">
        <ele>292</ele>
        <time>2016-04-03T14:16:53.1Z</time>
      </trkpt>
      <trkpt lat="48.57629" lon="-3.12295">
        <ele>292</ele>
        <time>2016-04-03T14:16:57.1Z</time>
      </trkpt>
      <trkpt lat="48.57628" lon="-3.12295">
        <ele>292</ele>
        <time>2016-04-03T14:17:00.1Z</time>
      </trkpt>
      <trkpt lat="48.57628" lon="-3.12294">
        <ele>293</ele>
        <time>2016-04-03T14:17:02.1Z</time>
      </trkpt>
      <trkpt lat="48.57627" lon="-3.12294">
        <ele>293</ele>
        <time>2016-04-03T14:17:06.1Z</time>
      </trkpt>
      <trkpt lat="48.57627" lon="-3.12294">
        <ele>293</ele>
        <time>2016-04-03T14:17:08.1Z</time>
      </trkpt>
      <trkpt lat="48.57626" lon="-3.12294">
        <ele>293</ele>
        <time>2016-04-03T14:17:11.1Z</time>
      </trkpt>
      <trkpt lat="48.57626" lon="-3.12295">
        <ele>293</ele>
        <time>2016-04-03T14:17:13.1Z</time>
      </trkpt>
      <trkpt lat="48.57625" lon="-3.12296">
        <ele>293</ele>
        <time>2016-04-03T14:17:15.1Z</time>
      </trkpt>
      <trkpt lat="48.57624" lon="-3.12297">
        <ele>293</ele>
        <time>2016-04-03T14:17:18.1Z</time>
      </trkpt>
      <trkpt lat="48.57623" lon="-3.12299">
        <ele>293</ele>
        <time>2016-04-03T14:17:21.1Z</time>
      </trkpt>
      <trkpt lat="48.57623" lon="-3.12299">
        <ele>293</ele>
        <time>2016-04-03T14:17:24.1Z</time>
      </trkpt>
      <trkpt lat="48.57623" lon="-3.123">
        <ele>293</ele>
        <time>2016-04-03T14:17:27.1Z</time>
      </trkpt>
      <trkpt lat="48.57623" lon="-3.123">
        <ele>292</ele>
        <time>2016-04-03T14:17:32.1Z</time>
      </trkpt>
      <trkpt lat="48.57623" lon="-3.123">
        <ele>292</ele>
        <time>2016-04-03T14:17:35.1Z</time>
      </trkpt>
      <trkpt lat="48.57623" lon="-3.12299">
        <ele>292</ele>
        <time>2016-04-03T14:17:37.1Z</time>
      </trkpt>
      <trkpt lat="48.57623" lon="-3.12299">
        <ele>293</ele>
        <time>2016-04-03T14:17:40.1Z</time>
      </trkpt>
      <trkpt lat="48.57622" lon="-3.12299">
        <ele>292</ele>
        <time>2016-04-03T14:17:43.1Z</time>
      </trkpt>
      <trkpt lat="48.57622" lon="-3.12299">
        <ele>292</ele>
        <time>2016-04-03T14:17:46.1Z</time>
      </trkpt>
      <trkpt lat="48.57621" lon="-3.123">
        <ele>292</ele>
        <time>2016-04-03T14:17:48.1Z</time>
      </trkpt>
      <trkpt lat="48.57621" lon="-3.123">
        <ele>292</ele>
        <time>2016-04-03T14:17:50.1Z</time>
      </trkpt>
      <trkpt lat="48.5762" lon="-3.123">
        <ele>292</ele>
        <time>2016-04-03T14:17:53.1Z</time>
      </trkpt>
      <trkpt lat="48.5762" lon="-3.123">
        <ele>292</ele>
        <time>2016-04-03T14:17:55.1Z</time>
      </trkpt>
      <trkpt lat="48.57619" lon="-3.12301">
        <ele>293</ele>
        <time>2016-04-03T14:17:57.1Z</time>
      </trkpt>
      <trkpt lat="48.57619" lon="-3.12301">
        <ele>293</ele>
        <time>2016-04-03T14:18:00.1Z</time>
      </trkpt>
      <trkpt lat="48.57617" lon="-3.12301">
        <ele>293</ele>
        <time>2016-04-03T14:18:02.1Z</time>
      </trkpt>
      <trkpt lat="48.57617" lon="-3.123">
        <ele>293</ele>
        <time>2016-04-03T14:18:05.1Z</time>
      </trkpt>
      <trkpt lat="48.57617" lon="-3.12298">
        <ele>293</ele>
        <time>2016-04-03T14:18:08.1Z</time>
      </trkpt>
      <trkpt lat="48.57617" lon="-3.12296">
        <ele>292</ele>
        <time>2016-04-03T14:18:10.1Z</time>
      </trkpt>
      <trkpt lat="48.57618" lon="-3.12294">
        <ele>292</ele>
        <time>2016-04-03T14:18:12.1Z</time>
      </trkpt>
      <trkpt lat="48.57618" lon="-3.12293">
        <ele>292</ele>
        <time>2016-04-03T14:18:14.1Z</time>
      </trkpt>
      <trkpt lat="48.57618" lon="-3.12291">
        <ele>292</ele>
        <time>2016-04-03T14:18:17.1Z</time>
      </trkpt>
      <trkpt lat="48.57617" lon="-3.12289">
        <ele>292</ele>
        <time>2016-04-03T14:18:20.1Z</time>
      </trkpt>
      <trkpt lat="48.57616" lon="-3.12289">
        <ele>292</ele>
        <time>2016-04-03T14:18:22.1Z</time>
      </trkpt>
      <trkpt lat="48.57615" lon="-3.12288">
        <ele>292</ele>
        <time>2016-04-03T14:18:24.1Z</time>
      </trkpt>
      <trkpt lat="48.57613" lon="-3.12286">
        <ele>292</ele>
        <time>2016-04-03T14:18:28.1Z</time>
      </trkpt>
      <trkpt lat="48.57612" lon="-3.12285">
        <ele>292</ele>
        <time>2016-04-03T14:18:31.1Z</time>
      </trkpt>
      <trkpt lat="48.5761" lon="-3.12284">
        <ele>292</ele>
        <time>2016-04-03T14:18:33.1Z</time>
      </trkpt>
      <trkpt lat="48.57608" lon="-3.12282">
        <ele>292</ele>
        <time>2016-04-03T14:18:36.1Z</time>
      </trkpt>
      <trkpt lat="48.57608" lon="-3.12281">
        <ele>293</ele>
        <time>2016-04-03T14:18:39.1Z</time>
      </trkpt>
      <trkpt lat="48.57605" lon="-3.12281">
        <ele>293</ele>
        <time>2016-04-03T14:18:41.1Z</time>
      </trkpt>
      <trkpt lat="48.57603" lon="-3.12282">
        <ele>293</ele>
        <time>2016-04-03T14:18:43.1Z</time>
      </trkpt>
      <trkpt lat="48.57601" lon="-3.12281">
        <ele>292</ele>
        <time>2016-04-03T14:18:46.1Z</time>
      </trkpt>
      <trkpt lat="48.576" lon="-3.1228">
        <ele>292</ele>
        <time>2016-04-03T14:18:49.1Z</time>
      </trkpt>
      <trkpt lat="48.57597" lon="-3.12279">
        <ele>292</ele>
        <time>2016-04-03T14:18:51.1Z</time>
      </trkpt>
      <trkpt lat="48.57593" lon="-3.12278">
        <ele>293</ele>
        <time>2016-04-03T14:18:55.1Z</time>
      </trkpt>
      <trkpt lat="48.57591" lon="-3.12277">
        <ele>293</ele>
        <time>2016-04-03T14:18:57.1Z</time>
      </trkpt>
      <trkpt lat="48.57589" lon="-3.12277">
        <ele>293</ele>
        <time>2016-04-03T14:18:59.1Z</time>
      </trkpt>
      <trkpt lat="48.57587" lon="-3.12277">
        <ele>293</ele>
        <time>2016-04-03T14:19:03.1Z</time>
      </trkpt>
      <trkpt lat="48.57585" lon="-3.12277">
        <ele>294</ele>
        <time>2016-04-03T14:19:05.1Z</time>
      </trkpt>
      <trkpt lat="48.57585" lon="-3.12276">
        <ele>294</ele>
        <time>2016-04-03T14:19:08.1Z</time>
      </trkpt>
      <trkpt lat="48.57585" lon="-3.12276">
        <ele>294</ele>
        <time>2016-04-03T14:19:10.1Z</time>
      </trkpt>
      <trkpt lat="48.57584" lon="-3.12276">
        <ele>294</ele>
        <time>2016-04-03T14:19:13.1Z</time>
      </trkpt>
      <trkpt lat="48.57584" lon="-3.12275">
        <ele>294</ele>
        <time>2016-04-03T14:19:15.1Z</time>
      </trkpt>
      <trkpt lat="48.57585" lon="-3.12275">
        <ele>294</ele>
        <time>2016-04-03T14:19:18.1Z</time>
      </trkpt>
      <trkpt lat="48.57586" lon="-3.12276">
        <ele>294</ele>
        <time>2016-04-03T14:19:21.1Z</time>
      </trkpt>
      <trkpt lat="48.57587" lon="-3.12278">
        <ele>294</ele>
        <time>2016-04-03T14:19:24.1Z</time>
      </trkpt>
      <trkpt lat="48.57588" lon="-3.12279">
        <ele>294</ele>
        <time>2016-04-03T14:19:27.1Z</time>
      </trkpt>
      <trkpt lat="48.57589" lon="-3.12281">
        <ele>293</ele>
        <time>2016-04-03T14:19:29.1Z</time>
      </trkpt>
      <trkpt lat="48.5759" lon="-3.12282">
        <ele>293</ele>
        <time>2016-04-03T14:19:32.1Z</time>
      </trkpt>
      <trkpt lat="48.57591" lon="-3.12282">
        <ele>293</ele>
        <time>2016-04-03T14:19:35.1Z</time>
      </trkpt>
      <trkpt lat="48.57592" lon="-3.12284">
        <ele>293</ele>
        <time>2016-04-03T14:19:37.1Z</time>
      </trkpt>
      <trkpt lat="48.57592" lon="-3.12285">
        <ele>293</ele>
        <time>2016-04-03T14:19:41.1Z</time>
      </trkpt>
      <trkpt lat="48.57591" lon="-3.12287">
        <ele>293</ele>
        <time>2016-04-03T14:19:44.1Z</time>
      </trkpt>
      <trkpt lat="48.5759" lon="-3.12287">
        <ele>293</ele>
        <time>2016-04-03T14:19:46.1Z</time>
      </trkpt>
      <trkpt lat="48.57588" lon="-3.12287">
        <ele>293</ele>
        <time>2016-04-03T14:19:49.1Z</time>
      </trkpt>
      <trkpt lat="48.57586" lon="-3.12287">
        <ele>293</ele>
        <time>2016-04-03T14:19:52.1Z</time>
      </trkpt>
      <trkpt lat="48.57585" lon="-3.12287">
        <ele>293</ele>
        <time>2016-04-03T14:19:54.1Z</time>
      </trkpt>
      <trkpt lat="48.57583" lon="-3.12286">
        <ele>293</ele>
        <time>2016-04-03T14:19:56.1Z</time>
      </trkpt>
      <trkpt lat="48.57583" lon="-3.12284">
        <ele>294</ele>
        <time>2016-04-03T14:19:59.1Z</time>
      </trkpt>
      <trkpt lat="48.57583" lon="-3.12285">
        <ele>294</ele>
        <time>2016-04-03T14:20:03.1Z</time>
      </trkpt>
      <trkpt lat="48.57583" lon="-3.12288">
        <ele>295</ele>
        <time>2016-04-03T14:20:05.1Z</time>
      </trkpt>
      <trkpt lat="48.57583" lon="-3.1229">
        <ele>295</ele>
        <time>2016-04-03T14:20:08.1Z</time>
      </trkpt>
      <trkpt lat="48.57584" lon="-3.12294">
        <ele>295</ele>
        <time>2016-04-03T14:20:10.1Z</time>
      </trkpt>
      <trkpt lat="48.57584" lon="-3.12297">
        <ele>295</ele>
        <time>2016-04-03T14:20:13.1Z</time>
      </trkpt>
      <trkpt lat="48.57582" lon="-3.12298">
        <ele>295</ele>
        <time>2016-04-03T14:20:16.1Z</time>
      </trkpt>
      <trkpt lat="48.57581" lon="-3.12299">
        <ele>296</ele>
        <time>2016-04-03T14:20:18.1Z</time>
      </trkpt>
      <trkpt lat="48.5758" lon="-3.12299">
        <ele>296</ele>
        <time>2016-04-03T14:20:21.1Z</time>
      </trkpt>
      <trkpt lat="48.57578" lon="-3.123">
        <ele>297</ele>
        <time>2016-04-03T14:20:23.1Z</time>
      </trkpt>
      <trkpt lat="48.57577" lon="-3.12301">
        <ele>297</ele>
        <time>2016-04-03T14:20:26.1Z</time>
      </trkpt>
      <trkpt lat="48.57576" lon="-3.12301">
        <ele>297</ele>
        <time>2016-04-03T14:20:28.1Z</time>
      </trkpt>
      <trkpt lat="48.57574" lon="-3.12301">
        <ele>297</ele>
        <time>2016-04-03T14:20:31.1Z</time>
      </trkpt>
      <trkpt lat="48.57572" lon="-3.12302">
        <ele>297</ele>
        <time>2016-04-03T14:20:34.1Z</time>
      </trkpt>
      <trkpt lat="48.57571" lon="-3.12302">
        <ele>297</ele>
        <time>2016-04-03T14:20:36.1Z</time>
      </trkpt>
      <trkpt lat="48.5757" lon="-3.12301">
        <ele>297</ele>
        <time>2016-04-03T14:20:39.1Z</time>
      </trkpt>
      <trkpt lat="48.57568" lon="-3.12302">
        <ele>298</ele>
        <time>2016-04-03T14:20:42.1Z</time>
      </trkpt>
      <trkpt lat="48.57566" lon="-3.12304">
        <ele>298</ele>
        <time>2016-04-03T14:20:45.1Z</time>
      </trkpt>
      <trkpt lat="48.57565" lon="-3.12306">
        <ele>299</ele>
        <time>2016-04-03T14:20:48.1Z</time>
      </trkpt>
      <trkpt lat="48.57563" lon="-3.12308">
        <ele>299</ele>
        <time>2016-04-03T14:20:51.1Z</time>
      </trkpt>
      <trkpt lat="48.57561" lon="-3.1231">
        <ele>299</ele>
        <time>2016-04-03T14:20:53.1Z</time>
      </trkpt>
      <trkpt lat="48.5756" lon="-3.12313">
        <ele>300</ele>
        <time>2016-04-03T14:20:56.1Z</time>
      </trkpt>
      <trkpt lat="48.57558" lon="-3.12315">
        <ele>300</ele>
        <time>2016-04-03T14:20:58.1Z</time>
      </trkpt>
      <trkpt lat="48.57556" lon="-3.12318">
        <ele>301</ele>
        <time>2016-04-03T14:21:01.1Z</time>
      </trkpt>
      <trkpt lat="48.57555" lon="-3.12319">
        <ele>301</ele>
        <time>2016-04-03T14:21:03.1Z</time>
      </trkpt>
      <trkpt lat="48.57553" lon="-3.1232">
        <ele>301</ele>
        <time>2016-04-03T14:21:06.1Z</time>
      </trkpt>
      <trkpt lat="48.57552" lon="-3.12323">
        <ele>301</ele>
        <time>2016-04-03T14:21:08.1Z</time>
      </trkpt>
      <trkpt lat="48.5755" lon="-3.12325">
        <ele>302</ele>
        <time>2016-04-03T14:21:10.1Z</time>
      </trkpt>
      <trkpt lat="48.57548" lon="-3.12328">
        <ele>302</ele>
        <time>2016-04-03T14:21:13.1Z</time>
      </trkpt>
      <trkpt lat="48.57547" lon="-3.12331">
        <ele>302</ele>
        <time>2016-04-03T14:21:16.1Z</time>
      </trkpt>
      <trkpt lat="48.57545" lon="-3.12334">
        <ele>303</ele>
        <time>2016-04-03T14:21:19.1Z</time>
      </trkpt>
      <trkpt lat="48.57544" lon="-3.12339">
        <ele>303</ele>
        <time>2016-04-03T14:21:21.1Z</time>
      </trkpt>
      <trkpt lat="48.57543" lon="-3.12343">
        <ele>304</ele>
        <time>2016-04-03T14:21:25.1Z</time>
      </trkpt>
      <trkpt lat="48.57542" lon="-3.12345">
        <ele>304</ele>
        <time>2016-04-03T14:21:27.1Z</time>
      </trkpt>
      <trkpt lat="48.57541" lon="-3.12349">
        <ele>305</ele>
        <time>2016-04-03T14:21:29.1Z</time>
      </trkpt>
      <trkpt lat="48.5754" lon="-3.12351">
        <ele>305</ele>
        <time>2016-04-03T14:21:31.1Z</time>
      </trkpt>
      <trkpt lat="48.57539" lon="-3.12353">
        <ele>306</ele>
        <time>2016-04-03T14:21:34.1Z</time>
      </trkpt>
      <trkpt lat="48.57538" lon="-3.12355">
        <ele>306</ele>
        <time>2016-04-03T14:21:36.1Z</time>
      </trkpt>
      <trkpt lat="48.57538" lon="-3.12356">
        <ele>306</ele>
        <time>2016-04-03T14:21:40.1Z</time>
      </trkpt>
      <trkpt lat="48.57538" lon="-3.12358">
        <ele>306</ele>
        <time>2016-04-03T14:21:42.1Z</time>
      </trkpt>
      <trkpt lat="48.57537" lon="-3.12358">
        <ele>306</ele>
        <time>2016-04-03T14:21:45.1Z</time>
      </trkpt>
      <trkpt lat="48.57536" lon="-3.1236">
        <ele>305</ele>
        <time>2016-04-03T14:21:47.1Z</time>
      </trkpt>
      <trkpt lat="48.57535" lon="-3.12362">
        <ele>305</ele>
        <time>2016-04-03T14:21:49.1Z</time>
      </trkpt>
      <trkpt lat="48.57535" lon="-3.12365">
        <ele>306</ele>
        <time>2016-04-03T14:21:52.1Z</time>
      </trkpt>
      <trkpt lat="48.57534" lon="-3.12367">
        <ele>306</ele>
        <time>2016-04-03T14:21:56.1Z</time>
      </trkpt>
      <trkpt lat="48.57534" lon="-3.12368">
        <ele>306</ele>
        <time>2016-04-03T14:21:58.1Z</time>
      </trkpt>
      <trkpt lat="48.57534" lon="-3.12369">
        <ele>305</ele>
        <time>2016-04-03T14:22:01.1Z</time>
      </trkpt>
      <trkpt lat="48.57534" lon="-3.1237">
        <ele>305</ele>
        <time>2016-04-03T14:22:03.1Z</time>
      </trkpt>
      <trkpt lat="48.57533" lon="-3.12372">
        <ele>305</ele>
        <time>2016-04-03T14:22:05.1Z</time>
      </trkpt>
      <trkpt lat="48.57532" lon="-3.12375">
        <ele>305</ele>
        <time>2016-04-03T14:22:08.1Z</time>
      </trkpt>
      <trkpt lat="48.57532" lon="-3.12377">
        <ele>305</ele>
        <time>2016-04-03T14:22:11.1Z</time>
      </trkpt>
      <trkpt lat="48.57531" lon="-3.12381">
        <ele>306</ele>
        <time>2016-04-03T14:22:13.1Z</time>
      </trkpt>
      <trkpt lat="48.5753" lon="-3.12384">
        <ele>306</ele>
        <time>2016-04-03T14:22:16.1Z</time>
      </trkpt>
      <trkpt lat="48.57529" lon="-3.12386">
        <ele>306</ele>
        <time>2016-04-03T14:22:19.1Z</time>
      </trkpt>
      <trkpt lat="48.57529" lon="-3.12388">
        <ele>306</ele>
        <time>2016-04-03T14:22:21.1Z</time>
      </trkpt>
      <trkpt lat="48.57528" lon="-3.12391">
        <ele>307</ele>
        <time>2016-04-03T14:22:23.1Z</time>
      </trkpt>
      <trkpt lat="48.57527" lon="-3.12393">
        <ele>307</ele>
        <time>2016-04-03T14:22:25.1Z</time>
      </trkpt>
      <trkpt lat="48.57526" lon="-3.12396">
        <ele>307</ele>
        <time>2016-04-03T14:22:27.1Z</time>
      </trkpt>
      <trkpt lat="48.57525" lon="-3.12398">
        <ele>308</ele>
        <time>2016-04-03T14:22:30.1Z</time>
      </trkpt>
      <trkpt lat="48.57524" lon="-3.12402">
        <ele>308</ele>
        <time>2016-04-03T14:22:33.1Z</time>
      </trkpt>
      <trkpt lat="48.57522" lon="-3.12406">
        <ele>308</ele>
        <time>2016-04-03T14:22:36.1Z</time>
      </trkpt>
      <trkpt lat="48.57521" lon="-3.12409">
        <ele>308</ele>
        <time>2016-04-03T14:22:38.1Z</time>
      </trkpt>
      <trkpt lat="48.5752" lon="-3.12414">
        <ele>308</ele>
        <time>2016-04-03T14:22:40.1Z</time>
      </trkpt>
      <trkpt lat="48.57519" lon="-3.12417">
        <ele>308</ele>
        <time>2016-04-03T14:22:43.1Z</time>
      </trkpt>
      <trkpt lat="48.57518" lon="-3.1242">
        <ele>308</ele>
        <time>2016-04-03T14:22:46.1Z</time>
      </trkpt>
      <trkpt lat="48.57517" lon="-3.12421">
        <ele>309</ele>
        <time>2016-04-03T14:22:48.1Z</time>
      </trkpt>
      <trkpt lat="48.57517" lon="-3.12422">
        <ele>309</ele>
        <time>2016-04-03T14:22:50.1Z</time>
      </trkpt>
      <trkpt lat="48.57516" lon="-3.12423">
        <ele>309</ele>
        <time>2016-04-03T14:22:53.1Z</time>
      </trkpt>
      <trkpt lat="48.57515" lon="-3.12424">
        <ele>309</ele>
        <time>2016-04-03T14:22:56.1Z</time>
      </trkpt>
      <trkpt lat="48.57514" lon="-3.12425">
        <ele>309</ele>
        <time>2016-04-03T14:22:58.1Z</time>
      </trkpt>
      <trkpt lat="48.57513" lon="-3.12426">
        <ele>309</ele>
        <time>2016-04-03T14:23:01.1Z</time>
      </trkpt>
      <trkpt lat="48.57513" lon="-3.12426">
        <ele>309</ele>
        <time>2016-04-03T14:23:04.1Z</time>
      </trkpt>
      <trkpt lat="48.57512" lon="-3.12429">
        <ele>309</ele>
        <time>2016-04-03T14:23:07.1Z</time>
      </trkpt>
      <trkpt lat="48.5751" lon="-3.12432">
        <ele>309</ele>
        <time>2016-04-03T14:23:10.1Z</time>
      </trkpt>
      <trkpt lat="48.57508" lon="-3.12436">
        <ele>309</ele>
        <time>2016-04-03T14:23:12.1Z</time>
      </trkpt>
      <trkpt lat="48.57507" lon="-3.1244">
        <ele>309</ele>
        <time>2016-04-03T14:23:16.1Z</time>
      </trkpt>
      <trkpt lat="48.57505" lon="-3.12443">
        <ele>310</ele>
        <time>2016-04-03T14:23:18.1Z</time>
      </trkpt>
      <trkpt lat="48.57504" lon="-3.12444">
        <ele>310</ele>
        <time>2016-04-03T14:23:21.1Z</time>
      </trkpt>
      <trkpt lat="48.57503" lon="-3.12447">
        <ele>310</ele>
        <time>2016-04-03T14:23:23.1Z</time>
      </trkpt>
      <trkpt lat="48.57502" lon="-3.12448">
        <ele>310</ele>
        <time>2016-04-03T14:23:25.1Z</time>
      </trkpt>
      <trkpt lat="48.575" lon="-3.1245">
        <ele>311</ele>
        <time>2016-04-03T14:23:28.1Z</time>
      </trkpt>
      <trkpt lat="48.57498" lon="-3.12453">
        <ele>311</ele>
        <time>2016-04-03T14:23:31.1Z</time>
      </trkpt>
      <trkpt lat="48.57497" lon="-3.12454">
        <ele>311</ele>
        <time>2016-04-03T14:23:34.1Z</time>
      </trkpt>
      <trkpt lat="48.57495" lon="-3.12456">
        <ele>311</ele>
        <time>2016-04-03T14:23:37.1Z</time>
      </trkpt>
      <trkpt lat="48.57493" lon="-3.12458">
        <ele>311</ele>
        <time>2016-04-03T14:23:39.1Z</time>
      </trkpt>
      <trkpt lat="48.57491" lon="-3.1246">
        <ele>311</ele>
        <time>2016-04-03T14:23:42.1Z</time>
      </trkpt>
      <trkpt lat="48.5749" lon="-3.12462">
        <ele>311</ele>
        <time>2016-04-03T14:23:44.1Z</time>
      </trkpt>
      <trkpt lat="48.57489" lon="-3.12464">
        <ele>311</ele>
        <time>2016-04-03T14:23:47.1Z</time>
      </trkpt>
      <trkpt lat="48.57487" lon="-3.12466">
        <ele>312</ele>
        <time>2016-04-03T14:23:50.1Z</time>
      </trkpt>
      <trkpt lat="48.57486" lon="-3.12468">
        <ele>312</ele>
        <time>2016-04-03T14:23:52.1Z</time>
      </trkpt>
      <trkpt lat="48.57484" lon="-3.12469">
        <ele>312</ele>
        <time>2016-04-03T14:23:54.1Z</time>
      </trkpt>
      <trkpt lat="48.57484" lon="-3.1247">
        <ele>312</ele>
        <time>2016-04-03T14:23:56.1Z</time>
      </trkpt>
      <trkpt lat="48.57482" lon="-3.12471">
        <ele>312</ele>
        <time>2016-04-03T14:23:58.1Z</time>
      </trkpt>
      <trkpt lat="48.5748" lon="-3.12473">
        <ele>312</ele>
        <time>2016-04-03T14:24:00.1Z</time>
      </trkpt>
      <trkpt lat="48.57478" lon="-3.12474">
        <ele>313</ele>
        <time>2016-04-03T14:24:03.1Z</time>
      </trkpt>
      <trkpt lat="48.57477" lon="-3.12475">
        <ele>313</ele>
        <time>2016-04-03T14:24:05.1Z</time>
      </trkpt>
      <trkpt lat="48.57476" lon="-3.12476">
        <ele>313</ele>
        <time>2016-04-03T14:24:08.1Z</time>
      </trkpt>
      <trkpt lat="48.57473" lon="-3.12477">
        <ele>314</ele>
        <time>2016-04-03T14:24:10.1Z</time>
      </trkpt>
      <trkpt lat="48.57471" lon="-3.12479">
        <ele>314</ele>
        <time>2016-04-03T14:24:12.1Z</time>
      </trkpt>
      <trkpt lat="48.57469" lon="-3.12482">
        <ele>314</ele>
        <time>2016-04-03T14:24:15.1Z</time>
      </trkpt>
      <trkpt lat="48.57466" lon="-3.12484">
        <ele>314</ele>
        <time>2016-04-03T14:24:18.1Z</time>
      </trkpt>
      <trkpt lat="48.57465" lon="-3.12486">
        <ele>314</ele>
        <time>2016-04-03T14:24:20.1Z</time>
      </trkpt>
      <trkpt lat="48.57462" lon="-3.12488">
        <ele>315</ele>
        <time>2016-04-03T14:24:23.1Z</time>
      </trkpt>
      <trkpt lat="48.5746" lon="-3.12488">
        <ele>315</ele>
        <time>2016-04-03T14:24:26.1Z</time>
      </trkpt>
      <trkpt lat="48.57458" lon="-3.12489">
        <ele>315</ele>
        <time>2016-04-03T14:24:28.1Z</time>
      </trkpt>
      <trkpt lat="48.57456" lon="-3.12491">
        <ele>316</ele>
        <time>2016-04-03T14:24:30.1Z</time>
      </trkpt>
      <trkpt lat="48.57454" lon="-3.12492">
        <ele>316</ele>
        <time>2016-04-03T14:24:32.1Z</time>
      </trkpt>
      <trkpt lat="48.57452" lon="-3.12494">
        <ele>316</ele>
        <time>2016-04-03T14:24:34.1Z</time>
      </trkpt>
      <trkpt lat="48.5745" lon="-3.12495">
        <ele>317</ele>
        <time>2016-04-03T14:24:36.1Z</time>
      </trkpt>
      <trkpt lat="48.57449" lon="-3.12497">
        <ele>317</ele>
        <time>2016-04-03T14:24:38.1Z</time>
      </trkpt>
      <trkpt lat="48.57446" lon="-3.125">
        <ele>318</ele>
        <time>2016-04-03T14:24:41.1Z</time>
      </trkpt>
      <trkpt lat="48.57444" lon="-3.12503">
        <ele>318</ele>
        <time>2016-04-03T14:24:44.1Z</time>
      </trkpt>
      <trkpt lat="48.57442" lon="-3.12505">
        <ele>319</ele>
        <time>2016-04-03T14:24:47.1Z</time>
      </trkpt>
      <trkpt lat="48.5744" lon="-3.12506">
        <ele>319</ele>
        <time>2016-04-03T14:24:49.1Z</time>
      </trkpt>
      <trkpt lat="48.57439" lon="-3.12507">
        <ele>319</ele>
        <time>2016-04-03T14:24:51.1Z</time>
      </trkpt>
      <trkpt lat="48.57436" lon="-3.12509">
        <ele>320</ele>
        <time>2016-04-03T14:24:54.1Z</time>
      </trkpt>
      <trkpt lat="48.57435" lon="-3.1251">
        <ele>320</ele>
        <time>2016-04-03T14:24:56.1Z</time>
      </trkpt>
      <trkpt lat="48.57433" lon="-3.12511">
        <ele>320</ele>
        <time>2016-04-03T14:24:59.1Z</time>
      </trkpt>
      <trkpt lat="48.5743" lon="-3.12512">
        <ele>321</ele>
        <time>2016-04-03T14:25:02.1Z</time>
      </trkpt>
      <trkpt lat="48.57428" lon="-3.12513">
        <ele>321</ele>
        <time>2016-04-03T14:25:05.1Z</time>
      </trkpt>
      <trkpt lat="48.57426" lon="-3.12514">
        <ele>321</ele>
        <time>2016-04-03T14:25:07.1Z</time>
      </trkpt>
      <trkpt lat="48.57425" lon="-3.12515">
        <ele>321</ele>
        <time>2016-04-03T14:25:09.1Z</time>
      </trkpt>
      <trkpt lat="48.57424" lon="-3.12516">
        <ele>321</ele>
        <time>2016-04-03T14:25:11.1Z</time>
      </trkpt>
      <trkpt lat="48.57423" lon="-3.12518">
        <ele>321</ele>
        <time>2016-04-03T14:25:13.1Z</time>
      </trkpt>
      <trkpt lat="48.57421" lon="-3.1252">
        <ele>322</ele>
        <time>2016-04-03T14:25:16.1Z</time>
      </trkpt>
      <trkpt lat="48.57418" lon="-3.12521">
        <ele>322</ele>
        <time>2016-04-03T14:25:19.1Z</time>
      </trkpt>
      <trkpt lat="48.57417" lon="-3.12523">
        <ele>322</ele>
        <time>2016-04-03T14:25:22.1Z</time>
      </trkpt>
      <trkpt lat="48.57415" lon="-3.12524">
        <ele>323</ele>
        <time>2016-04-03T14:25:25.1Z</time>
      </trkpt>
      <trkpt lat="48.57413" lon="-3.12525">
        <ele>323</ele>
        <time>2016-04-03T14:25:27.1Z</time>
      </trkpt>
      <trkpt lat="48.57411" lon="-3.12527">
        <ele>324</ele>
        <time>2016-04-03T14:25:31.1Z</time>
      </trkpt>
      <trkpt lat="48.57407" lon="-3.12528">
        <ele>323</ele>
        <time>2016-04-03T14:25:33.1Z</time>
      </trkpt>
      <trkpt lat="48.57405" lon="-3.1253">
        <ele>324</ele>
        <time>2016-04-03T14:25:36.1Z</time>
      </trkpt>
      <trkpt lat="48.57403" lon="-3.12531">
        <ele>324</ele>
        <time>2016-04-03T14:25:38.1Z</time>
      </trkpt>
      <trkpt lat="48.57401" lon="-3.12532">
        <ele>324</ele>
        <time>2016-04-03T14:25:41.1Z</time>
      </trkpt>
      <trkpt lat="48.57397" lon="-3.12533">
        <ele>324</ele>
        <time>2016-04-03T14:25:44.1Z</time>
      </trkpt>
      <trkpt lat="48.57396" lon="-3.12535">
        <ele>324</ele>
        <time>2016-04-03T14:25:46.1Z</time>
      </trkpt>
      <trkpt lat="48.57393" lon="-3.12537">
        <ele>325</ele>
        <time>2016-04-03T14:25:50.1Z</time>
      </trkpt>
      <trkpt lat="48.5739" lon="-3.12539">
        <ele>325</ele>
        <time>2016-04-03T14:25:52.1Z</time>
      </trkpt>
      <trkpt lat="48.57387" lon="-3.12541">
        <ele>325</ele>
        <time>2016-04-03T14:25:55.1Z</time>
      </trkpt>
      <trkpt lat="48.57385" lon="-3.12543">
        <ele>325</ele>
        <time>2016-04-03T14:25:58.1Z</time>
      </trkpt>
      <trkpt lat="48.57383" lon="-3.12546">
        <ele>325</ele>
        <time>2016-04-03T14:26:01.1Z</time>
      </trkpt>
      <trkpt lat="48.57381" lon="-3.12547">
        <ele>326</ele>
        <time>2016-04-03T14:26:03.1Z</time>
      </trkpt>
      <trkpt lat="48.5738" lon="-3.12548">
        <ele>326</ele>
        <time>2016-04-03T14:26:06.1Z</time>
      </trkpt>
      <trkpt lat="48.57378" lon="-3.1255">
        <ele>326</ele>
        <time>2016-04-03T14:26:08.1Z</time>
      </trkpt>
      <trkpt lat="48.57375" lon="-3.12552">
        <ele>326</ele>
        <time>2016-04-03T14:26:11.1Z</time>
      </trkpt>
      <trkpt lat="48.57373" lon="-3.12553">
        <ele>326</ele>
        <time>2016-04-03T14:26:13.1Z</time>
      </trkpt>
      <trkpt lat="48.57372" lon="-3.12554">
        <ele>327</ele>
        <time>2016-04-03T14:26:15.1Z</time>
      </trkpt>
      <trkpt lat="48.5737" lon="-3.12554">
        <ele>327</ele>
        <time>2016-04-03T14:26:17.1Z</time>
      </trkpt>
      <trkpt lat="48.57368" lon="-3.12555">
        <ele>327</ele>
        <time>2016-04-03T14:26:20.1Z</time>
      </trkpt>
      <trkpt lat="48.57365" lon="-3.12557">
        <ele>327</ele>
        <time>2016-04-03T14:26:23.1Z</time>
      </trkpt>
      <trkpt lat="48.57363" lon="-3.12558">
        <ele>328</ele>
        <time>2016-04-03T14:26:26.1Z</time>
      </trkpt>
      <trkpt lat="48.57362" lon="-3.12558">
        <ele>328</ele>
        <time>2016-04-03T14:26:28.1Z</time>
      </trkpt>
      <trkpt lat="48.5736" lon="-3.1256">
        <ele>328</ele>
        <time>2016-04-03T14:26:31.1Z</time>
      </trkpt>
      <trkpt lat="48.57358" lon="-3.12562">
        <ele>329</ele>
        <time>2016-04-03T14:26:33.1Z</time>
      </trkpt>
      <trkpt lat="48.57357" lon="-3.12563">
        <ele>329</ele>
        <time>2016-04-03T14:26:35.1Z</time>
      </trkpt>
      <trkpt lat="48.57355" lon="-3.12564">
        <ele>329</ele>
        <time>2016-04-03T14:26:38.1Z</time>
      </trkpt>
      <trkpt lat="48.57354" lon="-3.12565">
        <ele>329</ele>
        <time>2016-04-03T14:26:40.1Z</time>
      </trkpt>
      <trkpt lat="48.57353" lon="-3.12567">
        <ele>328</ele>
        <time>2016-04-03T14:26:43.1Z</time>
      </trkpt>
      <trkpt lat="48.57351" lon="-3.1257">
        <ele>329</ele>
        <time>2016-04-03T14:26:45.1Z</time>
      </trkpt>
      <trkpt lat="48.57349" lon="-3.12573">
        <ele>329</ele>
        <time>2016-04-03T14:26:48.1Z</time>
      </trkpt>
      <trkpt lat="48.57348" lon="-3.12576">
        <ele>329</ele>
        <time>2016-04-03T14:26:51.1Z</time>
      </trkpt>
      <trkpt lat="48.57346" lon="-3.12578">
        <ele>329</ele>
        <time>2016-04-03T14:26:53.1Z</time>
      </trkpt>
      <trkpt lat="48.57344" lon="-3.12582">
        <ele>330</ele>
        <time>2016-04-03T14:26:56.1Z</time>
      </trkpt>
      <trkpt lat="48.57342" lon="-3.12584">
        <ele>330</ele>
        <time>2016-04-03T14:26:58.1Z</time>
      </trkpt>
      <trkpt lat="48.5734" lon="-3.12586">
        <ele>330</ele>
        <time>2016-04-03T14:27:00.1Z</time>
      </trkpt>
      <trkpt lat="48.57338" lon="-3.12589">
        <ele>330</ele>
        <time>2016-04-03T14:27:03.1Z</time>
      </trkpt>
      <trkpt lat="48.57336" lon="-3.12593">
        <ele>330</ele>
        <time>2016-04-03T14:27:05.1Z</time>
      </trkpt>
      <trkpt lat="48.57335" lon="-3.12595">
        <ele>330</ele>
        <time>2016-04-03T14:27:07.1Z</time>
      </trkpt>
      <trkpt lat="48.57333" lon="-3.12599">
        <ele>330</ele>
        <time>2016-04-03T14:27:10.1Z</time>
      </trkpt>
      <trkpt lat="48.57332" lon="-3.12601">
        <ele>330</ele>
        <time>2016-04-03T14:27:12.1Z</time>
      </trkpt>
      <trkpt lat="48.57331" lon="-3.12603">
        <ele>330</ele>
        <time>2016-04-03T14:27:14.1Z</time>
      </trkpt>
      <trkpt lat="48.5733" lon="-3.12606">
        <ele>330</ele>
        <time>2016-04-03T14:27:16.1Z</time>
      </trkpt>
      <trkpt lat="48.57328" lon="-3.1261">
        <ele>331</ele>
        <time>2016-04-03T14:27:19.1Z</time>
      </trkpt>
      <trkpt lat="48.57326" lon="-3.12613">
        <ele>331</ele>
        <time>2016-04-03T14:27:21.1Z</time>
      </trkpt>
      <trkpt lat="48.57324" lon="-3.12616">
        <ele>331</ele>
        <time>2016-04-03T14:27:24.1Z</time>
      </trkpt>
      <trkpt lat="48.57323" lon="-3.12619">
        <ele>331</ele>
        <time>2016-04-03T14:27:27.1Z</time>
      </trkpt>
      <trkpt lat="48.57322" lon="-3.12621">
        <ele>332</ele>
        <time>2016-04-03T14:27:29.1Z</time>
      </trkpt>
      <trkpt lat="48.57321" lon="-3.12624">
        <ele>332</ele>
        <time>2016-04-03T14:27:32.1Z</time>
      </trkpt>
      <trkpt lat="48.57319" lon="-3.12629">
        <ele>332</ele>
        <time>2016-04-03T14:27:34.1Z</time>
      </trkpt>
      <trkpt lat="48.57317" lon="-3.12632">
        <ele>332</ele>
        <time>2016-04-03T14:27:36.1Z</time>
      </trkpt>
      <trkpt lat="48.57316" lon="-3.12634">
        <ele>331</ele>
        <time>2016-04-03T14:27:38.1Z</time>
      </trkpt>
      <trkpt lat="48.57314" lon="-3.12637">
        <ele>331</ele>
        <time>2016-04-03T14:27:41.1Z</time>
      </trkpt>
      <trkpt lat="48.57312" lon="-3.12639">
        <ele>332</ele>
        <time>2016-04-03T14:27:43.1Z</time>
      </trkpt>
      <trkpt lat="48.57311" lon="-3.12641">
        <ele>332</ele>
        <time>2016-04-03T14:27:46.1Z</time>
      </trkpt>
      <trkpt lat="48.57309" lon="-3.12644">
        <ele>332</ele>
        <time>2016-04-03T14:27:48.1Z</time>
      </trkpt>
      <trkpt lat="48.57307" lon="-3.12647">
        <ele>332</ele>
        <time>2016-04-03T14:27:50.1Z</time>
      </trkpt>
      <trkpt lat="48.57305" lon="-3.1265">
        <ele>332</ele>
        <time>2016-04-03T14:27:53.1Z</time>
      </trkpt>
      <trkpt lat="48.57303" lon="-3.12652">
        <ele>332</ele>
        <time>2016-04-03T14:27:55.1Z</time>
      </trkpt>
      <trkpt lat="48.57301" lon="-3.12654">
        <ele>332</ele>
        <time>2016-04-03T14:27:57.1Z</time>
      </trkpt>
      <trkpt lat="48.57298" lon="-3.12656">
        <ele>332</ele>
        <time>2016-04-03T14:28:01.1Z</time>
      </trkpt>
      <trkpt lat="48.57296" lon="-3.12659">
        <ele>333</ele>
        <time>2016-04-03T14:28:03.1Z</time>
      </trkpt>
      <trkpt lat="48.57294" lon="-3.12661">
        <ele>333</ele>
        <time>2016-04-03T14:28:05.1Z</time>
      </trkpt>
      <trkpt lat="48.57292" lon="-3.12664">
        <ele>333</ele>
        <time>2016-04-03T14:28:08.1Z</time>
      </trkpt>
      <trkpt lat="48.5729" lon="-3.12666">
        <ele>333</ele>
        <time>2016-04-03T14:28:10.1Z</time>
      </trkpt>
      <trkpt lat="48.57288" lon="-3.12669">
        <ele>333</ele>
        <time>2016-04-03T14:28:13.1Z</time>
      </trkpt>
      <trkpt lat="48.57285" lon="-3.12672">
        <ele>334</ele>
        <time>2016-04-03T14:28:16.1Z</time>
      </trkpt>
      <trkpt lat="48.57283" lon="-3.12675">
        <ele>334</ele>
        <time>2016-04-03T14:28:19.1Z</time>
      </trkpt>
      <trkpt lat="48.57281" lon="-3.12677">
        <ele>334</ele>
        <time>2016-04-03T14:28:21.1Z</time>
      </trkpt>
      <trkpt lat="48.57279" lon="-3.12681">
        <ele>334</ele>
        <time>2016-04-03T14:28:24.1Z</time>
      </trkpt>
      <trkpt lat="48.57278" lon="-3.12683">
        <ele>334</ele>
        <time>2016-04-03T14:28:27.1Z</time>
      </trkpt>
      <trkpt lat="48.57275" lon="-3.12686">
        <ele>334</ele>
        <time>2016-04-03T14:28:29.1Z</time>
      </trkpt>
      <trkpt lat="48.57272" lon="-3.12688">
        <ele>335</ele>
        <time>2016-04-03T14:28:32.1Z</time>
      </trkpt>
      <trkpt lat="48.57271" lon="-3.1269">
        <ele>335</ele>
        <time>2016-04-03T14:28:34.1Z</time>
      </trkpt>
      <trkpt lat="48.57269" lon="-3.12694">
        <ele>335</ele>
        <time>2016-04-03T14:28:37.1Z</time>
      </trkpt>
      <trkpt lat="48.57267" lon="-3.12695">
        <ele>335</ele>
        <time>2016-04-03T14:28:39.1Z</time>
      </trkpt>
      <trkpt lat="48.57265" lon="-3.12697">
        <ele>336</ele>
        <time>2016-04-03T14:28:42.1Z</time>
      </trkpt>
      <trkpt lat="48.57263" lon="-3.12701">
        <ele>336</ele>
        <time>2016-04-03T14:28:45.1Z</time>
      </trkpt>
      <trkpt lat="48.57262" lon="-3.12703">
        <ele>336</ele>
        <time>2016-04-03T14:28:47.1Z</time>
      </trkpt>
      <trkpt lat="48.57259" lon="-3.12707">
        <ele>336</ele>
        <time>2016-04-03T14:28:50.1Z</time>
      </trkpt>
      <trkpt lat="48.57257" lon="-3.12709">
        <ele>336</ele>
        <time>2016-04-03T14:28:52.1Z</time>
      </trkpt>
      <trkpt lat="48.57255" lon="-3.12711">
        <ele>336</ele>
        <time>2016-04-03T14:28:56.1Z</time>
      </trkpt>
      <trkpt lat="48.57252" lon="-3.12714">
        <ele>336</ele>
        <time>2016-04-03T14:28:58.1Z</time>
      </trkpt>
      <trkpt lat="48.5725" lon="-3.12716">
        <ele>336</ele>
        <time>2016-04-03T14:29:00.1Z</time>
      </trkpt>
      <trkpt lat="48.57248" lon="-3.12719">
        <ele>336</ele>
        <time>2016-04-03T14:29:03.1Z</time>
      </trkpt>
      <trkpt lat="48.57246" lon="-3.12721">
        <ele>337</ele>
        <time>2016-04-03T14:29:05.1Z</time>
      </trkpt>
      <trkpt lat="48.57244" lon="-3.12724">
        <ele>337</ele>
        <time>2016-04-03T14:29:07.1Z</time>
      </trkpt>
      <trkpt lat="48.57242" lon="-3.12727">
        <ele>337</ele>
        <time>2016-04-03T14:29:10.1Z</time>
      </trkpt>
      <trkpt lat="48.57239" lon="-3.12731">
        <ele>337</ele>
        <time>2016-04-03T14:29:13.1Z</time>
      </trkpt>
      <trkpt lat="48.57238" lon="-3.12733">
        <ele>337</ele>
        <time>2016-04-03T14:29:15.1Z</time>
      </trkpt>
      <trkpt lat="48.57235" lon="-3.12736">
        <ele>337</ele>
        <time>2016-04-03T14:29:18.1Z</time>
      </trkpt>
      <trkpt lat="48.57234" lon="-3.12737">
        <ele>337</ele>
        <time>2016-04-03T14:29:20.1Z</time>
      </trkpt>
      <trkpt lat="48.57232" lon="-3.12738">
        <ele>338</ele>
        <time>2016-04-03T14:29:23.1Z</time>
      </trkpt>
      <trkpt lat="48.5723" lon="-3.12741">
        <ele>338</ele>
        <time>2016-04-03T14:29:25.1Z</time>
      </trkpt>
      <trkpt lat="48.57228" lon="-3.12742">
        <ele>338</ele>
        <time>2016-04-03T14:29:28.1Z</time>
      </trkpt>
      <trkpt lat="48.57228" lon="-3.12744">
        <ele>338</ele>
        <time>2016-04-03T14:29:30.1Z</time>
      </trkpt>
      <trkpt lat="48.57227" lon="-3.12745">
        <ele>338</ele>
        <time>2016-04-03T14:29:33.1Z</time>
      </trkpt>
      <trkpt lat="48.57226" lon="-3.12746">
        <ele>339</ele>
        <time>2016-04-03T14:29:35.1Z</time>
      </trkpt>
      <trkpt lat="48.57226" lon="-3.12746">
        <ele>339</ele>
        <time>2016-04-03T14:29:38.1Z</time>
      </trkpt>
      <trkpt lat="48.57225" lon="-3.12746">
        <ele>338</ele>
        <time>2016-04-03T14:29:41.1Z</time>
      </trkpt>
      <trkpt lat="48.57225" lon="-3.12746">
        <ele>338</ele>
        <time>2016-04-03T14:29:44.1Z</time>
      </trkpt>
      <trkpt lat="48.57225" lon="-3.12747">
        <ele>338</ele>
        <time>2016-04-03T14:29:46.1Z</time>
      </trkpt>
      <trkpt lat="48.57225" lon="-3.12749">
        <ele>337</ele>
        <time>2016-04-03T14:29:49.1Z</time>
      </trkpt>
      <trkpt lat="48.57224" lon="-3.12746">
        <ele>338</ele>
        <time>2016-04-03T14:29:51.1Z</time>
      </trkpt>
      <trkpt lat="48.57224" lon="-3.12746">
        <ele>338</ele>
        <time>2016-04-03T14:29:54.1Z</time>
      </trkpt>
      <trkpt lat="48.57224" lon="-3.12747">
        <ele>338</ele>
        <time>2016-04-03T14:29:57.1Z</time>
      </trkpt>
      <trkpt lat="48.57225" lon="-3.12747">
        <ele>338</ele>
        <time>2016-04-03T14:29:59.1Z</time>
      </trkpt>
      <trkpt lat="48.57225" lon="-3.12747">
        <ele>339</ele>
        <time>2016-04-03T14:30:03.1Z</time>
      </trkpt>
      <trkpt lat="48.57226" lon="-3.12747">
        <ele>339</ele>
        <time>2016-04-03T14:30:06.1Z</time>
      </trkpt>
      <trkpt lat="48.57227" lon="-3.12748">
        <ele>338</ele>
        <time>2016-04-03T14:30:08.1Z</time>
      </trkpt>
      <trkpt lat="48.57228" lon="-3.12748">
        <ele>339</ele>
        <time>2016-04-03T14:30:11.1Z</time>
      </trkpt>
      <trkpt lat="48.57229" lon="-3.12749">
        <ele>339</ele>
        <time>2016-04-03T14:30:14.1Z</time>
      </trkpt>
      <trkpt lat="48.5723" lon="-3.12749">
        <ele>338</ele>
        <time>2016-04-03T14:30:17.1Z</time>
      </trkpt>
      <trkpt lat="48.57231" lon="-3.1275">
        <ele>338</ele>
        <time>2016-04-03T14:30:19.1Z</time>
      </trkpt>
      <trkpt lat="48.57231" lon="-3.1275">
        <ele>338</ele>
        <time>2016-04-03T14:30:21.1Z</time>
      </trkpt>
      <trkpt lat="48.57231" lon="-3.1275">
        <ele>338</ele>
        <time>2016-04-03T14:30:24.1Z</time>
      </trkpt>
      <trkpt lat="48.57232" lon="-3.1275">
        <ele>338</ele>
        <time>2016-04-03T14:30:27.1Z</time>
      </trkpt>
      <trkpt lat="48.57232" lon="-3.1275">
        <ele>338</ele>
        <time>2016-04-03T14:30:29.1Z</time>
      </trkpt>
      <trkpt lat="48.57231" lon="-3.1275">
        <ele>338</ele>
        <time>2016-04-03T14:30:32.1Z</time>
      </trkpt>
      <trkpt lat="48.57231" lon="-3.1275">
        <ele>338</ele>
        <time>2016-04-03T14:30:34.1Z</time>
      </trkpt>
      <trkpt lat="48.5723" lon="-3.12749">
        <ele>338</ele>
        <time>2016-04-03T14:30:37.1Z</time>
      </trkpt>
      <trkpt lat="48.5723" lon="-3.1275">
        <ele>339</ele>
        <time>2016-04-03T14:30:40.1Z</time>
      </trkpt>
      <trkpt lat="48.5723" lon="-3.1275">
        <ele>339</ele>
        <time>2016-04-03T14:30:44.1Z</time>
      </trkpt>
      <trkpt lat="48.57229" lon="-3.1275">
        <ele>339</ele>
        <time>2016-04-03T14:30:47.1Z</time>
      </trkpt>
      <trkpt lat="48.57229" lon="-3.12749">
        <ele>339</ele>
        <time>2016-04-03T14:30:49.1Z</time>
      </trkpt>
      <trkpt lat="48.57229" lon="-3.1275">
        <ele>339</ele>
        <time>2016-04-03T14:30:52.1Z</time>
      </trkpt>
      <trkpt lat="48.57229" lon="-3.1275">
        <ele>339</ele>
        <time>2016-04-03T14:30:55.1Z</time>
      </trkpt>
      <trkpt lat="48.57229" lon="-3.12751">
        <ele>339</ele>
        <time>2016-04-03T14:30:58.1Z</time>
      </trkpt>
      <trkpt lat="48.5723" lon="-3.12751">
        <ele>339</ele>
        <time>2016-04-03T14:31:00.1Z</time>
      </trkpt>
      <trkpt lat="48.5723" lon="-3.12751">
        <ele>339</ele>
        <time>2016-04-03T14:31:02.1Z</time>
      </trkpt>
      <trkpt lat="48.5723" lon="-3.12752">
        <ele>339</ele>
        <time>2016-04-03T14:31:05.1Z</time>
      </trkpt>
      <trkpt lat="48.5723" lon="-3.12752">
        <ele>339</ele>
        <time>2016-04-03T14:31:08.1Z</time>
      </trkpt>
      <trkpt lat="48.5723" lon="-3.12752">
        <ele>339</ele>
        <time>2016-04-03T14:31:11.1Z</time>
      </trkpt>
      <trkpt lat="48.57231" lon="-3.12752">
        <ele>339</ele>
        <time>2016-04-03T14:31:13.1Z</time>
      </trkpt>
      <trkpt lat="48.57231" lon="-3.12752">
        <ele>339</ele>
        <time>2016-04-03T14:31:16.1Z</time>
      </trkpt>
      <trkpt lat="48.57231" lon="-3.12753">
        <ele>338</ele>
        <time>2016-04-03T14:31:19.1Z</time>
      </trkpt>
      <trkpt lat="48.57231" lon="-3.12753">
        <ele>339</ele>
        <time>2016-04-03T14:31:21.1Z</time>
      </trkpt>
      <trkpt lat="48.57232" lon="-3.12753">
        <ele>339</ele>
        <time>2016-04-03T14:31:25.1Z</time>
      </trkpt>
      <trkpt lat="48.57231" lon="-3.12752">
        <ele>339</ele>
        <time>2016-04-03T14:31:28.1Z</time>
      </trkpt>
      <trkpt lat="48.57231" lon="-3.12752">
        <ele>339</ele>
        <time>2016-04-03T14:31:30.1Z</time>
      </trkpt>
      <trkpt lat="48.5723" lon="-3.12751">
        <ele>339</ele>
        <time>2016-04-03T14:31:33.1Z</time>
      </trkpt>
      <trkpt lat="48.5723" lon="-3.1275">
        <ele>339</ele>
        <time>2016-04-03T14:31:36.1Z</time>
      </trkpt>
      <trkpt lat="48.5723" lon="-3.12749">
        <ele>339</ele>
        <time>2016-04-03T14:31:39.1Z</time>
      </trkpt>
      <trkpt lat="48.57229" lon="-3.12747">
        <ele>339</ele>
        <time>2016-04-03T14:31:41.1Z</time>
      </trkpt>
      <trkpt lat="48.57227" lon="-3.12746">
        <ele>339</ele>
        <time>2016-04-03T14:31:44.1Z</time>
      </trkpt>
      <trkpt lat="48.57226" lon="-3.12746">
        <ele>338</ele>
        <time>2016-04-03T14:31:46.1Z</time>
      </trkpt>
      <trkpt lat="48.57223" lon="-3.12746">
        <ele>338</ele>
        <time>2016-04-03T14:31:49.1Z</time>
      </trkpt>
      <trkpt lat="48.57221" lon="-3.12747">
        <ele>338</ele>
        <time>2016-04-03T14:31:51.1Z</time>
      </trkpt>
      <trkpt lat="48.57218" lon="-3.12746">
        <ele>338</ele>
        <time>2016-04-03T14:31:54.1Z</time>
      </trkpt>
      <trkpt lat="48.57217" lon="-3.12746">
        <ele>338</ele>
        <time>2016-04-03T14:31:56.1Z</time>
      </trkpt>
      <trkpt lat="48.57213" lon="-3.12747">
        <ele>338</ele>
        <time>2016-04-03T14:31:59.1Z</time>
      </trkpt>
      <trkpt lat="48.57211" lon="-3.12747">
        <ele>338</ele>
        <time>2016-04-03T14:32:02.1Z</time>
      </trkpt>
      <trkpt lat="48.57207" lon="-3.12747">
        <ele>338</ele>
        <time>2016-04-03T14:32:05.1Z</time>
      </trkpt>
      <trkpt lat="48.57206" lon="-3.12747">
        <ele>338</ele>
        <time>2016-04-03T14:32:07.1Z</time>
      </trkpt>
      <trkpt lat="48.57203" lon="-3.12747">
        <ele>338</ele>
        <time>2016-04-03T14:32:09.1Z</time>
      </trkpt>
      <trkpt lat="48.572" lon="-3.12748">
        <ele>338</ele>
        <time>2016-04-03T14:32:12.1Z</time>
      </trkpt>
      <trkpt lat="48.57198" lon="-3.12748">
        <ele>338</ele>
        <time>2016-04-03T14:32:14.1Z</time>
      </trkpt>
      <trkpt lat="48.57194" lon="-3.12748">
        <ele>338</ele>
        <time>2016-04-03T14:32:17.1Z</time>
      </trkpt>
      <trkpt lat="48.57192" lon="-3.12748">
        <ele>338</ele>
        <time>2016-04-03T14:32:19.1Z</time>
      </trkpt>
      <trkpt lat="48.57189" lon="-3.12748">
        <ele>338</ele>
        <time>2016-04-03T14:32:22.1Z</time>
      </trkpt>
      <trkpt lat="48.57188" lon="-3.12749">
        <ele>338</ele>
        <time>2016-04-03T14:32:24.1Z</time>
      </trkpt>
      <trkpt lat="48.57186" lon="-3.12749">
        <ele>338</ele>
        <time>2016-04-03T14:32:27.1Z</time>
      </trkpt>
      <trkpt lat="48.57185" lon="-3.12749">
        <ele>338</ele>
        <time>2016-04-03T14:32:29.1Z</time>
      </trkpt>
      <trkpt lat="48.57183" lon="-3.12749">
        <ele>338</ele>
        <time>2016-04-03T14:32:31.1Z</time>
      </trkpt>
      <trkpt lat="48.5718" lon="-3.12749">
        <ele>338</ele>
        <time>2016-04-03T14:32:34.1Z</time>
      </trkpt>
      <trkpt lat="48.57177" lon="-3.1275">
        <ele>338</ele>
        <time>2016-04-03T14:32:36.1Z</time>
      </trkpt>
      <trkpt lat="48.57175" lon="-3.1275">
        <ele>338</ele>
        <time>2016-04-03T14:32:38.1Z</time>
      </trkpt>
      <trkpt lat="48.57173" lon="-3.12749">
        <ele>338</ele>
        <time>2016-04-03T14:32:41.1Z</time>
      </trkpt>
      <trkpt lat="48.57171" lon="-3.1275">
        <ele>338</ele>
        <time>2016-04-03T14:32:43.1Z</time>
      </trkpt>
      <trkpt lat="48.57169" lon="-3.12751">
        <ele>338</ele>
        <time>2016-04-03T14:32:45.1Z</time>
      </trkpt>
      <trkpt lat="48.57166" lon="-3.12751">
        <ele>338</ele>
        <time>2016-04-03T14:32:48.1Z</time>
      </trkpt>
      <trkpt lat="48.57163" lon="-3.1275">
        <ele>338</ele>
        <time>2016-04-03T14:32:50.1Z</time>
      </trkpt>
      <trkpt lat="48.57161" lon="-3.12751">
        <ele>337</ele>
        <time>2016-04-03T14:32:52.1Z</time>
      </trkpt>
      <trkpt lat="48.57158" lon="-3.12752">
        <ele>338</ele>
        <time>2016-04-03T14:32:55.1Z</time>
      </trkpt>
      <trkpt lat="48.57156" lon="-3.12753">
        <ele>338</ele>
        <time>2016-04-03T14:32:57.1Z</time>
      </trkpt>
      <trkpt lat="48.57154" lon="-3.12753">
        <ele>338</ele>
        <time>2016-04-03T14:32:59.1Z</time>
      </trkpt>
      <trkpt lat="48.57153" lon="-3.12753">
        <ele>338</ele>
        <time>2016-04-03T14:33:01.1Z</time>
      </trkpt>
      <trkpt lat="48.5715" lon="-3.12753">
        <ele>338</ele>
        <time>2016-04-03T14:33:04.1Z</time>
      </trkpt>
      <trkpt lat="48.57148" lon="-3.12752">
        <ele>337</ele>
        <time>2016-04-03T14:33:06.1Z</time>
      </trkpt>
      <trkpt lat="48.57145" lon="-3.12753">
        <ele>337</ele>
        <time>2016-04-03T14:33:08.1Z</time>
      </trkpt>
      <trkpt lat="48.57142" lon="-3.12753">
        <ele>338</ele>
        <time>2016-04-03T14:33:11.1Z</time>
      </trkpt>
      <trkpt lat="48.57138" lon="-3.12753">
        <ele>337</ele>
        <time>2016-04-03T14:33:14.1Z</time>
      </trkpt>
      <trkpt lat="48.57136" lon="-3.12754">
        <ele>337</ele>
        <time>2016-04-03T14:33:17.1Z</time>
      </trkpt>
      <trkpt lat="48.57133" lon="-3.12753">
        <ele>337</ele>
        <time>2016-04-03T14:33:20.1Z</time>
      </trkpt>
      <trkpt lat="48.5713" lon="-3.12752">
        <ele>337</ele>
        <time>2016-04-03T14:33:23.1Z</time>
      </trkpt>
      <trkpt lat="48.57128" lon="-3.12752">
        <ele>337</ele>
        <time>2016-04-03T14:33:25.1Z</time>
      </trkpt>
      <trkpt lat="48.57125" lon="-3.12751">
        <ele>337</ele>
        <time>2016-04-03T14:33:28.1Z</time>
      </trkpt>
      <trkpt lat="48.57123" lon="-3.12752">
        <ele>337</ele>
        <time>2016-04-03T14:33:30.1Z</time>
      </trkpt>
      <trkpt lat="48.5712" lon="-3.12752">
        <ele>337</ele>
        <time>2016-04-03T14:33:33.1Z</time>
      </trkpt>
      <trkpt lat="48.57117" lon="-3.12753">
        <ele>337</ele>
        <time>2016-04-03T14:33:35.1Z</time>
      </trkpt>
      <trkpt lat="48.57115" lon="-3.12754">
        <ele>336</ele>
        <time>2016-04-03T14:33:38.1Z</time>
      </trkpt>
      <trkpt lat="48.57113" lon="-3.12754">
        <ele>336</ele>
        <time>2016-04-03T14:33:40.1Z</time>
      </trkpt>
      <trkpt lat="48.5711" lon="-3.12754">
        <ele>336</ele>
        <time>2016-04-03T14:33:43.1Z</time>
      </trkpt>
      <trkpt lat="48.57106" lon="-3.12756">
        <ele>337</ele>
        <time>2016-04-03T14:33:46.1Z</time>
      </trkpt>
      <trkpt lat="48.57102" lon="-3.12756">
        <ele>337</ele>
        <time>2016-04-03T14:33:49.1Z</time>
      </trkpt>
      <trkpt lat="48.57099" lon="-3.12756">
        <ele>336</ele>
        <time>2016-04-03T14:33:51.1Z</time>
      </trkpt>
      <trkpt lat="48.57096" lon="-3.12756">
        <ele>336</ele>
        <time>2016-04-03T14:33:54.1Z</time>
      </trkpt>
      <trkpt lat="48.57093" lon="-3.12757">
        <ele>336</ele>
        <time>2016-04-03T14:33:56.1Z</time>
      </trkpt>
      <trkpt lat="48.5709" lon="-3.12757">
        <ele>336</ele>
        <time>2016-04-03T14:33:58.1Z</time>
      </trkpt>
      <trkpt lat="48.57088" lon="-3.12758">
        <ele>336</ele>
        <time>2016-04-03T14:34:00.1Z</time>
      </trkpt>
      <trkpt lat="48.57086" lon="-3.12759">
        <ele>336</ele>
        <time>2016-04-03T14:34:02.1Z</time>
      </trkpt>
      <trkpt lat="48.57084" lon="-3.1276">
        <ele>336</ele>
        <time>2016-04-03T14:34:05.1Z</time>
      </trkpt>
      <trkpt lat="48.57081" lon="-3.1276">
        <ele>336</ele>
        <time>2016-04-03T14:34:08.1Z</time>
      </trkpt>
      <trkpt lat="48.57077" lon="-3.1276">
        <ele>336</ele>
        <time>2016-04-03T14:34:11.1Z</time>
      </trkpt>
      <trkpt lat="48.57075" lon="-3.12762">
        <ele>336</ele>
        <time>2016-04-03T14:34:13.1Z</time>
      </trkpt>
      <trkpt lat="48.57073" lon="-3.12762">
        <ele>336</ele>
        <time>2016-04-03T14:34:15.1Z</time>
      </trkpt>
      <trkpt lat="48.57069" lon="-3.12762">
        <ele>336</ele>
        <time>2016-04-03T14:34:18.1Z</time>
      </trkpt>
      <trkpt lat="48.57066" lon="-3.12764">
        <ele>336</ele>
        <time>2016-04-03T14:34:21.1Z</time>
      </trkpt>
      <trkpt lat="48.57065" lon="-3.12765">
        <ele>336</ele>
        <time>2016-04-03T14:34:24.1Z</time>
      </trkpt>
      <trkpt lat="48.57063" lon="-3.12766">
        <ele>336</ele>
        <time>2016-04-03T14:34:26.1Z</time>
      </trkpt>
      <trkpt lat="48.57061" lon="-3.12769">
        <ele>336</ele>
        <time>2016-04-03T14:34:29.1Z</time>
      </trkpt>
      <trkpt lat="48.57059" lon="-3.12771">
        <ele>335</ele>
        <time>2016-04-03T14:34:31.1Z</time>
      </trkpt>
      <trkpt lat="48.57057" lon="-3.12774">
        <ele>335</ele>
        <time>2016-04-03T14:34:34.1Z</time>
      </trkpt>
      <trkpt lat="48.57055" lon="-3.12777">
        <ele>335</ele>
        <time>2016-04-03T14:34:36.1Z</time>
      </trkpt>
      <trkpt lat="48.57053" lon="-3.12781">
        <ele>336</ele>
        <time>2016-04-03T14:34:39.1Z</time>
      </trkpt>
      <trkpt lat="48.57052" lon="-3.12784">
        <ele>336</ele>
        <time>2016-04-03T14:34:41.1Z</time>
      </trkpt>
      <trkpt lat="48.57051" lon="-3.12786">
        <ele>336</ele>
        <time>2016-04-03T14:34:43.1Z</time>
      </trkpt>
      <trkpt lat="48.5705" lon="-3.12792">
        <ele>336</ele>
        <time>2016-04-03T14:34:46.1Z</time>
      </trkpt>
      <trkpt lat="48.57049" lon="-3.12796">
        <ele>336</ele>
        <time>2016-04-03T14:34:49.1Z</time>
      </trkpt>
      <trkpt lat="48.57048" lon="-3.12799">
        <ele>336</ele>
        <time>2016-04-03T14:34:51.1Z</time>
      </trkpt>
      <trkpt lat="48.57047" lon="-3.12804">
        <ele>336</ele>
        <time>2016-04-03T14:34:54.1Z</time>
      </trkpt>
      <trkpt lat="48.57046" lon="-3.12808">
        <ele>336</ele>
        <time>2016-04-03T14:34:56.1Z</time>
      </trkpt>
      <trkpt lat="48.57045" lon="-3.12813">
        <ele>336</ele>
        <time>2016-04-03T14:34:59.1Z</time>
      </trkpt>
      <trkpt lat="48.57044" lon="-3.12816">
        <ele>336</ele>
        <time>2016-04-03T14:35:01.1Z</time>
      </trkpt>
      <trkpt lat="48.57043" lon="-3.1282">
        <ele>336</ele>
        <time>2016-04-03T14:35:04.1Z</time>
      </trkpt>
      <trkpt lat="48.57042" lon="-3.12824">
        <ele>336</ele>
        <time>2016-04-03T14:35:06.1Z</time>
      </trkpt>
      <trkpt lat="48.57041" lon="-3.12828">
        <ele>336</ele>
        <time>2016-04-03T14:35:09.1Z</time>
      </trkpt>
      <trkpt lat="48.5704" lon="-3.12834">
        <ele>336</ele>
        <time>2016-04-03T14:35:12.1Z</time>
      </trkpt>
      <trkpt lat="48.57039" lon="-3.1284">
        <ele>336</ele>
        <time>2016-04-03T14:35:15.1Z</time>
      </trkpt>
      <trkpt lat="48.57039" lon="-3.12843">
        <ele>337</ele>
        <time>2016-04-03T14:35:17.1Z</time>
      </trkpt>
      <trkpt lat="48.57037" lon="-3.12849">
        <ele>337</ele>
        <time>2016-04-03T14:35:20.1Z</time>
      </trkpt>
      <trkpt lat="48.57036" lon="-3.12854">
        <ele>337</ele>
        <time>2016-04-03T14:35:23.1Z</time>
      </trkpt>
      <trkpt lat="48.57035" lon="-3.12858">
        <ele>337</ele>
        <time>2016-04-03T14:35:25.1Z</time>
      </trkpt>
      <trkpt lat="48.57034" lon="-3.12862">
        <ele>337</ele>
        <time>2016-04-03T14:35:27.1Z</time>
      </trkpt>
      <trkpt lat="48.57033" lon="-3.12867">
        <ele>337</ele>
        <time>2016-04-03T14:35:30.1Z</time>
      </trkpt>
      <trkpt lat="48.57032" lon="-3.12871">
        <ele>337</ele>
        <time>2016-04-03T14:35:32.1Z</time>
      </trkpt>
      <trkpt lat="48.5703" lon="-3.12876">
        <ele>337</ele>
        <time>2016-04-03T14:35:35.1Z</time>
      </trkpt>
      <trkpt lat="48.57029" lon="-3.1288">
        <ele>337</ele>
        <time>2016-04-03T14:35:37.1Z</time>
      </trkpt>
      <trkpt lat="48.57028" lon="-3.12885">
        <ele>337</ele>
        <time>2016-04-03T14:35:40.1Z</time>
      </trkpt>
      <trkpt lat="48.57027" lon="-3.1289">
        <ele>337</ele>
        <time>2016-04-03T14:35:43.1Z</time>
      </trkpt>
      <trkpt lat="48.57025" lon="-3.12894">
        <ele>337</ele>
        <time>2016-04-03T14:35:46.1Z</time>
      </trkpt>
      <trkpt lat="48.57023" lon="-3.12899">
        <ele>337</ele>
        <time>2016-04-03T14:35:49.1Z</time>
      </trkpt>
      <trkpt lat="48.57022" lon="-3.12903">
        <ele>337</ele>
        <time>2016-04-03T14:35:52.1Z</time>
      </trkpt>
      <trkpt lat="48.57021" lon="-3.12907">
        <ele>337</ele>
        <time>2016-04-03T14:35:54.1Z</time>
      </trkpt>
      <trkpt lat="48.5702" lon="-3.1291">
        <ele>338</ele>
        <time>2016-04-03T14:35:56.1Z</time>
      </trkpt>
      <trkpt lat="48.57018" lon="-3.12915">
        <ele>338</ele>
        <time>2016-04-03T14:35:59.1Z</time>
      </trkpt>
      <trkpt lat="48.57016" lon="-3.12919">
        <ele>338</ele>
        <time>2016-04-03T14:36:02.1Z</time>
      </trkpt>
      <trkpt lat="48.57015" lon="-3.12922">
        <ele>338</ele>
        <time>2016-04-03T14:36:04.1Z</time>
      </trkpt>
      <trkpt lat="48.57014" lon="-3.12926">
        <ele>337</ele>
        <time>2016-04-03T14:36:06.1Z</time>
      </trkpt>
      <trkpt lat="48.57013" lon="-3.1293">
        <ele>338</ele>
        <time>2016-04-03T14:36:09.1Z</time>
      </trkpt>
      <trkpt lat="48.57012" lon="-3.12933">
        <ele>338</ele>
        <time>2016-04-03T14:36:11.1Z</time>
      </trkpt>
      <trkpt lat="48.57011" lon="-3.12938">
        <ele>338</ele>
        <time>2016-04-03T14:36:14.1Z</time>
      </trkpt>
      <trkpt lat="48.57011" lon="-3.12941">
        <ele>339</ele>
        <time>2016-04-03T14:36:16.1Z</time>
      </trkpt>
      <trkpt lat="48.57012" lon="-3.12946">
        <ele>339</ele>
        <time>2016-04-03T14:36:19.1Z</time>
      </trkpt>
      <trkpt lat="48.57013" lon="-3.12949">
        <ele>339</ele>
        <time>2016-04-03T14:36:21.1Z</time>
      </trkpt>
      <trkpt lat="48.57015" lon="-3.1295">
        <ele>338</ele>
        <time>2016-04-03T14:36:24.1Z</time>
      </trkpt>
      <trkpt lat="48.57016" lon="-3.12952">
        <ele>338</ele>
        <time>2016-04-03T14:36:26.1Z</time>
      </trkpt>
      <trkpt lat="48.57019" lon="-3.12955">
        <ele>339</ele>
        <time>2016-04-03T14:36:29.1Z</time>
      </trkpt>
      <trkpt lat="48.57022" lon="-3.12957">
        <ele>339</ele>
        <time>2016-04-03T14:36:32.1Z</time>
      </trkpt>
      <trkpt lat="48.57024" lon="-3.12958">
        <ele>339</ele>
        <time>2016-04-03T14:36:34.1Z</time>
      </trkpt>
      <trkpt lat="48.57027" lon="-3.1296">
        <ele>339</ele>
        <time>2016-04-03T14:36:37.1Z</time>
      </trkpt>
      <trkpt lat="48.57029" lon="-3.12961">
        <ele>339</ele>
        <time>2016-04-03T14:36:39.1Z</time>
      </trkpt>
      <trkpt lat="48.57032" lon="-3.12964">
        <ele>339</ele>
        <time>2016-04-03T14:36:42.1Z</time>
      </trkpt>
      <trkpt lat="48.57034" lon="-3.12965">
        <ele>338</ele>
        <time>2016-04-03T14:36:44.1Z</time>
      </trkpt>
      <trkpt lat="48.57037" lon="-3.12968">
        <ele>339</ele>
        <time>2016-04-03T14:36:47.1Z</time>
      </trkpt>
      <trkpt lat="48.57039" lon="-3.1297">
        <ele>339</ele>
        <time>2016-04-03T14:36:50.1Z</time>
      </trkpt>
      <trkpt lat="48.57041" lon="-3.12971">
        <ele>339</ele>
        <time>2016-04-03T14:36:52.1Z</time>
      </trkpt>
      <trkpt lat="48.57044" lon="-3.12973">
        <ele>338</ele>
        <time>2016-04-03T14:36:55.1Z</time>
      </trkpt>
      <trkpt lat="48.57046" lon="-3.12975">
        <ele>338</ele>
        <time>2016-04-03T14:36:57.1Z</time>
      </trkpt>
      <trkpt lat="48.57049" lon="-3.12977">
        <ele>338</ele>
        <time>2016-04-03T14:37:00.1Z</time>
      </trkpt>
      <trkpt lat="48.57051" lon="-3.12979">
        <ele>338</ele>
        <time>2016-04-03T14:37:02.1Z</time>
      </trkpt>
      <trkpt lat="48.57054" lon="-3.12981">
        <ele>338</ele>
        <time>2016-04-03T14:37:05.1Z</time>
      </trkpt>
      <trkpt lat="48.57058" lon="-3.12983">
        <ele>339</ele>
        <time>2016-04-03T14:37:08.1Z</time>
      </trkpt>
      <trkpt lat="48.57059" lon="-3.12984">
        <ele>339</ele>
        <time>2016-04-03T14:37:10.1Z</time>
      </trkpt>
      <trkpt lat="48.57063" lon="-3.12987">
        <ele>339</ele>
        <time>2016-04-03T14:37:13.1Z</time>
      </trkpt>
      <trkpt lat="48.57065" lon="-3.12988">
        <ele>339</ele>
        <time>2016-04-03T14:37:15.1Z</time>
      </trkpt>
      <trkpt lat="48.57067" lon="-3.1299">
        <ele>339</ele>
        <time>2016-04-03T14:37:18.1Z</time>
      </trkpt>
      <trkpt lat="48.57071" lon="-3.12993">
        <ele>339</ele>
        <time>2016-04-03T14:37:21.1Z</time>
      </trkpt>
      <trkpt lat="48.57072" lon="-3.12994">
        <ele>339</ele>
        <time>2016-04-03T14:37:23.1Z</time>
      </trkpt>
      <trkpt lat="48.57076" lon="-3.12996">
        <ele>339</ele>
        <time>2016-04-03T14:37:26.1Z</time>
      </trkpt>
      <trkpt lat="48.57077" lon="-3.12998">
        <ele>339</ele>
        <time>2016-04-03T14:37:28.1Z</time>
      </trkpt>
      <trkpt lat="48.5708" lon="-3.13">
        <ele>339</ele>
        <time>2016-04-03T14:37:31.1Z</time>
      </trkpt>
      <trkpt lat="48.57082" lon="-3.13002">
        <ele>339</ele>
        <time>2016-04-03T14:37:33.1Z</time>
      </trkpt>
      <trkpt lat="48.57085" lon="-3.13004">
        <ele>339</ele>
        <time>2016-04-03T14:37:36.1Z</time>
      </trkpt>
      <trkpt lat="48.57088" lon="-3.13006">
        <ele>339</ele>
        <time>2016-04-03T14:37:39.1Z</time>
      </trkpt>
      <trkpt lat="48.57091" lon="-3.13009">
        <ele>339</ele>
        <time>2016-04-03T14:37:42.1Z</time>
      </trkpt>
      <trkpt lat="48.57094" lon="-3.13012">
        <ele>339</ele>
        <time>2016-04-03T14:37:45.1Z</time>
      </trkpt>
      <trkpt lat="48.57096" lon="-3.13014">
        <ele>339</ele>
        <time>2016-04-03T14:37:47.1Z</time>
      </trkpt>
      <trkpt lat="48.57098" lon="-3.13015">
        <ele>339</ele>
        <time>2016-04-03T14:37:49.1Z</time>
      </trkpt>
      <trkpt lat="48.57101" lon="-3.13018">
        <ele>339</ele>
        <time>2016-04-03T14:37:52.1Z</time>
      </trkpt>
      <trkpt lat="48.57104" lon="-3.13021">
        <ele>338</ele>
        <time>2016-04-03T14:37:55.1Z</time>
      </trkpt>
      <trkpt lat="48.57106" lon="-3.13023">
        <ele>338</ele>
        <time>2016-04-03T14:37:57.1Z</time>
      </trkpt>
      <trkpt lat="48.57108" lon="-3.13025">
        <ele>338</ele>
        <time>2016-04-03T14:37:59.1Z</time>
      </trkpt>
      <trkpt lat="48.57111" lon="-3.13028">
        <ele>338</ele>
        <time>2016-04-03T14:38:02.1Z</time>
      </trkpt>
      <trkpt lat="48.57112" lon="-3.13031">
        <ele>338</ele>
        <time>2016-04-03T14:38:04.1Z</time>
      </trkpt>
      <trkpt lat="48.57115" lon="-3.13034">
        <ele>338</ele>
        <time>2016-04-03T14:38:07.1Z</time>
      </trkpt>
      <trkpt lat="48.57116" lon="-3.13036">
        <ele>338</ele>
        <time>2016-04-03T14:38:09.1Z</time>
      </trkpt>
      <trkpt lat="48.57119" lon="-3.1304">
        <ele>338</ele>
        <time>2016-04-03T14:38:12.1Z</time>
      </trkpt>
      <trkpt lat="48.57121" lon="-3.13044">
        <ele>338</ele>
        <time>2016-04-03T14:38:15.1Z</time>
      </trkpt>
      <trkpt lat="48.57124" lon="-3.13048">
        <ele>338</ele>
        <time>2016-04-03T14:38:18.1Z</time>
      </trkpt>
      <trkpt lat="48.57125" lon="-3.1305">
        <ele>338</ele>
        <time>2016-04-03T14:38:20.1Z</time>
      </trkpt>
      <trkpt lat="48.57127" lon="-3.13054">
        <ele>338</ele>
        <time>2016-04-03T14:38:23.1Z</time>
      </trkpt>
      <trkpt lat="48.57129" lon="-3.13056">
        <ele>338</ele>
        <time>2016-04-03T14:38:25.1Z</time>
      </trkpt>
      <trkpt lat="48.5713" lon="-3.13058">
        <ele>339</ele>
        <time>2016-04-03T14:38:27.1Z</time>
      </trkpt>
      <trkpt lat="48.57132" lon="-3.13061">
        <ele>339</ele>
        <time>2016-04-03T14:38:29.1Z</time>
      </trkpt>
      <trkpt lat="48.57133" lon="-3.13063">
        <ele>338</ele>
        <time>2016-04-03T14:38:31.1Z</time>
      </trkpt>
      <trkpt lat="48.57135" lon="-3.13067">
        <ele>338</ele>
        <time>2016-04-03T14:38:34.1Z</time>
      </trkpt>
      <trkpt lat="48.57136" lon="-3.1307">
        <ele>338</ele>
        <time>2016-04-03T14:38:36.1Z</time>
      </trkpt>
      <trkpt lat="48.57138" lon="-3.13073">
        <ele>337</ele>
        <time>2016-04-03T14:38:38.1Z</time>
      </trkpt>
      <trkpt lat="48.5714" lon="-3.13077">
        <ele>338</ele>
        <time>2016-04-03T14:38:41.1Z</time>
      </trkpt>
      <trkpt lat="48.57141" lon="-3.13081">
        <ele>338</ele>
        <time>2016-04-03T14:38:44.1Z</time>
      </trkpt>
      <trkpt lat="48.57143" lon="-3.13084">
        <ele>338</ele>
        <time>2016-04-03T14:38:46.1Z</time>
      </trkpt>
      <trkpt lat="48.57145" lon="-3.13088">
        <ele>339</ele>
        <time>2016-04-03T14:38:49.1Z</time>
      </trkpt>
      <trkpt lat="48.57146" lon="-3.1309">
        <ele>339</ele>
        <time>2016-04-03T14:38:51.1Z</time>
      </trkpt>
      <trkpt lat="48.57148" lon="-3.13093">
        <ele>338</ele>
        <time>2016-04-03T14:38:53.1Z</time>
      </trkpt>
      <trkpt lat="48.57149" lon="-3.13097">
        <ele>338</ele>
        <time>2016-04-03T14:38:55.1Z</time>
      </trkpt>
      <trkpt lat="48.5715" lon="-3.131">
        <ele>339</ele>
        <time>2016-04-03T14:38:57.1Z</time>
      </trkpt>
      <trkpt lat="48.57152" lon="-3.13104">
        <ele>339</ele>
        <time>2016-04-03T14:39:00.1Z</time>
      </trkpt>
      <trkpt lat="48.57153" lon="-3.13107">
        <ele>339</ele>
        <time>2016-04-03T14:39:02.1Z</time>
      </trkpt>
      <trkpt lat="48.57154" lon="-3.1311">
        <ele>339</ele>
        <time>2016-04-03T14:39:04.1Z</time>
      </trkpt>
      <trkpt lat="48.57156" lon="-3.13114">
        <ele>339</ele>
        <time>2016-04-03T14:39:07.1Z</time>
      </trkpt>
      <trkpt lat="48.57157" lon="-3.13119">
        <ele>339</ele>
        <time>2016-04-03T14:39:10.1Z</time>
      </trkpt>
      <trkpt lat="48.57159" lon="-3.13123">
        <ele>339</ele>
        <time>2016-04-03T14:39:13.1Z</time>
      </trkpt>
      <trkpt lat="48.57161" lon="-3.13127">
        <ele>339</ele>
        <time>2016-04-03T14:39:16.1Z</time>
      </trkpt>
      <trkpt lat="48.57162" lon="-3.1313">
        <ele>339</ele>
        <time>2016-04-03T14:39:18.1Z</time>
      </trkpt>
      <trkpt lat="48.57164" lon="-3.13135">
        <ele>339</ele>
        <time>2016-04-03T14:39:21.1Z</time>
      </trkpt>
      <trkpt lat="48.57166" lon="-3.13139">
        <ele>339</ele>
        <time>2016-04-03T14:39:24.1Z</time>
      </trkpt>
      <trkpt lat="48.57167" lon="-3.13142">
        <ele>339</ele>
        <time>2016-04-03T14:39:26.1Z</time>
      </trkpt>
      <trkpt lat="48.57168" lon="-3.13146">
        <ele>339</ele>
        <time>2016-04-03T14:39:29.1Z</time>
      </trkpt>
      <trkpt lat="48.57169" lon="-3.13149">
        <ele>339</ele>
        <time>2016-04-03T14:39:31.1Z</time>
      </trkpt>
      <trkpt lat="48.57171" lon="-3.13153">
        <ele>339</ele>
        <time>2016-04-03T14:39:33.1Z</time>
      </trkpt>
      <trkpt lat="48.57172" lon="-3.13155">
        <ele>339</ele>
        <time>2016-04-03T14:39:35.1Z</time>
      </trkpt>
      <trkpt lat="48.57174" lon="-3.1316">
        <ele>339</ele>
        <time>2016-04-03T14:39:38.1Z</time>
      </trkpt>
      <trkpt lat="48.57175" lon="-3.13162">
        <ele>339</ele>
        <time>2016-04-03T14:39:40.1Z</time>
      </trkpt>
      <trkpt lat="48.57176" lon="-3.13166">
        <ele>339</ele>
        <time>2016-04-03T14:39:42.1Z</time>
      </trkpt>
      <trkpt lat="48.57177" lon="-3.13169">
        <ele>339</ele>
        <time>2016-04-03T14:39:44.1Z</time>
      </trkpt>
      <trkpt lat="48.57178" lon="-3.13172">
        <ele>339</ele>
        <time>2016-04-03T14:39:46.1Z</time>
      </trkpt>
      <trkpt lat="48.57179" lon="-3.13174">
        <ele>339</ele>
        <time>2016-04-03T14:39:48.1Z</time>
      </trkpt>
      <trkpt lat="48.5718" lon="-3.13177">
        <ele>339</ele>
        <time>2016-04-03T14:39:50.1Z</time>
      </trkpt>
      <trkpt lat="48.57182" lon="-3.13182">
        <ele>339</ele>
        <time>2016-04-03T14:39:53.1Z</time>
      </trkpt>
      <trkpt lat="48.57182" lon="-3.13185">
        <ele>339</ele>
        <time>2016-04-03T14:39:55.1Z</time>
      </trkpt>
      <trkpt lat="48.57184" lon="-3.13188">
        <ele>339</ele>
        <time>2016-04-03T14:39:57.1Z</time>
      </trkpt>
      <trkpt lat="48.57185" lon="-3.1319">
        <ele>339</ele>
        <time>2016-04-03T14:39:59.1Z</time>
      </trkpt>
      <trkpt lat="48.57186" lon="-3.13193">
        <ele>339</ele>
        <time>2016-04-03T14:40:01.1Z</time>
      </trkpt>
      <trkpt lat="48.57188" lon="-3.13198">
        <ele>339</ele>
        <time>2016-04-03T14:40:04.1Z</time>
      </trkpt>
      <trkpt lat="48.57189" lon="-3.132">
        <ele>339</ele>
        <time>2016-04-03T14:40:06.1Z</time>
      </trkpt>
      <trkpt lat="48.57191" lon="-3.13205">
        <ele>338</ele>
        <time>2016-04-03T14:40:09.1Z</time>
      </trkpt>
      <trkpt lat="48.57192" lon="-3.13209">
        <ele>338</ele>
        <time>2016-04-03T14:40:12.1Z</time>
      </trkpt>
      <trkpt lat="48.57194" lon="-3.13212">
        <ele>338</ele>
        <time>2016-04-03T14:40:15.1Z</time>
      </trkpt>
      <trkpt lat="48.57195" lon="-3.13215">
        <ele>338</ele>
        <time>2016-04-03T14:40:17.1Z</time>
      </trkpt>
      <trkpt lat="48.57196" lon="-3.13217">
        <ele>338</ele>
        <time>2016-04-03T14:40:19.1Z</time>
      </trkpt>
      <trkpt lat="48.57197" lon="-3.1322">
        <ele>338</ele>
        <time>2016-04-03T14:40:21.1Z</time>
      </trkpt>
      <trkpt lat="48.57199" lon="-3.13224">
        <ele>338</ele>
        <time>2016-04-03T14:40:24.1Z</time>
      </trkpt>
      <trkpt lat="48.572" lon="-3.13228">
        <ele>338</ele>
        <time>2016-04-03T14:40:27.1Z</time>
      </trkpt>
      <trkpt lat="48.57201" lon="-3.13231">
        <ele>338</ele>
        <time>2016-04-03T14:40:29.1Z</time>
      </trkpt>
      <trkpt lat="48.57202" lon="-3.13233">
        <ele>339</ele>
        <time>2016-04-03T14:40:31.1Z</time>
      </trkpt>
      <trkpt lat="48.57204" lon="-3.13237">
        <ele>338</ele>
        <time>2016-04-03T14:40:34.1Z</time>
      </trkpt>
      <trkpt lat="48.57205" lon="-3.1324">
        <ele>338</ele>
        <time>2016-04-03T14:40:36.1Z</time>
      </trkpt>
      <trkpt lat="48.57206" lon="-3.13244">
        <ele>338</ele>
        <time>2016-04-03T14:40:39.1Z</time>
      </trkpt>
      <trkpt lat="48.57207" lon="-3.13247">
        <ele>338</ele>
        <time>2016-04-03T14:40:41.1Z</time>
      </trkpt>
      <trkpt lat="48.57209" lon="-3.13252">
        <ele>338</ele>
        <time>2016-04-03T14:40:44.1Z</time>
      </trkpt>
      <trkpt lat="48.5721" lon="-3.13255">
        <ele>338</ele>
        <time>2016-04-03T14:40:46.1Z</time>
      </trkpt>
      <trkpt lat="48.57211" lon="-3.13258">
        <ele>338</ele>
        <time>2016-04-03T14:40:48.1Z</time>
      </trkpt>
      <trkpt lat="48.57212" lon="-3.13261">
        <ele>338</ele>
        <time>2016-04-03T14:40:50.1Z</time>
      </trkpt>
      <trkpt lat="48.57212" lon="-3.13264">
        <ele>338</ele>
        <time>2016-04-03T14:40:52.1Z</time>
      </trkpt>
      <trkpt lat="48.57214" lon="-3.13269">
        <ele>339</ele>
        <time>2016-04-03T14:40:55.1Z</time>
      </trkpt>
      <trkpt lat="48.57215" lon="-3.13274">
        <ele>339</ele>
        <time>2016-04-03T14:40:58.1Z</time>
      </trkpt>
      <trkpt lat="48.57216" lon="-3.13277">
        <ele>339</ele>
        <time>2016-04-03T14:41:00.1Z</time>
      </trkpt>
      <trkpt lat="48.57217" lon="-3.13282">
        <ele>338</ele>
        <time>2016-04-03T14:41:03.1Z</time>
      </trkpt>
      <trkpt lat="48.57218" lon="-3.13285">
        <ele>338</ele>
        <time>2016-04-03T14:41:05.1Z</time>
      </trkpt>
      <trkpt lat="48.57219" lon="-3.1329">
        <ele>338</ele>
        <time>2016-04-03T14:41:08.1Z</time>
      </trkpt>
      <trkpt lat="48.5722" lon="-3.13295">
        <ele>338</ele>
        <time>2016-04-03T14:41:11.1Z</time>
      </trkpt>
      <trkpt lat="48.57221" lon="-3.13299">
        <ele>338</ele>
        <time>2016-04-03T14:41:14.1Z</time>
      </trkpt>
      <trkpt lat="48.57222" lon="-3.13302">
        <ele>338</ele>
        <time>2016-04-03T14:41:16.1Z</time>
      </trkpt>
      <trkpt lat="48.57222" lon="-3.13306">
        <ele>338</ele>
        <time>2016-04-03T14:41:18.1Z</time>
      </trkpt>
      <trkpt lat="48.57224" lon="-3.13311">
        <ele>338</ele>
        <time>2016-04-03T14:41:21.1Z</time>
      </trkpt>
      <trkpt lat="48.57224" lon="-3.13315">
        <ele>338</ele>
        <time>2016-04-03T14:41:23.1Z</time>
      </trkpt>
      <trkpt lat="48.57225" lon="-3.1332">
        <ele>338</ele>
        <time>2016-04-03T14:41:26.1Z</time>
      </trkpt>
      <trkpt lat="48.57226" lon="-3.13323">
        <ele>338</ele>
        <time>2016-04-03T14:41:28.1Z</time>
      </trkpt>
      <trkpt lat="48.57226" lon="-3.13326">
        <ele>338</ele>
        <time>2016-04-03T14:41:30.1Z</time>
      </trkpt>
      <trkpt lat="48.57227" lon="-3.13329">
        <ele>338</ele>
        <time>2016-04-03T14:41:32.1Z</time>
      </trkpt>
      <trkpt lat="48.57227" lon="-3.13333">
        <ele>338</ele>
        <time>2016-04-03T14:41:34.1Z</time>
      </trkpt>
      <trkpt lat="48.57228" lon="-3.13338">
        <ele>339</ele>
        <time>2016-04-03T14:41:37.1Z</time>
      </trkpt>
      <trkpt lat="48.57229" lon="-3.13341">
        <ele>339</ele>
        <time>2016-04-03T14:41:39.1Z</time>
      </trkpt>
      <trkpt lat="48.5723" lon="-3.13346">
        <ele>339</ele>
        <time>2016-04-03T14:41:42.1Z</time>
      </trkpt>
      <trkpt lat="48.57231" lon="-3.13351">
        <ele>338</ele>
        <time>2016-04-03T14:41:45.1Z</time>
      </trkpt>
      <trkpt lat="48.57232" lon="-3.13356">
        <ele>339</ele>
        <time>2016-04-03T14:41:48.1Z</time>
      </trkpt>
      <trkpt lat="48.57233" lon="-3.13361">
        <ele>339</ele>
        <time>2016-04-03T14:41:51.1Z</time>
      </trkpt>
      <trkpt lat="48.57234" lon="-3.13366">
        <ele>339</ele>
        <time>2016-04-03T14:41:54.1Z</time>
      </trkpt>
      <trkpt lat="48.57235" lon="-3.13369">
        <ele>339</ele>
        <time>2016-04-03T14:41:56.1Z</time>
      </trkpt>
      <trkpt lat="48.57236" lon="-3.13374">
        <ele>339</ele>
        <time>2016-04-03T14:41:59.1Z</time>
      </trkpt>
      <trkpt lat="48.57237" lon="-3.13379">
        <ele>339</ele>
        <time>2016-04-03T14:42:02.1Z</time>
      </trkpt>
      <trkpt lat="48.57239" lon="-3.13384">
        <ele>339</ele>
        <time>2016-04-03T14:42:05.1Z</time>
      </trkpt>
      <trkpt lat="48.5724" lon="-3.13389">
        <ele>339</ele>
        <time>2016-04-03T14:42:08.1Z</time>
      </trkpt>
      <trkpt lat="48.57241" lon="-3.13393">
        <ele>339</ele>
        <time>2016-04-03T14:42:11.1Z</time>
      </trkpt>
      <trkpt lat="48.57243" lon="-3.13398">
        <ele>339</ele>
        <time>2016-04-03T14:42:14.1Z</time>
      </trkpt>
      <trkpt lat="48.57244" lon="-3.13403">
        <ele>339</ele>
        <time>2016-04-03T14:42:17.1Z</time>
      </trkpt>
      <trkpt lat="48.57245" lon="-3.13406">
        <ele>339</ele>
        <time>2016-04-03T14:42:19.1Z</time>
      </trkpt>
      <trkpt lat="48.57246" lon="-3.13409">
        <ele>339</ele>
        <time>2016-04-03T14:42:21.1Z</time>
      </trkpt>
      <trkpt lat="48.57247" lon="-3.13413">
        <ele>339</ele>
        <time>2016-04-03T14:42:24.1Z</time>
      </trkpt>
      <trkpt lat="48.57248" lon="-3.13416">
        <ele>340</ele>
        <time>2016-04-03T14:42:26.1Z</time>
      </trkpt>
      <trkpt lat="48.57249" lon="-3.13421">
        <ele>339</ele>
        <time>2016-04-03T14:42:29.1Z</time>
      </trkpt>
      <trkpt lat="48.5725" lon="-3.13424">
        <ele>339</ele>
        <time>2016-04-03T14:42:31.1Z</time>
      </trkpt>
      <trkpt lat="48.57251" lon="-3.13427">
        <ele>339</ele>
        <time>2016-04-03T14:42:33.1Z</time>
      </trkpt>
      <trkpt lat="48.57252" lon="-3.1343">
        <ele>339</ele>
        <time>2016-04-03T14:42:35.1Z</time>
      </trkpt>
      <trkpt lat="48.57254" lon="-3.13435">
        <ele>339</ele>
        <time>2016-04-03T14:42:38.1Z</time>
      </trkpt>
      <trkpt lat="48.57255" lon="-3.1344">
        <ele>339</ele>
        <time>2016-04-03T14:42:41.1Z</time>
      </trkpt>
      <trkpt lat="48.57256" lon="-3.13443">
        <ele>338</ele>
        <time>2016-04-03T14:42:43.1Z</time>
      </trkpt>
      <trkpt lat="48.57257" lon="-3.13446">
        <ele>338</ele>
        <time>2016-04-03T14:42:45.1Z</time>
      </trkpt>
      <trkpt lat="48.5726" lon="-3.1345">
        <ele>339</ele>
        <time>2016-04-03T14:42:48.1Z</time>
      </trkpt>
      <trkpt lat="48.57262" lon="-3.13453">
        <ele>339</ele>
        <time>2016-04-03T14:42:51.1Z</time>
      </trkpt>
      <trkpt lat="48.57264" lon="-3.13454">
        <ele>339</ele>
        <time>2016-04-03T14:42:53.1Z</time>
      </trkpt>
      <trkpt lat="48.57267" lon="-3.13455">
        <ele>340</ele>
        <time>2016-04-03T14:42:55.1Z</time>
      </trkpt>
      <trkpt lat="48.5727" lon="-3.13455">
        <ele>340</ele>
        <time>2016-04-03T14:42:58.1Z</time>
      </trkpt>
      <trkpt lat="48.57272" lon="-3.13455">
        <ele>340</ele>
        <time>2016-04-03T14:43:00.1Z</time>
      </trkpt>
      <trkpt lat="48.57275" lon="-3.13454">
        <ele>340</ele>
        <time>2016-04-03T14:43:03.1Z</time>
      </trkpt>
      <trkpt lat="48.57278" lon="-3.13454">
        <ele>340</ele>
        <time>2016-04-03T14:43:06.1Z</time>
      </trkpt>
      <trkpt lat="48.57281" lon="-3.13453">
        <ele>340</ele>
        <time>2016-04-03T14:43:09.1Z</time>
      </trkpt>
      <trkpt lat="48.57281" lon="-3.13453">
        <ele>340</ele>
        <time>2016-04-03T14:43:11.1Z</time>
      </trkpt>
      <trkpt lat="48.57283" lon="-3.13452">
        <ele>340</ele>
        <time>2016-04-03T14:43:14.1Z</time>
      </trkpt>
      <trkpt lat="48.57286" lon="-3.13452">
        <ele>340</ele>
        <time>2016-04-03T14:43:17.1Z</time>
      </trkpt>
      <trkpt lat="48.5729" lon="-3.13451">
        <ele>339</ele>
        <time>2016-04-03T14:43:20.1Z</time>
      </trkpt>
      <trkpt lat="48.57293" lon="-3.1345">
        <ele>339</ele>
        <time>2016-04-03T14:43:23.1Z</time>
      </trkpt>
      <trkpt lat="48.57296" lon="-3.1345">
        <ele>340</ele>
        <time>2016-04-03T14:43:26.1Z</time>
      </trkpt>
      <trkpt lat="48.57298" lon="-3.13449">
        <ele>339</ele>
        <time>2016-04-03T14:43:28.1Z</time>
      </trkpt>
      <trkpt lat="48.57301" lon="-3.13449">
        <ele>339</ele>
        <time>2016-04-03T14:43:31.1Z</time>
      </trkpt>
      <trkpt lat="48.57305" lon="-3.13448">
        <ele>339</ele>
        <time>2016-04-03T14:43:34.1Z</time>
      </trkpt>
      <trkpt lat="48.57307" lon="-3.13447">
        <ele>339</ele>
        <time>2016-04-03T14:43:37.1Z</time>
      </trkpt>
      <trkpt lat="48.57309" lon="-3.13447">
        <ele>339</ele>
        <time>2016-04-03T14:43:39.1Z</time>
      </trkpt>
      <trkpt lat="48.57312" lon="-3.13447">
        <ele>339</ele>
        <time>2016-04-03T14:43:42.1Z</time>
      </trkpt>
      <trkpt lat="48.57314" lon="-3.13446">
        <ele>339</ele>
        <time>2016-04-03T14:43:44.1Z</time>
      </trkpt>
      <trkpt lat="48.57316" lon="-3.13446">
        <ele>339</ele>
        <time>2016-04-03T14:43:46.1Z</time>
      </trkpt>
      <trkpt lat="48.5732" lon="-3.13445">
        <ele>339</ele>
        <time>2016-04-03T14:43:49.1Z</time>
      </trkpt>
      <trkpt lat="48.57323" lon="-3.13445">
        <ele>339</ele>
        <time>2016-04-03T14:43:52.1Z</time>
      </trkpt>
      <trkpt lat="48.57326" lon="-3.13445">
        <ele>339</ele>
        <time>2016-04-03T14:43:55.1Z</time>
      </trkpt>
      <trkpt lat="48.57328" lon="-3.13444">
        <ele>339</ele>
        <time>2016-04-03T14:43:57.1Z</time>
      </trkpt>
      <trkpt lat="48.5733" lon="-3.13444">
        <ele>339</ele>
        <time>2016-04-03T14:43:59.1Z</time>
      </trkpt>
      <trkpt lat="48.57333" lon="-3.13443">
        <ele>339</ele>
        <time>2016-04-03T14:44:02.1Z</time>
      </trkpt>
      <trkpt lat="48.57336" lon="-3.13443">
        <ele>339</ele>
        <time>2016-04-03T14:44:05.1Z</time>
      </trkpt>
      <trkpt lat="48.57339" lon="-3.13443">
        <ele>339</ele>
        <time>2016-04-03T14:44:08.1Z</time>
      </trkpt>
      <trkpt lat="48.57341" lon="-3.13443">
        <ele>339</ele>
        <time>2016-04-03T14:44:10.1Z</time>
      </trkpt>
      <trkpt lat="48.57344" lon="-3.13444">
        <ele>339</ele>
        <time>2016-04-03T14:44:13.1Z</time>
      </trkpt>
      <trkpt lat="48.57347" lon="-3.13445">
        <ele>339</ele>
        <time>2016-04-03T14:44:16.1Z</time>
      </trkpt>
      <trkpt lat="48.57349" lon="-3.13446">
        <ele>339</ele>
        <time>2016-04-03T14:44:18.1Z</time>
      </trkpt>
      <trkpt lat="48.57352" lon="-3.13446">
        <ele>339</ele>
        <time>2016-04-03T14:44:21.1Z</time>
      </trkpt>
      <trkpt lat="48.57355" lon="-3.13447">
        <ele>339</ele>
        <time>2016-04-03T14:44:24.1Z</time>
      </trkpt>
      <trkpt lat="48.57357" lon="-3.13449">
        <ele>339</ele>
        <time>2016-04-03T14:44:26.1Z</time>
      </trkpt>
      <trkpt lat="48.57359" lon="-3.13451">
        <ele>340</ele>
        <time>2016-04-03T14:44:28.1Z</time>
      </trkpt>
      <trkpt lat="48.57362" lon="-3.13453">
        <ele>340</ele>
        <time>2016-04-03T14:44:31.1Z</time>
      </trkpt>
      <trkpt lat="48.57363" lon="-3.13455">
        <ele>340</ele>
        <time>2016-04-03T14:44:33.1Z</time>
      </trkpt>
      <trkpt lat="48.57365" lon="-3.13457">
        <ele>339</ele>
        <time>2016-04-03T14:44:35.1Z</time>
      </trkpt>
      <trkpt lat="48.57367" lon="-3.13459">
        <ele>339</ele>
        <time>2016-04-03T14:44:37.1Z</time>
      </trkpt>
      <trkpt lat="48.57369" lon="-3.13463">
        <ele>339</ele>
        <time>2016-04-03T14:44:40.1Z</time>
      </trkpt>
      <trkpt lat="48.57371" lon="-3.13465">
        <ele>340</ele>
        <time>2016-04-03T14:44:42.1Z</time>
      </trkpt>
      <trkpt lat="48.57373" lon="-3.13469">
        <ele>340</ele>
        <time>2016-04-03T14:44:45.1Z</time>
      </trkpt>
      <trkpt lat="48.57375" lon="-3.13473">
        <ele>340</ele>
        <time>2016-04-03T14:44:48.1Z</time>
      </trkpt>
      <trkpt lat="48.57377" lon="-3.13476">
        <ele>339</ele>
        <time>2016-04-03T14:44:50.1Z</time>
      </trkpt>
      <trkpt lat="48.57379" lon="-3.13479">
        <ele>340</ele>
        <time>2016-04-03T14:44:53.1Z</time>
      </trkpt>
      <trkpt lat="48.57382" lon="-3.13482">
        <ele>339</ele>
        <time>2016-04-03T14:44:56.1Z</time>
      </trkpt>
      <trkpt lat="48.57384" lon="-3.13485">
        <ele>339</ele>
        <time>2016-04-03T14:44:59.1Z</time>
      </trkpt>
      <trkpt lat="48.57386" lon="-3.13489">
        <ele>339</ele>
        <time>2016-04-03T14:45:02.1Z</time>
      </trkpt>
      <trkpt lat="48.57387" lon="-3.13492">
        <ele>339</ele>
        <time>2016-04-03T14:45:04.1Z</time>
      </trkpt>
      <trkpt lat="48.57389" lon="-3.13494">
        <ele>339</ele>
        <time>2016-04-03T14:45:06.1Z</time>
      </trkpt>
      <trkpt lat="48.5739" lon="-3.13497">
        <ele>339</ele>
        <time>2016-04-03T14:45:08.1Z</time>
      </trkpt>
      <trkpt lat="48.57393" lon="-3.13501">
        <ele>340</ele>
        <time>2016-04-03T14:45:11.1Z</time>
      </trkpt>
      <trkpt lat="48.57394" lon="-3.13503">
        <ele>340</ele>
        <time>2016-04-03T14:45:13.1Z</time>
      </trkpt>
      <trkpt lat="48.57396" lon="-3.13506">
        <ele>340</ele>
        <time>2016-04-03T14:45:15.1Z</time>
      </trkpt>
      <trkpt lat="48.57398" lon="-3.13509">
        <ele>340</ele>
        <time>2016-04-03T14:45:18.1Z</time>
      </trkpt>
      <trkpt lat="48.574" lon="-3.13514">
        <ele>340</ele>
        <time>2016-04-03T14:45:21.1Z</time>
      </trkpt>
      <trkpt lat="48.57402" lon="-3.13516">
        <ele>340</ele>
        <time>2016-04-03T14:45:23.1Z</time>
      </trkpt>
      <trkpt lat="48.57404" lon="-3.13521">
        <ele>340</ele>
        <time>2016-04-03T14:45:26.1Z</time>
      </trkpt>
      <trkpt lat="48.57406" lon="-3.13524">
        <ele>340</ele>
        <time>2016-04-03T14:45:29.1Z</time>
      </trkpt>
      <trkpt lat="48.57407" lon="-3.13527">
        <ele>340</ele>
        <time>2016-04-03T14:45:31.1Z</time>
      </trkpt>
      <trkpt lat="48.57409" lon="-3.13531">
        <ele>340</ele>
        <time>2016-04-03T14:45:34.1Z</time>
      </trkpt>
      <trkpt lat="48.57411" lon="-3.13534">
        <ele>340</ele>
        <time>2016-04-03T14:45:36.1Z</time>
      </trkpt>
      <trkpt lat="48.57413" lon="-3.13538">
        <ele>340</ele>
        <time>2016-04-03T14:45:39.1Z</time>
      </trkpt>
      <trkpt lat="48.57414" lon="-3.1354">
        <ele>340</ele>
        <time>2016-04-03T14:45:41.1Z</time>
      </trkpt>
      <trkpt lat="48.57416" lon="-3.13544">
        <ele>341</ele>
        <time>2016-04-03T14:45:44.1Z</time>
      </trkpt>
      <trkpt lat="48.57419" lon="-3.13546">
        <ele>340</ele>
        <time>2016-04-03T14:45:47.1Z</time>
      </trkpt>
      <trkpt lat="48.57421" lon="-3.13549">
        <ele>341</ele>
        <time>2016-04-03T14:45:50.1Z</time>
      </trkpt>
      <trkpt lat="48.57423" lon="-3.1355">
        <ele>341</ele>
        <time>2016-04-03T14:45:52.1Z</time>
      </trkpt>
      <trkpt lat="48.57426" lon="-3.13552">
        <ele>341</ele>
        <time>2016-04-03T14:45:55.1Z</time>
      </trkpt>
      <trkpt lat="48.57429" lon="-3.13555">
        <ele>341</ele>
        <time>2016-04-03T14:45:58.1Z</time>
      </trkpt>
      <trkpt lat="48.57431" lon="-3.13557">
        <ele>341</ele>
        <time>2016-04-03T14:46:00.1Z</time>
      </trkpt>
      <trkpt lat="48.57433" lon="-3.13558">
        <ele>341</ele>
        <time>2016-04-03T14:46:02.1Z</time>
      </trkpt>
      <trkpt lat="48.57436" lon="-3.1356">
        <ele>341</ele>
        <time>2016-04-03T14:46:05.1Z</time>
      </trkpt>
      <trkpt lat="48.57438" lon="-3.13562">
        <ele>341</ele>
        <time>2016-04-03T14:46:07.1Z</time>
      </trkpt>
      <trkpt lat="48.5744" lon="-3.13564">
        <ele>341</ele>
        <time>2016-04-03T14:46:09.1Z</time>
      </trkpt>
      <trkpt lat="48.57443" lon="-3.13569">
        <ele>341</ele>
        <time>2016-04-03T14:46:12.1Z</time>
      </trkpt>
      <trkpt lat="48.57445" lon="-3.13572">
        <ele>341</ele>
        <time>2016-04-03T14:46:15.1Z</time>
      </trkpt>
      <trkpt lat="48.57447" lon="-3.13574">
        <ele>341</ele>
        <time>2016-04-03T14:46:17.1Z</time>
      </trkpt>
      <trkpt lat="48.57449" lon="-3.13576">
        <ele>341</ele>
        <time>2016-04-03T14:46:19.1Z</time>
      </trkpt>
      <trkpt lat="48.5745" lon="-3.13577">
        <ele>341</ele>
        <time>2016-04-03T14:46:21.1Z</time>
      </trkpt>
      <trkpt lat="48.57452" lon="-3.1358">
        <ele>341</ele>
        <time>2016-04-03T14:46:24.1Z</time>
      </trkpt>
      <trkpt lat="48.57455" lon="-3.13581">
        <ele>341</ele>
        <time>2016-04-03T14:46:27.1Z</time>
      </trkpt>
      <trkpt lat="48.57457" lon="-3.13583">
        <ele>341</ele>
        <time>2016-04-03T14:46:30.1Z</time>
      </trkpt>
      <trkpt lat="48.57459" lon="-3.13584">
        <ele>342</ele>
        <time>2016-04-03T14:46:33.1Z</time>
      </trkpt>
      <trkpt lat="48.57461" lon="-3.13586">
        <ele>342</ele>
        <time>2016-04-03T14:46:36.1Z</time>
      </trkpt>
      <trkpt lat="48.57461" lon="-3.13588">
        <ele>342</ele>
        <time>2016-04-03T14:46:39.1Z</time>
      </trkpt>
      <trkpt lat="48.57463" lon="-3.13591">
        <ele>342</ele>
        <time>2016-04-03T14:46:42.1Z</time>
      </trkpt>
      <trkpt lat="48.57465" lon="-3.13593">
        <ele>342</ele>
        <time>2016-04-03T14:46:44.1Z</time>
      </trkpt>
      <trkpt lat="48.57466" lon="-3.13594">
        <ele>342</ele>
        <time>2016-04-03T14:46:46.1Z</time>
      </trkpt>
      <trkpt lat="48.57467" lon="-3.13597">
        <ele>343</ele>
        <time>2016-04-03T14:46:49.1Z</time>
      </trkpt>
      <trkpt lat="48.57468" lon="-3.13598">
        <ele>343</ele>
        <time>2016-04-03T14:46:51.1Z</time>
      </trkpt>
      <trkpt lat="48.57468" lon="-3.136">
        <ele>343</ele>
        <time>2016-04-03T14:46:54.1Z</time>
      </trkpt>
      <trkpt lat="48.57469" lon="-3.136">
        <ele>343</ele>
        <time>2016-04-03T14:46:57.1Z</time>
      </trkpt>
      <trkpt lat="48.57469" lon="-3.136">
        <ele>343</ele>
        <time>2016-04-03T14:46:59.1Z</time>
      </trkpt>
      <trkpt lat="48.57469" lon="-3.136">
        <ele>343</ele>
        <time>2016-04-03T14:47:02.1Z</time>
      </trkpt>
      <trkpt lat="48.57469" lon="-3.136">
        <ele>342</ele>
        <time>2016-04-03T14:47:04.1Z</time>
      </trkpt>
      <trkpt lat="48.5747" lon="-3.136">
        <ele>343</ele>
        <time>2016-04-03T14:47:08.1Z</time>
      </trkpt>
      <trkpt lat="48.5747" lon="-3.13599">
        <ele>343</ele>
        <time>2016-04-03T14:47:11.1Z</time>
      </trkpt>
      <trkpt lat="48.5747" lon="-3.13599">
        <ele>343</ele>
        <time>2016-04-03T14:47:14.1Z</time>
      </trkpt>
      <trkpt lat="48.5747" lon="-3.13599">
        <ele>343</ele>
        <time>2016-04-03T14:47:16.1Z</time>
      </trkpt>
      <trkpt lat="48.5747" lon="-3.13598">
        <ele>343</ele>
        <time>2016-04-03T14:47:20.1Z</time>
      </trkpt>
      <trkpt lat="48.5747" lon="-3.13598">
        <ele>342</ele>
        <time>2016-04-03T14:47:22.1Z</time>
      </trkpt>
      <trkpt lat="48.5747" lon="-3.13597">
        <ele>343</ele>
        <time>2016-04-03T14:47:26.1Z</time>
      </trkpt>
      <trkpt lat="48.5747" lon="-3.13597">
        <ele>343</ele>
        <time>2016-04-03T14:47:28.1Z</time>
      </trkpt>
      <trkpt lat="48.5747" lon="-3.13597">
        <ele>343</ele>
        <time>2016-04-03T14:47:30.1Z</time>
      </trkpt>
      <trkpt lat="48.5747" lon="-3.13597">
        <ele>343</ele>
        <time>2016-04-03T14:47:34.1Z</time>
      </trkpt>
      <trkpt lat="48.5747" lon="-3.13597">
        <ele>342</ele>
        <time>2016-04-03T14:47:36.1Z</time>
      </trkpt>
      <trkpt lat="48.5747" lon="-3.13596">
        <ele>342</ele>
        <time>2016-04-03T14:47:39.1Z</time>
      </trkpt>
      <trkpt lat="48.57469" lon="-3.13596">
        <ele>342</ele>
        <time>2016-04-03T14:47:41.1Z</time>
      </trkpt>
      <trkpt lat="48.57469" lon="-3.13597">
        <ele>342</ele>
        <time>2016-04-03T14:47:44.1Z</time>
      </trkpt>
      <trkpt lat="48.5747" lon="-3.13597">
        <ele>342</ele>
        <time>2016-04-03T14:47:46.1Z</time>
      </trkpt>
      <trkpt lat="48.5747" lon="-3.13599">
        <ele>342</ele>
        <time>2016-04-03T14:47:48.1Z</time>
      </trkpt>
      <trkpt lat="48.57472" lon="-3.13602">
        <ele>342</ele>
        <time>2016-04-03T14:47:51.1Z</time>
      </trkpt>
      <trkpt lat="48.57475" lon="-3.13605">
        <ele>343</ele>
        <time>2016-04-03T14:47:54.1Z</time>
      </trkpt>
      <trkpt lat="48.57477" lon="-3.13605">
        <ele>343</ele>
        <time>2016-04-03T14:47:57.1Z</time>
      </trkpt>
      <trkpt lat="48.57479" lon="-3.13606">
        <ele>343</ele>
        <time>2016-04-03T14:47:59.1Z</time>
      </trkpt>
      <trkpt lat="48.57481" lon="-3.13607">
        <ele>343</ele>
        <time>2016-04-03T14:48:01.1Z</time>
      </trkpt>
      <trkpt lat="48.57483" lon="-3.13607">
        <ele>343</ele>
        <time>2016-04-03T14:48:03.1Z</time>
      </trkpt>
      <trkpt lat="48.57486" lon="-3.13607">
        <ele>343</ele>
        <time>2016-04-03T14:48:06.1Z</time>
      </trkpt>
      <trkpt lat="48.57487" lon="-3.13606">
        <ele>342</ele>
        <time>2016-04-03T14:48:08.1Z</time>
      </trkpt>
      <trkpt lat="48.57491" lon="-3.13606">
        <ele>342</ele>
        <time>2016-04-03T14:48:11.1Z</time>
      </trkpt>
      <trkpt lat="48.57493" lon="-3.13606">
        <ele>342</ele>
        <time>2016-04-03T14:48:13.1Z</time>
      </trkpt>
      <trkpt lat="48.57495" lon="-3.13605">
        <ele>342</ele>
        <time>2016-04-03T14:48:16.1Z</time>
      </trkpt>
      <trkpt lat="48.57497" lon="-3.13604">
        <ele>342</ele>
        <time>2016-04-03T14:48:18.1Z</time>
      </trkpt>
      <trkpt lat="48.575" lon="-3.13604">
        <ele>342</ele>
        <time>2016-04-03T14:48:21.1Z</time>
      </trkpt>
      <trkpt lat="48.57503" lon="-3.13603">
        <ele>342</ele>
        <time>2016-04-03T14:48:24.1Z</time>
      </trkpt>
      <trkpt lat="48.57505" lon="-3.13602">
        <ele>342</ele>
        <time>2016-04-03T14:48:26.1Z</time>
      </trkpt>
      <trkpt lat="48.57509" lon="-3.13601">
        <ele>342</ele>
        <time>2016-04-03T14:48:29.1Z</time>
      </trkpt>
      <trkpt lat="48.57511" lon="-3.136">
        <ele>342</ele>
        <time>2016-04-03T14:48:31.1Z</time>
      </trkpt>
      <trkpt lat="48.57513" lon="-3.136">
        <ele>342</ele>
        <time>2016-04-03T14:48:33.1Z</time>
      </trkpt>
      <trkpt lat="48.57515" lon="-3.13599">
        <ele>342</ele>
        <time>2016-04-03T14:48:35.1Z</time>
      </trkpt>
      <trkpt lat="48.57518" lon="-3.13597">
        <ele>342</ele>
        <time>2016-04-03T14:48:38.1Z</time>
      </trkpt>
      <trkpt lat="48.57521" lon="-3.13597">
        <ele>342</ele>
        <time>2016-04-03T14:48:40.1Z</time>
      </trkpt>
      <trkpt lat="48.57524" lon="-3.13596">
        <ele>342</ele>
        <time>2016-04-03T14:48:43.1Z</time>
      </trkpt>
      <trkpt lat="48.57526" lon="-3.13595">
        <ele>342</ele>
        <time>2016-04-03T14:48:45.1Z</time>
      </trkpt>
      <trkpt lat="48.57529" lon="-3.13594">
        <ele>342</ele>
        <time>2016-04-03T14:48:48.1Z</time>
      </trkpt>
      <trkpt lat="48.57533" lon="-3.13592">
        <ele>342</ele>
        <time>2016-04-03T14:48:51.1Z</time>
      </trkpt>
      <trkpt lat="48.57535" lon="-3.13591">
        <ele>342</ele>
        <time>2016-04-03T14:48:53.1Z</time>
      </trkpt>
      <trkpt lat="48.57537" lon="-3.1359">
        <ele>342</ele>
        <time>2016-04-03T14:48:55.1Z</time>
      </trkpt>
      <trkpt lat="48.5754" lon="-3.13589">
        <ele>342</ele>
        <time>2016-04-03T14:48:57.1Z</time>
      </trkpt>
      <trkpt lat="48.57542" lon="-3.13588">
        <ele>342</ele>
        <time>2016-04-03T14:48:59.1Z</time>
      </trkpt>
      <trkpt lat="48.57545" lon="-3.13587">
        <ele>342</ele>
        <time>2016-04-03T14:49:02.1Z</time>
      </trkpt>
      <trkpt lat="48.57548" lon="-3.13585">
        <ele>342</ele>
        <time>2016-04-03T14:49:05.1Z</time>
      </trkpt>
      <trkpt lat="48.57551" lon="-3.13584">
        <ele>342</ele>
        <time>2016-04-03T14:49:07.1Z</time>
      </trkpt>
      <trkpt lat="48.57554" lon="-3.13583">
        <ele>342</ele>
        <time>2016-04-03T14:49:10.1Z</time>
      </trkpt>
      <trkpt lat="48.57556" lon="-3.13582">
        <ele>342</ele>
        <time>2016-04-03T14:49:12.1Z</time>
      </trkpt>
      <trkpt lat="48.5756" lon="-3.1358">
        <ele>342</ele>
        <time>2016-04-03T14:49:15.1Z</time>
      </trkpt>
      <trkpt lat="48.57563" lon="-3.13578">
        <ele>342</ele>
        <time>2016-04-03T14:49:18.1Z</time>
      </trkpt>
      <trkpt lat="48.57565" lon="-3.13578">
        <ele>342</ele>
        <time>2016-04-03T14:49:20.1Z</time>
      </trkpt>
      <trkpt lat="48.57566" lon="-3.13577">
        <ele>342</ele>
        <time>2016-04-03T14:49:22.1Z</time>
      </trkpt>
      <trkpt lat="48.5757" lon="-3.13576">
        <ele>342</ele>
        <time>2016-04-03T14:49:25.1Z</time>
      </trkpt>
      <trkpt lat="48.57573" lon="-3.13575">
        <ele>342</ele>
        <time>2016-04-03T14:49:28.1Z</time>
      </trkpt>
      <trkpt lat="48.57575" lon="-3.13574">
        <ele>343</ele>
        <time>2016-04-03T14:49:31.1Z</time>
      </trkpt>
      <trkpt lat="48.57578" lon="-3.13573">
        <ele>342</ele>
        <time>2016-04-03T14:49:33.1Z</time>
      </trkpt>
      <trkpt lat="48.57581" lon="-3.13573">
        <ele>343</ele>
        <time>2016-04-03T14:49:36.1Z</time>
      </trkpt>
      <trkpt lat="48.57584" lon="-3.13573">
        <ele>343</ele>
        <time>2016-04-03T14:49:39.1Z</time>
      </trkpt>
      <trkpt lat="48.57586" lon="-3.13573">
        <ele>343</ele>
        <time>2016-04-03T14:49:41.1Z</time>
      </trkpt>
      <trkpt lat="48.57589" lon="-3.13573">
        <ele>342</ele>
        <time>2016-04-03T14:49:44.1Z</time>
      </trkpt>
      <trkpt lat="48.57593" lon="-3.13574">
        <ele>342</ele>
        <time>2016-04-03T14:49:47.1Z</time>
      </trkpt>
      <trkpt lat="48.57595" lon="-3.13574">
        <ele>342</ele>
        <time>2016-04-03T14:49:49.1Z</time>
      </trkpt>
      <trkpt lat="48.57597" lon="-3.13574">
        <ele>342</ele>
        <time>2016-04-03T14:49:51.1Z</time>
      </trkpt>
      <trkpt lat="48.57599" lon="-3.13574">
        <ele>342</ele>
        <time>2016-04-03T14:49:53.1Z</time>
      </trkpt>
      <trkpt lat="48.57602" lon="-3.13575">
        <ele>342</ele>
        <time>2016-04-03T14:49:55.1Z</time>
      </trkpt>
      <trkpt lat="48.57603" lon="-3.13574">
        <ele>342</ele>
        <time>2016-04-03T14:49:57.1Z</time>
      </trkpt>
      <trkpt lat="48.57607" lon="-3.13575">
        <ele>342</ele>
        <time>2016-04-03T14:50:00.1Z</time>
      </trkpt>
      <trkpt lat="48.57609" lon="-3.13575">
        <ele>342</ele>
        <time>2016-04-03T14:50:02.1Z</time>
      </trkpt>
      <trkpt lat="48.57611" lon="-3.13575">
        <ele>343</ele>
        <time>2016-04-03T14:50:04.1Z</time>
      </trkpt>
      <trkpt lat="48.57613" lon="-3.13576">
        <ele>343</ele>
        <time>2016-04-03T14:50:06.1Z</time>
      </trkpt>
      <trkpt lat="48.57616" lon="-3.13576">
        <ele>343</ele>
        <time>2016-04-03T14:50:08.1Z</time>
      </trkpt>
      <trkpt lat="48.57618" lon="-3.13577">
        <ele>343</ele>
        <time>2016-04-03T14:50:10.1Z</time>
      </trkpt>
      <trkpt lat="48.57621" lon="-3.13577">
        <ele>342</ele>
        <time>2016-04-03T14:50:12.1Z</time>
      </trkpt>
      <trkpt lat="48.57623" lon="-3.13578">
        <ele>342</ele>
        <time>2016-04-03T14:50:14.1Z</time>
      </trkpt>
      <trkpt lat="48.57626" lon="-3.1358">
        <ele>342</ele>
        <time>2016-04-03T14:50:16.1Z</time>
      </trkpt>
      <trkpt lat="48.57629" lon="-3.13581">
        <ele>342</ele>
        <time>2016-04-03T14:50:19.1Z</time>
      </trkpt>
      <trkpt lat="48.57633" lon="-3.13583">
        <ele>342</ele>
        <time>2016-04-03T14:50:22.1Z</time>
      </trkpt>
      <trkpt lat="48.57637" lon="-3.13585">
        <ele>342</ele>
        <time>2016-04-03T14:50:25.1Z</time>
      </trkpt>
      <trkpt lat="48.57639" lon="-3.13586">
        <ele>342</ele>
        <time>2016-04-03T14:50:27.1Z</time>
      </trkpt>
      <trkpt lat="48.57642" lon="-3.13588">
        <ele>342</ele>
        <time>2016-04-03T14:50:29.1Z</time>
      </trkpt>
      <trkpt lat="48.57645" lon="-3.13589">
        <ele>342</ele>
        <time>2016-04-03T14:50:32.1Z</time>
      </trkpt>
      <trkpt lat="48.57648" lon="-3.1359">
        <ele>342</ele>
        <time>2016-04-03T14:50:35.1Z</time>
      </trkpt>
      <trkpt lat="48.57651" lon="-3.13591">
        <ele>342</ele>
        <time>2016-04-03T14:50:38.1Z</time>
      </trkpt>
      <trkpt lat="48.57654" lon="-3.13593">
        <ele>342</ele>
        <time>2016-04-03T14:50:40.1Z</time>
      </trkpt>
      <trkpt lat="48.57658" lon="-3.13596">
        <ele>342</ele>
        <time>2016-04-03T14:50:43.1Z</time>
      </trkpt>
      <trkpt lat="48.57662" lon="-3.13597">
        <ele>342</ele>
        <time>2016-04-03T14:50:46.1Z</time>
      </trkpt>
      <trkpt lat="48.57665" lon="-3.13598">
        <ele>342</ele>
        <time>2016-04-03T14:50:49.1Z</time>
      </trkpt>
      <trkpt lat="48.57669" lon="-3.136">
        <ele>342</ele>
        <time>2016-04-03T14:50:52.1Z</time>
      </trkpt>
      <trkpt lat="48.57672" lon="-3.136">
        <ele>342</ele>
        <time>2016-04-03T14:50:55.1Z</time>
      </trkpt>
      <trkpt lat="48.57676" lon="-3.13601">
        <ele>342</ele>
        <time>2016-04-03T14:50:58.1Z</time>
      </trkpt>
      <trkpt lat="48.57677" lon="-3.13601">
        <ele>343</ele>
        <time>2016-04-03T14:51:00.1Z</time>
      </trkpt>
      <trkpt lat="48.57681" lon="-3.13602">
        <ele>342</ele>
        <time>2016-04-03T14:51:03.1Z</time>
      </trkpt>
      <trkpt lat="48.57684" lon="-3.13603">
        <ele>342</ele>
        <time>2016-04-03T14:51:05.1Z</time>
      </trkpt>
      <trkpt lat="48.57687" lon="-3.13604">
        <ele>342</ele>
        <time>2016-04-03T14:51:08.1Z</time>
      </trkpt>
      <trkpt lat="48.57689" lon="-3.13604">
        <ele>341</ele>
        <time>2016-04-03T14:51:10.1Z</time>
      </trkpt>
      <trkpt lat="48.57692" lon="-3.13605">
        <ele>341</ele>
        <time>2016-04-03T14:51:12.1Z</time>
      </trkpt>
      <trkpt lat="48.57695" lon="-3.13606">
        <ele>341</ele>
        <time>2016-04-03T14:51:15.1Z</time>
      </trkpt>
      <trkpt lat="48.57699" lon="-3.13606">
        <ele>341</ele>
        <time>2016-04-03T14:51:18.1Z</time>
      </trkpt>
      <trkpt lat="48.577" lon="-3.13607">
        <ele>341</ele>
        <time>2016-04-03T14:51:20.1Z</time>
      </trkpt>
      <trkpt lat="48.57702" lon="-3.13607">
        <ele>341</ele>
        <time>2016-04-03T14:51:23.1Z</time>
      </trkpt>
      <trkpt lat="48.57702" lon="-3.13608">
        <ele>341</ele>
        <time>2016-04-03T14:51:26.1Z</time>
      </trkpt>
      <trkpt lat="48.57705" lon="-3.13611">
        <ele>342</ele>
        <time>2016-04-03T14:51:29.1Z</time>
      </trkpt>
      <trkpt lat="48.57707" lon="-3.13613">
        <ele>342</ele>
        <time>2016-04-03T14:51:32.1Z</time>
      </trkpt>
      <trkpt lat="48.57711" lon="-3.13614">
        <ele>342</ele>
        <time>2016-04-03T14:51:35.1Z</time>
      </trkpt>
      <trkpt lat="48.57712" lon="-3.13615">
        <ele>342</ele>
        <time>2016-04-03T14:51:37.1Z</time>
      </trkpt>
      <trkpt lat="48.57716" lon="-3.13615">
        <ele>342</ele>
        <time>2016-04-03T14:51:40.1Z</time>
      </trkpt>
      <trkpt lat="48.57718" lon="-3.13615">
        <ele>342</ele>
        <time>2016-04-03T14:51:42.1Z</time>
      </trkpt>
      <trkpt lat="48.5772" lon="-3.13615">
        <ele>342</ele>
        <time>2016-04-03T14:51:44.1Z</time>
      </trkpt>
      <trkpt lat="48.57722" lon="-3.13616">
        <ele>342</ele>
        <time>2016-04-03T14:51:46.1Z</time>
      </trkpt>
      <trkpt lat="48.57725" lon="-3.13615">
        <ele>342</ele>
        <time>2016-04-03T14:51:49.1Z</time>
      </trkpt>
      <trkpt lat="48.57727" lon="-3.13615">
        <ele>341</ele>
        <time>2016-04-03T14:51:51.1Z</time>
      </trkpt>
      <trkpt lat="48.57731" lon="-3.13615">
        <ele>341</ele>
        <time>2016-04-03T14:51:54.1Z</time>
      </trkpt>
      <trkpt lat="48.57733" lon="-3.13615">
        <ele>341</ele>
        <time>2016-04-03T14:51:56.1Z</time>
      </trkpt>
      <trkpt lat="48.57736" lon="-3.13614">
        <ele>341</ele>
        <time>2016-04-03T14:51:59.1Z</time>
      </trkpt>
      <trkpt lat="48.57738" lon="-3.13615">
        <ele>341</ele>
        <time>2016-04-03T14:52:01.1Z</time>
      </trkpt>
      <trkpt lat="48.57742" lon="-3.13615">
        <ele>341</ele>
        <time>2016-04-03T14:52:04.1Z</time>
      </trkpt>
      <trkpt lat="48.57744" lon="-3.13615">
        <ele>341</ele>
        <time>2016-04-03T14:52:06.1Z</time>
      </trkpt>
      <trkpt lat="48.57748" lon="-3.13616">
        <ele>341</ele>
        <time>2016-04-03T14:52:09.1Z</time>
      </trkpt>
      <trkpt lat="48.57751" lon="-3.13617">
        <ele>341</ele>
        <time>2016-04-03T14:52:12.1Z</time>
      </trkpt>
      <trkpt lat="48.57753" lon="-3.13617">
        <ele>341</ele>
        <time>2016-04-03T14:52:14.1Z</time>
      </trkpt>
      <trkpt lat="48.57756" lon="-3.13617">
        <ele>341</ele>
        <time>2016-04-03T14:52:17.1Z</time>
      </trkpt>
      <trkpt lat="48.57758" lon="-3.13617">
        <ele>340</ele>
        <time>2016-04-03T14:52:19.1Z</time>
      </trkpt>
      <trkpt lat="48.57759" lon="-3.13618">
        <ele>341</ele>
        <time>2016-04-03T14:52:21.1Z</time>
      </trkpt>
      <trkpt lat="48.57762" lon="-3.13619">
        <ele>340</ele>
        <time>2016-04-03T14:52:24.1Z</time>
      </trkpt>
      <trkpt lat="48.57764" lon="-3.1362">
        <ele>341</ele>
        <time>2016-04-03T14:52:27.1Z</time>
      </trkpt>
      <trkpt lat="48.57765" lon="-3.1362">
        <ele>341</ele>
        <time>2016-04-03T14:52:30.1Z</time>
      </trkpt>
      <trkpt lat="48.57766" lon="-3.1362">
        <ele>342</ele>
        <time>2016-04-03T14:52:32.1Z</time>
      </trkpt>
      <trkpt lat="48.57769" lon="-3.13621">
        <ele>341</ele>
        <time>2016-04-03T14:52:35.1Z</time>
      </trkpt>
      <trkpt lat="48.57771" lon="-3.13623">
        <ele>341</ele>
        <time>2016-04-03T14:52:37.1Z</time>
      </trkpt>
      <trkpt lat="48.57773" lon="-3.13624">
        <ele>342</ele>
        <time>2016-04-03T14:52:39.1Z</time>
      </trkpt>
      <trkpt lat="48.57775" lon="-3.13625">
        <ele>342</ele>
        <time>2016-04-03T14:52:41.1Z</time>
      </trkpt>
      <trkpt lat="48.57778" lon="-3.13627">
        <ele>342</ele>
        <time>2016-04-03T14:52:44.1Z</time>
      </trkpt>
      <trkpt lat="48.57779" lon="-3.13629">
        <ele>342</ele>
        <time>2016-04-03T14:52:46.1Z</time>
      </trkpt>
      <trkpt lat="48.57782" lon="-3.13631">
        <ele>342</ele>
        <time>2016-04-03T14:52:49.1Z</time>
      </trkpt>
      <trkpt lat="48.57786" lon="-3.13632">
        <ele>342</ele>
        <time>2016-04-03T14:52:52.1Z</time>
      </trkpt>
      <trkpt lat="48.57788" lon="-3.13633">
        <ele>342</ele>
        <time>2016-04-03T14:52:54.1Z</time>
      </trkpt>
      <trkpt lat="48.5779" lon="-3.13634">
        <ele>342</ele>
        <time>2016-04-03T14:52:56.1Z</time>
      </trkpt>
      <trkpt lat="48.57793" lon="-3.13635">
        <ele>342</ele>
        <time>2016-04-03T14:52:59.1Z</time>
      </trkpt>
      <trkpt lat="48.57796" lon="-3.13636">
        <ele>342</ele>
        <time>2016-04-03T14:53:02.1Z</time>
      </trkpt>
      <trkpt lat="48.578" lon="-3.13637">
        <ele>342</ele>
        <time>2016-04-03T14:53:05.1Z</time>
      </trkpt>
      <trkpt lat="48.57801" lon="-3.13638">
        <ele>342</ele>
        <time>2016-04-03T14:53:07.1Z</time>
      </trkpt>
      <trkpt lat="48.57804" lon="-3.13639">
        <ele>342</ele>
        <time>2016-04-03T14:53:10.1Z</time>
      </trkpt>
      <trkpt lat="48.57806" lon="-3.1364">
        <ele>342</ele>
        <time>2016-04-03T14:53:12.1Z</time>
      </trkpt>
      <trkpt lat="48.57809" lon="-3.13641">
        <ele>342</ele>
        <time>2016-04-03T14:53:15.1Z</time>
      </trkpt>
      <trkpt lat="48.57811" lon="-3.13642">
        <ele>342</ele>
        <time>2016-04-03T14:53:17.1Z</time>
      </trkpt>
      <trkpt lat="48.57814" lon="-3.13642">
        <ele>342</ele>
        <time>2016-04-03T14:53:20.1Z</time>
      </trkpt>
      <trkpt lat="48.57817" lon="-3.13642">
        <ele>342</ele>
        <time>2016-04-03T14:53:23.1Z</time>
      </trkpt>
      <trkpt lat="48.57819" lon="-3.13643">
        <ele>342</ele>
        <time>2016-04-03T14:53:25.1Z</time>
      </trkpt>
      <trkpt lat="48.57822" lon="-3.13643">
        <ele>342</ele>
        <time>2016-04-03T14:53:28.1Z</time>
      </trkpt>
      <trkpt lat="48.57824" lon="-3.13644">
        <ele>342</ele>
        <time>2016-04-03T14:53:30.1Z</time>
      </trkpt>
      <trkpt lat="48.57828" lon="-3.13644">
        <ele>342</ele>
        <time>2016-04-03T14:53:33.1Z</time>
      </trkpt>
      <trkpt lat="48.5783" lon="-3.13644">
        <ele>341</ele>
        <time>2016-04-03T14:53:35.1Z</time>
      </trkpt>
      <trkpt lat="48.57832" lon="-3.13644">
        <ele>341</ele>
        <time>2016-04-03T14:53:37.1Z</time>
      </trkpt>
      <trkpt lat="48.57836" lon="-3.13645">
        <ele>341</ele>
        <time>2016-04-03T14:53:40.1Z</time>
      </trkpt>
      <trkpt lat="48.57838" lon="-3.13644">
        <ele>341</ele>
        <time>2016-04-03T14:53:42.1Z</time>
      </trkpt>
      <trkpt lat="48.57842" lon="-3.13644">
        <ele>341</ele>
        <time>2016-04-03T14:53:45.1Z</time>
      </trkpt>
      <trkpt lat="48.57844" lon="-3.13644">
        <ele>341</ele>
        <time>2016-04-03T14:53:47.1Z</time>
      </trkpt>
      <trkpt lat="48.57846" lon="-3.13644">
        <ele>341</ele>
        <time>2016-04-03T14:53:49.1Z</time>
      </trkpt>
      <trkpt lat="48.57849" lon="-3.13644">
        <ele>341</ele>
        <time>2016-04-03T14:53:51.1Z</time>
      </trkpt>
      <trkpt lat="48.57853" lon="-3.13644">
        <ele>341</ele>
        <time>2016-04-03T14:53:54.1Z</time>
      </trkpt>
      <trkpt lat="48.57855" lon="-3.13644">
        <ele>341</ele>
        <time>2016-04-03T14:53:56.1Z</time>
      </trkpt>
      <trkpt lat="48.57859" lon="-3.13644">
        <ele>341</ele>
        <time>2016-04-03T14:53:59.1Z</time>
      </trkpt>
      <trkpt lat="48.57861" lon="-3.13644">
        <ele>341</ele>
        <time>2016-04-03T14:54:01.1Z</time>
      </trkpt>
      <trkpt lat="48.57863" lon="-3.13644">
        <ele>342</ele>
        <time>2016-04-03T14:54:03.1Z</time>
      </trkpt>
      <trkpt lat="48.57866" lon="-3.13644">
        <ele>342</ele>
        <time>2016-04-03T14:54:05.1Z</time>
      </trkpt>
      <trkpt lat="48.57869" lon="-3.13644">
        <ele>342</ele>
        <time>2016-04-03T14:54:08.1Z</time>
      </trkpt>
      <trkpt lat="48.57871" lon="-3.13644">
        <ele>342</ele>
        <time>2016-04-03T14:54:10.1Z</time>
      </trkpt>
      <trkpt lat="48.57875" lon="-3.13645">
        <ele>341</ele>
        <time>2016-04-03T14:54:13.1Z</time>
      </trkpt>
      <trkpt lat="48.57877" lon="-3.13645">
        <ele>341</ele>
        <time>2016-04-03T14:54:15.1Z</time>
      </trkpt>
      <trkpt lat="48.5788" lon="-3.13646">
        <ele>341</ele>
        <time>2016-04-03T14:54:18.1Z</time>
      </trkpt>
      <trkpt lat="48.57883" lon="-3.13646">
        <ele>341</ele>
        <time>2016-04-03T14:54:21.1Z</time>
      </trkpt>
      <trkpt lat="48.57887" lon="-3.13647">
        <ele>342</ele>
        <time>2016-04-03T14:54:24.1Z</time>
      </trkpt>
      <trkpt lat="48.57889" lon="-3.13647">
        <ele>342</ele>
        <time>2016-04-03T14:54:26.1Z</time>
      </trkpt>
      <trkpt lat="48.57892" lon="-3.13648">
        <ele>342</ele>
        <time>2016-04-03T14:54:29.1Z</time>
      </trkpt>
      <trkpt lat="48.57896" lon="-3.13648">
        <ele>342</ele>
        <time>2016-04-03T14:54:32.1Z</time>
      </trkpt>
      <trkpt lat="48.57897" lon="-3.13649">
        <ele>341</ele>
        <time>2016-04-03T14:54:34.1Z</time>
      </trkpt>
      <trkpt lat="48.57899" lon="-3.13649">
        <ele>341</ele>
        <time>2016-04-03T14:54:36.1Z</time>
      </trkpt>
      <trkpt lat="48.57902" lon="-3.1365">
        <ele>341</ele>
        <time>2016-04-03T14:54:39.1Z</time>
      </trkpt>
      <trkpt lat="48.57904" lon="-3.13651">
        <ele>341</ele>
        <time>2016-04-03T14:54:41.1Z</time>
      </trkpt>
      <trkpt lat="48.57907" lon="-3.13652">
        <ele>341</ele>
        <time>2016-04-03T14:54:43.1Z</time>
      </trkpt>
      <trkpt lat="48.5791" lon="-3.13653">
        <ele>341</ele>
        <time>2016-04-03T14:54:46.1Z</time>
      </trkpt>
      <trkpt lat="48.57914" lon="-3.13655">
        <ele>341</ele>
        <time>2016-04-03T14:54:49.1Z</time>
      </trkpt>
      <trkpt lat="48.57916" lon="-3.13656">
        <ele>341</ele>
        <time>2016-04-03T14:54:51.1Z</time>
      </trkpt>
      <trkpt lat="48.5792" lon="-3.13657">
        <ele>341</ele>
        <time>2016-04-03T14:54:54.1Z</time>
      </trkpt>
      <trkpt lat="48.57922" lon="-3.13659">
        <ele>341</ele>
        <time>2016-04-03T14:54:56.1Z</time>
      </trkpt>
      <trkpt lat="48.57926" lon="-3.13661">
        <ele>341</ele>
        <time>2016-04-03T14:54:59.1Z</time>
      </trkpt>
      <trkpt lat="48.57928" lon="-3.13661">
        <ele>341</ele>
        <time>2016-04-03T14:55:01.1Z</time>
      </trkpt>
      <trkpt lat="48.5793" lon="-3.13663">
        <ele>341</ele>
        <time>2016-04-03T14:55:04.1Z</time>
      </trkpt>
      <trkpt lat="48.57932" lon="-3.13663">
        <ele>341</ele>
        <time>2016-04-03T14:55:06.1Z</time>
      </trkpt>
      <trkpt lat="48.57935" lon="-3.13665">
        <ele>341</ele>
        <time>2016-04-03T14:55:09.1Z</time>
      </trkpt>
      <trkpt lat="48.57938" lon="-3.13667">
        <ele>341</ele>
        <time>2016-04-03T14:55:12.1Z</time>
      </trkpt>
      <trkpt lat="48.5794" lon="-3.13668">
        <ele>341</ele>
        <time>2016-04-03T14:55:14.1Z</time>
      </trkpt>
      <trkpt lat="48.57943" lon="-3.13669">
        <ele>341</ele>
        <time>2016-04-03T14:55:17.1Z</time>
      </trkpt>
      <trkpt lat="48.57946" lon="-3.1367">
        <ele>341</ele>
        <time>2016-04-03T14:55:19.1Z</time>
      </trkpt>
      <trkpt lat="48.57948" lon="-3.13671">
        <ele>341</ele>
        <time>2016-04-03T14:55:21.1Z</time>
      </trkpt>
      <trkpt lat="48.5795" lon="-3.13673">
        <ele>341</ele>
        <time>2016-04-03T14:55:24.1Z</time>
      </trkpt>
      <trkpt lat="48.57953" lon="-3.13675">
        <ele>341</ele>
        <time>2016-04-03T14:55:27.1Z</time>
      </trkpt>
      <trkpt lat="48.57957" lon="-3.13677">
        <ele>341</ele>
        <time>2016-04-03T14:55:30.1Z</time>
      </trkpt>
      <trkpt lat="48.5796" lon="-3.13679">
        <ele>341</ele>
        <time>2016-04-03T14:55:33.1Z</time>
      </trkpt>
      <trkpt lat="48.57964" lon="-3.13681">
        <ele>341</ele>
        <time>2016-04-03T14:55:36.1Z</time>
      </trkpt>
      <trkpt lat="48.57967" lon="-3.13683">
        <ele>341</ele>
        <time>2016-04-03T14:55:39.1Z</time>
      </trkpt>
      <trkpt lat="48.5797" lon="-3.13685">
        <ele>341</ele>
        <time>2016-04-03T14:55:41.1Z</time>
      </trkpt>
      <trkpt lat="48.57973" lon="-3.13687">
        <ele>341</ele>
        <time>2016-04-03T14:55:44.1Z</time>
      </trkpt>
      <trkpt lat="48.57975" lon="-3.13688">
        <ele>341</ele>
        <time>2016-04-03T14:55:46.1Z</time>
      </trkpt>
      <trkpt lat="48.57977" lon="-3.13689">
        <ele>341</ele>
        <time>2016-04-03T14:55:48.1Z</time>
      </trkpt>
      <trkpt lat="48.5798" lon="-3.13691">
        <ele>341</ele>
        <time>2016-04-03T14:55:51.1Z</time>
      </trkpt>
      <trkpt lat="48.57984" lon="-3.13693">
        <ele>341</ele>
        <time>2016-04-03T14:55:54.1Z</time>
      </trkpt>
      <trkpt lat="48.57986" lon="-3.13695">
        <ele>340</ele>
        <time>2016-04-03T14:55:56.1Z</time>
      </trkpt>
      <trkpt lat="48.57988" lon="-3.13696">
        <ele>341</ele>
        <time>2016-04-03T14:55:58.1Z</time>
      </trkpt>
      <trkpt lat="48.57991" lon="-3.13698">
        <ele>340</ele>
        <time>2016-04-03T14:56:00.1Z</time>
      </trkpt>
      <trkpt lat="48.57993" lon="-3.13699">
        <ele>340</ele>
        <time>2016-04-03T14:56:02.1Z</time>
      </trkpt>
      <trkpt lat="48.57996" lon="-3.13701">
        <ele>340</ele>
        <time>2016-04-03T14:56:05.1Z</time>
      </trkpt>
      <trkpt lat="48.57998" lon="-3.13702">
        <ele>340</ele>
        <time>2016-04-03T14:56:07.1Z</time>
      </trkpt>
      <trkpt lat="48.58001" lon="-3.13704">
        <ele>340</ele>
        <time>2016-04-03T14:56:10.1Z</time>
      </trkpt>
      <trkpt lat="48.58004" lon="-3.13706">
        <ele>340</ele>
        <time>2016-04-03T14:56:12.1Z</time>
      </trkpt>
      <trkpt lat="48.58007" lon="-3.13708">
        <ele>341</ele>
        <time>2016-04-03T14:56:15.1Z</time>
      </trkpt>
      <trkpt lat="48.58011" lon="-3.1371">
        <ele>341</ele>
        <time>2016-04-03T14:56:18.1Z</time>
      </trkpt>
      <trkpt lat="48.58014" lon="-3.13713">
        <ele>341</ele>
        <time>2016-04-03T14:56:21.1Z</time>
      </trkpt>
      <trkpt lat="48.58017" lon="-3.13715">
        <ele>341</ele>
        <time>2016-04-03T14:56:23.1Z</time>
      </trkpt>
      <trkpt lat="48.5802" lon="-3.13717">
        <ele>340</ele>
        <time>2016-04-03T14:56:26.1Z</time>
      </trkpt>
      <trkpt lat="48.58022" lon="-3.13718">
        <ele>340</ele>
        <time>2016-04-03T14:56:28.1Z</time>
      </trkpt>
      <trkpt lat="48.58025" lon="-3.1372">
        <ele>340</ele>
        <time>2016-04-03T14:56:31.1Z</time>
      </trkpt>
      <trkpt lat="48.58028" lon="-3.13722">
        <ele>340</ele>
        <time>2016-04-03T14:56:34.1Z</time>
      </trkpt>
      <trkpt lat="48.58029" lon="-3.13723">
        <ele>340</ele>
        <time>2016-04-03T14:56:36.1Z</time>
      </trkpt>
      <trkpt lat="48.58031" lon="-3.13724">
        <ele>340</ele>
        <time>2016-04-03T14:56:39.1Z</time>
      </trkpt>
      <trkpt lat="48.58034" lon="-3.13726">
        <ele>340</ele>
        <time>2016-04-03T14:56:41.1Z</time>
      </trkpt>
      <trkpt lat="48.58035" lon="-3.13727">
        <ele>340</ele>
        <time>2016-04-03T14:56:43.1Z</time>
      </trkpt>
      <trkpt lat="48.58038" lon="-3.13729">
        <ele>340</ele>
        <time>2016-04-03T14:56:45.1Z</time>
      </trkpt>
      <trkpt lat="48.58039" lon="-3.1373">
        <ele>340</ele>
        <time>2016-04-03T14:56:47.1Z</time>
      </trkpt>
      <trkpt lat="48.58041" lon="-3.13732">
        <ele>340</ele>
        <time>2016-04-03T14:56:49.1Z</time>
      </trkpt>
      <trkpt lat="48.58044" lon="-3.13733">
        <ele>341</ele>
        <time>2016-04-03T14:56:51.1Z</time>
      </trkpt>
      <trkpt lat="48.58047" lon="-3.13735">
        <ele>341</ele>
        <time>2016-04-03T14:56:54.1Z</time>
      </trkpt>
      <trkpt lat="48.58049" lon="-3.13737">
        <ele>341</ele>
        <time>2016-04-03T14:56:56.1Z</time>
      </trkpt>
      <trkpt lat="48.58051" lon="-3.13738">
        <ele>341</ele>
        <time>2016-04-03T14:56:58.1Z</time>
      </trkpt>
      <trkpt lat="48.58054" lon="-3.13741">
        <ele>341</ele>
        <time>2016-04-03T14:57:01.1Z</time>
      </trkpt>
      <trkpt lat="48.58058" lon="-3.13743">
        <ele>341</ele>
        <time>2016-04-03T14:57:04.1Z</time>
      </trkpt>
      <trkpt lat="48.5806" lon="-3.13744">
        <ele>341</ele>
        <time>2016-04-03T14:57:06.1Z</time>
      </trkpt>
      <trkpt lat="48.58064" lon="-3.13744">
        <ele>341</ele>
        <time>2016-04-03T14:57:09.1Z</time>
      </trkpt>
      <trkpt lat="48.58068" lon="-3.13744">
        <ele>341</ele>
        <time>2016-04-03T14:57:12.1Z</time>
      </trkpt>
      <trkpt lat="48.5807" lon="-3.13743">
        <ele>341</ele>
        <time>2016-04-03T14:57:14.1Z</time>
      </trkpt>
      <trkpt lat="48.58072" lon="-3.13743">
        <ele>341</ele>
        <time>2016-04-03T14:57:16.1Z</time>
      </trkpt>
      <trkpt lat="48.58075" lon="-3.13743">
        <ele>341</ele>
        <time>2016-04-03T14:57:19.1Z</time>
      </trkpt>
      <trkpt lat="48.58078" lon="-3.13743">
        <ele>341</ele>
        <time>2016-04-03T14:57:21.1Z</time>
      </trkpt>
      <trkpt lat="48.5808" lon="-3.13743">
        <ele>340</ele>
        <time>2016-04-03T14:57:23.1Z</time>
      </trkpt>
      <trkpt lat="48.58083" lon="-3.13742">
        <ele>340</ele>
        <time>2016-04-03T14:57:26.1Z</time>
      </trkpt>
      <trkpt lat="48.58086" lon="-3.13742">
        <ele>340</ele>
        <time>2016-04-03T14:57:28.1Z</time>
      </trkpt>
      <trkpt lat="48.58089" lon="-3.13739">
        <ele>340</ele>
        <time>2016-04-03T14:57:31.1Z</time>
      </trkpt>
      <trkpt lat="48.58091" lon="-3.13737">
        <ele>340</ele>
        <time>2016-04-03T14:57:33.1Z</time>
      </trkpt>
      <trkpt lat="48.58093" lon="-3.13734">
        <ele>340</ele>
        <time>2016-04-03T14:57:36.1Z</time>
      </trkpt>
      <trkpt lat="48.58095" lon="-3.1373">
        <ele>340</ele>
        <time>2016-04-03T14:57:39.1Z</time>
      </trkpt>
      <trkpt lat="48.58096" lon="-3.13727">
        <ele>340</ele>
        <time>2016-04-03T14:57:41.1Z</time>
      </trkpt>
      <trkpt lat="48.58098" lon="-3.13722">
        <ele>339</ele>
        <time>2016-04-03T14:57:44.1Z</time>
      </trkpt>
      <trkpt lat="48.58099" lon="-3.13719">
        <ele>339</ele>
        <time>2016-04-03T14:57:46.1Z</time>
      </trkpt>
      <trkpt lat="48.581" lon="-3.13715">
        <ele>339</ele>
        <time>2016-04-03T14:57:49.1Z</time>
      </trkpt>
      <trkpt lat="48.58101" lon="-3.13712">
        <ele>339</ele>
        <time>2016-04-03T14:57:51.1Z</time>
      </trkpt>
      <trkpt lat="48.58103" lon="-3.1371">
        <ele>339</ele>
        <time>2016-04-03T14:57:54.1Z</time>
      </trkpt>
      <trkpt lat="48.58104" lon="-3.13708">
        <ele>339</ele>
        <time>2016-04-03T14:57:56.1Z</time>
      </trkpt>
      <trkpt lat="48.58106" lon="-3.13704">
        <ele>339</ele>
        <time>2016-04-03T14:57:59.1Z</time>
      </trkpt>
      <trkpt lat="48.58108" lon="-3.13699">
        <ele>339</ele>
        <time>2016-04-03T14:58:02.1Z</time>
      </trkpt>
      <trkpt lat="48.5811" lon="-3.13696">
        <ele>339</ele>
        <time>2016-04-03T14:58:05.1Z</time>
      </trkpt>
      <trkpt lat="48.58111" lon="-3.13692">
        <ele>338</ele>
        <time>2016-04-03T14:58:07.1Z</time>
      </trkpt>
      <trkpt lat="48.58113" lon="-3.13688">
        <ele>338</ele>
        <time>2016-04-03T14:58:10.1Z</time>
      </trkpt>
      <trkpt lat="48.58115" lon="-3.13685">
        <ele>338</ele>
        <time>2016-04-03T14:58:12.1Z</time>
      </trkpt>
      <trkpt lat="48.58116" lon="-3.13683">
        <ele>338</ele>
        <time>2016-04-03T14:58:14.1Z</time>
      </trkpt>
      <trkpt lat="48.58118" lon="-3.13678">
        <ele>337</ele>
        <time>2016-04-03T14:58:17.1Z</time>
      </trkpt>
      <trkpt lat="48.5812" lon="-3.13674">
        <ele>337</ele>
        <time>2016-04-03T14:58:20.1Z</time>
      </trkpt>
      <trkpt lat="48.58121" lon="-3.13671">
        <ele>337</ele>
        <time>2016-04-03T14:58:22.1Z</time>
      </trkpt>
      <trkpt lat="48.58124" lon="-3.13668">
        <ele>337</ele>
        <time>2016-04-03T14:58:25.1Z</time>
      </trkpt>
      <trkpt lat="48.58125" lon="-3.13665">
        <ele>337</ele>
        <time>2016-04-03T14:58:27.1Z</time>
      </trkpt>
      <trkpt lat="48.58126" lon="-3.13663">
        <ele>337</ele>
        <time>2016-04-03T14:58:29.1Z</time>
      </trkpt>
      <trkpt lat="48.58129" lon="-3.13659">
        <ele>337</ele>
        <time>2016-04-03T14:58:32.1Z</time>
      </trkpt>
      <trkpt lat="48.5813" lon="-3.13657">
        <ele>337</ele>
        <time>2016-04-03T14:58:34.1Z</time>
      </trkpt>
      <trkpt lat="48.58132" lon="-3.13653">
        <ele>336</ele>
        <time>2016-04-03T14:58:37.1Z</time>
      </trkpt>
      <trkpt lat="48.58133" lon="-3.13651">
        <ele>337</ele>
        <time>2016-04-03T14:58:39.1Z</time>
      </trkpt>
      <trkpt lat="48.58135" lon="-3.13648">
        <ele>336</ele>
        <time>2016-04-03T14:58:41.1Z</time>
      </trkpt>
      <trkpt lat="48.58137" lon="-3.13646">
        <ele>336</ele>
        <time>2016-04-03T14:58:43.1Z</time>
      </trkpt>
      <trkpt lat="48.58139" lon="-3.13642">
        <ele>336</ele>
        <time>2016-04-03T14:58:46.1Z</time>
      </trkpt>
      <trkpt lat="48.58142" lon="-3.1364">
        <ele>336</ele>
        <time>2016-04-03T14:58:48.1Z</time>
      </trkpt>
      <trkpt lat="48.58144" lon="-3.13636">
        <ele>336</ele>
        <time>2016-04-03T14:58:51.1Z</time>
      </trkpt>
      <trkpt lat="48.58146" lon="-3.13632">
        <ele>335</ele>
        <time>2016-04-03T14:58:54.1Z</time>
      </trkpt>
      <trkpt lat="48.58148" lon="-3.1363">
        <ele>335</ele>
        <time>2016-04-03T14:58:56.1Z</time>
      </trkpt>
      <trkpt lat="48.5815" lon="-3.13628">
        <ele>335</ele>
        <time>2016-04-03T14:58:58.1Z</time>
      </trkpt>
      <trkpt lat="48.58152" lon="-3.13625">
        <ele>335</ele>
        <time>2016-04-03T14:59:01.1Z</time>
      </trkpt>
      <trkpt lat="48.58155" lon="-3.13622">
        <ele>335</ele>
        <time>2016-04-03T14:59:04.1Z</time>
      </trkpt>
      <trkpt lat="48.58158" lon="-3.13619">
        <ele>335</ele>
        <time>2016-04-03T14:59:07.1Z</time>
      </trkpt>
      <trkpt lat="48.5816" lon="-3.13617">
        <ele>335</ele>
        <time>2016-04-03T14:59:09.1Z</time>
      </trkpt>
      <trkpt lat="48.58162" lon="-3.13615">
        <ele>335</ele>
        <time>2016-04-03T14:59:11.1Z</time>
      </trkpt>
      <trkpt lat="48.58165" lon="-3.13613">
        <ele>335</ele>
        <time>2016-04-03T14:59:14.1Z</time>
      </trkpt>
      <trkpt lat="48.58168" lon="-3.1361">
        <ele>334</ele>
        <time>2016-04-03T14:59:17.1Z</time>
      </trkpt>
      <trkpt lat="48.58172" lon="-3.13607">
        <ele>334</ele>
        <time>2016-04-03T14:59:20.1Z</time>
      </trkpt>
      <trkpt lat="48.58175" lon="-3.13605">
        <ele>334</ele>
        <time>2016-04-03T14:59:23.1Z</time>
      </trkpt>
      <trkpt lat="48.58178" lon="-3.13603">
        <ele>334</ele>
        <time>2016-04-03T14:59:26.1Z</time>
      </trkpt>
      <trkpt lat="48.58181" lon="-3.13602">
        <ele>334</ele>
        <time>2016-04-03T14:59:28.1Z</time>
      </trkpt>
      <trkpt lat="48.58184" lon="-3.136">
        <ele>334</ele>
        <time>2016-04-03T14:59:31.1Z</time>
      </trkpt>
      <trkpt lat="48.58186" lon="-3.13597">
        <ele>334</ele>
        <time>2016-04-03T14:59:33.1Z</time>
      </trkpt>
      <trkpt lat="48.58188" lon="-3.13594">
        <ele>334</ele>
        <time>2016-04-03T14:59:36.1Z</time>
      </trkpt>
      <trkpt lat="48.58192" lon="-3.13592">
        <ele>334</ele>
        <time>2016-04-03T14:59:39.1Z</time>
      </trkpt>
      <trkpt lat="48.58194" lon="-3.13592">
        <ele>334</ele>
        <time>2016-04-03T14:59:41.1Z</time>
      </trkpt>
      <trkpt lat="48.58198" lon="-3.13589">
        <ele>334</ele>
        <time>2016-04-03T14:59:44.1Z</time>
      </trkpt>
      <trkpt lat="48.582" lon="-3.13587">
        <ele>333</ele>
        <time>2016-04-03T14:59:46.1Z</time>
      </trkpt>
      <trkpt lat="48.58202" lon="-3.13585">
        <ele>334</ele>
        <time>2016-04-03T14:59:48.1Z</time>
      </trkpt>
      <trkpt lat="48.58205" lon="-3.13582">
        <ele>334</ele>
        <time>2016-04-03T14:59:51.1Z</time>
      </trkpt>
      <trkpt lat="48.5821" lon="-3.13579">
        <ele>333</ele>
        <time>2016-04-03T14:59:54.1Z</time>
      </trkpt>
      <trkpt lat="48.58212" lon="-3.13577">
        <ele>333</ele>
        <time>2016-04-03T14:59:56.1Z</time>
      </trkpt>
      <trkpt lat="48.58215" lon="-3.13576">
        <ele>333</ele>
        <time>2016-04-03T14:59:58.1Z</time>
      </trkpt>
      <trkpt lat="48.58218" lon="-3.13574">
        <ele>333</ele>
        <time>2016-04-03T15:00:01.1Z</time>
      </trkpt>
      <trkpt lat="48.58221" lon="-3.1357">
        <ele>333</ele>
        <time>2016-04-03T15:00:04.1Z</time>
      </trkpt>
      <trkpt lat="48.58224" lon="-3.13568">
        <ele>333</ele>
        <time>2016-04-03T15:00:06.1Z</time>
      </trkpt>
      <trkpt lat="48.58226" lon="-3.13566">
        <ele>333</ele>
        <time>2016-04-03T15:00:08.1Z</time>
      </trkpt>
      <trkpt lat="48.58229" lon="-3.13564">
        <ele>333</ele>
        <time>2016-04-03T15:00:11.1Z</time>
      </trkpt>
      <trkpt lat="48.58232" lon="-3.13561">
        <ele>333</ele>
        <time>2016-04-03T15:00:14.1Z</time>
      </trkpt>
      <trkpt lat="48.58236" lon="-3.13558">
        <ele>333</ele>
        <time>2016-04-03T15:00:17.1Z</time>
      </trkpt>
      <trkpt lat="48.58238" lon="-3.13556">
        <ele>333</ele>
        <time>2016-04-03T15:00:19.1Z</time>
      </trkpt>
      <trkpt lat="48.58241" lon="-3.13552">
        <ele>333</ele>
        <time>2016-04-03T15:00:22.1Z</time>
      </trkpt>
      <trkpt lat="48.58244" lon="-3.13548">
        <ele>333</ele>
        <time>2016-04-03T15:00:25.1Z</time>
      </trkpt>
      <trkpt lat="48.58247" lon="-3.13545">
        <ele>332</ele>
        <time>2016-04-03T15:00:28.1Z</time>
      </trkpt>
      <trkpt lat="48.58249" lon="-3.13543">
        <ele>332</ele>
        <time>2016-04-03T15:00:30.1Z</time>
      </trkpt>
      <trkpt lat="48.58251" lon="-3.13541">
        <ele>332</ele>
        <time>2016-04-03T15:00:32.1Z</time>
      </trkpt>
      <trkpt lat="48.58254" lon="-3.13537">
        <ele>332</ele>
        <time>2016-04-03T15:00:35.1Z</time>
      </trkpt>
      <trkpt lat="48.58256" lon="-3.13535">
        <ele>332</ele>
        <time>2016-04-03T15:00:37.1Z</time>
      </trkpt>
      <trkpt lat="48.58258" lon="-3.13531">
        <ele>332</ele>
        <time>2016-04-03T15:00:40.1Z</time>
      </trkpt>
      <trkpt lat="48.58261" lon="-3.13528">
        <ele>332</ele>
        <time>2016-04-03T15:00:43.1Z</time>
      </trkpt>
      <trkpt lat="48.58263" lon="-3.13526">
        <ele>332</ele>
        <time>2016-04-03T15:00:45.1Z</time>
      </trkpt>
      <trkpt lat="48.58265" lon="-3.13523">
        <ele>332</ele>
        <time>2016-04-03T15:00:47.1Z</time>
      </trkpt>
      <trkpt lat="48.58267" lon="-3.1352">
        <ele>332</ele>
        <time>2016-04-03T15:00:50.1Z</time>
      </trkpt>
      <trkpt lat="48.58268" lon="-3.13518">
        <ele>332</ele>
        <time>2016-04-03T15:00:52.1Z</time>
      </trkpt>
      <trkpt lat="48.58271" lon="-3.13515">
        <ele>332</ele>
        <time>2016-04-03T15:00:55.1Z</time>
      </trkpt>
      <trkpt lat="48.58273" lon="-3.13512">
        <ele>331</ele>
        <time>2016-04-03T15:00:58.1Z</time>
      </trkpt>
      <trkpt lat="48.58275" lon="-3.1351">
        <ele>331</ele>
        <time>2016-04-03T15:01:00.1Z</time>
      </trkpt>
      <trkpt lat="48.58277" lon="-3.13506">
        <ele>331</ele>
        <time>2016-04-03T15:01:03.1Z</time>
      </trkpt>
      <trkpt lat="48.58279" lon="-3.13504">
        <ele>330</ele>
        <time>2016-04-03T15:01:05.1Z</time>
      </trkpt>
      <trkpt lat="48.58282" lon="-3.135">
        <ele>330</ele>
        <time>2016-04-03T15:01:08.1Z</time>
      </trkpt>
      <trkpt lat="48.58284" lon="-3.13498">
        <ele>330</ele>
        <time>2016-04-03T15:01:10.1Z</time>
      </trkpt>
      <trkpt lat="48.58287" lon="-3.13496">
        <ele>330</ele>
        <time>2016-04-03T15:01:13.1Z</time>
      </trkpt>
      <trkpt lat="48.58289" lon="-3.13494">
        <ele>331</ele>
        <time>2016-04-03T15:01:15.1Z</time>
      </trkpt>
      <trkpt lat="48.58291" lon="-3.13492">
        <ele>331</ele>
        <time>2016-04-03T15:01:17.1Z</time>
      </trkpt>
      <trkpt lat="48.58294" lon="-3.13489">
        <ele>330</ele>
        <time>2016-04-03T15:01:20.1Z</time>
      </trkpt>
      <trkpt lat="48.58295" lon="-3.13487">
        <ele>331</ele>
        <time>2016-04-03T15:01:22.1Z</time>
      </trkpt>
      <trkpt lat="48.58299" lon="-3.13484">
        <ele>330</ele>
        <time>2016-04-03T15:01:25.1Z</time>
      </trkpt>
      <trkpt lat="48.58302" lon="-3.13482">
        <ele>330</ele>
        <time>2016-04-03T15:01:28.1Z</time>
      </trkpt>
      <trkpt lat="48.58304" lon="-3.13479">
        <ele>330</ele>
        <time>2016-04-03T15:01:31.1Z</time>
      </trkpt>
      <trkpt lat="48.58306" lon="-3.13478">
        <ele>330</ele>
        <time>2016-04-03T15:01:33.1Z</time>
      </trkpt>
      <trkpt lat="48.58309" lon="-3.13477">
        <ele>330</ele>
        <time>2016-04-03T15:01:35.1Z</time>
      </trkpt>
      <trkpt lat="48.58312" lon="-3.13476">
        <ele>330</ele>
        <time>2016-04-03T15:01:38.1Z</time>
      </trkpt>
      <trkpt lat="48.58315" lon="-3.13475">
        <ele>330</ele>
        <time>2016-04-03T15:01:41.1Z</time>
      </trkpt>
      <trkpt lat="48.58318" lon="-3.13474">
        <ele>330</ele>
        <time>2016-04-03T15:01:44.1Z</time>
      </trkpt>
      <trkpt lat="48.58321" lon="-3.13473">
        <ele>330</ele>
        <time>2016-04-03T15:01:46.1Z</time>
      </trkpt>
      <trkpt lat="48.58324" lon="-3.13472">
        <ele>330</ele>
        <time>2016-04-03T15:01:49.1Z</time>
      </trkpt>
      <trkpt lat="48.58326" lon="-3.13472">
        <ele>330</ele>
        <time>2016-04-03T15:01:51.1Z</time>
      </trkpt>
      <trkpt lat="48.58329" lon="-3.13471">
        <ele>329</ele>
        <time>2016-04-03T15:01:54.1Z</time>
      </trkpt>
      <trkpt lat="48.58332" lon="-3.13471">
        <ele>329</ele>
        <time>2016-04-03T15:01:56.1Z</time>
      </trkpt>
      <trkpt lat="48.58336" lon="-3.1347">
        <ele>328</ele>
        <time>2016-04-03T15:01:59.1Z</time>
      </trkpt>
      <trkpt lat="48.58338" lon="-3.1347">
        <ele>328</ele>
        <time>2016-04-03T15:02:01.1Z</time>
      </trkpt>
      <trkpt lat="48.5834" lon="-3.13469">
        <ele>328</ele>
        <time>2016-04-03T15:02:03.1Z</time>
      </trkpt>
      <trkpt lat="48.58342" lon="-3.13469">
        <ele>328</ele>
        <time>2016-04-03T15:02:05.1Z</time>
      </trkpt>
      <trkpt lat="48.58345" lon="-3.13467">
        <ele>328</ele>
        <time>2016-04-03T15:02:08.1Z</time>
      </trkpt>
      <trkpt lat="48.58347" lon="-3.13466">
        <ele>328</ele>
        <time>2016-04-03T15:02:10.1Z</time>
      </trkpt>
      <trkpt lat="48.58351" lon="-3.13465">
        <ele>327</ele>
        <time>2016-04-03T15:02:13.1Z</time>
      </trkpt>
      <trkpt lat="48.58354" lon="-3.13463">
        <ele>327</ele>
        <time>2016-04-03T15:02:16.1Z</time>
      </trkpt>
      <trkpt lat="48.58356" lon="-3.13462">
        <ele>327</ele>
        <time>2016-04-03T15:02:19.1Z</time>
      </trkpt>
      <trkpt lat="48.58359" lon="-3.13461">
        <ele>327</ele>
        <time>2016-04-03T15:02:21.1Z</time>
      </trkpt>
      <trkpt lat="48.58362" lon="-3.13458">
        <ele>327</ele>
        <time>2016-04-03T15:02:24.1Z</time>
      </trkpt>
      <trkpt lat="48.58363" lon="-3.13457">
        <ele>326</ele>
        <time>2016-04-03T15:02:26.1Z</time>
      </trkpt>
      <trkpt lat="48.58366" lon="-3.13455">
        <ele>326</ele>
        <time>2016-04-03T15:02:28.1Z</time>
      </trkpt>
      <trkpt lat="48.58369" lon="-3.13451">
        <ele>327</ele>
        <time>2016-04-03T15:02:31.1Z</time>
      </trkpt>
      <trkpt lat="48.58371" lon="-3.13448">
        <ele>326</ele>
        <time>2016-04-03T15:02:34.1Z</time>
      </trkpt>
      <trkpt lat="48.58373" lon="-3.13446">
        <ele>326</ele>
        <time>2016-04-03T15:02:36.1Z</time>
      </trkpt>
      <trkpt lat="48.58375" lon="-3.13444">
        <ele>326</ele>
        <time>2016-04-03T15:02:39.1Z</time>
      </trkpt>
      <trkpt lat="48.58376" lon="-3.13441">
        <ele>326</ele>
        <time>2016-04-03T15:02:41.1Z</time>
      </trkpt>
      <trkpt lat="48.58377" lon="-3.1344">
        <ele>326</ele>
        <time>2016-04-03T15:02:45.1Z</time>
      </trkpt>
      <trkpt lat="48.58378" lon="-3.13439">
        <ele>325</ele>
        <time>2016-04-03T15:02:47.1Z</time>
      </trkpt>
      <trkpt lat="48.58379" lon="-3.13437">
        <ele>325</ele>
        <time>2016-04-03T15:02:50.1Z</time>
      </trkpt>
      <trkpt lat="48.5838" lon="-3.13436">
        <ele>325</ele>
        <time>2016-04-03T15:02:52.1Z</time>
      </trkpt>
      <trkpt lat="48.58379" lon="-3.13436">
        <ele>326</ele>
        <time>2016-04-03T15:02:55.1Z</time>
      </trkpt>
      <trkpt lat="48.5838" lon="-3.13435">
        <ele>326</ele>
        <time>2016-04-03T15:02:57.1Z</time>
      </trkpt>
      <trkpt lat="48.58381" lon="-3.13435">
        <ele>326</ele>
        <time>2016-04-03T15:02:59.1Z</time>
      </trkpt>
      <trkpt lat="48.58383" lon="-3.13434">
        <ele>326</ele>
        <time>2016-04-03T15:03:02.1Z</time>
      </trkpt>
      <trkpt lat="48.58384" lon="-3.13431">
        <ele>326</ele>
        <time>2016-04-03T15:03:04.1Z</time>
      </trkpt>
      <trkpt lat="48.58384" lon="-3.13431">
        <ele>326</ele>
        <time>2016-04-03T15:03:06.1Z</time>
      </trkpt>
      <trkpt lat="48.58384" lon="-3.13431">
        <ele>326</ele>
        <time>2016-04-03T15:03:09.1Z</time>
      </trkpt>
      <trkpt lat="48.58384" lon="-3.13431">
        <ele>326</ele>
        <time>2016-04-03T15:03:11.1Z</time>
      </trkpt>
      <trkpt lat="48.58383" lon="-3.13432">
        <ele>326</ele>
        <time>2016-04-03T15:03:14.1Z</time>
      </trkpt>
      <trkpt lat="48.58382" lon="-3.13432">
        <ele>325</ele>
        <time>2016-04-03T15:03:16.1Z</time>
      </trkpt>
      <trkpt lat="48.5838" lon="-3.13432">
        <ele>325</ele>
        <time>2016-04-03T15:03:19.1Z</time>
      </trkpt>
      <trkpt lat="48.58379" lon="-3.13432">
        <ele>325</ele>
        <time>2016-04-03T15:03:22.1Z</time>
      </trkpt>
      <trkpt lat="48.58379" lon="-3.13433">
        <ele>325</ele>
        <time>2016-04-03T15:03:25.1Z</time>
      </trkpt>
      <trkpt lat="48.58378" lon="-3.13434">
        <ele>325</ele>
        <time>2016-04-03T15:03:27.1Z</time>
      </trkpt>
      <trkpt lat="48.58378" lon="-3.13435">
        <ele>325</ele>
        <time>2016-04-03T15:03:31.1Z</time>
      </trkpt>
      <trkpt lat="48.58379" lon="-3.13436">
        <ele>325</ele>
        <time>2016-04-03T15:03:33.1Z</time>
      </trkpt>
      <trkpt lat="48.58379" lon="-3.13436">
        <ele>325</ele>
        <time>2016-04-03T15:03:37.1Z</time>
      </trkpt>
      <trkpt lat="48.58379" lon="-3.13437">
        <ele>325</ele>
        <time>2016-04-03T15:03:40.1Z</time>
      </trkpt>
      <trkpt lat="48.58381" lon="-3.13438">
        <ele>325</ele>
        <time>2016-04-03T15:03:43.1Z</time>
      </trkpt>
      <trkpt lat="48.58381" lon="-3.13437">
        <ele>325</ele>
        <time>2016-04-03T15:03:45.1Z</time>
      </trkpt>
      <trkpt lat="48.58382" lon="-3.13437">
        <ele>325</ele>
        <time>2016-04-03T15:03:50.1Z</time>
      </trkpt>
      <trkpt lat="48.58382" lon="-3.13437">
        <ele>326</ele>
        <time>2016-04-03T15:03:52.1Z</time>
      </trkpt>
      <trkpt lat="48.58382" lon="-3.13437">
        <ele>325</ele>
        <time>2016-04-03T15:03:55.1Z</time>
      </trkpt>
      <trkpt lat="48.58382" lon="-3.13437">
        <ele>325</ele>
        <time>2016-04-03T15:03:59.1Z</time>
      </trkpt>
      <trkpt lat="48.58382" lon="-3.13437">
        <ele>325</ele>
        <time>2016-04-03T15:04:01.1Z</time>
      </trkpt>
      <trkpt lat="48.58382" lon="-3.13437">
        <ele>325</ele>
        <time>2016-04-03T15:04:03.1Z</time>
      </trkpt>
      <trkpt lat="48.58383" lon="-3.13437">
        <ele>325</ele>
        <time>2016-04-03T15:04:07.1Z</time>
      </trkpt>
      <trkpt lat="48.58383" lon="-3.13436">
        <ele>324</ele>
        <time>2016-04-03T15:04:10.1Z</time>
      </trkpt>
      <trkpt lat="48.58384" lon="-3.13437">
        <ele>325</ele>
        <time>2016-04-03T15:04:13.1Z</time>
      </trkpt>
      <trkpt lat="48.58384" lon="-3.13437">
        <ele>325</ele>
        <time>2016-04-03T15:04:15.1Z</time>
      </trkpt>
      <trkpt lat="48.58385" lon="-3.13437">
        <ele>325</ele>
        <time>2016-04-03T15:04:18.1Z</time>
      </trkpt>
      <trkpt lat="48.58387" lon="-3.13438">
        <ele>325</ele>
        <time>2016-04-03T15:04:20.1Z</time>
      </trkpt>
      <trkpt lat="48.58388" lon="-3.13439">
        <ele>326</ele>
        <time>2016-04-03T15:04:22.1Z</time>
      </trkpt>
      <trkpt lat="48.5839" lon="-3.13441">
        <ele>326</ele>
        <time>2016-04-03T15:04:24.1Z</time>
      </trkpt>
      <trkpt lat="48.58392" lon="-3.13444">
        <ele>326</ele>
        <time>2016-04-03T15:04:27.1Z</time>
      </trkpt>
      <trkpt lat="48.58394" lon="-3.13445">
        <ele>326</ele>
        <time>2016-04-03T15:04:29.1Z</time>
      </trkpt>
      <trkpt lat="48.58395" lon="-3.13445">
        <ele>326</ele>
        <time>2016-04-03T15:04:31.1Z</time>
      </trkpt>
      <trkpt lat="48.58397" lon="-3.13445">
        <ele>326</ele>
        <time>2016-04-03T15:04:34.1Z</time>
      </trkpt>
      <trkpt lat="48.584" lon="-3.13443">
        <ele>325</ele>
        <time>2016-04-03T15:04:37.1Z</time>
      </trkpt>
      <trkpt lat="48.58402" lon="-3.13441">
        <ele>325</ele>
        <time>2016-04-03T15:04:39.1Z</time>
      </trkpt>
      <trkpt lat="48.58405" lon="-3.13439">
        <ele>325</ele>
        <time>2016-04-03T15:04:42.1Z</time>
      </trkpt>
      <trkpt lat="48.58408" lon="-3.13438">
        <ele>324</ele>
        <time>2016-04-03T15:04:45.1Z</time>
      </trkpt>
      <trkpt lat="48.5841" lon="-3.13437">
        <ele>324</ele>
        <time>2016-04-03T15:04:47.1Z</time>
      </trkpt>
      <trkpt lat="48.58413" lon="-3.13435">
        <ele>324</ele>
        <time>2016-04-03T15:04:50.1Z</time>
      </trkpt>
      <trkpt lat="48.58416" lon="-3.13433">
        <ele>324</ele>
        <time>2016-04-03T15:04:53.1Z</time>
      </trkpt>
      <trkpt lat="48.58418" lon="-3.13432">
        <ele>324</ele>
        <time>2016-04-03T15:04:55.1Z</time>
      </trkpt>
      <trkpt lat="48.5842" lon="-3.13431">
        <ele>324</ele>
        <time>2016-04-03T15:04:57.1Z</time>
      </trkpt>
      <trkpt lat="48.58421" lon="-3.1343">
        <ele>324</ele>
        <time>2016-04-03T15:04:59.1Z</time>
      </trkpt>
      <trkpt lat="48.58424" lon="-3.13428">
        <ele>324</ele>
        <time>2016-04-03T15:05:02.1Z</time>
      </trkpt>
      <trkpt lat="48.58426" lon="-3.13427">
        <ele>324</ele>
        <time>2016-04-03T15:05:04.1Z</time>
      </trkpt>
      <trkpt lat="48.58429" lon="-3.13425">
        <ele>323</ele>
        <time>2016-04-03T15:05:07.1Z</time>
      </trkpt>
      <trkpt lat="48.58431" lon="-3.13423">
        <ele>323</ele>
        <time>2016-04-03T15:05:09.1Z</time>
      </trkpt>
      <trkpt lat="48.58434" lon="-3.13421">
        <ele>323</ele>
        <time>2016-04-03T15:05:11.1Z</time>
      </trkpt>
      <trkpt lat="48.58435" lon="-3.1342">
        <ele>323</ele>
        <time>2016-04-03T15:05:13.1Z</time>
      </trkpt>
      <trkpt lat="48.58439" lon="-3.13419">
        <ele>323</ele>
        <time>2016-04-03T15:05:16.1Z</time>
      </trkpt>
      <trkpt lat="48.58442" lon="-3.13417">
        <ele>323</ele>
        <time>2016-04-03T15:05:19.1Z</time>
      </trkpt>
      <trkpt lat="48.58445" lon="-3.13416">
        <ele>323</ele>
        <time>2016-04-03T15:05:21.1Z</time>
      </trkpt>
      <trkpt lat="48.58447" lon="-3.13414">
        <ele>322</ele>
        <time>2016-04-03T15:05:23.1Z</time>
      </trkpt>
      <trkpt lat="48.5845" lon="-3.13411">
        <ele>322</ele>
        <time>2016-04-03T15:05:26.1Z</time>
      </trkpt>
      <trkpt lat="48.58452" lon="-3.1341">
        <ele>321</ele>
        <time>2016-04-03T15:05:28.1Z</time>
      </trkpt>
      <trkpt lat="48.58455" lon="-3.13408">
        <ele>321</ele>
        <time>2016-04-03T15:05:31.1Z</time>
      </trkpt>
      <trkpt lat="48.58457" lon="-3.13407">
        <ele>321</ele>
        <time>2016-04-03T15:05:33.1Z</time>
      </trkpt>
      <trkpt lat="48.58459" lon="-3.13405">
        <ele>321</ele>
        <time>2016-04-03T15:05:35.1Z</time>
      </trkpt>
      <trkpt lat="48.58464" lon="-3.13403">
        <ele>321</ele>
        <time>2016-04-03T15:05:38.1Z</time>
      </trkpt>
      <trkpt lat="48.58466" lon="-3.13402">
        <ele>321</ele>
        <time>2016-04-03T15:05:40.1Z</time>
      </trkpt>
      <trkpt lat="48.58468" lon="-3.134">
        <ele>321</ele>
        <time>2016-04-03T15:05:42.1Z</time>
      </trkpt>
      <trkpt lat="48.58471" lon="-3.13398">
        <ele>321</ele>
        <time>2016-04-03T15:05:45.1Z</time>
      </trkpt>
      <trkpt lat="48.58472" lon="-3.13396">
        <ele>321</ele>
        <time>2016-04-03T15:05:47.1Z</time>
      </trkpt>
      <trkpt lat="48.58476" lon="-3.13393">
        <ele>321</ele>
        <time>2016-04-03T15:05:50.1Z</time>
      </trkpt>
      <trkpt lat="48.58479" lon="-3.1339">
        <ele>321</ele>
        <time>2016-04-03T15:05:53.1Z</time>
      </trkpt>
      <trkpt lat="48.58481" lon="-3.13389">
        <ele>321</ele>
        <time>2016-04-03T15:05:55.1Z</time>
      </trkpt>
      <trkpt lat="48.58485" lon="-3.13386">
        <ele>321</ele>
        <time>2016-04-03T15:05:58.1Z</time>
      </trkpt>
      <trkpt lat="48.58488" lon="-3.13384">
        <ele>320</ele>
        <time>2016-04-03T15:06:01.1Z</time>
      </trkpt>
      <trkpt lat="48.5849" lon="-3.13382">
        <ele>320</ele>
        <time>2016-04-03T15:06:03.1Z</time>
      </trkpt>
      <trkpt lat="48.58493" lon="-3.13381">
        <ele>320</ele>
        <time>2016-04-03T15:06:06.1Z</time>
      </trkpt>
      <trkpt lat="48.58496" lon="-3.13379">
        <ele>320</ele>
        <time>2016-04-03T15:06:08.1Z</time>
      </trkpt>
      <trkpt lat="48.58498" lon="-3.13377">
        <ele>320</ele>
        <time>2016-04-03T15:06:10.1Z</time>
      </trkpt>
      <trkpt lat="48.58501" lon="-3.13377">
        <ele>320</ele>
        <time>2016-04-03T15:06:13.1Z</time>
      </trkpt>
      <trkpt lat="48.58505" lon="-3.13376">
        <ele>319</ele>
        <time>2016-04-03T15:06:16.1Z</time>
      </trkpt>
      <trkpt lat="48.58508" lon="-3.13375">
        <ele>319</ele>
        <time>2016-04-03T15:06:19.1Z</time>
      </trkpt>
      <trkpt lat="48.58511" lon="-3.13373">
        <ele>319</ele>
        <time>2016-04-03T15:06:22.1Z</time>
      </trkpt>
      <trkpt lat="48.58514" lon="-3.13371">
        <ele>319</ele>
        <time>2016-04-03T15:06:25.1Z</time>
      </trkpt>
      <trkpt lat="48.58517" lon="-3.13369">
        <ele>319</ele>
        <time>2016-04-03T15:06:28.1Z</time>
      </trkpt>
      <trkpt lat="48.5852" lon="-3.13367">
        <ele>319</ele>
        <time>2016-04-03T15:06:31.1Z</time>
      </trkpt>
      <trkpt lat="48.58522" lon="-3.13366">
        <ele>319</ele>
        <time>2016-04-03T15:06:33.1Z</time>
      </trkpt>
      <trkpt lat="48.58524" lon="-3.13366">
        <ele>319</ele>
        <time>2016-04-03T15:06:35.1Z</time>
      </trkpt>
      <trkpt lat="48.58527" lon="-3.13365">
        <ele>318</ele>
        <time>2016-04-03T15:06:38.1Z</time>
      </trkpt>
      <trkpt lat="48.58529" lon="-3.13364">
        <ele>318</ele>
        <time>2016-04-03T15:06:40.1Z</time>
      </trkpt>
      <trkpt lat="48.58533" lon="-3.13362">
        <ele>318</ele>
        <time>2016-04-03T15:06:43.1Z</time>
      </trkpt>
      <trkpt lat="48.58535" lon="-3.13361">
        <ele>318</ele>
        <time>2016-04-03T15:06:45.1Z</time>
      </trkpt>
      <trkpt lat="48.58538" lon="-3.13359">
        <ele>318</ele>
        <time>2016-04-03T15:06:48.1Z</time>
      </trkpt>
      <trkpt lat="48.5854" lon="-3.13358">
        <ele>318</ele>
        <time>2016-04-03T15:06:50.1Z</time>
      </trkpt>
      <trkpt lat="48.58543" lon="-3.13355">
        <ele>318</ele>
        <time>2016-04-03T15:06:53.1Z</time>
      </trkpt>
      <trkpt lat="48.58545" lon="-3.13355">
        <ele>318</ele>
        <time>2016-04-03T15:06:55.1Z</time>
      </trkpt>
      <trkpt lat="48.58548" lon="-3.13354">
        <ele>317</ele>
        <time>2016-04-03T15:06:58.1Z</time>
      </trkpt>
      <trkpt lat="48.5855" lon="-3.13353">
        <ele>317</ele>
        <time>2016-04-03T15:07:00.1Z</time>
      </trkpt>
      <trkpt lat="48.58552" lon="-3.13352">
        <ele>317</ele>
        <time>2016-04-03T15:07:02.1Z</time>
      </trkpt>
      <trkpt lat="48.58554" lon="-3.13351">
        <ele>317</ele>
        <time>2016-04-03T15:07:05.1Z</time>
      </trkpt>
      <trkpt lat="48.58557" lon="-3.1335">
        <ele>317</ele>
        <time>2016-04-03T15:07:08.1Z</time>
      </trkpt>
      <trkpt lat="48.5856" lon="-3.13349">
        <ele>317</ele>
        <time>2016-04-03T15:07:11.1Z</time>
      </trkpt>
      <trkpt lat="48.58563" lon="-3.13348">
        <ele>317</ele>
        <time>2016-04-03T15:07:14.1Z</time>
      </trkpt>
      <trkpt lat="48.58566" lon="-3.13346">
        <ele>317</ele>
        <time>2016-04-03T15:07:17.1Z</time>
      </trkpt>
      <trkpt lat="48.58569" lon="-3.13346">
        <ele>317</ele>
        <time>2016-04-03T15:07:19.1Z</time>
      </trkpt>
      <trkpt lat="48.58571" lon="-3.13345">
        <ele>317</ele>
        <time>2016-04-03T15:07:21.1Z</time>
      </trkpt>
      <trkpt lat="48.58575" lon="-3.13344">
        <ele>317</ele>
        <time>2016-04-03T15:07:24.1Z</time>
      </trkpt>
      <trkpt lat="48.58578" lon="-3.13343">
        <ele>317</ele>
        <time>2016-04-03T15:07:27.1Z</time>
      </trkpt>
      <trkpt lat="48.58581" lon="-3.13342">
        <ele>317</ele>
        <time>2016-04-03T15:07:29.1Z</time>
      </trkpt>
      <trkpt lat="48.58583" lon="-3.13342">
        <ele>317</ele>
        <time>2016-04-03T15:07:31.1Z</time>
      </trkpt>
      <trkpt lat="48.58585" lon="-3.13342">
        <ele>316</ele>
        <time>2016-04-03T15:07:33.1Z</time>
      </trkpt>
      <trkpt lat="48.58586" lon="-3.13341">
        <ele>316</ele>
        <time>2016-04-03T15:07:35.1Z</time>
      </trkpt>
      <trkpt lat="48.58589" lon="-3.1334">
        <ele>316</ele>
        <time>2016-04-03T15:07:38.1Z</time>
      </trkpt>
      <trkpt lat="48.58593" lon="-3.13338">
        <ele>316</ele>
        <time>2016-04-03T15:07:41.1Z</time>
      </trkpt>
      <trkpt lat="48.58596" lon="-3.13336">
        <ele>316</ele>
        <time>2016-04-03T15:07:44.1Z</time>
      </trkpt>
      <trkpt lat="48.58598" lon="-3.13334">
        <ele>315</ele>
        <time>2016-04-03T15:07:46.1Z</time>
      </trkpt>
      <trkpt lat="48.58602" lon="-3.13333">
        <ele>315</ele>
        <time>2016-04-03T15:07:49.1Z</time>
      </trkpt>
      <trkpt lat="48.58604" lon="-3.13332">
        <ele>315</ele>
        <time>2016-04-03T15:07:51.1Z</time>
      </trkpt>
      <trkpt lat="48.58607" lon="-3.13332">
        <ele>315</ele>
        <time>2016-04-03T15:07:54.1Z</time>
      </trkpt>
      <trkpt lat="48.58611" lon="-3.13331">
        <ele>315</ele>
        <time>2016-04-03T15:07:57.1Z</time>
      </trkpt>
      <trkpt lat="48.58615" lon="-3.13329">
        <ele>314</ele>
        <time>2016-04-03T15:08:00.1Z</time>
      </trkpt>
      <trkpt lat="48.58617" lon="-3.13329">
        <ele>314</ele>
        <time>2016-04-03T15:08:02.1Z</time>
      </trkpt>
      <trkpt lat="48.5862" lon="-3.13329">
        <ele>315</ele>
        <time>2016-04-03T15:08:04.1Z</time>
      </trkpt>
      <trkpt lat="48.58623" lon="-3.13329">
        <ele>315</ele>
        <time>2016-04-03T15:08:07.1Z</time>
      </trkpt>
      <trkpt lat="48.58626" lon="-3.13329">
        <ele>315</ele>
        <time>2016-04-03T15:08:09.1Z</time>
      </trkpt>
      <trkpt lat="48.58629" lon="-3.1333">
        <ele>315</ele>
        <time>2016-04-03T15:08:11.1Z</time>
      </trkpt>
      <trkpt lat="48.58631" lon="-3.1333">
        <ele>315</ele>
        <time>2016-04-03T15:08:13.1Z</time>
      </trkpt>
      <trkpt lat="48.58635" lon="-3.13331">
        <ele>315</ele>
        <time>2016-04-03T15:08:16.1Z</time>
      </trkpt>
      <trkpt lat="48.5864" lon="-3.1333">
        <ele>315</ele>
        <time>2016-04-03T15:08:19.1Z</time>
      </trkpt>
      <trkpt lat="48.58642" lon="-3.13331">
        <ele>315</ele>
        <time>2016-04-03T15:08:21.1Z</time>
      </trkpt>
      <trkpt lat="48.58646" lon="-3.13332">
        <ele>315</ele>
        <time>2016-04-03T15:08:24.1Z</time>
      </trkpt>
      <trkpt lat="48.58649" lon="-3.13333">
        <ele>315</ele>
        <time>2016-04-03T15:08:27.1Z</time>
      </trkpt>
      <trkpt lat="48.58652" lon="-3.13335">
        <ele>315</ele>
        <time>2016-04-03T15:08:30.1Z</time>
      </trkpt>
      <trkpt lat="48.58654" lon="-3.13336">
        <ele>315</ele>
        <time>2016-04-03T15:08:33.1Z</time>
      </trkpt>
      <trkpt lat="48.58659" lon="-3.13338">
        <ele>315</ele>
        <time>2016-04-03T15:08:36.1Z</time>
      </trkpt>
      <trkpt lat="48.58661" lon="-3.1334">
        <ele>315</ele>
        <time>2016-04-03T15:08:39.1Z</time>
      </trkpt>
      <trkpt lat="48.58664" lon="-3.13341">
        <ele>316</ele>
        <time>2016-04-03T15:08:42.1Z</time>
      </trkpt>
      <trkpt lat="48.58665" lon="-3.13343">
        <ele>316</ele>
        <time>2016-04-03T15:08:44.1Z</time>
      </trkpt>
      <trkpt lat="48.58666" lon="-3.13345">
        <ele>316</ele>
        <time>2016-04-03T15:08:46.1Z</time>
      </trkpt>
      <trkpt lat="48.58666" lon="-3.13349">
        <ele>316</ele>
        <time>2016-04-03T15:08:49.1Z</time>
      </trkpt>
      <trkpt lat="48.58666" lon="-3.13353">
        <ele>316</ele>
        <time>2016-04-03T15:08:52.1Z</time>
      </trkpt>
      <trkpt lat="48.58666" lon="-3.13358">
        <ele>316</ele>
        <time>2016-04-03T15:08:55.1Z</time>
      </trkpt>
      <trkpt lat="48.58667" lon="-3.13363">
        <ele>317</ele>
        <time>2016-04-03T15:08:58.1Z</time>
      </trkpt>
      <trkpt lat="48.58667" lon="-3.13366">
        <ele>317</ele>
        <time>2016-04-03T15:09:00.1Z</time>
      </trkpt>
      <trkpt lat="48.58667" lon="-3.13369">
        <ele>317</ele>
        <time>2016-04-03T15:09:02.1Z</time>
      </trkpt>
      <trkpt lat="48.58668" lon="-3.13372">
        <ele>317</ele>
        <time>2016-04-03T15:09:04.1Z</time>
      </trkpt>
      <trkpt lat="48.58667" lon="-3.13376">
        <ele>317</ele>
        <time>2016-04-03T15:09:07.1Z</time>
      </trkpt>
      <trkpt lat="48.58667" lon="-3.13379">
        <ele>317</ele>
        <time>2016-04-03T15:09:09.1Z</time>
      </trkpt>
      <trkpt lat="48.58668" lon="-3.13382">
        <ele>317</ele>
        <time>2016-04-03T15:09:11.1Z</time>
      </trkpt>
      <trkpt lat="48.58667" lon="-3.13385">
        <ele>317</ele>
        <time>2016-04-03T15:09:13.1Z</time>
      </trkpt>
      <trkpt lat="48.58667" lon="-3.1339">
        <ele>317</ele>
        <time>2016-04-03T15:09:16.1Z</time>
      </trkpt>
      <trkpt lat="48.58667" lon="-3.13392">
        <ele>317</ele>
        <time>2016-04-03T15:09:18.1Z</time>
      </trkpt>
      <trkpt lat="48.58667" lon="-3.13395">
        <ele>317</ele>
        <time>2016-04-03T15:09:21.1Z</time>
      </trkpt>
      <trkpt lat="48.58667" lon="-3.13397">
        <ele>317</ele>
        <time>2016-04-03T15:09:23.1Z</time>
      </trkpt>
      <trkpt lat="48.58667" lon="-3.13399">
        <ele>318</ele>
        <time>2016-04-03T15:09:26.1Z</time>
      </trkpt>
      <trkpt lat="48.58667" lon="-3.134">
        <ele>318</ele>
        <time>2016-04-03T15:09:29.1Z</time>
      </trkpt>
      <trkpt lat="48.58667" lon="-3.13402">
        <ele>318</ele>
        <time>2016-04-03T15:09:31.1Z</time>
      </trkpt>
      <trkpt lat="48.58667" lon="-3.13405">
        <ele>317</ele>
        <time>2016-04-03T15:09:34.1Z</time>
      </trkpt>
      <trkpt lat="48.58667" lon="-3.13408">
        <ele>317</ele>
        <time>2016-04-03T15:09:36.1Z</time>
      </trkpt>
      <trkpt lat="48.58666" lon="-3.1341">
        <ele>318</ele>
        <time>2016-04-03T15:09:38.1Z</time>
      </trkpt>
      <trkpt lat="48.58666" lon="-3.13414">
        <ele>318</ele>
        <time>2016-04-03T15:09:40.1Z</time>
      </trkpt>
      <trkpt lat="48.58666" lon="-3.13416">
        <ele>318</ele>
        <time>2016-04-03T15:09:42.1Z</time>
      </trkpt>
      <trkpt lat="48.58665" lon="-3.13418">
        <ele>318</ele>
        <time>2016-04-03T15:09:44.1Z</time>
      </trkpt>
      <trkpt lat="48.58666" lon="-3.1342">
        <ele>318</ele>
        <time>2016-04-03T15:09:47.1Z</time>
      </trkpt>
      <trkpt lat="48.58665" lon="-3.1342">
        <ele>318</ele>
        <time>2016-04-03T15:09:49.1Z</time>
      </trkpt>
      <trkpt lat="48.58664" lon="-3.13421">
        <ele>318</ele>
        <time>2016-04-03T15:09:51.1Z</time>
      </trkpt>
      <trkpt lat="48.58664" lon="-3.13421">
        <ele>318</ele>
        <time>2016-04-03T15:09:53.1Z</time>
      </trkpt>
      <trkpt lat="48.58664" lon="-3.13421">
        <ele>317</ele>
        <time>2016-04-03T15:09:55.1Z</time>
      </trkpt>
      <trkpt lat="48.58664" lon="-3.13423">
        <ele>317</ele>
        <time>2016-04-03T15:09:57.1Z</time>
      </trkpt>
      <trkpt lat="48.58663" lon="-3.13425">
        <ele>317</ele>
        <time>2016-04-03T15:10:00.1Z</time>
      </trkpt>
      <trkpt lat="48.58662" lon="-3.13427">
        <ele>317</ele>
        <time>2016-04-03T15:10:02.1Z</time>
      </trkpt>
      <trkpt lat="48.58662" lon="-3.13432">
        <ele>318</ele>
        <time>2016-04-03T15:10:05.1Z</time>
      </trkpt>
      <trkpt lat="48.58661" lon="-3.13436">
        <ele>318</ele>
        <time>2016-04-03T15:10:08.1Z</time>
      </trkpt>
      <trkpt lat="48.58661" lon="-3.13439">
        <ele>318</ele>
        <time>2016-04-03T15:10:10.1Z</time>
      </trkpt>
      <trkpt lat="48.5866" lon="-3.13442">
        <ele>317</ele>
        <time>2016-04-03T15:10:12.1Z</time>
      </trkpt>
      <trkpt lat="48.5866" lon="-3.13445">
        <ele>317</ele>
        <time>2016-04-03T15:10:14.1Z</time>
      </trkpt>
      <trkpt lat="48.58659" lon="-3.13448">
        <ele>317</ele>
        <time>2016-04-03T15:10:16.1Z</time>
      </trkpt>
      <trkpt lat="48.58659" lon="-3.13451">
        <ele>317</ele>
        <time>2016-04-03T15:10:18.1Z</time>
      </trkpt>
      <trkpt lat="48.58657" lon="-3.13455">
        <ele>318</ele>
        <time>2016-04-03T15:10:21.1Z</time>
      </trkpt>
      <trkpt lat="48.58656" lon="-3.13459">
        <ele>318</ele>
        <time>2016-04-03T15:10:24.1Z</time>
      </trkpt>
      <trkpt lat="48.58656" lon="-3.13463">
        <ele>318</ele>
        <time>2016-04-03T15:10:27.1Z</time>
      </trkpt>
      <trkpt lat="48.58655" lon="-3.13465">
        <ele>318</ele>
        <time>2016-04-03T15:10:29.1Z</time>
      </trkpt>
      <trkpt lat="48.58653" lon="-3.13468">
        <ele>318</ele>
        <time>2016-04-03T15:10:32.1Z</time>
      </trkpt>
      <trkpt lat="48.58651" lon="-3.13471">
        <ele>319</ele>
        <time>2016-04-03T15:10:35.1Z</time>
      </trkpt>
      <trkpt lat="48.58651" lon="-3.13473">
        <ele>318</ele>
        <time>2016-04-03T15:10:37.1Z</time>
      </trkpt>
      <trkpt lat="48.58649" lon="-3.13476">
        <ele>318</ele>
        <time>2016-04-03T15:10:40.1Z</time>
      </trkpt>
      <trkpt lat="48.58647" lon="-3.1348">
        <ele>318</ele>
        <time>2016-04-03T15:10:43.1Z</time>
      </trkpt>
      <trkpt lat="48.58645" lon="-3.13482">
        <ele>317</ele>
        <time>2016-04-03T15:10:46.1Z</time>
      </trkpt>
      <trkpt lat="48.58644" lon="-3.13486">
        <ele>318</ele>
        <time>2016-04-03T15:10:49.1Z</time>
      </trkpt>
      <trkpt lat="48.58643" lon="-3.1349">
        <ele>319</ele>
        <time>2016-04-03T15:10:52.1Z</time>
      </trkpt>
      <trkpt lat="48.58642" lon="-3.13493">
        <ele>319</ele>
        <time>2016-04-03T15:10:55.1Z</time>
      </trkpt>
      <trkpt lat="48.5864" lon="-3.13496">
        <ele>319</ele>
        <time>2016-04-03T15:10:58.1Z</time>
      </trkpt>
      <trkpt lat="48.58639" lon="-3.13499">
        <ele>319</ele>
        <time>2016-04-03T15:11:00.1Z</time>
      </trkpt>
      <trkpt lat="48.58638" lon="-3.13501">
        <ele>319</ele>
        <time>2016-04-03T15:11:02.1Z</time>
      </trkpt>
      <trkpt lat="48.58638" lon="-3.13506">
        <ele>319</ele>
        <time>2016-04-03T15:11:05.1Z</time>
      </trkpt>
      <trkpt lat="48.58638" lon="-3.13509">
        <ele>319</ele>
        <time>2016-04-03T15:11:07.1Z</time>
      </trkpt>
      <trkpt lat="48.58638" lon="-3.13512">
        <ele>319</ele>
        <time>2016-04-03T15:11:09.1Z</time>
      </trkpt>
      <trkpt lat="48.58638" lon="-3.13516">
        <ele>319</ele>
        <time>2016-04-03T15:11:11.1Z</time>
      </trkpt>
      <trkpt lat="48.58637" lon="-3.13521">
        <ele>319</ele>
        <time>2016-04-03T15:11:14.1Z</time>
      </trkpt>
      <trkpt lat="48.58636" lon="-3.13525">
        <ele>319</ele>
        <time>2016-04-03T15:11:16.1Z</time>
      </trkpt>
      <trkpt lat="48.58636" lon="-3.1353">
        <ele>319</ele>
        <time>2016-04-03T15:11:19.1Z</time>
      </trkpt>
      <trkpt lat="48.58635" lon="-3.13534">
        <ele>319</ele>
        <time>2016-04-03T15:11:21.1Z</time>
      </trkpt>
      <trkpt lat="48.58634" lon="-3.13537">
        <ele>319</ele>
        <time>2016-04-03T15:11:23.1Z</time>
      </trkpt>
      <trkpt lat="48.58633" lon="-3.1354">
        <ele>319</ele>
        <time>2016-04-03T15:11:25.1Z</time>
      </trkpt>
      <trkpt lat="48.58632" lon="-3.13543">
        <ele>319</ele>
        <time>2016-04-03T15:11:27.1Z</time>
      </trkpt>
      <trkpt lat="48.58631" lon="-3.13548">
        <ele>319</ele>
        <time>2016-04-03T15:11:30.1Z</time>
      </trkpt>
      <trkpt lat="48.5863" lon="-3.13551">
        <ele>319</ele>
        <time>2016-04-03T15:11:32.1Z</time>
      </trkpt>
      <trkpt lat="48.5863" lon="-3.13556">
        <ele>319</ele>
        <time>2016-04-03T15:11:35.1Z</time>
      </trkpt>
      <trkpt lat="48.58629" lon="-3.13561">
        <ele>319</ele>
        <time>2016-04-03T15:11:38.1Z</time>
      </trkpt>
      <trkpt lat="48.58629" lon="-3.13566">
        <ele>319</ele>
        <time>2016-04-03T15:11:41.1Z</time>
      </trkpt>
      <trkpt lat="48.58628" lon="-3.1357">
        <ele>319</ele>
        <time>2016-04-03T15:11:43.1Z</time>
      </trkpt>
      <trkpt lat="48.58628" lon="-3.13575">
        <ele>320</ele>
        <time>2016-04-03T15:11:46.1Z</time>
      </trkpt>
      <trkpt lat="48.58628" lon="-3.1358">
        <ele>320</ele>
        <time>2016-04-03T15:11:49.1Z</time>
      </trkpt>
      <trkpt lat="48.58629" lon="-3.13583">
        <ele>319</ele>
        <time>2016-04-03T15:11:51.1Z</time>
      </trkpt>
      <trkpt lat="48.58629" lon="-3.13587">
        <ele>319</ele>
        <time>2016-04-03T15:11:53.1Z</time>
      </trkpt>
      <trkpt lat="48.58629" lon="-3.13593">
        <ele>319</ele>
        <time>2016-04-03T15:11:56.1Z</time>
      </trkpt>
      <trkpt lat="48.58629" lon="-3.13596">
        <ele>320</ele>
        <time>2016-04-03T15:11:58.1Z</time>
      </trkpt>
      <trkpt lat="48.58629" lon="-3.136">
        <ele>320</ele>
        <time>2016-04-03T15:12:00.1Z</time>
      </trkpt>
      <trkpt lat="48.58629" lon="-3.13605">
        <ele>320</ele>
        <time>2016-04-03T15:12:03.1Z</time>
      </trkpt>
      <trkpt lat="48.58629" lon="-3.13608">
        <ele>320</ele>
        <time>2016-04-03T15:12:05.1Z</time>
      </trkpt>
      <trkpt lat="48.58629" lon="-3.13613">
        <ele>320</ele>
        <time>2016-04-03T15:12:08.1Z</time>
      </trkpt>
      <trkpt lat="48.5863" lon="-3.13617">
        <ele>320</ele>
        <time>2016-04-03T15:12:11.1Z</time>
      </trkpt>
      <trkpt lat="48.5863" lon="-3.1362">
        <ele>320</ele>
        <time>2016-04-03T15:12:13.1Z</time>
      </trkpt>
      <trkpt lat="48.5863" lon="-3.13623">
        <ele>321</ele>
        <time>2016-04-03T15:12:15.1Z</time>
      </trkpt>
      <trkpt lat="48.5863" lon="-3.13628">
        <ele>321</ele>
        <time>2016-04-03T15:12:18.1Z</time>
      </trkpt>
      <trkpt lat="48.58629" lon="-3.13632">
        <ele>321</ele>
        <time>2016-04-03T15:12:20.1Z</time>
      </trkpt>
      <trkpt lat="48.58628" lon="-3.13635">
        <ele>320</ele>
        <time>2016-04-03T15:12:22.1Z</time>
      </trkpt>
      <trkpt lat="48.58629" lon="-3.13638">
        <ele>321</ele>
        <time>2016-04-03T15:12:24.1Z</time>
      </trkpt>
      <trkpt lat="48.58628" lon="-3.13643">
        <ele>320</ele>
        <time>2016-04-03T15:12:27.1Z</time>
      </trkpt>
      <trkpt lat="48.58628" lon="-3.13649">
        <ele>321</ele>
        <time>2016-04-03T15:12:30.1Z</time>
      </trkpt>
      <trkpt lat="48.58628" lon="-3.13652">
        <ele>321</ele>
        <time>2016-04-03T15:12:32.1Z</time>
      </trkpt>
      <trkpt lat="48.58629" lon="-3.13656">
        <ele>321</ele>
        <time>2016-04-03T15:12:35.1Z</time>
      </trkpt>
      <trkpt lat="48.58628" lon="-3.13657">
        <ele>321</ele>
        <time>2016-04-03T15:12:37.1Z</time>
      </trkpt>
      <trkpt lat="48.58627" lon="-3.13659">
        <ele>321</ele>
        <time>2016-04-03T15:12:39.1Z</time>
      </trkpt>
      <trkpt lat="48.58625" lon="-3.1366">
        <ele>321</ele>
        <time>2016-04-03T15:12:42.1Z</time>
      </trkpt>
      <trkpt lat="48.58624" lon="-3.13661">
        <ele>321</ele>
        <time>2016-04-03T15:12:44.1Z</time>
      </trkpt>
      <trkpt lat="48.58621" lon="-3.13661">
        <ele>321</ele>
        <time>2016-04-03T15:12:47.1Z</time>
      </trkpt>
      <trkpt lat="48.58619" lon="-3.13662">
        <ele>321</ele>
        <time>2016-04-03T15:12:50.1Z</time>
      </trkpt>
      <trkpt lat="48.58616" lon="-3.13663">
        <ele>321</ele>
        <time>2016-04-03T15:12:52.1Z</time>
      </trkpt>
      <trkpt lat="48.58613" lon="-3.13664">
        <ele>321</ele>
        <time>2016-04-03T15:12:55.1Z</time>
      </trkpt>
      <trkpt lat="48.58611" lon="-3.13665">
        <ele>321</ele>
        <time>2016-04-03T15:12:58.1Z</time>
      </trkpt>
      <trkpt lat="48.5861" lon="-3.13665">
        <ele>321</ele>
        <time>2016-04-03T15:13:00.1Z</time>
      </trkpt>
      <trkpt lat="48.58608" lon="-3.13665">
        <ele>322</ele>
        <time>2016-04-03T15:13:03.1Z</time>
      </trkpt>
      <trkpt lat="48.58606" lon="-3.13667">
        <ele>322</ele>
        <time>2016-04-03T15:13:05.1Z</time>
      </trkpt>
      <trkpt lat="48.58604" lon="-3.13669">
        <ele>322</ele>
        <time>2016-04-03T15:13:07.1Z</time>
      </trkpt>
      <trkpt lat="48.58603" lon="-3.1367">
        <ele>321</ele>
        <time>2016-04-03T15:13:09.1Z</time>
      </trkpt>
      <trkpt lat="48.58601" lon="-3.13671">
        <ele>321</ele>
        <time>2016-04-03T15:13:11.1Z</time>
      </trkpt>
      <trkpt lat="48.58598" lon="-3.13673">
        <ele>322</ele>
        <time>2016-04-03T15:13:14.1Z</time>
      </trkpt>
      <trkpt lat="48.58596" lon="-3.13675">
        <ele>322</ele>
        <time>2016-04-03T15:13:16.1Z</time>
      </trkpt>
      <trkpt lat="48.58594" lon="-3.13678">
        <ele>322</ele>
        <time>2016-04-03T15:13:19.1Z</time>
      </trkpt>
      <trkpt lat="48.58592" lon="-3.13679">
        <ele>322</ele>
        <time>2016-04-03T15:13:22.1Z</time>
      </trkpt>
      <trkpt lat="48.58591" lon="-3.13676">
        <ele>322</ele>
        <time>2016-04-03T15:13:25.1Z</time>
      </trkpt>
      <trkpt lat="48.5859" lon="-3.13675">
        <ele>322</ele>
        <time>2016-04-03T15:13:27.1Z</time>
      </trkpt>
      <trkpt lat="48.5859" lon="-3.13674">
        <ele>322</ele>
        <time>2016-04-03T15:13:30.1Z</time>
      </trkpt>
      <trkpt lat="48.5859" lon="-3.13673">
        <ele>322</ele>
        <time>2016-04-03T15:13:32.1Z</time>
      </trkpt>
      <trkpt lat="48.58589" lon="-3.13671">
        <ele>322</ele>
        <time>2016-04-03T15:13:34.1Z</time>
      </trkpt>
      <trkpt lat="48.58588" lon="-3.13668">
        <ele>321</ele>
        <time>2016-04-03T15:13:37.1Z</time>
      </trkpt>
      <trkpt lat="48.58587" lon="-3.13667">
        <ele>321</ele>
        <time>2016-04-03T15:13:39.1Z</time>
      </trkpt>
      <trkpt lat="48.58584" lon="-3.13667">
        <ele>322</ele>
        <time>2016-04-03T15:13:42.1Z</time>
      </trkpt>
      <trkpt lat="48.58582" lon="-3.13667">
        <ele>322</ele>
        <time>2016-04-03T15:13:44.1Z</time>
      </trkpt>
      <trkpt lat="48.58579" lon="-3.13668">
        <ele>322</ele>
        <time>2016-04-03T15:13:47.1Z</time>
      </trkpt>
      <trkpt lat="48.58577" lon="-3.1367">
        <ele>322</ele>
        <time>2016-04-03T15:13:50.1Z</time>
      </trkpt>
      <trkpt lat="48.58575" lon="-3.13671">
        <ele>322</ele>
        <time>2016-04-03T15:13:52.1Z</time>
      </trkpt>
      <trkpt lat="48.58572" lon="-3.13674">
        <ele>322</ele>
        <time>2016-04-03T15:13:55.1Z</time>
      </trkpt>
      <trkpt lat="48.5857" lon="-3.13677">
        <ele>322</ele>
        <time>2016-04-03T15:13:57.1Z</time>
      </trkpt>
      <trkpt lat="48.58568" lon="-3.13681">
        <ele>323</ele>
        <time>2016-04-03T15:14:00.1Z</time>
      </trkpt>
      <trkpt lat="48.58566" lon="-3.13685">
        <ele>323</ele>
        <time>2016-04-03T15:14:03.1Z</time>
      </trkpt>
      <trkpt lat="48.58564" lon="-3.13687">
        <ele>323</ele>
        <time>2016-04-03T15:14:05.1Z</time>
      </trkpt>
      <trkpt lat="48.58563" lon="-3.1369">
        <ele>323</ele>
        <time>2016-04-03T15:14:08.1Z</time>
      </trkpt>
      <trkpt lat="48.58563" lon="-3.13692">
        <ele>323</ele>
        <time>2016-04-03T15:14:10.1Z</time>
      </trkpt>
      <trkpt lat="48.58563" lon="-3.13693">
        <ele>324</ele>
        <time>2016-04-03T15:14:12.1Z</time>
      </trkpt>
      <trkpt lat="48.58563" lon="-3.13694">
        <ele>324</ele>
        <time>2016-04-03T15:14:15.1Z</time>
      </trkpt>
      <trkpt lat="48.58564" lon="-3.13696">
        <ele>324</ele>
        <time>2016-04-03T15:14:18.1Z</time>
      </trkpt>
      <trkpt lat="48.58566" lon="-3.13699">
        <ele>324</ele>
        <time>2016-04-03T15:14:21.1Z</time>
      </trkpt>
      <trkpt lat="48.58567" lon="-3.13701">
        <ele>324</ele>
        <time>2016-04-03T15:14:23.1Z</time>
      </trkpt>
      <trkpt lat="48.58567" lon="-3.13702">
        <ele>323</ele>
        <time>2016-04-03T15:14:26.1Z</time>
      </trkpt>
      <trkpt lat="48.58567" lon="-3.13702">
        <ele>323</ele>
        <time>2016-04-03T15:14:29.1Z</time>
      </trkpt>
      <trkpt lat="48.58567" lon="-3.13702">
        <ele>323</ele>
        <time>2016-04-03T15:14:31.1Z</time>
      </trkpt>
      <trkpt lat="48.58567" lon="-3.13702">
        <ele>323</ele>
        <time>2016-04-03T15:14:34.1Z</time>
      </trkpt>
      <trkpt lat="48.58567" lon="-3.13702">
        <ele>323</ele>
        <time>2016-04-03T15:14:36.1Z</time>
      </trkpt>
      <trkpt lat="48.58567" lon="-3.13701">
        <ele>323</ele>
        <time>2016-04-03T15:14:39.1Z</time>
      </trkpt>
      <trkpt lat="48.58567" lon="-3.137">
        <ele>323</ele>
        <time>2016-04-03T15:14:42.1Z</time>
      </trkpt>
      <trkpt lat="48.58568" lon="-3.137">
        <ele>324</ele>
        <time>2016-04-03T15:14:44.1Z</time>
      </trkpt>
      <trkpt lat="48.58568" lon="-3.137">
        <ele>324</ele>
        <time>2016-04-03T15:14:47.1Z</time>
      </trkpt>
      <trkpt lat="48.58568" lon="-3.137">
        <ele>323</ele>
        <time>2016-04-03T15:14:50.1Z</time>
      </trkpt>
      <trkpt lat="48.58568" lon="-3.13699">
        <ele>323</ele>
        <time>2016-04-03T15:14:52.1Z</time>
      </trkpt>
      <trkpt lat="48.58568" lon="-3.13699">
        <ele>323</ele>
        <time>2016-04-03T15:14:54.1Z</time>
      </trkpt>
      <trkpt lat="48.58567" lon="-3.13698">
        <ele>323</ele>
        <time>2016-04-03T15:14:57.1Z</time>
      </trkpt>
      <trkpt lat="48.58567" lon="-3.13697">
        <ele>323</ele>
        <time>2016-04-03T15:15:00.1Z</time>
      </trkpt>
      <trkpt lat="48.58567" lon="-3.13697">
        <ele>323</ele>
        <time>2016-04-03T15:15:02.1Z</time>
      </trkpt>
      <trkpt lat="48.58566" lon="-3.13696">
        <ele>322</ele>
        <time>2016-04-03T15:15:04.1Z</time>
      </trkpt>
      <trkpt lat="48.58566" lon="-3.13694">
        <ele>323</ele>
        <time>2016-04-03T15:15:07.1Z</time>
      </trkpt>
      <trkpt lat="48.58566" lon="-3.13692">
        <ele>323</ele>
        <time>2016-04-03T15:15:10.1Z</time>
      </trkpt>
      <trkpt lat="48.58568" lon="-3.1369">
        <ele>323</ele>
        <time>2016-04-03T15:15:12.1Z</time>
      </trkpt>
      <trkpt lat="48.58571" lon="-3.13688">
        <ele>323</ele>
        <time>2016-04-03T15:15:15.1Z</time>
      </trkpt>
      <trkpt lat="48.58574" lon="-3.13686">
        <ele>323</ele>
        <time>2016-04-03T15:15:18.1Z</time>
      </trkpt>
      <trkpt lat="48.58576" lon="-3.13684">
        <ele>323</ele>
        <time>2016-04-03T15:15:21.1Z</time>
      </trkpt>
      <trkpt lat="48.58579" lon="-3.13682">
        <ele>323</ele>
        <time>2016-04-03T15:15:24.1Z</time>
      </trkpt>
      <trkpt lat="48.58581" lon="-3.13683">
        <ele>323</ele>
        <time>2016-04-03T15:15:26.1Z</time>
      </trkpt>
      <trkpt lat="48.58582" lon="-3.13686">
        <ele>323</ele>
        <time>2016-04-03T15:15:29.1Z</time>
      </trkpt>
      <trkpt lat="48.58582" lon="-3.13687">
        <ele>323</ele>
        <time>2016-04-03T15:15:31.1Z</time>
      </trkpt>
      <trkpt lat="48.58582" lon="-3.13684">
        <ele>323</ele>
        <time>2016-04-03T15:15:34.1Z</time>
      </trkpt>
      <trkpt lat="48.58581" lon="-3.13682">
        <ele>323</ele>
        <time>2016-04-03T15:15:36.1Z</time>
      </trkpt>
      <trkpt lat="48.58578" lon="-3.13684">
        <ele>323</ele>
        <time>2016-04-03T15:15:39.1Z</time>
      </trkpt>
      <trkpt lat="48.58577" lon="-3.13685">
        <ele>323</ele>
        <time>2016-04-03T15:15:41.1Z</time>
      </trkpt>
      <trkpt lat="48.58575" lon="-3.13688">
        <ele>323</ele>
        <time>2016-04-03T15:15:44.1Z</time>
      </trkpt>
      <trkpt lat="48.58574" lon="-3.13689">
        <ele>323</ele>
        <time>2016-04-03T15:15:46.1Z</time>
      </trkpt>
      <trkpt lat="48.58574" lon="-3.1369">
        <ele>323</ele>
        <time>2016-04-03T15:15:49.1Z</time>
      </trkpt>
      <trkpt lat="48.58574" lon="-3.13691">
        <ele>323</ele>
        <time>2016-04-03T15:15:51.1Z</time>
      </trkpt>
      <trkpt lat="48.58574" lon="-3.13692">
        <ele>323</ele>
        <time>2016-04-03T15:15:54.1Z</time>
      </trkpt>
      <trkpt lat="48.58574" lon="-3.13692">
        <ele>323</ele>
        <time>2016-04-03T15:15:57.1Z</time>
      </trkpt>
      <trkpt lat="48.58574" lon="-3.13693">
        <ele>323</ele>
        <time>2016-04-03T15:16:00.1Z</time>
      </trkpt>
      <trkpt lat="48.58575" lon="-3.13693">
        <ele>323</ele>
        <time>2016-04-03T15:16:03.1Z</time>
      </trkpt>
      <trkpt lat="48.58575" lon="-3.13693">
        <ele>323</ele>
        <time>2016-04-03T15:16:05.1Z</time>
      </trkpt>
      <trkpt lat="48.58575" lon="-3.13694">
        <ele>323</ele>
        <time>2016-04-03T15:16:08.1Z</time>
      </trkpt>
      <trkpt lat="48.58575" lon="-3.13695">
        <ele>323</ele>
        <time>2016-04-03T15:16:10.1Z</time>
      </trkpt>
      <trkpt lat="48.58575" lon="-3.13695">
        <ele>323</ele>
        <time>2016-04-03T15:16:13.1Z</time>
      </trkpt>
      <trkpt lat="48.58575" lon="-3.13695">
        <ele>323</ele>
        <time>2016-04-03T15:16:16.1Z</time>
      </trkpt>
      <trkpt lat="48.58575" lon="-3.13695">
        <ele>322</ele>
        <time>2016-04-03T15:16:18.1Z</time>
      </trkpt>
      <trkpt lat="48.58575" lon="-3.13695">
        <ele>322</ele>
        <time>2016-04-03T15:16:23.1Z</time>
      </trkpt>
      <trkpt lat="48.58575" lon="-3.13695">
        <ele>322</ele>
        <time>2016-04-03T15:16:25.1Z</time>
      </trkpt>
      <trkpt lat="48.58575" lon="-3.13695">
        <ele>322</ele>
        <time>2016-04-03T15:16:28.1Z</time>
      </trkpt>
      <trkpt lat="48.58576" lon="-3.13695">
        <ele>322</ele>
        <time>2016-04-03T15:16:30.1Z</time>
      </trkpt>
      <trkpt lat="48.58575" lon="-3.13695">
        <ele>323</ele>
        <time>2016-04-03T15:16:33.1Z</time>
      </trkpt>
      <trkpt lat="48.58575" lon="-3.13694">
        <ele>323</ele>
        <time>2016-04-03T15:16:35.1Z</time>
      </trkpt>
      <trkpt lat="48.58575" lon="-3.13694">
        <ele>323</ele>
        <time>2016-04-03T15:16:38.1Z</time>
      </trkpt>
      <trkpt lat="48.58575" lon="-3.13695">
        <ele>323</ele>
        <time>2016-04-03T15:16:41.1Z</time>
      </trkpt>
      <trkpt lat="48.58576" lon="-3.13695">
        <ele>323</ele>
        <time>2016-04-03T15:16:43.1Z</time>
      </trkpt>
      <trkpt lat="48.58577" lon="-3.13695">
        <ele>324</ele>
        <time>2016-04-03T15:16:45.1Z</time>
      </trkpt>
      <trkpt lat="48.58577" lon="-3.13695">
        <ele>324</ele>
        <time>2016-04-03T15:16:47.1Z</time>
      </trkpt>
      <trkpt lat="48.58577" lon="-3.13696">
        <ele>323</ele>
        <time>2016-04-03T15:16:50.1Z</time>
      </trkpt>
      <trkpt lat="48.58577" lon="-3.13696">
        <ele>323</ele>
        <time>2016-04-03T15:16:53.1Z</time>
      </trkpt>
      <trkpt lat="48.58577" lon="-3.13697">
        <ele>323</ele>
        <time>2016-04-03T15:16:55.1Z</time>
      </trkpt>
      <trkpt lat="48.58577" lon="-3.13697">
        <ele>324</ele>
        <time>2016-04-03T15:16:58.1Z</time>
      </trkpt>
      <trkpt lat="48.58577" lon="-3.13698">
        <ele>324</ele>
        <time>2016-04-03T15:17:00.1Z</time>
      </trkpt>
      <trkpt lat="48.58578" lon="-3.13698">
        <ele>324</ele>
        <time>2016-04-03T15:17:04.1Z</time>
      </trkpt>
      <trkpt lat="48.58578" lon="-3.13699">
        <ele>324</ele>
        <time>2016-04-03T15:17:08.1Z</time>
      </trkpt>
      <trkpt lat="48.58578" lon="-3.13699">
        <ele>323</ele>
        <time>2016-04-03T15:17:12.1Z</time>
      </trkpt>
      <trkpt lat="48.58578" lon="-3.13699">
        <ele>324</ele>
        <time>2016-04-03T15:17:15.1Z</time>
      </trkpt>
      <trkpt lat="48.58578" lon="-3.13699">
        <ele>323</ele>
        <time>2016-04-03T15:17:17.1Z</time>
      </trkpt>
      <trkpt lat="48.58578" lon="-3.13699">
        <ele>323</ele>
        <time>2016-04-03T15:17:20.1Z</time>
      </trkpt>
      <trkpt lat="48.58578" lon="-3.13699">
        <ele>323</ele>
        <time>2016-04-03T15:17:23.1Z</time>
      </trkpt>
      <trkpt lat="48.58578" lon="-3.13699">
        <ele>323</ele>
        <time>2016-04-03T15:17:26.1Z</time>
      </trkpt>
      <trkpt lat="48.58578" lon="-3.13699">
        <ele>323</ele>
        <time>2016-04-03T15:17:29.1Z</time>
      </trkpt>
      <trkpt lat="48.58579" lon="-3.137">
        <ele>323</ele>
        <time>2016-04-03T15:17:32.1Z</time>
      </trkpt>
      <trkpt lat="48.58579" lon="-3.13699">
        <ele>323</ele>
        <time>2016-04-03T15:17:34.1Z</time>
      </trkpt>
      <trkpt lat="48.58579" lon="-3.13699">
        <ele>323</ele>
        <time>2016-04-03T15:17:38.1Z</time>
      </trkpt>
      <trkpt lat="48.58579" lon="-3.137">
        <ele>323</ele>
        <time>2016-04-03T15:17:42.1Z</time>
      </trkpt>
      <trkpt lat="48.5858" lon="-3.13699">
        <ele>323</ele>
        <time>2016-04-03T15:17:45.1Z</time>
      </trkpt>
      <trkpt lat="48.5858" lon="-3.13696">
        <ele>323</ele>
        <time>2016-04-03T15:17:47.1Z</time>
      </trkpt>
      <trkpt lat="48.58586" lon="-3.13691">
        <ele>323</ele>
        <time>2016-04-03T15:17:50.1Z</time>
      </trkpt>
      <trkpt lat="48.5859" lon="-3.13695">
        <ele>322</ele>
        <time>2016-04-03T15:17:52.1Z</time>
      </trkpt>
      <trkpt lat="48.58587" lon="-3.13703">
        <ele>322</ele>
        <time>2016-04-03T15:17:55.1Z</time>
      </trkpt>
      <trkpt lat="48.58586" lon="-3.13703">
        <ele>322</ele>
        <time>2016-04-03T15:17:58.1Z</time>
      </trkpt>
      <trkpt lat="48.58585" lon="-3.13702">
        <ele>321</ele>
        <time>2016-04-03T15:18:01.1Z</time>
      </trkpt>
      <trkpt lat="48.58585" lon="-3.13702">
        <ele>321</ele>
        <time>2016-04-03T15:18:03.1Z</time>
      </trkpt>
      <trkpt lat="48.58585" lon="-3.13701">
        <ele>321</ele>
        <time>2016-04-03T15:18:06.1Z</time>
      </trkpt>
      <trkpt lat="48.58584" lon="-3.137">
        <ele>321</ele>
        <time>2016-04-03T15:18:08.1Z</time>
      </trkpt>
      <trkpt lat="48.58584" lon="-3.13699">
        <ele>321</ele>
        <time>2016-04-03T15:18:10.1Z</time>
      </trkpt>
      <trkpt lat="48.58584" lon="-3.13699">
        <ele>321</ele>
        <time>2016-04-03T15:18:12.1Z</time>
      </trkpt>
      <trkpt lat="48.58583" lon="-3.13697">
        <ele>321</ele>
        <time>2016-04-03T15:18:15.1Z</time>
      </trkpt>
      <trkpt lat="48.58583" lon="-3.13694">
        <ele>321</ele>
        <time>2016-04-03T15:18:18.1Z</time>
      </trkpt>
      <trkpt lat="48.58583" lon="-3.13693">
        <ele>321</ele>
        <time>2016-04-03T15:18:20.1Z</time>
      </trkpt>
      <trkpt lat="48.58583" lon="-3.13688">
        <ele>321</ele>
        <time>2016-04-03T15:18:23.1Z</time>
      </trkpt>
      <trkpt lat="48.58583" lon="-3.13685">
        <ele>321</ele>
        <time>2016-04-03T15:18:25.1Z</time>
      </trkpt>
      <trkpt lat="48.58582" lon="-3.13682">
        <ele>321</ele>
        <time>2016-04-03T15:18:28.1Z</time>
      </trkpt>
      <trkpt lat="48.5858" lon="-3.13681">
        <ele>322</ele>
        <time>2016-04-03T15:18:30.1Z</time>
      </trkpt>
      <trkpt lat="48.58581" lon="-3.1368">
        <ele>322</ele>
        <time>2016-04-03T15:18:33.1Z</time>
      </trkpt>
      <trkpt lat="48.58582" lon="-3.13681">
        <ele>322</ele>
        <time>2016-04-03T15:18:36.1Z</time>
      </trkpt>
      <trkpt lat="48.58582" lon="-3.13683">
        <ele>322</ele>
        <time>2016-04-03T15:18:39.1Z</time>
      </trkpt>
      <trkpt lat="48.58583" lon="-3.13686">
        <ele>322</ele>
        <time>2016-04-03T15:18:41.1Z</time>
      </trkpt>
      <trkpt lat="48.58583" lon="-3.13687">
        <ele>321</ele>
        <time>2016-04-03T15:18:43.1Z</time>
      </trkpt>
      <trkpt lat="48.58583" lon="-3.1369">
        <ele>321</ele>
        <time>2016-04-03T15:18:46.1Z</time>
      </trkpt>
      <trkpt lat="48.58583" lon="-3.13691">
        <ele>321</ele>
        <time>2016-04-03T15:18:48.1Z</time>
      </trkpt>
      <trkpt lat="48.58582" lon="-3.13692">
        <ele>321</ele>
        <time>2016-04-03T15:18:50.1Z</time>
      </trkpt>
      <trkpt lat="48.58582" lon="-3.13692">
        <ele>321</ele>
        <time>2016-04-03T15:18:52.1Z</time>
      </trkpt>
      <trkpt lat="48.58582" lon="-3.13693">
        <ele>321</ele>
        <time>2016-04-03T15:18:55.1Z</time>
      </trkpt>
      <trkpt lat="48.58582" lon="-3.13694">
        <ele>321</ele>
        <time>2016-04-03T15:18:57.1Z</time>
      </trkpt>
      <trkpt lat="48.58582" lon="-3.13694">
        <ele>321</ele>
        <time>2016-04-03T15:19:00.1Z</time>
      </trkpt>
      <trkpt lat="48.58582" lon="-3.13695">
        <ele>321</ele>
        <time>2016-04-03T15:19:02.1Z</time>
      </trkpt>
      <trkpt lat="48.58582" lon="-3.13696">
        <ele>321</ele>
        <time>2016-04-03T15:19:05.1Z</time>
      </trkpt>
      <trkpt lat="48.58582" lon="-3.13697">
        <ele>321</ele>
        <time>2016-04-03T15:19:09.1Z</time>
      </trkpt>
      <trkpt lat="48.58582" lon="-3.13698">
        <ele>321</ele>
        <time>2016-04-03T15:19:12.1Z</time>
      </trkpt>
      <trkpt lat="48.58582" lon="-3.13699">
        <ele>321</ele>
        <time>2016-04-03T15:19:14.1Z</time>
      </trkpt>
      <trkpt lat="48.58581" lon="-3.13699">
        <ele>321</ele>
        <time>2016-04-03T15:19:16.1Z</time>
      </trkpt>
      <trkpt lat="48.58581" lon="-3.137">
        <ele>321</ele>
        <time>2016-04-03T15:19:19.1Z</time>
      </trkpt>
      <trkpt lat="48.58581" lon="-3.137">
        <ele>321</ele>
        <time>2016-04-03T15:19:21.1Z</time>
      </trkpt>
      <trkpt lat="48.58581" lon="-3.13701">
        <ele>320</ele>
        <time>2016-04-03T15:19:24.1Z</time>
      </trkpt>
      <trkpt lat="48.58581" lon="-3.13702">
        <ele>320</ele>
        <time>2016-04-03T15:19:27.1Z</time>
      </trkpt>
      <trkpt lat="48.58581" lon="-3.13703">
        <ele>320</ele>
        <time>2016-04-03T15:19:29.1Z</time>
      </trkpt>
      <trkpt lat="48.58581" lon="-3.13703">
        <ele>320</ele>
        <time>2016-04-03T15:19:31.1Z</time>
      </trkpt>
      <trkpt lat="48.58581" lon="-3.13704">
        <ele>320</ele>
        <time>2016-04-03T15:19:34.1Z</time>
      </trkpt>
      <trkpt lat="48.5858" lon="-3.13705">
        <ele>320</ele>
        <time>2016-04-03T15:19:37.1Z</time>
      </trkpt>
      <trkpt lat="48.5858" lon="-3.13705">
        <ele>321</ele>
        <time>2016-04-03T15:19:40.1Z</time>
      </trkpt>
      <trkpt lat="48.5858" lon="-3.13706">
        <ele>321</ele>
        <time>2016-04-03T15:19:42.1Z</time>
      </trkpt>
      <trkpt lat="48.58579" lon="-3.13705">
        <ele>321</ele>
        <time>2016-04-03T15:19:45.1Z</time>
      </trkpt>
      <trkpt lat="48.58579" lon="-3.13705">
        <ele>320</ele>
        <time>2016-04-03T15:19:47.1Z</time>
      </trkpt>
      <trkpt lat="48.58579" lon="-3.13705">
        <ele>320</ele>
        <time>2016-04-03T15:19:49.1Z</time>
      </trkpt>
      <trkpt lat="48.58579" lon="-3.13704">
        <ele>320</ele>
        <time>2016-04-03T15:19:52.1Z</time>
      </trkpt>
      <trkpt lat="48.58579" lon="-3.13704">
        <ele>320</ele>
        <time>2016-04-03T15:19:54.1Z</time>
      </trkpt>
      <trkpt lat="48.58579" lon="-3.13703">
        <ele>321</ele>
        <time>2016-04-03T15:19:57.1Z</time>
      </trkpt>
      <trkpt lat="48.58579" lon="-3.13703">
        <ele>321</ele>
        <time>2016-04-03T15:20:00.1Z</time>
      </trkpt>
      <trkpt lat="48.58579" lon="-3.13703">
        <ele>321</ele>
        <time>2016-04-03T15:20:02.1Z</time>
      </trkpt>
      <trkpt lat="48.5858" lon="-3.13704">
        <ele>321</ele>
        <time>2016-04-03T15:20:05.1Z</time>
      </trkpt>
      <trkpt lat="48.5858" lon="-3.13703">
        <ele>321</ele>
        <time>2016-04-03T15:20:07.1Z</time>
      </trkpt>
      <trkpt lat="48.5858" lon="-3.13703">
        <ele>321</ele>
        <time>2016-04-03T15:20:10.1Z</time>
      </trkpt>
      <trkpt lat="48.5858" lon="-3.13701">
        <ele>320</ele>
        <time>2016-04-03T15:20:13.1Z</time>
      </trkpt>
      <trkpt lat="48.58583" lon="-3.13699">
        <ele>321</ele>
        <time>2016-04-03T15:20:16.1Z</time>
      </trkpt>
      <trkpt lat="48.58586" lon="-3.13696">
        <ele>321</ele>
        <time>2016-04-03T15:20:19.1Z</time>
      </trkpt>
      <trkpt lat="48.58587" lon="-3.13694">
        <ele>321</ele>
        <time>2016-04-03T15:20:21.1Z</time>
      </trkpt>
      <trkpt lat="48.58587" lon="-3.13693">
        <ele>321</ele>
        <time>2016-04-03T15:20:24.1Z</time>
      </trkpt>
      <trkpt lat="48.58586" lon="-3.13693">
        <ele>321</ele>
        <time>2016-04-03T15:20:26.1Z</time>
      </trkpt>
      <trkpt lat="48.58585" lon="-3.13694">
        <ele>321</ele>
        <time>2016-04-03T15:20:28.1Z</time>
      </trkpt>
      <trkpt lat="48.58583" lon="-3.13695">
        <ele>321</ele>
        <time>2016-04-03T15:20:31.1Z</time>
      </trkpt>
      <trkpt lat="48.58582" lon="-3.13696">
        <ele>320</ele>
        <time>2016-04-03T15:20:33.1Z</time>
      </trkpt>
      <trkpt lat="48.5858" lon="-3.13698">
        <ele>320</ele>
        <time>2016-04-03T15:20:36.1Z</time>
      </trkpt>
      <trkpt lat="48.5858" lon="-3.13699">
        <ele>320</ele>
        <time>2016-04-03T15:20:39.1Z</time>
      </trkpt>
      <trkpt lat="48.58581" lon="-3.137">
        <ele>320</ele>
        <time>2016-04-03T15:20:41.1Z</time>
      </trkpt>
      <trkpt lat="48.58581" lon="-3.137">
        <ele>320</ele>
        <time>2016-04-03T15:20:44.1Z</time>
      </trkpt>
      <trkpt lat="48.58581" lon="-3.13701">
        <ele>320</ele>
        <time>2016-04-03T15:20:48.1Z</time>
      </trkpt>
      <trkpt lat="48.58582" lon="-3.13701">
        <ele>321</ele>
        <time>2016-04-03T15:20:50.1Z</time>
      </trkpt>
      <trkpt lat="48.58582" lon="-3.13701">
        <ele>321</ele>
        <time>2016-04-03T15:20:52.1Z</time>
      </trkpt>
      <trkpt lat="48.58583" lon="-3.137">
        <ele>321</ele>
        <time>2016-04-03T15:20:55.1Z</time>
      </trkpt>
      <trkpt lat="48.58583" lon="-3.137">
        <ele>320</ele>
        <time>2016-04-03T15:20:58.1Z</time>
      </trkpt>
      <trkpt lat="48.58584" lon="-3.13699">
        <ele>320</ele>
        <time>2016-04-03T15:21:00.1Z</time>
      </trkpt>
      <trkpt lat="48.58584" lon="-3.13699">
        <ele>320</ele>
        <time>2016-04-03T15:21:03.1Z</time>
      </trkpt>
      <trkpt lat="48.58585" lon="-3.13699">
        <ele>320</ele>
        <time>2016-04-03T15:21:05.1Z</time>
      </trkpt>
      <trkpt lat="48.58586" lon="-3.13698">
        <ele>320</ele>
        <time>2016-04-03T15:21:08.1Z</time>
      </trkpt>
      <trkpt lat="48.58586" lon="-3.13695">
        <ele>320</ele>
        <time>2016-04-03T15:21:10.1Z</time>
      </trkpt>
      <trkpt lat="48.58587" lon="-3.13692">
        <ele>320</ele>
        <time>2016-04-03T15:21:13.1Z</time>
      </trkpt>
      <trkpt lat="48.58588" lon="-3.1369">
        <ele>320</ele>
        <time>2016-04-03T15:21:15.1Z</time>
      </trkpt>
      <trkpt lat="48.58589" lon="-3.13688">
        <ele>320</ele>
        <time>2016-04-03T15:21:18.1Z</time>
      </trkpt>
      <trkpt lat="48.5859" lon="-3.13687">
        <ele>320</ele>
        <time>2016-04-03T15:21:21.1Z</time>
      </trkpt>
      <trkpt lat="48.58592" lon="-3.13686">
        <ele>320</ele>
        <time>2016-04-03T15:21:23.1Z</time>
      </trkpt>
      <trkpt lat="48.58593" lon="-3.13685">
        <ele>320</ele>
        <time>2016-04-03T15:21:25.1Z</time>
      </trkpt>
      <trkpt lat="48.58595" lon="-3.13685">
        <ele>320</ele>
        <time>2016-04-03T15:21:28.1Z</time>
      </trkpt>
      <trkpt lat="48.58597" lon="-3.13686">
        <ele>320</ele>
        <time>2016-04-03T15:21:31.1Z</time>
      </trkpt>
      <trkpt lat="48.58599" lon="-3.13687">
        <ele>319</ele>
        <time>2016-04-03T15:21:33.1Z</time>
      </trkpt>
      <trkpt lat="48.58599" lon="-3.13687">
        <ele>319</ele>
        <time>2016-04-03T15:21:34.1Z</time>
      </trkpt>
    </trkseg>
  </trk>
</gpx>